<?xml version="1.0" encoding="UTF-8" standalone="no" ?>
<gpx xmlns="http://www.topografix.com/GPX/1/1" xmlns:xsi="http://www.w3.org/2001/XMLSchema-instance" xsi:schemaLocation="http://www.topografix.com/GPX/1/1 http://www.topografix.com/GPX/1/1/gpx.xsd" version="1.1" creator="VisuGPX - https://www.visugpx.com">
  <metadata>
    <name>Circuit 028</name>
    <desc><![CDATA[Sanary, Le Plan, La Ciotat, Ceyreste, le Grand Caunet, Roquefort (entrée), Pas d\'Oullier, Belles Filles, La Ciotat, St Cyr, Les Vignes,
Sanary. (028)]]></desc>
  </metadata>
  <trk>
    <name><![CDATA[028]]></name>
    <trkseg>
      <trkpt lat="43.11786" lon="5.8014">
        <ele>-24.86</ele>
        <time>2012-07-19T06:49:03Z</time>
      </trkpt>
      <trkpt lat="43.11786" lon="5.80141">
        <ele>-24.86</ele>
        <time>2012-07-19T06:49:04Z</time>
      </trkpt>
      <trkpt lat="43.11777" lon="5.80156">
        <ele>-25.34</ele>
        <time>2012-07-19T06:49:13Z</time>
      </trkpt>
      <trkpt lat="43.11771" lon="5.80141">
        <ele>-25.34</ele>
        <time>2012-07-19T06:49:20Z</time>
      </trkpt>
      <trkpt lat="43.11759" lon="5.80084">
        <ele>-24.86</ele>
        <time>2012-07-19T06:49:36Z</time>
      </trkpt>
      <trkpt lat="43.11746" lon="5.80062">
        <ele>-25.34</ele>
        <time>2012-07-19T06:49:45Z</time>
      </trkpt>
      <trkpt lat="43.11729" lon="5.80038">
        <ele>-25.34</ele>
        <time>2012-07-19T06:49:53Z</time>
      </trkpt>
      <trkpt lat="43.11737" lon="5.80027">
        <ele>-25.34</ele>
        <time>2012-07-19T06:49:59Z</time>
      </trkpt>
      <trkpt lat="43.11759" lon="5.80018">
        <ele>-24.86</ele>
        <time>2012-07-19T06:50:06Z</time>
      </trkpt>
      <trkpt lat="43.11763" lon="5.79992">
        <ele>-24.38</ele>
        <time>2012-07-19T06:50:16Z</time>
      </trkpt>
      <trkpt lat="43.11761" lon="5.79987">
        <ele>-24.38</ele>
        <time>2012-07-19T06:50:17Z</time>
      </trkpt>
      <trkpt lat="43.11757" lon="5.79976">
        <ele>-20.53</ele>
        <time>2012-07-19T06:50:19Z</time>
      </trkpt>
      <trkpt lat="43.11753" lon="5.79957">
        <ele>-16.69</ele>
        <time>2012-07-19T06:50:22Z</time>
      </trkpt>
      <trkpt lat="43.11749" lon="5.79939">
        <ele>-13.32</ele>
        <time>2012-07-19T06:50:25Z</time>
      </trkpt>
      <trkpt lat="43.11745" lon="5.79921">
        <ele>-9.48</ele>
        <time>2012-07-19T06:50:28Z</time>
      </trkpt>
      <trkpt lat="43.11741" lon="5.79902">
        <ele>-6.11</ele>
        <time>2012-07-19T06:50:31Z</time>
      </trkpt>
      <trkpt lat="43.11737" lon="5.79883">
        <ele>-3.23</ele>
        <time>2012-07-19T06:50:34Z</time>
      </trkpt>
      <trkpt lat="43.11734" lon="5.79856">
        <ele>0.14</ele>
        <time>2012-07-19T06:50:38Z</time>
      </trkpt>
      <trkpt lat="43.11733" lon="5.79829">
        <ele>3.98</ele>
        <time>2012-07-19T06:50:42Z</time>
      </trkpt>
      <trkpt lat="43.11735" lon="5.7981">
        <ele>5.42</ele>
        <time>2012-07-19T06:50:45Z</time>
      </trkpt>
      <trkpt lat="43.11738" lon="5.79792">
        <ele>7.35</ele>
        <time>2012-07-19T06:50:48Z</time>
      </trkpt>
      <trkpt lat="43.11741" lon="5.79786">
        <ele>8.31</ele>
        <time>2012-07-19T06:50:49Z</time>
      </trkpt>
      <trkpt lat="43.11744" lon="5.79781">
        <ele>8.79</ele>
        <time>2012-07-19T06:50:50Z</time>
      </trkpt>
      <trkpt lat="43.11748" lon="5.79776">
        <ele>9.75</ele>
        <time>2012-07-19T06:50:51Z</time>
      </trkpt>
      <trkpt lat="43.11752" lon="5.79771">
        <ele>10.71</ele>
        <time>2012-07-19T06:50:52Z</time>
      </trkpt>
      <trkpt lat="43.11756" lon="5.79767">
        <ele>11.19</ele>
        <time>2012-07-19T06:50:53Z</time>
      </trkpt>
      <trkpt lat="43.11761" lon="5.79764">
        <ele>11.19</ele>
        <time>2012-07-19T06:50:54Z</time>
      </trkpt>
      <trkpt lat="43.11765" lon="5.79761">
        <ele>11.19</ele>
        <time>2012-07-19T06:50:55Z</time>
      </trkpt>
      <trkpt lat="43.1177" lon="5.79758">
        <ele>12.15</ele>
        <time>2012-07-19T06:50:56Z</time>
      </trkpt>
      <trkpt lat="43.11774" lon="5.79755">
        <ele>12.63</ele>
        <time>2012-07-19T06:50:57Z</time>
      </trkpt>
      <trkpt lat="43.11779" lon="5.79753">
        <ele>13.12</ele>
        <time>2012-07-19T06:50:58Z</time>
      </trkpt>
      <trkpt lat="43.11806" lon="5.79738">
        <ele>16</ele>
        <time>2012-07-19T06:51:04Z</time>
      </trkpt>
      <trkpt lat="43.11856" lon="5.7971">
        <ele>19.84</ele>
        <time>2012-07-19T06:51:15Z</time>
      </trkpt>
      <trkpt lat="43.11865" lon="5.79705">
        <ele>20.32</ele>
        <time>2012-07-19T06:51:17Z</time>
      </trkpt>
      <trkpt lat="43.11879" lon="5.79697">
        <ele>21.77</ele>
        <time>2012-07-19T06:51:20Z</time>
      </trkpt>
      <trkpt lat="43.11883" lon="5.79695">
        <ele>21.77</ele>
        <time>2012-07-19T06:51:21Z</time>
      </trkpt>
      <trkpt lat="43.11931" lon="5.79664">
        <ele>25.13</ele>
        <time>2012-07-19T06:51:33Z</time>
      </trkpt>
      <trkpt lat="43.11978" lon="5.79634">
        <ele>28.02</ele>
        <time>2012-07-19T06:51:46Z</time>
      </trkpt>
      <trkpt lat="43.12022" lon="5.79597">
        <ele>30.9</ele>
        <time>2012-07-19T06:51:59Z</time>
      </trkpt>
      <trkpt lat="43.1203" lon="5.79585">
        <ele>30.9</ele>
        <time>2012-07-19T06:52:02Z</time>
      </trkpt>
      <trkpt lat="43.12058" lon="5.79525">
        <ele>33.78</ele>
        <time>2012-07-19T06:52:15Z</time>
      </trkpt>
      <trkpt lat="43.12092" lon="5.79515">
        <ele>36.19</ele>
        <time>2012-07-19T06:52:25Z</time>
      </trkpt>
      <trkpt lat="43.12113" lon="5.79552">
        <ele>38.59</ele>
        <time>2012-07-19T06:52:35Z</time>
      </trkpt>
      <trkpt lat="43.12119" lon="5.79635">
        <ele>41.95</ele>
        <time>2012-07-19T06:52:52Z</time>
      </trkpt>
      <trkpt lat="43.12127" lon="5.79697">
        <ele>44.84</ele>
        <time>2012-07-19T06:53:05Z</time>
      </trkpt>
      <trkpt lat="43.12151" lon="5.7972">
        <ele>46.28</ele>
        <time>2012-07-19T06:53:13Z</time>
      </trkpt>
      <trkpt lat="43.12155" lon="5.7972">
        <ele>46.28</ele>
        <time>2012-07-19T06:53:14Z</time>
      </trkpt>
      <trkpt lat="43.12159" lon="5.79718">
        <ele>46.28</ele>
        <time>2012-07-19T06:53:15Z</time>
      </trkpt>
      <trkpt lat="43.12162" lon="5.79716">
        <ele>46.76</ele>
        <time>2012-07-19T06:53:16Z</time>
      </trkpt>
      <trkpt lat="43.12165" lon="5.79713">
        <ele>46.76</ele>
        <time>2012-07-19T06:53:17Z</time>
      </trkpt>
      <trkpt lat="43.12166" lon="5.79708">
        <ele>46.76</ele>
        <time>2012-07-19T06:53:18Z</time>
      </trkpt>
      <trkpt lat="43.12166" lon="5.79702">
        <ele>46.76</ele>
        <time>2012-07-19T06:53:19Z</time>
      </trkpt>
      <trkpt lat="43.12166" lon="5.79696">
        <ele>46.76</ele>
        <time>2012-07-19T06:53:20Z</time>
      </trkpt>
      <trkpt lat="43.12166" lon="5.79671">
        <ele>47.24</ele>
        <time>2012-07-19T06:53:24Z</time>
      </trkpt>
      <trkpt lat="43.12169" lon="5.79643">
        <ele>47.72</ele>
        <time>2012-07-19T06:53:29Z</time>
      </trkpt>
      <trkpt lat="43.1217" lon="5.79637">
        <ele>48.2</ele>
        <time>2012-07-19T06:53:30Z</time>
      </trkpt>
      <trkpt lat="43.12176" lon="5.79621">
        <ele>48.2</ele>
        <time>2012-07-19T06:53:33Z</time>
      </trkpt>
      <trkpt lat="43.12179" lon="5.79617">
        <ele>48.2</ele>
        <time>2012-07-19T06:53:34Z</time>
      </trkpt>
      <trkpt lat="43.1222" lon="5.79548">
        <ele>51.09</ele>
        <time>2012-07-19T06:53:50Z</time>
      </trkpt>
      <trkpt lat="43.12234" lon="5.79476">
        <ele>53.49</ele>
        <time>2012-07-19T06:54:04Z</time>
      </trkpt>
      <trkpt lat="43.12241" lon="5.79398">
        <ele>55.89</ele>
        <time>2012-07-19T06:54:19Z</time>
      </trkpt>
      <trkpt lat="43.12245" lon="5.7937">
        <ele>56.86</ele>
        <time>2012-07-19T06:54:24Z</time>
      </trkpt>
      <trkpt lat="43.12278" lon="5.79314">
        <ele>59.26</ele>
        <time>2012-07-19T06:54:37Z</time>
      </trkpt>
      <trkpt lat="43.12284" lon="5.79307">
        <ele>59.74</ele>
        <time>2012-07-19T06:54:39Z</time>
      </trkpt>
      <trkpt lat="43.12333" lon="5.79255">
        <ele>58.78</ele>
        <time>2012-07-19T06:54:52Z</time>
      </trkpt>
      <trkpt lat="43.12379" lon="5.79186">
        <ele>55.89</ele>
        <time>2012-07-19T06:55:02Z</time>
      </trkpt>
      <trkpt lat="43.12384" lon="5.79181">
        <ele>55.89</ele>
        <time>2012-07-19T06:55:03Z</time>
      </trkpt>
      <trkpt lat="43.12389" lon="5.79178">
        <ele>55.41</ele>
        <time>2012-07-19T06:55:04Z</time>
      </trkpt>
      <trkpt lat="43.12395" lon="5.79176">
        <ele>54.45</ele>
        <time>2012-07-19T06:55:05Z</time>
      </trkpt>
      <trkpt lat="43.12401" lon="5.79174">
        <ele>54.93</ele>
        <time>2012-07-19T06:55:06Z</time>
      </trkpt>
      <trkpt lat="43.12406" lon="5.79171">
        <ele>54.45</ele>
        <time>2012-07-19T06:55:07Z</time>
      </trkpt>
      <trkpt lat="43.12411" lon="5.79165">
        <ele>53.97</ele>
        <time>2012-07-19T06:55:08Z</time>
      </trkpt>
      <trkpt lat="43.12412" lon="5.79157">
        <ele>53.97</ele>
        <time>2012-07-19T06:55:09Z</time>
      </trkpt>
      <trkpt lat="43.12412" lon="5.79149">
        <ele>54.45</ele>
        <time>2012-07-19T06:55:10Z</time>
      </trkpt>
      <trkpt lat="43.12411" lon="5.7914">
        <ele>53.97</ele>
        <time>2012-07-19T06:55:11Z</time>
      </trkpt>
      <trkpt lat="43.12409" lon="5.79131">
        <ele>53.97</ele>
        <time>2012-07-19T06:55:12Z</time>
      </trkpt>
      <trkpt lat="43.12409" lon="5.79122">
        <ele>53.49</ele>
        <time>2012-07-19T06:55:13Z</time>
      </trkpt>
      <trkpt lat="43.1241" lon="5.79113">
        <ele>53.49</ele>
        <time>2012-07-19T06:55:14Z</time>
      </trkpt>
      <trkpt lat="43.12411" lon="5.79103">
        <ele>53.49</ele>
        <time>2012-07-19T06:55:15Z</time>
      </trkpt>
      <trkpt lat="43.12413" lon="5.79094">
        <ele>53.01</ele>
        <time>2012-07-19T06:55:16Z</time>
      </trkpt>
      <trkpt lat="43.12415" lon="5.79085">
        <ele>52.53</ele>
        <time>2012-07-19T06:55:17Z</time>
      </trkpt>
      <trkpt lat="43.12429" lon="5.79046">
        <ele>52.05</ele>
        <time>2012-07-19T06:55:25Z</time>
      </trkpt>
      <trkpt lat="43.12472" lon="5.78939">
        <ele>48.68</ele>
        <time>2012-07-19T06:55:39Z</time>
      </trkpt>
      <trkpt lat="43.12497" lon="5.78892">
        <ele>47.72</ele>
        <time>2012-07-19T06:55:45Z</time>
      </trkpt>
      <trkpt lat="43.12503" lon="5.78885">
        <ele>47.24</ele>
        <time>2012-07-19T06:55:46Z</time>
      </trkpt>
      <trkpt lat="43.12509" lon="5.78879">
        <ele>46.76</ele>
        <time>2012-07-19T06:55:47Z</time>
      </trkpt>
      <trkpt lat="43.12515" lon="5.78874">
        <ele>46.76</ele>
        <time>2012-07-19T06:55:48Z</time>
      </trkpt>
      <trkpt lat="43.12522" lon="5.7887">
        <ele>46.76</ele>
        <time>2012-07-19T06:55:49Z</time>
      </trkpt>
      <trkpt lat="43.12578" lon="5.78834">
        <ele>45.32</ele>
        <time>2012-07-19T06:55:57Z</time>
      </trkpt>
      <trkpt lat="43.12585" lon="5.78828">
        <ele>45.8</ele>
        <time>2012-07-19T06:55:58Z</time>
      </trkpt>
      <trkpt lat="43.12593" lon="5.78823">
        <ele>45.32</ele>
        <time>2012-07-19T06:55:59Z</time>
      </trkpt>
      <trkpt lat="43.12607" lon="5.78811">
        <ele>44.84</ele>
        <time>2012-07-19T06:56:01Z</time>
      </trkpt>
      <trkpt lat="43.12653" lon="5.78751">
        <ele>41.95</ele>
        <time>2012-07-19T06:56:08Z</time>
      </trkpt>
      <trkpt lat="43.12695" lon="5.78649">
        <ele>38.11</ele>
        <time>2012-07-19T06:56:17Z</time>
      </trkpt>
      <trkpt lat="43.12699" lon="5.78637">
        <ele>37.63</ele>
        <time>2012-07-19T06:56:18Z</time>
      </trkpt>
      <trkpt lat="43.12757" lon="5.78505">
        <ele>38.59</ele>
        <time>2012-07-19T06:56:31Z</time>
      </trkpt>
      <trkpt lat="43.12795" lon="5.78458">
        <ele>36.67</ele>
        <time>2012-07-19T06:56:37Z</time>
      </trkpt>
      <trkpt lat="43.12849" lon="5.78407">
        <ele>33.3</ele>
        <time>2012-07-19T06:56:44Z</time>
      </trkpt>
      <trkpt lat="43.1292" lon="5.78338">
        <ele>29.94</ele>
        <time>2012-07-19T06:56:53Z</time>
      </trkpt>
      <trkpt lat="43.13024" lon="5.78236">
        <ele>30.9</ele>
        <time>2012-07-19T06:57:08Z</time>
      </trkpt>
      <trkpt lat="43.13132" lon="5.78138">
        <ele>34.26</ele>
        <time>2012-07-19T06:57:27Z</time>
      </trkpt>
      <trkpt lat="43.13229" lon="5.78078">
        <ele>34.26</ele>
        <time>2012-07-19T06:57:43Z</time>
      </trkpt>
      <trkpt lat="43.1331" lon="5.78036">
        <ele>30.9</ele>
        <time>2012-07-19T06:57:54Z</time>
      </trkpt>
      <trkpt lat="43.13319" lon="5.78033">
        <ele>30.42</ele>
        <time>2012-07-19T06:57:55Z</time>
      </trkpt>
      <trkpt lat="43.13401" lon="5.77989">
        <ele>27.53</ele>
        <time>2012-07-19T06:58:05Z</time>
      </trkpt>
      <trkpt lat="43.13456" lon="5.77943">
        <ele>24.65</ele>
        <time>2012-07-19T06:58:12Z</time>
      </trkpt>
      <trkpt lat="43.13487" lon="5.77919">
        <ele>23.69</ele>
        <time>2012-07-19T06:58:16Z</time>
      </trkpt>
      <trkpt lat="43.13531" lon="5.77878">
        <ele>22.25</ele>
        <time>2012-07-19T06:58:22Z</time>
      </trkpt>
      <trkpt lat="43.13537" lon="5.7787">
        <ele>22.25</ele>
        <time>2012-07-19T06:58:23Z</time>
      </trkpt>
      <trkpt lat="43.13616" lon="5.7776">
        <ele>19.84</ele>
        <time>2012-07-19T06:58:36Z</time>
      </trkpt>
      <trkpt lat="43.1369" lon="5.77657">
        <ele>16</ele>
        <time>2012-07-19T06:58:48Z</time>
      </trkpt>
      <trkpt lat="43.13696" lon="5.77648">
        <ele>15.52</ele>
        <time>2012-07-19T06:58:49Z</time>
      </trkpt>
      <trkpt lat="43.13778" lon="5.77499">
        <ele>12.63</ele>
        <time>2012-07-19T06:59:05Z</time>
      </trkpt>
      <trkpt lat="43.13835" lon="5.77359">
        <ele>12.63</ele>
        <time>2012-07-19T06:59:21Z</time>
      </trkpt>
      <trkpt lat="43.13884" lon="5.77192">
        <ele>12.15</ele>
        <time>2012-07-19T06:59:39Z</time>
      </trkpt>
      <trkpt lat="43.13923" lon="5.77054">
        <ele>13.6</ele>
        <time>2012-07-19T06:59:55Z</time>
      </trkpt>
      <trkpt lat="43.13926" lon="5.77047">
        <ele>13.6</ele>
        <time>2012-07-19T06:59:56Z</time>
      </trkpt>
      <trkpt lat="43.13931" lon="5.77041">
        <ele>13.6</ele>
        <time>2012-07-19T06:59:57Z</time>
      </trkpt>
      <trkpt lat="43.13937" lon="5.77039">
        <ele>13.6</ele>
        <time>2012-07-19T06:59:58Z</time>
      </trkpt>
      <trkpt lat="43.13943" lon="5.7704">
        <ele>14.08</ele>
        <time>2012-07-19T06:59:59Z</time>
      </trkpt>
      <trkpt lat="43.13949" lon="5.77041">
        <ele>14.08</ele>
        <time>2012-07-19T07:00:00Z</time>
      </trkpt>
      <trkpt lat="43.13956" lon="5.77044">
        <ele>14.08</ele>
        <time>2012-07-19T07:00:01Z</time>
      </trkpt>
      <trkpt lat="43.13962" lon="5.77046">
        <ele>14.56</ele>
        <time>2012-07-19T07:00:02Z</time>
      </trkpt>
      <trkpt lat="43.13968" lon="5.7705">
        <ele>14.08</ele>
        <time>2012-07-19T07:00:03Z</time>
      </trkpt>
      <trkpt lat="43.13973" lon="5.77056">
        <ele>14.08</ele>
        <time>2012-07-19T07:00:04Z</time>
      </trkpt>
      <trkpt lat="43.13978" lon="5.77062">
        <ele>14.08</ele>
        <time>2012-07-19T07:00:05Z</time>
      </trkpt>
      <trkpt lat="43.13983" lon="5.77069">
        <ele>14.08</ele>
        <time>2012-07-19T07:00:06Z</time>
      </trkpt>
      <trkpt lat="43.13987" lon="5.77077">
        <ele>14.08</ele>
        <time>2012-07-19T07:00:07Z</time>
      </trkpt>
      <trkpt lat="43.13991" lon="5.77085">
        <ele>13.6</ele>
        <time>2012-07-19T07:00:08Z</time>
      </trkpt>
      <trkpt lat="43.1402" lon="5.7714">
        <ele>13.6</ele>
        <time>2012-07-19T07:00:15Z</time>
      </trkpt>
      <trkpt lat="43.14026" lon="5.77146">
        <ele>14.08</ele>
        <time>2012-07-19T07:00:16Z</time>
      </trkpt>
      <trkpt lat="43.14032" lon="5.77151">
        <ele>14.08</ele>
        <time>2012-07-19T07:00:17Z</time>
      </trkpt>
      <trkpt lat="43.14038" lon="5.77156">
        <ele>14.08</ele>
        <time>2012-07-19T07:00:18Z</time>
      </trkpt>
      <trkpt lat="43.14044" lon="5.77159">
        <ele>14.08</ele>
        <time>2012-07-19T07:00:19Z</time>
      </trkpt>
      <trkpt lat="43.14051" lon="5.77161">
        <ele>14.08</ele>
        <time>2012-07-19T07:00:20Z</time>
      </trkpt>
      <trkpt lat="43.14058" lon="5.77163">
        <ele>14.08</ele>
        <time>2012-07-19T07:00:21Z</time>
      </trkpt>
      <trkpt lat="43.14065" lon="5.77164">
        <ele>14.08</ele>
        <time>2012-07-19T07:00:22Z</time>
      </trkpt>
      <trkpt lat="43.14072" lon="5.77163">
        <ele>14.08</ele>
        <time>2012-07-19T07:00:23Z</time>
      </trkpt>
      <trkpt lat="43.14079" lon="5.77162">
        <ele>14.08</ele>
        <time>2012-07-19T07:00:24Z</time>
      </trkpt>
      <trkpt lat="43.14086" lon="5.7716">
        <ele>14.08</ele>
        <time>2012-07-19T07:00:25Z</time>
      </trkpt>
      <trkpt lat="43.14093" lon="5.77157">
        <ele>14.56</ele>
        <time>2012-07-19T07:00:26Z</time>
      </trkpt>
      <trkpt lat="43.14099" lon="5.77153">
        <ele>14.08</ele>
        <time>2012-07-19T07:00:27Z</time>
      </trkpt>
      <trkpt lat="43.14105" lon="5.77148">
        <ele>14.08</ele>
        <time>2012-07-19T07:00:28Z</time>
      </trkpt>
      <trkpt lat="43.14111" lon="5.77142">
        <ele>14.08</ele>
        <time>2012-07-19T07:00:29Z</time>
      </trkpt>
      <trkpt lat="43.14116" lon="5.77136">
        <ele>14.08</ele>
        <time>2012-07-19T07:00:30Z</time>
      </trkpt>
      <trkpt lat="43.14121" lon="5.77129">
        <ele>14.08</ele>
        <time>2012-07-19T07:00:31Z</time>
      </trkpt>
      <trkpt lat="43.14125" lon="5.77122">
        <ele>14.08</ele>
        <time>2012-07-19T07:00:32Z</time>
      </trkpt>
      <trkpt lat="43.1413" lon="5.77114">
        <ele>14.08</ele>
        <time>2012-07-19T07:00:33Z</time>
      </trkpt>
      <trkpt lat="43.14134" lon="5.77106">
        <ele>14.08</ele>
        <time>2012-07-19T07:00:34Z</time>
      </trkpt>
      <trkpt lat="43.14138" lon="5.77097">
        <ele>13.6</ele>
        <time>2012-07-19T07:00:35Z</time>
      </trkpt>
      <trkpt lat="43.1419" lon="5.76959">
        <ele>14.56</ele>
        <time>2012-07-19T07:00:51Z</time>
      </trkpt>
      <trkpt lat="43.14212" lon="5.76897">
        <ele>16</ele>
        <time>2012-07-19T07:00:59Z</time>
      </trkpt>
      <trkpt lat="43.14215" lon="5.76891">
        <ele>16</ele>
        <time>2012-07-19T07:01:00Z</time>
      </trkpt>
      <trkpt lat="43.14219" lon="5.76887">
        <ele>16.96</ele>
        <time>2012-07-19T07:01:01Z</time>
      </trkpt>
      <trkpt lat="43.14223" lon="5.76885">
        <ele>16.96</ele>
        <time>2012-07-19T07:01:02Z</time>
      </trkpt>
      <trkpt lat="43.14228" lon="5.76883">
        <ele>16.96</ele>
        <time>2012-07-19T07:01:03Z</time>
      </trkpt>
      <trkpt lat="43.14233" lon="5.76883">
        <ele>16.96</ele>
        <time>2012-07-19T07:01:04Z</time>
      </trkpt>
      <trkpt lat="43.14238" lon="5.76881">
        <ele>16.96</ele>
        <time>2012-07-19T07:01:05Z</time>
      </trkpt>
      <trkpt lat="43.14244" lon="5.76878">
        <ele>16.96</ele>
        <time>2012-07-19T07:01:06Z</time>
      </trkpt>
      <trkpt lat="43.14249" lon="5.76874">
        <ele>16.96</ele>
        <time>2012-07-19T07:01:07Z</time>
      </trkpt>
      <trkpt lat="43.14254" lon="5.76869">
        <ele>16.96</ele>
        <time>2012-07-19T07:01:08Z</time>
      </trkpt>
      <trkpt lat="43.14258" lon="5.76863">
        <ele>16.96</ele>
        <time>2012-07-19T07:01:09Z</time>
      </trkpt>
      <trkpt lat="43.1426" lon="5.76856">
        <ele>16.96</ele>
        <time>2012-07-19T07:01:10Z</time>
      </trkpt>
      <trkpt lat="43.14262" lon="5.76847">
        <ele>17.44</ele>
        <time>2012-07-19T07:01:11Z</time>
      </trkpt>
      <trkpt lat="43.14263" lon="5.76839">
        <ele>17.44</ele>
        <time>2012-07-19T07:01:12Z</time>
      </trkpt>
      <trkpt lat="43.14264" lon="5.7683">
        <ele>17.44</ele>
        <time>2012-07-19T07:01:13Z</time>
      </trkpt>
      <trkpt lat="43.14266" lon="5.76821">
        <ele>16.96</ele>
        <time>2012-07-19T07:01:14Z</time>
      </trkpt>
      <trkpt lat="43.1427" lon="5.76813">
        <ele>16.96</ele>
        <time>2012-07-19T07:01:15Z</time>
      </trkpt>
      <trkpt lat="43.14275" lon="5.76807">
        <ele>16</ele>
        <time>2012-07-19T07:01:16Z</time>
      </trkpt>
      <trkpt lat="43.14281" lon="5.76801">
        <ele>16.48</ele>
        <time>2012-07-19T07:01:17Z</time>
      </trkpt>
      <trkpt lat="43.14287" lon="5.76796">
        <ele>16.96</ele>
        <time>2012-07-19T07:01:18Z</time>
      </trkpt>
      <trkpt lat="43.14293" lon="5.76792">
        <ele>16.48</ele>
        <time>2012-07-19T07:01:19Z</time>
      </trkpt>
      <trkpt lat="43.14312" lon="5.76781">
        <ele>16.96</ele>
        <time>2012-07-19T07:01:22Z</time>
      </trkpt>
      <trkpt lat="43.14399" lon="5.76776">
        <ele>17.44</ele>
        <time>2012-07-19T07:01:35Z</time>
      </trkpt>
      <trkpt lat="43.14495" lon="5.76795">
        <ele>17.92</ele>
        <time>2012-07-19T07:01:50Z</time>
      </trkpt>
      <trkpt lat="43.14507" lon="5.76798">
        <ele>18.4</ele>
        <time>2012-07-19T07:01:52Z</time>
      </trkpt>
      <trkpt lat="43.14513" lon="5.768">
        <ele>18.4</ele>
        <time>2012-07-19T07:01:53Z</time>
      </trkpt>
      <trkpt lat="43.14519" lon="5.76802">
        <ele>18.4</ele>
        <time>2012-07-19T07:01:54Z</time>
      </trkpt>
      <trkpt lat="43.14526" lon="5.76802">
        <ele>18.4</ele>
        <time>2012-07-19T07:01:55Z</time>
      </trkpt>
      <trkpt lat="43.14531" lon="5.76797">
        <ele>18.88</ele>
        <time>2012-07-19T07:01:56Z</time>
      </trkpt>
      <trkpt lat="43.14536" lon="5.76792">
        <ele>18.88</ele>
        <time>2012-07-19T07:01:57Z</time>
      </trkpt>
      <trkpt lat="43.14541" lon="5.76786">
        <ele>18.88</ele>
        <time>2012-07-19T07:01:58Z</time>
      </trkpt>
      <trkpt lat="43.14546" lon="5.76781">
        <ele>19.36</ele>
        <time>2012-07-19T07:01:59Z</time>
      </trkpt>
      <trkpt lat="43.14552" lon="5.76776">
        <ele>19.36</ele>
        <time>2012-07-19T07:02:00Z</time>
      </trkpt>
      <trkpt lat="43.14562" lon="5.76764">
        <ele>19.36</ele>
        <time>2012-07-19T07:02:02Z</time>
      </trkpt>
      <trkpt lat="43.14566" lon="5.76757">
        <ele>19.36</ele>
        <time>2012-07-19T07:02:03Z</time>
      </trkpt>
      <trkpt lat="43.14581" lon="5.76729">
        <ele>19.84</ele>
        <time>2012-07-19T07:02:07Z</time>
      </trkpt>
      <trkpt lat="43.14584" lon="5.76721">
        <ele>20.32</ele>
        <time>2012-07-19T07:02:08Z</time>
      </trkpt>
      <trkpt lat="43.14614" lon="5.76613">
        <ele>20.81</ele>
        <time>2012-07-19T07:02:21Z</time>
      </trkpt>
      <trkpt lat="43.14618" lon="5.76605">
        <ele>20.81</ele>
        <time>2012-07-19T07:02:22Z</time>
      </trkpt>
      <trkpt lat="43.14621" lon="5.76597">
        <ele>21.29</ele>
        <time>2012-07-19T07:02:23Z</time>
      </trkpt>
      <trkpt lat="43.14626" lon="5.7659">
        <ele>20.81</ele>
        <time>2012-07-19T07:02:24Z</time>
      </trkpt>
      <trkpt lat="43.1463" lon="5.76583">
        <ele>20.81</ele>
        <time>2012-07-19T07:02:25Z</time>
      </trkpt>
      <trkpt lat="43.14635" lon="5.76576">
        <ele>21.29</ele>
        <time>2012-07-19T07:02:26Z</time>
      </trkpt>
      <trkpt lat="43.14711" lon="5.76512">
        <ele>20.81</ele>
        <time>2012-07-19T07:02:39Z</time>
      </trkpt>
      <trkpt lat="43.14805" lon="5.76466">
        <ele>21.77</ele>
        <time>2012-07-19T07:02:54Z</time>
      </trkpt>
      <trkpt lat="43.14878" lon="5.76457">
        <ele>24.17</ele>
        <time>2012-07-19T07:03:06Z</time>
      </trkpt>
      <trkpt lat="43.14884" lon="5.76454">
        <ele>24.17</ele>
        <time>2012-07-19T07:03:07Z</time>
      </trkpt>
      <trkpt lat="43.14899" lon="5.76444">
        <ele>24.65</ele>
        <time>2012-07-19T07:03:10Z</time>
      </trkpt>
      <trkpt lat="43.14905" lon="5.76443">
        <ele>24.17</ele>
        <time>2012-07-19T07:03:11Z</time>
      </trkpt>
      <trkpt lat="43.14911" lon="5.76442">
        <ele>24.65</ele>
        <time>2012-07-19T07:03:12Z</time>
      </trkpt>
      <trkpt lat="43.14917" lon="5.76443">
        <ele>24.17</ele>
        <time>2012-07-19T07:03:13Z</time>
      </trkpt>
      <trkpt lat="43.14923" lon="5.76444">
        <ele>24.17</ele>
        <time>2012-07-19T07:03:14Z</time>
      </trkpt>
      <trkpt lat="43.14929" lon="5.76446">
        <ele>24.65</ele>
        <time>2012-07-19T07:03:15Z</time>
      </trkpt>
      <trkpt lat="43.14936" lon="5.76449">
        <ele>24.17</ele>
        <time>2012-07-19T07:03:16Z</time>
      </trkpt>
      <trkpt lat="43.14942" lon="5.76453">
        <ele>24.17</ele>
        <time>2012-07-19T07:03:17Z</time>
      </trkpt>
      <trkpt lat="43.14947" lon="5.76457">
        <ele>24.65</ele>
        <time>2012-07-19T07:03:18Z</time>
      </trkpt>
      <trkpt lat="43.14982" lon="5.76476">
        <ele>25.61</ele>
        <time>2012-07-19T07:03:24Z</time>
      </trkpt>
      <trkpt lat="43.15048" lon="5.76491">
        <ele>25.13</ele>
        <time>2012-07-19T07:03:34Z</time>
      </trkpt>
      <trkpt lat="43.15054" lon="5.76491">
        <ele>25.13</ele>
        <time>2012-07-19T07:03:35Z</time>
      </trkpt>
      <trkpt lat="43.15144" lon="5.76453">
        <ele>27.53</ele>
        <time>2012-07-19T07:03:50Z</time>
      </trkpt>
      <trkpt lat="43.1523" lon="5.76378">
        <ele>28.98</ele>
        <time>2012-07-19T07:04:06Z</time>
      </trkpt>
      <trkpt lat="43.15297" lon="5.76354">
        <ele>30.9</ele>
        <time>2012-07-19T07:04:18Z</time>
      </trkpt>
      <trkpt lat="43.15303" lon="5.76354">
        <ele>30.42</ele>
        <time>2012-07-19T07:04:19Z</time>
      </trkpt>
      <trkpt lat="43.1531" lon="5.76355">
        <ele>30.9</ele>
        <time>2012-07-19T07:04:20Z</time>
      </trkpt>
      <trkpt lat="43.15316" lon="5.76356">
        <ele>30.42</ele>
        <time>2012-07-19T07:04:21Z</time>
      </trkpt>
      <trkpt lat="43.15322" lon="5.76358">
        <ele>30.9</ele>
        <time>2012-07-19T07:04:22Z</time>
      </trkpt>
      <trkpt lat="43.15358" lon="5.76369">
        <ele>29.94</ele>
        <time>2012-07-19T07:04:28Z</time>
      </trkpt>
      <trkpt lat="43.15365" lon="5.76369">
        <ele>29.46</ele>
        <time>2012-07-19T07:04:29Z</time>
      </trkpt>
      <trkpt lat="43.1538" lon="5.76369">
        <ele>28.5</ele>
        <time>2012-07-19T07:04:31Z</time>
      </trkpt>
      <trkpt lat="43.15388" lon="5.7637">
        <ele>28.02</ele>
        <time>2012-07-19T07:04:32Z</time>
      </trkpt>
      <trkpt lat="43.15427" lon="5.76378">
        <ele>28.98</ele>
        <time>2012-07-19T07:04:37Z</time>
      </trkpt>
      <trkpt lat="43.15532" lon="5.76401">
        <ele>29.46</ele>
        <time>2012-07-19T07:04:53Z</time>
      </trkpt>
      <trkpt lat="43.15579" lon="5.76411">
        <ele>29.46</ele>
        <time>2012-07-19T07:05:00Z</time>
      </trkpt>
      <trkpt lat="43.15624" lon="5.76424">
        <ele>29.94</ele>
        <time>2012-07-19T07:05:07Z</time>
      </trkpt>
      <trkpt lat="43.1563" lon="5.76424">
        <ele>29.94</ele>
        <time>2012-07-19T07:05:08Z</time>
      </trkpt>
      <trkpt lat="43.15637" lon="5.76424">
        <ele>30.42</ele>
        <time>2012-07-19T07:05:09Z</time>
      </trkpt>
      <trkpt lat="43.15643" lon="5.76423">
        <ele>29.94</ele>
        <time>2012-07-19T07:05:10Z</time>
      </trkpt>
      <trkpt lat="43.1565" lon="5.76423">
        <ele>29.46</ele>
        <time>2012-07-19T07:05:11Z</time>
      </trkpt>
      <trkpt lat="43.15656" lon="5.76424">
        <ele>29.46</ele>
        <time>2012-07-19T07:05:12Z</time>
      </trkpt>
      <trkpt lat="43.15663" lon="5.76424">
        <ele>29.46</ele>
        <time>2012-07-19T07:05:13Z</time>
      </trkpt>
      <trkpt lat="43.15684" lon="5.76426">
        <ele>28.98</ele>
        <time>2012-07-19T07:05:16Z</time>
      </trkpt>
      <trkpt lat="43.15691" lon="5.76428">
        <ele>29.46</ele>
        <time>2012-07-19T07:05:17Z</time>
      </trkpt>
      <trkpt lat="43.15697" lon="5.76432">
        <ele>29.46</ele>
        <time>2012-07-19T07:05:18Z</time>
      </trkpt>
      <trkpt lat="43.15704" lon="5.76436">
        <ele>29.46</ele>
        <time>2012-07-19T07:05:19Z</time>
      </trkpt>
      <trkpt lat="43.1571" lon="5.76441">
        <ele>29.46</ele>
        <time>2012-07-19T07:05:20Z</time>
      </trkpt>
      <trkpt lat="43.15783" lon="5.76496">
        <ele>32.34</ele>
        <time>2012-07-19T07:05:33Z</time>
      </trkpt>
      <trkpt lat="43.15817" lon="5.76514">
        <ele>33.78</ele>
        <time>2012-07-19T07:05:39Z</time>
      </trkpt>
      <trkpt lat="43.15823" lon="5.76515">
        <ele>34.26</ele>
        <time>2012-07-19T07:05:40Z</time>
      </trkpt>
      <trkpt lat="43.15829" lon="5.76516">
        <ele>34.26</ele>
        <time>2012-07-19T07:05:41Z</time>
      </trkpt>
      <trkpt lat="43.15884" lon="5.76512">
        <ele>37.15</ele>
        <time>2012-07-19T07:05:51Z</time>
      </trkpt>
      <trkpt lat="43.15889" lon="5.76509">
        <ele>37.63</ele>
        <time>2012-07-19T07:05:52Z</time>
      </trkpt>
      <trkpt lat="43.15894" lon="5.76505">
        <ele>38.11</ele>
        <time>2012-07-19T07:05:53Z</time>
      </trkpt>
      <trkpt lat="43.15898" lon="5.76501">
        <ele>38.11</ele>
        <time>2012-07-19T07:05:54Z</time>
      </trkpt>
      <trkpt lat="43.15902" lon="5.76496">
        <ele>38.59</ele>
        <time>2012-07-19T07:05:55Z</time>
      </trkpt>
      <trkpt lat="43.15906" lon="5.76491">
        <ele>38.59</ele>
        <time>2012-07-19T07:05:56Z</time>
      </trkpt>
      <trkpt lat="43.15909" lon="5.76485">
        <ele>38.59</ele>
        <time>2012-07-19T07:05:57Z</time>
      </trkpt>
      <trkpt lat="43.15912" lon="5.76479">
        <ele>38.59</ele>
        <time>2012-07-19T07:05:58Z</time>
      </trkpt>
      <trkpt lat="43.15925" lon="5.7645">
        <ele>38.11</ele>
        <time>2012-07-19T07:06:02Z</time>
      </trkpt>
      <trkpt lat="43.15928" lon="5.76443">
        <ele>38.11</ele>
        <time>2012-07-19T07:06:03Z</time>
      </trkpt>
      <trkpt lat="43.15937" lon="5.76426">
        <ele>37.15</ele>
        <time>2012-07-19T07:06:05Z</time>
      </trkpt>
      <trkpt lat="43.15948" lon="5.7641">
        <ele>36.19</ele>
        <time>2012-07-19T07:06:07Z</time>
      </trkpt>
      <trkpt lat="43.15954" lon="5.76403">
        <ele>36.19</ele>
        <time>2012-07-19T07:06:08Z</time>
      </trkpt>
      <trkpt lat="43.15987" lon="5.76377">
        <ele>35.71</ele>
        <time>2012-07-19T07:06:13Z</time>
      </trkpt>
      <trkpt lat="43.15994" lon="5.76374">
        <ele>36.19</ele>
        <time>2012-07-19T07:06:14Z</time>
      </trkpt>
      <trkpt lat="43.16072" lon="5.76374">
        <ele>36.67</ele>
        <time>2012-07-19T07:06:25Z</time>
      </trkpt>
      <trkpt lat="43.16177" lon="5.76416">
        <ele>37.15</ele>
        <time>2012-07-19T07:06:41Z</time>
      </trkpt>
      <trkpt lat="43.16301" lon="5.76441">
        <ele>39.07</ele>
        <time>2012-07-19T07:07:00Z</time>
      </trkpt>
      <trkpt lat="43.16335" lon="5.7645">
        <ele>38.59</ele>
        <time>2012-07-19T07:07:05Z</time>
      </trkpt>
      <trkpt lat="43.16341" lon="5.76454">
        <ele>40.03</ele>
        <time>2012-07-19T07:07:06Z</time>
      </trkpt>
      <trkpt lat="43.16375" lon="5.7648">
        <ele>40.99</ele>
        <time>2012-07-19T07:07:12Z</time>
      </trkpt>
      <trkpt lat="43.1638" lon="5.76484">
        <ele>40.99</ele>
        <time>2012-07-19T07:07:13Z</time>
      </trkpt>
      <trkpt lat="43.16385" lon="5.76488">
        <ele>41.47</ele>
        <time>2012-07-19T07:07:14Z</time>
      </trkpt>
      <trkpt lat="43.16389" lon="5.76492">
        <ele>41.95</ele>
        <time>2012-07-19T07:07:15Z</time>
      </trkpt>
      <trkpt lat="43.16393" lon="5.76495">
        <ele>42.44</ele>
        <time>2012-07-19T07:07:16Z</time>
      </trkpt>
      <trkpt lat="43.16397" lon="5.76499">
        <ele>42.92</ele>
        <time>2012-07-19T07:07:17Z</time>
      </trkpt>
      <trkpt lat="43.16401" lon="5.76504">
        <ele>43.4</ele>
        <time>2012-07-19T07:07:18Z</time>
      </trkpt>
      <trkpt lat="43.16434" lon="5.76543">
        <ele>44.36</ele>
        <time>2012-07-19T07:07:26Z</time>
      </trkpt>
      <trkpt lat="43.16482" lon="5.76639">
        <ele>44.84</ele>
        <time>2012-07-19T07:07:42Z</time>
      </trkpt>
      <trkpt lat="43.1651" lon="5.76757">
        <ele>44.36</ele>
        <time>2012-07-19T07:07:56Z</time>
      </trkpt>
      <trkpt lat="43.16513" lon="5.76765">
        <ele>44.36</ele>
        <time>2012-07-19T07:07:57Z</time>
      </trkpt>
      <trkpt lat="43.16517" lon="5.76774">
        <ele>44.36</ele>
        <time>2012-07-19T07:07:58Z</time>
      </trkpt>
      <trkpt lat="43.16547" lon="5.76817">
        <ele>42.92</ele>
        <time>2012-07-19T07:08:04Z</time>
      </trkpt>
      <trkpt lat="43.16554" lon="5.76822">
        <ele>42.92</ele>
        <time>2012-07-19T07:08:05Z</time>
      </trkpt>
      <trkpt lat="43.1656" lon="5.76826">
        <ele>43.4</ele>
        <time>2012-07-19T07:08:06Z</time>
      </trkpt>
      <trkpt lat="43.16568" lon="5.7683">
        <ele>42.92</ele>
        <time>2012-07-19T07:08:07Z</time>
      </trkpt>
      <trkpt lat="43.16575" lon="5.76833">
        <ele>42.92</ele>
        <time>2012-07-19T07:08:08Z</time>
      </trkpt>
      <trkpt lat="43.16664" lon="5.76861">
        <ele>44.36</ele>
        <time>2012-07-19T07:08:21Z</time>
      </trkpt>
      <trkpt lat="43.16708" lon="5.76893">
        <ele>46.28</ele>
        <time>2012-07-19T07:08:29Z</time>
      </trkpt>
      <trkpt lat="43.16761" lon="5.76934">
        <ele>48.2</ele>
        <time>2012-07-19T07:08:41Z</time>
      </trkpt>
      <trkpt lat="43.16831" lon="5.76997">
        <ele>50.61</ele>
        <time>2012-07-19T07:08:56Z</time>
      </trkpt>
      <trkpt lat="43.16835" lon="5.77003">
        <ele>51.09</ele>
        <time>2012-07-19T07:08:57Z</time>
      </trkpt>
      <trkpt lat="43.16838" lon="5.77009">
        <ele>50.61</ele>
        <time>2012-07-19T07:08:58Z</time>
      </trkpt>
      <trkpt lat="43.1684" lon="5.77016">
        <ele>50.61</ele>
        <time>2012-07-19T07:08:59Z</time>
      </trkpt>
      <trkpt lat="43.16843" lon="5.77022">
        <ele>50.61</ele>
        <time>2012-07-19T07:09:00Z</time>
      </trkpt>
      <trkpt lat="43.16861" lon="5.771">
        <ele>53.01</ele>
        <time>2012-07-19T07:09:11Z</time>
      </trkpt>
      <trkpt lat="43.16863" lon="5.77107">
        <ele>54.45</ele>
        <time>2012-07-19T07:09:12Z</time>
      </trkpt>
      <trkpt lat="43.16874" lon="5.77132">
        <ele>54.93</ele>
        <time>2012-07-19T07:09:16Z</time>
      </trkpt>
      <trkpt lat="43.16877" lon="5.77138">
        <ele>55.89</ele>
        <time>2012-07-19T07:09:17Z</time>
      </trkpt>
      <trkpt lat="43.1688" lon="5.77144">
        <ele>55.89</ele>
        <time>2012-07-19T07:09:18Z</time>
      </trkpt>
      <trkpt lat="43.16884" lon="5.77149">
        <ele>55.89</ele>
        <time>2012-07-19T07:09:19Z</time>
      </trkpt>
      <trkpt lat="43.16887" lon="5.77153">
        <ele>56.37</ele>
        <time>2012-07-19T07:09:20Z</time>
      </trkpt>
      <trkpt lat="43.16892" lon="5.77156">
        <ele>56.37</ele>
        <time>2012-07-19T07:09:21Z</time>
      </trkpt>
      <trkpt lat="43.16897" lon="5.77158">
        <ele>56.86</ele>
        <time>2012-07-19T07:09:22Z</time>
      </trkpt>
      <trkpt lat="43.16902" lon="5.7716">
        <ele>56.86</ele>
        <time>2012-07-19T07:09:23Z</time>
      </trkpt>
      <trkpt lat="43.16993" lon="5.7717">
        <ele>54.93</ele>
        <time>2012-07-19T07:09:37Z</time>
      </trkpt>
      <trkpt lat="43.17101" lon="5.77139">
        <ele>55.89</ele>
        <time>2012-07-19T07:09:54Z</time>
      </trkpt>
      <trkpt lat="43.1718" lon="5.77081">
        <ele>57.82</ele>
        <time>2012-07-19T07:10:10Z</time>
      </trkpt>
      <trkpt lat="43.17185" lon="5.77078">
        <ele>57.82</ele>
        <time>2012-07-19T07:10:11Z</time>
      </trkpt>
      <trkpt lat="43.17189" lon="5.77076">
        <ele>58.3</ele>
        <time>2012-07-19T07:10:12Z</time>
      </trkpt>
      <trkpt lat="43.17194" lon="5.77074">
        <ele>57.82</ele>
        <time>2012-07-19T07:10:13Z</time>
      </trkpt>
      <trkpt lat="43.17199" lon="5.77073">
        <ele>57.82</ele>
        <time>2012-07-19T07:10:14Z</time>
      </trkpt>
      <trkpt lat="43.17204" lon="5.77072">
        <ele>57.82</ele>
        <time>2012-07-19T07:10:15Z</time>
      </trkpt>
      <trkpt lat="43.17209" lon="5.77072">
        <ele>58.3</ele>
        <time>2012-07-19T07:10:16Z</time>
      </trkpt>
      <trkpt lat="43.17303" lon="5.77074">
        <ele>57.34</ele>
        <time>2012-07-19T07:10:32Z</time>
      </trkpt>
      <trkpt lat="43.17326" lon="5.77074">
        <ele>56.37</ele>
        <time>2012-07-19T07:10:36Z</time>
      </trkpt>
      <trkpt lat="43.17411" lon="5.77077">
        <ele>54.93</ele>
        <time>2012-07-19T07:10:49Z</time>
      </trkpt>
      <trkpt lat="43.17425" lon="5.77078">
        <ele>54.93</ele>
        <time>2012-07-19T07:10:51Z</time>
      </trkpt>
      <trkpt lat="43.17431" lon="5.7708">
        <ele>54.93</ele>
        <time>2012-07-19T07:10:52Z</time>
      </trkpt>
      <trkpt lat="43.17438" lon="5.77083">
        <ele>54.93</ele>
        <time>2012-07-19T07:10:53Z</time>
      </trkpt>
      <trkpt lat="43.17444" lon="5.77088">
        <ele>54.45</ele>
        <time>2012-07-19T07:10:54Z</time>
      </trkpt>
      <trkpt lat="43.17449" lon="5.77093">
        <ele>54.45</ele>
        <time>2012-07-19T07:10:55Z</time>
      </trkpt>
      <trkpt lat="43.17455" lon="5.77099">
        <ele>54.45</ele>
        <time>2012-07-19T07:10:56Z</time>
      </trkpt>
      <trkpt lat="43.1746" lon="5.77105">
        <ele>54.93</ele>
        <time>2012-07-19T07:10:57Z</time>
      </trkpt>
      <trkpt lat="43.17465" lon="5.77112">
        <ele>54.45</ele>
        <time>2012-07-19T07:10:58Z</time>
      </trkpt>
      <trkpt lat="43.17535" lon="5.77213">
        <ele>54.93</ele>
        <time>2012-07-19T07:11:13Z</time>
      </trkpt>
      <trkpt lat="43.17569" lon="5.77237">
        <ele>55.41</ele>
        <time>2012-07-19T07:11:19Z</time>
      </trkpt>
      <trkpt lat="43.17575" lon="5.77239">
        <ele>55.89</ele>
        <time>2012-07-19T07:11:20Z</time>
      </trkpt>
      <trkpt lat="43.17581" lon="5.77239">
        <ele>56.37</ele>
        <time>2012-07-19T07:11:21Z</time>
      </trkpt>
      <trkpt lat="43.17587" lon="5.77239">
        <ele>56.37</ele>
        <time>2012-07-19T07:11:22Z</time>
      </trkpt>
      <trkpt lat="43.17598" lon="5.77238">
        <ele>56.86</ele>
        <time>2012-07-19T07:11:24Z</time>
      </trkpt>
      <trkpt lat="43.1761" lon="5.7724">
        <ele>57.34</ele>
        <time>2012-07-19T07:11:26Z</time>
      </trkpt>
      <trkpt lat="43.17615" lon="5.77242">
        <ele>57.34</ele>
        <time>2012-07-19T07:11:27Z</time>
      </trkpt>
      <trkpt lat="43.1762" lon="5.77245">
        <ele>57.82</ele>
        <time>2012-07-19T07:11:28Z</time>
      </trkpt>
      <trkpt lat="43.17624" lon="5.77248">
        <ele>58.3</ele>
        <time>2012-07-19T07:11:29Z</time>
      </trkpt>
      <trkpt lat="43.17629" lon="5.77251">
        <ele>58.3</ele>
        <time>2012-07-19T07:11:30Z</time>
      </trkpt>
      <trkpt lat="43.17637" lon="5.77259">
        <ele>59.26</ele>
        <time>2012-07-19T07:11:32Z</time>
      </trkpt>
      <trkpt lat="43.17653" lon="5.77274">
        <ele>60.22</ele>
        <time>2012-07-19T07:11:36Z</time>
      </trkpt>
      <trkpt lat="43.17658" lon="5.77277">
        <ele>59.74</ele>
        <time>2012-07-19T07:11:37Z</time>
      </trkpt>
      <trkpt lat="43.17705" lon="5.77299">
        <ele>62.62</ele>
        <time>2012-07-19T07:11:47Z</time>
      </trkpt>
      <trkpt lat="43.17723" lon="5.77309">
        <ele>64.55</ele>
        <time>2012-07-19T07:11:52Z</time>
      </trkpt>
      <trkpt lat="43.17739" lon="5.77321">
        <ele>66.95</ele>
        <time>2012-07-19T07:11:57Z</time>
      </trkpt>
      <trkpt lat="43.17747" lon="5.77324">
        <ele>67.43</ele>
        <time>2012-07-19T07:11:59Z</time>
      </trkpt>
      <trkpt lat="43.17751" lon="5.77325">
        <ele>67.91</ele>
        <time>2012-07-19T07:12:00Z</time>
      </trkpt>
      <trkpt lat="43.17787" lon="5.77321">
        <ele>68.87</ele>
        <time>2012-07-19T07:12:08Z</time>
      </trkpt>
      <trkpt lat="43.17791" lon="5.77321">
        <ele>69.35</ele>
        <time>2012-07-19T07:12:09Z</time>
      </trkpt>
      <trkpt lat="43.178" lon="5.77321">
        <ele>70.31</ele>
        <time>2012-07-19T07:12:11Z</time>
      </trkpt>
      <trkpt lat="43.17813" lon="5.77323">
        <ele>70.79</ele>
        <time>2012-07-19T07:12:14Z</time>
      </trkpt>
      <trkpt lat="43.17886" lon="5.77332">
        <ele>68.87</ele>
        <time>2012-07-19T07:12:27Z</time>
      </trkpt>
      <trkpt lat="43.17979" lon="5.77313">
        <ele>65.99</ele>
        <time>2012-07-19T07:12:40Z</time>
      </trkpt>
      <trkpt lat="43.17993" lon="5.77306">
        <ele>65.99</ele>
        <time>2012-07-19T07:12:42Z</time>
      </trkpt>
      <trkpt lat="43.18" lon="5.77304">
        <ele>65.51</ele>
        <time>2012-07-19T07:12:43Z</time>
      </trkpt>
      <trkpt lat="43.18007" lon="5.77303">
        <ele>66.47</ele>
        <time>2012-07-19T07:12:44Z</time>
      </trkpt>
      <trkpt lat="43.18013" lon="5.773">
        <ele>66.47</ele>
        <time>2012-07-19T07:12:45Z</time>
      </trkpt>
      <trkpt lat="43.18017" lon="5.77294">
        <ele>66.47</ele>
        <time>2012-07-19T07:12:46Z</time>
      </trkpt>
      <trkpt lat="43.18017" lon="5.77285">
        <ele>65.99</ele>
        <time>2012-07-19T07:12:47Z</time>
      </trkpt>
      <trkpt lat="43.18014" lon="5.77276">
        <ele>65.51</ele>
        <time>2012-07-19T07:12:48Z</time>
      </trkpt>
      <trkpt lat="43.18011" lon="5.77268">
        <ele>65.03</ele>
        <time>2012-07-19T07:12:49Z</time>
      </trkpt>
      <trkpt lat="43.18009" lon="5.77258">
        <ele>64.07</ele>
        <time>2012-07-19T07:12:50Z</time>
      </trkpt>
      <trkpt lat="43.18008" lon="5.77248">
        <ele>63.58</ele>
        <time>2012-07-19T07:12:51Z</time>
      </trkpt>
      <trkpt lat="43.18008" lon="5.77237">
        <ele>63.58</ele>
        <time>2012-07-19T07:12:52Z</time>
      </trkpt>
      <trkpt lat="43.18009" lon="5.77227">
        <ele>63.58</ele>
        <time>2012-07-19T07:12:53Z</time>
      </trkpt>
      <trkpt lat="43.18016" lon="5.77143">
        <ele>63.1</ele>
        <time>2012-07-19T07:13:01Z</time>
      </trkpt>
      <trkpt lat="43.18019" lon="5.77133">
        <ele>63.1</ele>
        <time>2012-07-19T07:13:02Z</time>
      </trkpt>
      <trkpt lat="43.18024" lon="5.77124">
        <ele>62.62</ele>
        <time>2012-07-19T07:13:03Z</time>
      </trkpt>
      <trkpt lat="43.18029" lon="5.77116">
        <ele>63.1</ele>
        <time>2012-07-19T07:13:04Z</time>
      </trkpt>
      <trkpt lat="43.18035" lon="5.7711">
        <ele>62.62</ele>
        <time>2012-07-19T07:13:05Z</time>
      </trkpt>
      <trkpt lat="43.18042" lon="5.77106">
        <ele>63.1</ele>
        <time>2012-07-19T07:13:06Z</time>
      </trkpt>
      <trkpt lat="43.1805" lon="5.77104">
        <ele>63.1</ele>
        <time>2012-07-19T07:13:07Z</time>
      </trkpt>
      <trkpt lat="43.18057" lon="5.77104">
        <ele>63.1</ele>
        <time>2012-07-19T07:13:08Z</time>
      </trkpt>
      <trkpt lat="43.18065" lon="5.77103">
        <ele>63.1</ele>
        <time>2012-07-19T07:13:09Z</time>
      </trkpt>
      <trkpt lat="43.18185" lon="5.77078">
        <ele>63.1</ele>
        <time>2012-07-19T07:13:26Z</time>
      </trkpt>
      <trkpt lat="43.18314" lon="5.77024">
        <ele>64.07</ele>
        <time>2012-07-19T07:13:46Z</time>
      </trkpt>
      <trkpt lat="43.18436" lon="5.76988">
        <ele>66.47</ele>
        <time>2012-07-19T07:14:05Z</time>
      </trkpt>
      <trkpt lat="43.18539" lon="5.76971">
        <ele>68.87</ele>
        <time>2012-07-19T07:14:22Z</time>
      </trkpt>
      <trkpt lat="43.18644" lon="5.76918">
        <ele>70.79</ele>
        <time>2012-07-19T07:14:41Z</time>
      </trkpt>
      <trkpt lat="43.18739" lon="5.76839">
        <ele>70.79</ele>
        <time>2012-07-19T07:14:59Z</time>
      </trkpt>
      <trkpt lat="43.18863" lon="5.76732">
        <ele>68.39</ele>
        <time>2012-07-19T07:15:20Z</time>
      </trkpt>
      <trkpt lat="43.1897" lon="5.76639">
        <ele>71.27</ele>
        <time>2012-07-19T07:15:39Z</time>
      </trkpt>
      <trkpt lat="43.1906" lon="5.76562">
        <ele>73.68</ele>
        <time>2012-07-19T07:15:57Z</time>
      </trkpt>
      <trkpt lat="43.19145" lon="5.76512">
        <ele>75.12</ele>
        <time>2012-07-19T07:16:12Z</time>
      </trkpt>
      <trkpt lat="43.19156" lon="5.76509">
        <ele>76.56</ele>
        <time>2012-07-19T07:16:14Z</time>
      </trkpt>
      <trkpt lat="43.19211" lon="5.76497">
        <ele>79.45</ele>
        <time>2012-07-19T07:16:25Z</time>
      </trkpt>
      <trkpt lat="43.19216" lon="5.76496">
        <ele>79.93</ele>
        <time>2012-07-19T07:16:26Z</time>
      </trkpt>
      <trkpt lat="43.1926" lon="5.76491">
        <ele>80.89</ele>
        <time>2012-07-19T07:16:36Z</time>
      </trkpt>
      <trkpt lat="43.19265" lon="5.76492">
        <ele>80.41</ele>
        <time>2012-07-19T07:16:37Z</time>
      </trkpt>
      <trkpt lat="43.1927" lon="5.76493">
        <ele>80.89</ele>
        <time>2012-07-19T07:16:38Z</time>
      </trkpt>
      <trkpt lat="43.19276" lon="5.76492">
        <ele>80.89</ele>
        <time>2012-07-19T07:16:39Z</time>
      </trkpt>
      <trkpt lat="43.19281" lon="5.7649">
        <ele>80.41</ele>
        <time>2012-07-19T07:16:40Z</time>
      </trkpt>
      <trkpt lat="43.19286" lon="5.76486">
        <ele>80.89</ele>
        <time>2012-07-19T07:16:41Z</time>
      </trkpt>
      <trkpt lat="43.1929" lon="5.7648">
        <ele>80.89</ele>
        <time>2012-07-19T07:16:42Z</time>
      </trkpt>
      <trkpt lat="43.19294" lon="5.76473">
        <ele>80.89</ele>
        <time>2012-07-19T07:16:43Z</time>
      </trkpt>
      <trkpt lat="43.19297" lon="5.76465">
        <ele>80.89</ele>
        <time>2012-07-19T07:16:44Z</time>
      </trkpt>
      <trkpt lat="43.19304" lon="5.76451">
        <ele>80.41</ele>
        <time>2012-07-19T07:16:46Z</time>
      </trkpt>
      <trkpt lat="43.19354" lon="5.76368">
        <ele>82.33</ele>
        <time>2012-07-19T07:16:59Z</time>
      </trkpt>
      <trkpt lat="43.19359" lon="5.76363">
        <ele>81.85</ele>
        <time>2012-07-19T07:17:00Z</time>
      </trkpt>
      <trkpt lat="43.19437" lon="5.76318">
        <ele>84.73</ele>
        <time>2012-07-19T07:17:15Z</time>
      </trkpt>
      <trkpt lat="43.19478" lon="5.76301">
        <ele>88.1</ele>
        <time>2012-07-19T07:17:24Z</time>
      </trkpt>
      <trkpt lat="43.19495" lon="5.76293">
        <ele>89.06</ele>
        <time>2012-07-19T07:17:28Z</time>
      </trkpt>
      <trkpt lat="43.19512" lon="5.76286">
        <ele>90.5</ele>
        <time>2012-07-19T07:17:32Z</time>
      </trkpt>
      <trkpt lat="43.19586" lon="5.76258">
        <ele>88.58</ele>
        <time>2012-07-19T07:17:46Z</time>
      </trkpt>
      <trkpt lat="43.19621" lon="5.76247">
        <ele>84.73</ele>
        <time>2012-07-19T07:17:50Z</time>
      </trkpt>
      <trkpt lat="43.19631" lon="5.76247">
        <ele>83.77</ele>
        <time>2012-07-19T07:17:51Z</time>
      </trkpt>
      <trkpt lat="43.19641" lon="5.76248">
        <ele>83.29</ele>
        <time>2012-07-19T07:17:52Z</time>
      </trkpt>
      <trkpt lat="43.19651" lon="5.76251">
        <ele>83.29</ele>
        <time>2012-07-19T07:17:53Z</time>
      </trkpt>
      <trkpt lat="43.19661" lon="5.76256">
        <ele>83.29</ele>
        <time>2012-07-19T07:17:54Z</time>
      </trkpt>
      <trkpt lat="43.19669" lon="5.76262">
        <ele>82.81</ele>
        <time>2012-07-19T07:17:55Z</time>
      </trkpt>
      <trkpt lat="43.19677" lon="5.76269">
        <ele>83.29</ele>
        <time>2012-07-19T07:17:56Z</time>
      </trkpt>
      <trkpt lat="43.19684" lon="5.76277">
        <ele>83.77</ele>
        <time>2012-07-19T07:17:57Z</time>
      </trkpt>
      <trkpt lat="43.19689" lon="5.76286">
        <ele>83.77</ele>
        <time>2012-07-19T07:17:58Z</time>
      </trkpt>
      <trkpt lat="43.19721" lon="5.76328">
        <ele>85.21</ele>
        <time>2012-07-19T07:18:04Z</time>
      </trkpt>
      <trkpt lat="43.19726" lon="5.76333">
        <ele>85.69</ele>
        <time>2012-07-19T07:18:05Z</time>
      </trkpt>
      <trkpt lat="43.19731" lon="5.76338">
        <ele>85.69</ele>
        <time>2012-07-19T07:18:06Z</time>
      </trkpt>
      <trkpt lat="43.19737" lon="5.76342">
        <ele>86.18</ele>
        <time>2012-07-19T07:18:07Z</time>
      </trkpt>
      <trkpt lat="43.19742" lon="5.76345">
        <ele>86.18</ele>
        <time>2012-07-19T07:18:08Z</time>
      </trkpt>
      <trkpt lat="43.19803" lon="5.76363">
        <ele>87.62</ele>
        <time>2012-07-19T07:18:19Z</time>
      </trkpt>
      <trkpt lat="43.19809" lon="5.76361">
        <ele>88.58</ele>
        <time>2012-07-19T07:18:20Z</time>
      </trkpt>
      <trkpt lat="43.19814" lon="5.7636">
        <ele>88.58</ele>
        <time>2012-07-19T07:18:21Z</time>
      </trkpt>
      <trkpt lat="43.19905" lon="5.76325">
        <ele>89.54</ele>
        <time>2012-07-19T07:18:37Z</time>
      </trkpt>
      <trkpt lat="43.19966" lon="5.76305">
        <ele>88.58</ele>
        <time>2012-07-19T07:18:47Z</time>
      </trkpt>
      <trkpt lat="43.19972" lon="5.76306">
        <ele>88.58</ele>
        <time>2012-07-19T07:18:48Z</time>
      </trkpt>
      <trkpt lat="43.19978" lon="5.76309">
        <ele>89.06</ele>
        <time>2012-07-19T07:18:49Z</time>
      </trkpt>
      <trkpt lat="43.19983" lon="5.76313">
        <ele>88.58</ele>
        <time>2012-07-19T07:18:50Z</time>
      </trkpt>
      <trkpt lat="43.19988" lon="5.76318">
        <ele>89.06</ele>
        <time>2012-07-19T07:18:51Z</time>
      </trkpt>
      <trkpt lat="43.19994" lon="5.76321">
        <ele>89.54</ele>
        <time>2012-07-19T07:18:52Z</time>
      </trkpt>
      <trkpt lat="43.19999" lon="5.76321">
        <ele>89.06</ele>
        <time>2012-07-19T07:18:53Z</time>
      </trkpt>
      <trkpt lat="43.20005" lon="5.76318">
        <ele>89.06</ele>
        <time>2012-07-19T07:18:54Z</time>
      </trkpt>
      <trkpt lat="43.20008" lon="5.76311">
        <ele>89.06</ele>
        <time>2012-07-19T07:18:55Z</time>
      </trkpt>
      <trkpt lat="43.20009" lon="5.76303">
        <ele>89.54</ele>
        <time>2012-07-19T07:18:56Z</time>
      </trkpt>
      <trkpt lat="43.2001" lon="5.76294">
        <ele>89.06</ele>
        <time>2012-07-19T07:18:57Z</time>
      </trkpt>
      <trkpt lat="43.2001" lon="5.76285">
        <ele>89.54</ele>
        <time>2012-07-19T07:18:58Z</time>
      </trkpt>
      <trkpt lat="43.20007" lon="5.76172">
        <ele>89.54</ele>
        <time>2012-07-19T07:19:11Z</time>
      </trkpt>
      <trkpt lat="43.20005" lon="5.76043">
        <ele>89.54</ele>
        <time>2012-07-19T07:19:26Z</time>
      </trkpt>
      <trkpt lat="43.20007" lon="5.76034">
        <ele>89.54</ele>
        <time>2012-07-19T07:19:27Z</time>
      </trkpt>
      <trkpt lat="43.2001" lon="5.76026">
        <ele>89.54</ele>
        <time>2012-07-19T07:19:28Z</time>
      </trkpt>
      <trkpt lat="43.20022" lon="5.75993">
        <ele>90.02</ele>
        <time>2012-07-19T07:19:32Z</time>
      </trkpt>
      <trkpt lat="43.20024" lon="5.75985">
        <ele>90.02</ele>
        <time>2012-07-19T07:19:33Z</time>
      </trkpt>
      <trkpt lat="43.20027" lon="5.75977">
        <ele>90.02</ele>
        <time>2012-07-19T07:19:34Z</time>
      </trkpt>
      <trkpt lat="43.20029" lon="5.75969">
        <ele>90.02</ele>
        <time>2012-07-19T07:19:35Z</time>
      </trkpt>
      <trkpt lat="43.20031" lon="5.75961">
        <ele>89.54</ele>
        <time>2012-07-19T07:19:36Z</time>
      </trkpt>
      <trkpt lat="43.20032" lon="5.75953">
        <ele>90.5</ele>
        <time>2012-07-19T07:19:37Z</time>
      </trkpt>
      <trkpt lat="43.20032" lon="5.75944">
        <ele>90.98</ele>
        <time>2012-07-19T07:19:38Z</time>
      </trkpt>
      <trkpt lat="43.20032" lon="5.75936">
        <ele>90.98</ele>
        <time>2012-07-19T07:19:39Z</time>
      </trkpt>
      <trkpt lat="43.20031" lon="5.75753">
        <ele>90.02</ele>
        <time>2012-07-19T07:19:59Z</time>
      </trkpt>
      <trkpt lat="43.20052" lon="5.75579">
        <ele>90.98</ele>
        <time>2012-07-19T07:20:18Z</time>
      </trkpt>
      <trkpt lat="43.20069" lon="5.75433">
        <ele>90.98</ele>
        <time>2012-07-19T07:20:34Z</time>
      </trkpt>
      <trkpt lat="43.20104" lon="5.75313">
        <ele>91.46</ele>
        <time>2012-07-19T07:20:49Z</time>
      </trkpt>
      <trkpt lat="43.20141" lon="5.75158">
        <ele>90.98</ele>
        <time>2012-07-19T07:21:07Z</time>
      </trkpt>
      <trkpt lat="43.20184" lon="5.75005">
        <ele>90.98</ele>
        <time>2012-07-19T07:21:25Z</time>
      </trkpt>
      <trkpt lat="43.20223" lon="5.74845">
        <ele>91.94</ele>
        <time>2012-07-19T07:21:44Z</time>
      </trkpt>
      <trkpt lat="43.20262" lon="5.74668">
        <ele>92.42</ele>
        <time>2012-07-19T07:22:06Z</time>
      </trkpt>
      <trkpt lat="43.20292" lon="5.74481">
        <ele>92.9</ele>
        <time>2012-07-19T07:22:29Z</time>
      </trkpt>
      <trkpt lat="43.20308" lon="5.74308">
        <ele>93.87</ele>
        <time>2012-07-19T07:22:49Z</time>
      </trkpt>
      <trkpt lat="43.20315" lon="5.74103">
        <ele>95.31</ele>
        <time>2012-07-19T07:23:12Z</time>
      </trkpt>
      <trkpt lat="43.2033" lon="5.74012">
        <ele>96.27</ele>
        <time>2012-07-19T07:23:23Z</time>
      </trkpt>
      <trkpt lat="43.2033" lon="5.74004">
        <ele>96.75</ele>
        <time>2012-07-19T07:23:24Z</time>
      </trkpt>
      <trkpt lat="43.20329" lon="5.73996">
        <ele>96.75</ele>
        <time>2012-07-19T07:23:25Z</time>
      </trkpt>
      <trkpt lat="43.20327" lon="5.73989">
        <ele>96.75</ele>
        <time>2012-07-19T07:23:26Z</time>
      </trkpt>
      <trkpt lat="43.20324" lon="5.73983">
        <ele>97.71</ele>
        <time>2012-07-19T07:23:27Z</time>
      </trkpt>
      <trkpt lat="43.2032" lon="5.73979">
        <ele>97.23</ele>
        <time>2012-07-19T07:23:28Z</time>
      </trkpt>
      <trkpt lat="43.20315" lon="5.73977">
        <ele>97.23</ele>
        <time>2012-07-19T07:23:29Z</time>
      </trkpt>
      <trkpt lat="43.20309" lon="5.73976">
        <ele>97.71</ele>
        <time>2012-07-19T07:23:30Z</time>
      </trkpt>
      <trkpt lat="43.20304" lon="5.73976">
        <ele>98.19</ele>
        <time>2012-07-19T07:23:31Z</time>
      </trkpt>
      <trkpt lat="43.20299" lon="5.73976">
        <ele>98.67</ele>
        <time>2012-07-19T07:23:32Z</time>
      </trkpt>
      <trkpt lat="43.20254" lon="5.73978">
        <ele>100.11</ele>
        <time>2012-07-19T07:23:40Z</time>
      </trkpt>
      <trkpt lat="43.20249" lon="5.73974">
        <ele>100.11</ele>
        <time>2012-07-19T07:23:41Z</time>
      </trkpt>
      <trkpt lat="43.20245" lon="5.73969">
        <ele>100.6</ele>
        <time>2012-07-19T07:23:42Z</time>
      </trkpt>
      <trkpt lat="43.20243" lon="5.73962">
        <ele>100.11</ele>
        <time>2012-07-19T07:23:43Z</time>
      </trkpt>
      <trkpt lat="43.20241" lon="5.73955">
        <ele>99.63</ele>
        <time>2012-07-19T07:23:44Z</time>
      </trkpt>
      <trkpt lat="43.2024" lon="5.73947">
        <ele>100.11</ele>
        <time>2012-07-19T07:23:45Z</time>
      </trkpt>
      <trkpt lat="43.20225" lon="5.73815">
        <ele>97.71</ele>
        <time>2012-07-19T07:23:59Z</time>
      </trkpt>
      <trkpt lat="43.20211" lon="5.73665">
        <ele>95.31</ele>
        <time>2012-07-19T07:24:13Z</time>
      </trkpt>
      <trkpt lat="43.20209" lon="5.73632">
        <ele>94.83</ele>
        <time>2012-07-19T07:24:16Z</time>
      </trkpt>
      <trkpt lat="43.20208" lon="5.73621">
        <ele>94.83</ele>
        <time>2012-07-19T07:24:17Z</time>
      </trkpt>
      <trkpt lat="43.20206" lon="5.7361">
        <ele>95.31</ele>
        <time>2012-07-19T07:24:18Z</time>
      </trkpt>
      <trkpt lat="43.20204" lon="5.736">
        <ele>94.83</ele>
        <time>2012-07-19T07:24:19Z</time>
      </trkpt>
      <trkpt lat="43.20201" lon="5.7359">
        <ele>94.83</ele>
        <time>2012-07-19T07:24:20Z</time>
      </trkpt>
      <trkpt lat="43.20197" lon="5.73581">
        <ele>94.83</ele>
        <time>2012-07-19T07:24:21Z</time>
      </trkpt>
      <trkpt lat="43.20146" lon="5.73426">
        <ele>91.94</ele>
        <time>2012-07-19T07:24:37Z</time>
      </trkpt>
      <trkpt lat="43.20123" lon="5.73344">
        <ele>88.58</ele>
        <time>2012-07-19T07:24:44Z</time>
      </trkpt>
      <trkpt lat="43.20119" lon="5.73333">
        <ele>88.58</ele>
        <time>2012-07-19T07:24:45Z</time>
      </trkpt>
      <trkpt lat="43.20091" lon="5.73258">
        <ele>85.21</ele>
        <time>2012-07-19T07:24:51Z</time>
      </trkpt>
      <trkpt lat="43.20086" lon="5.73245">
        <ele>84.73</ele>
        <time>2012-07-19T07:24:52Z</time>
      </trkpt>
      <trkpt lat="43.20064" lon="5.73178">
        <ele>81.37</ele>
        <time>2012-07-19T07:24:57Z</time>
      </trkpt>
      <trkpt lat="43.20048" lon="5.7312">
        <ele>78</ele>
        <time>2012-07-19T07:25:01Z</time>
      </trkpt>
      <trkpt lat="43.20028" lon="5.73047">
        <ele>74.64</ele>
        <time>2012-07-19T07:25:06Z</time>
      </trkpt>
      <trkpt lat="43.20005" lon="5.72972">
        <ele>71.27</ele>
        <time>2012-07-19T07:25:11Z</time>
      </trkpt>
      <trkpt lat="43.19991" lon="5.72909">
        <ele>67.91</ele>
        <time>2012-07-19T07:25:15Z</time>
      </trkpt>
      <trkpt lat="43.1997" lon="5.72818">
        <ele>64.07</ele>
        <time>2012-07-19T07:25:21Z</time>
      </trkpt>
      <trkpt lat="43.19955" lon="5.72745">
        <ele>62.14</ele>
        <time>2012-07-19T07:25:26Z</time>
      </trkpt>
      <trkpt lat="43.19927" lon="5.72581">
        <ele>58.78</ele>
        <time>2012-07-19T07:25:38Z</time>
      </trkpt>
      <trkpt lat="43.1988" lon="5.72453">
        <ele>56.86</ele>
        <time>2012-07-19T07:25:49Z</time>
      </trkpt>
      <trkpt lat="43.19798" lon="5.72311">
        <ele>55.41</ele>
        <time>2012-07-19T07:26:04Z</time>
      </trkpt>
      <trkpt lat="43.19787" lon="5.72295">
        <ele>56.37</ele>
        <time>2012-07-19T07:26:06Z</time>
      </trkpt>
      <trkpt lat="43.1978" lon="5.72288">
        <ele>54.93</ele>
        <time>2012-07-19T07:26:07Z</time>
      </trkpt>
      <trkpt lat="43.19711" lon="5.72209">
        <ele>55.89</ele>
        <time>2012-07-19T07:26:18Z</time>
      </trkpt>
      <trkpt lat="43.19707" lon="5.722">
        <ele>55.89</ele>
        <time>2012-07-19T07:26:19Z</time>
      </trkpt>
      <trkpt lat="43.19704" lon="5.72191">
        <ele>55.89</ele>
        <time>2012-07-19T07:26:20Z</time>
      </trkpt>
      <trkpt lat="43.19659" lon="5.72085">
        <ele>58.3</ele>
        <time>2012-07-19T07:26:33Z</time>
      </trkpt>
      <trkpt lat="43.19576" lon="5.71982">
        <ele>58.3</ele>
        <time>2012-07-19T07:26:48Z</time>
      </trkpt>
      <trkpt lat="43.19546" lon="5.71933">
        <ele>56.37</ele>
        <time>2012-07-19T07:26:54Z</time>
      </trkpt>
      <trkpt lat="43.19508" lon="5.71851">
        <ele>53.49</ele>
        <time>2012-07-19T07:27:02Z</time>
      </trkpt>
      <trkpt lat="43.19473" lon="5.71784">
        <ele>53.97</ele>
        <time>2012-07-19T07:27:09Z</time>
      </trkpt>
      <trkpt lat="43.19467" lon="5.71777">
        <ele>53.97</ele>
        <time>2012-07-19T07:27:10Z</time>
      </trkpt>
      <trkpt lat="43.19461" lon="5.71772">
        <ele>54.45</ele>
        <time>2012-07-19T07:27:11Z</time>
      </trkpt>
      <trkpt lat="43.19454" lon="5.71767">
        <ele>54.45</ele>
        <time>2012-07-19T07:27:12Z</time>
      </trkpt>
      <trkpt lat="43.19447" lon="5.71762">
        <ele>54.93</ele>
        <time>2012-07-19T07:27:13Z</time>
      </trkpt>
      <trkpt lat="43.19417" lon="5.71738">
        <ele>56.37</ele>
        <time>2012-07-19T07:27:18Z</time>
      </trkpt>
      <trkpt lat="43.19348" lon="5.7164">
        <ele>54.45</ele>
        <time>2012-07-19T07:27:32Z</time>
      </trkpt>
      <trkpt lat="43.19289" lon="5.71543">
        <ele>53.01</ele>
        <time>2012-07-19T07:27:44Z</time>
      </trkpt>
      <trkpt lat="43.19199" lon="5.71443">
        <ele>51.57</ele>
        <time>2012-07-19T07:27:58Z</time>
      </trkpt>
      <trkpt lat="43.19156" lon="5.71335">
        <ele>48.68</ele>
        <time>2012-07-19T07:28:09Z</time>
      </trkpt>
      <trkpt lat="43.19131" lon="5.71217">
        <ele>48.68</ele>
        <time>2012-07-19T07:28:20Z</time>
      </trkpt>
      <trkpt lat="43.19127" lon="5.71209">
        <ele>48.2</ele>
        <time>2012-07-19T07:28:21Z</time>
      </trkpt>
      <trkpt lat="43.19123" lon="5.712">
        <ele>49.16</ele>
        <time>2012-07-19T07:28:22Z</time>
      </trkpt>
      <trkpt lat="43.19119" lon="5.71193">
        <ele>48.68</ele>
        <time>2012-07-19T07:28:23Z</time>
      </trkpt>
      <trkpt lat="43.19114" lon="5.71185">
        <ele>48.2</ele>
        <time>2012-07-19T07:28:24Z</time>
      </trkpt>
      <trkpt lat="43.19108" lon="5.71178">
        <ele>48.2</ele>
        <time>2012-07-19T07:28:25Z</time>
      </trkpt>
      <trkpt lat="43.19103" lon="5.71172">
        <ele>47.72</ele>
        <time>2012-07-19T07:28:26Z</time>
      </trkpt>
      <trkpt lat="43.19096" lon="5.71166">
        <ele>47.72</ele>
        <time>2012-07-19T07:28:27Z</time>
      </trkpt>
      <trkpt lat="43.19034" lon="5.71093">
        <ele>43.88</ele>
        <time>2012-07-19T07:28:37Z</time>
      </trkpt>
      <trkpt lat="43.19005" lon="5.71049">
        <ele>42.44</ele>
        <time>2012-07-19T07:28:42Z</time>
      </trkpt>
      <trkpt lat="43.18939" lon="5.70938">
        <ele>40.99</ele>
        <time>2012-07-19T07:28:55Z</time>
      </trkpt>
      <trkpt lat="43.18852" lon="5.70836">
        <ele>38.11</ele>
        <time>2012-07-19T07:29:10Z</time>
      </trkpt>
      <trkpt lat="43.18735" lon="5.70731">
        <ele>35.23</ele>
        <time>2012-07-19T07:29:27Z</time>
      </trkpt>
      <trkpt lat="43.18728" lon="5.70724">
        <ele>35.23</ele>
        <time>2012-07-19T07:29:28Z</time>
      </trkpt>
      <trkpt lat="43.18651" lon="5.70649">
        <ele>31.86</ele>
        <time>2012-07-19T07:29:39Z</time>
      </trkpt>
      <trkpt lat="43.186" lon="5.7061">
        <ele>30.42</ele>
        <time>2012-07-19T07:29:46Z</time>
      </trkpt>
      <trkpt lat="43.18588" lon="5.70595">
        <ele>29.94</ele>
        <time>2012-07-19T07:29:48Z</time>
      </trkpt>
      <trkpt lat="43.18556" lon="5.70538">
        <ele>27.53</ele>
        <time>2012-07-19T07:29:54Z</time>
      </trkpt>
      <trkpt lat="43.18553" lon="5.70526">
        <ele>27.05</ele>
        <time>2012-07-19T07:29:55Z</time>
      </trkpt>
      <trkpt lat="43.1855" lon="5.70515">
        <ele>26.57</ele>
        <time>2012-07-19T07:29:56Z</time>
      </trkpt>
      <trkpt lat="43.18548" lon="5.70503">
        <ele>26.09</ele>
        <time>2012-07-19T07:29:57Z</time>
      </trkpt>
      <trkpt lat="43.18546" lon="5.70493">
        <ele>26.57</ele>
        <time>2012-07-19T07:29:58Z</time>
      </trkpt>
      <trkpt lat="43.18543" lon="5.70484">
        <ele>26.57</ele>
        <time>2012-07-19T07:29:59Z</time>
      </trkpt>
      <trkpt lat="43.18539" lon="5.70476">
        <ele>26.09</ele>
        <time>2012-07-19T07:30:00Z</time>
      </trkpt>
      <trkpt lat="43.18534" lon="5.7047">
        <ele>26.09</ele>
        <time>2012-07-19T07:30:01Z</time>
      </trkpt>
      <trkpt lat="43.18529" lon="5.70465">
        <ele>26.09</ele>
        <time>2012-07-19T07:30:02Z</time>
      </trkpt>
      <trkpt lat="43.18524" lon="5.7046">
        <ele>26.09</ele>
        <time>2012-07-19T07:30:03Z</time>
      </trkpt>
      <trkpt lat="43.18515" lon="5.70449">
        <ele>26.09</ele>
        <time>2012-07-19T07:30:05Z</time>
      </trkpt>
      <trkpt lat="43.18513" lon="5.70442">
        <ele>26.57</ele>
        <time>2012-07-19T07:30:06Z</time>
      </trkpt>
      <trkpt lat="43.18513" lon="5.70434">
        <ele>26.09</ele>
        <time>2012-07-19T07:30:07Z</time>
      </trkpt>
      <trkpt lat="43.18515" lon="5.70426">
        <ele>26.57</ele>
        <time>2012-07-19T07:30:08Z</time>
      </trkpt>
      <trkpt lat="43.18517" lon="5.70419">
        <ele>28.02</ele>
        <time>2012-07-19T07:30:09Z</time>
      </trkpt>
      <trkpt lat="43.18519" lon="5.70412">
        <ele>28.02</ele>
        <time>2012-07-19T07:30:10Z</time>
      </trkpt>
      <trkpt lat="43.18526" lon="5.70391">
        <ele>29.46</ele>
        <time>2012-07-19T07:30:13Z</time>
      </trkpt>
      <trkpt lat="43.18528" lon="5.70382">
        <ele>29.46</ele>
        <time>2012-07-19T07:30:14Z</time>
      </trkpt>
      <trkpt lat="43.18529" lon="5.70374">
        <ele>29.46</ele>
        <time>2012-07-19T07:30:15Z</time>
      </trkpt>
      <trkpt lat="43.18529" lon="5.70366">
        <ele>29.94</ele>
        <time>2012-07-19T07:30:16Z</time>
      </trkpt>
      <trkpt lat="43.18528" lon="5.70358">
        <ele>29.46</ele>
        <time>2012-07-19T07:30:17Z</time>
      </trkpt>
      <trkpt lat="43.18525" lon="5.70351">
        <ele>29.46</ele>
        <time>2012-07-19T07:30:18Z</time>
      </trkpt>
      <trkpt lat="43.18522" lon="5.70344">
        <ele>29.46</ele>
        <time>2012-07-19T07:30:19Z</time>
      </trkpt>
      <trkpt lat="43.18518" lon="5.70337">
        <ele>28.98</ele>
        <time>2012-07-19T07:30:20Z</time>
      </trkpt>
      <trkpt lat="43.1846" lon="5.7024">
        <ele>26.57</ele>
        <time>2012-07-19T07:30:33Z</time>
      </trkpt>
      <trkpt lat="43.18412" lon="5.70124">
        <ele>23.21</ele>
        <time>2012-07-19T07:30:46Z</time>
      </trkpt>
      <trkpt lat="43.18361" lon="5.70042">
        <ele>22.25</ele>
        <time>2012-07-19T07:30:56Z</time>
      </trkpt>
      <trkpt lat="43.18345" lon="5.70022">
        <ele>21.77</ele>
        <time>2012-07-19T07:30:59Z</time>
      </trkpt>
      <trkpt lat="43.1834" lon="5.70014">
        <ele>21.77</ele>
        <time>2012-07-19T07:31:00Z</time>
      </trkpt>
      <trkpt lat="43.18319" lon="5.69972">
        <ele>21.29</ele>
        <time>2012-07-19T07:31:05Z</time>
      </trkpt>
      <trkpt lat="43.18316" lon="5.69963">
        <ele>20.81</ele>
        <time>2012-07-19T07:31:06Z</time>
      </trkpt>
      <trkpt lat="43.18312" lon="5.69955">
        <ele>21.29</ele>
        <time>2012-07-19T07:31:07Z</time>
      </trkpt>
      <trkpt lat="43.18308" lon="5.69946">
        <ele>21.29</ele>
        <time>2012-07-19T07:31:08Z</time>
      </trkpt>
      <trkpt lat="43.18303" lon="5.69939">
        <ele>20.81</ele>
        <time>2012-07-19T07:31:09Z</time>
      </trkpt>
      <trkpt lat="43.18298" lon="5.69932">
        <ele>20.81</ele>
        <time>2012-07-19T07:31:10Z</time>
      </trkpt>
      <trkpt lat="43.18292" lon="5.69926">
        <ele>20.81</ele>
        <time>2012-07-19T07:31:11Z</time>
      </trkpt>
      <trkpt lat="43.1822" lon="5.69843">
        <ele>17.92</ele>
        <time>2012-07-19T07:31:23Z</time>
      </trkpt>
      <trkpt lat="43.18155" lon="5.69753">
        <ele>15.52</ele>
        <time>2012-07-19T07:31:35Z</time>
      </trkpt>
      <trkpt lat="43.18131" lon="5.69712">
        <ele>15.52</ele>
        <time>2012-07-19T07:31:41Z</time>
      </trkpt>
      <trkpt lat="43.18129" lon="5.69705">
        <ele>15.52</ele>
        <time>2012-07-19T07:31:42Z</time>
      </trkpt>
      <trkpt lat="43.18127" lon="5.69697">
        <ele>15.52</ele>
        <time>2012-07-19T07:31:43Z</time>
      </trkpt>
      <trkpt lat="43.18127" lon="5.69689">
        <ele>16</ele>
        <time>2012-07-19T07:31:44Z</time>
      </trkpt>
      <trkpt lat="43.18127" lon="5.69681">
        <ele>16</ele>
        <time>2012-07-19T07:31:45Z</time>
      </trkpt>
      <trkpt lat="43.18128" lon="5.69673">
        <ele>16</ele>
        <time>2012-07-19T07:31:46Z</time>
      </trkpt>
      <trkpt lat="43.18128" lon="5.69666">
        <ele>16</ele>
        <time>2012-07-19T07:31:47Z</time>
      </trkpt>
      <trkpt lat="43.18128" lon="5.69658">
        <ele>16</ele>
        <time>2012-07-19T07:31:48Z</time>
      </trkpt>
      <trkpt lat="43.18128" lon="5.69652">
        <ele>16</ele>
        <time>2012-07-19T07:31:49Z</time>
      </trkpt>
      <trkpt lat="43.18128" lon="5.69646">
        <ele>16</ele>
        <time>2012-07-19T07:31:50Z</time>
      </trkpt>
      <trkpt lat="43.18129" lon="5.69641">
        <ele>16.48</ele>
        <time>2012-07-19T07:31:51Z</time>
      </trkpt>
      <trkpt lat="43.18131" lon="5.69637">
        <ele>16</ele>
        <time>2012-07-19T07:31:52Z</time>
      </trkpt>
      <trkpt lat="43.18133" lon="5.69633">
        <ele>16</ele>
        <time>2012-07-19T07:31:53Z</time>
      </trkpt>
      <trkpt lat="43.18136" lon="5.69629">
        <ele>16</ele>
        <time>2012-07-19T07:31:54Z</time>
      </trkpt>
      <trkpt lat="43.1814" lon="5.69625">
        <ele>16.48</ele>
        <time>2012-07-19T07:31:55Z</time>
      </trkpt>
      <trkpt lat="43.18144" lon="5.69621">
        <ele>16.48</ele>
        <time>2012-07-19T07:31:56Z</time>
      </trkpt>
      <trkpt lat="43.18149" lon="5.69617">
        <ele>16.48</ele>
        <time>2012-07-19T07:31:57Z</time>
      </trkpt>
      <trkpt lat="43.18206" lon="5.69564">
        <ele>18.4</ele>
        <time>2012-07-19T07:32:09Z</time>
      </trkpt>
      <trkpt lat="43.18215" lon="5.69554">
        <ele>18.4</ele>
        <time>2012-07-19T07:32:11Z</time>
      </trkpt>
      <trkpt lat="43.18252" lon="5.69497">
        <ele>19.36</ele>
        <time>2012-07-19T07:32:21Z</time>
      </trkpt>
      <trkpt lat="43.18257" lon="5.69493">
        <ele>19.36</ele>
        <time>2012-07-19T07:32:22Z</time>
      </trkpt>
      <trkpt lat="43.18262" lon="5.69489">
        <ele>20.32</ele>
        <time>2012-07-19T07:32:23Z</time>
      </trkpt>
      <trkpt lat="43.18267" lon="5.69486">
        <ele>20.32</ele>
        <time>2012-07-19T07:32:24Z</time>
      </trkpt>
      <trkpt lat="43.18271" lon="5.69481">
        <ele>20.81</ele>
        <time>2012-07-19T07:32:25Z</time>
      </trkpt>
      <trkpt lat="43.18275" lon="5.69476">
        <ele>20.32</ele>
        <time>2012-07-19T07:32:26Z</time>
      </trkpt>
      <trkpt lat="43.18278" lon="5.69469">
        <ele>20.32</ele>
        <time>2012-07-19T07:32:27Z</time>
      </trkpt>
      <trkpt lat="43.18279" lon="5.69461">
        <ele>20.32</ele>
        <time>2012-07-19T07:32:28Z</time>
      </trkpt>
      <trkpt lat="43.18278" lon="5.69453">
        <ele>20.32</ele>
        <time>2012-07-19T07:32:29Z</time>
      </trkpt>
      <trkpt lat="43.18278" lon="5.69445">
        <ele>20.32</ele>
        <time>2012-07-19T07:32:30Z</time>
      </trkpt>
      <trkpt lat="43.18279" lon="5.69437">
        <ele>20.81</ele>
        <time>2012-07-19T07:32:31Z</time>
      </trkpt>
      <trkpt lat="43.18281" lon="5.69429">
        <ele>19.84</ele>
        <time>2012-07-19T07:32:32Z</time>
      </trkpt>
      <trkpt lat="43.18283" lon="5.69422">
        <ele>20.32</ele>
        <time>2012-07-19T07:32:33Z</time>
      </trkpt>
      <trkpt lat="43.18286" lon="5.69414">
        <ele>20.32</ele>
        <time>2012-07-19T07:32:34Z</time>
      </trkpt>
      <trkpt lat="43.18318" lon="5.69294">
        <ele>20.81</ele>
        <time>2012-07-19T07:32:50Z</time>
      </trkpt>
      <trkpt lat="43.18331" lon="5.69169">
        <ele>19.36</ele>
        <time>2012-07-19T07:33:05Z</time>
      </trkpt>
      <trkpt lat="43.1835" lon="5.69146">
        <ele>20.81</ele>
        <time>2012-07-19T07:33:14Z</time>
      </trkpt>
      <trkpt lat="43.18359" lon="5.69145">
        <ele>20.81</ele>
        <time>2012-07-19T07:33:16Z</time>
      </trkpt>
      <trkpt lat="43.18364" lon="5.69144">
        <ele>20.81</ele>
        <time>2012-07-19T07:33:17Z</time>
      </trkpt>
      <trkpt lat="43.18368" lon="5.69141">
        <ele>20.81</ele>
        <time>2012-07-19T07:33:18Z</time>
      </trkpt>
      <trkpt lat="43.18373" lon="5.69137">
        <ele>20.81</ele>
        <time>2012-07-19T07:33:19Z</time>
      </trkpt>
      <trkpt lat="43.18377" lon="5.69133">
        <ele>20.81</ele>
        <time>2012-07-19T07:33:20Z</time>
      </trkpt>
      <trkpt lat="43.1838" lon="5.69127">
        <ele>20.81</ele>
        <time>2012-07-19T07:33:21Z</time>
      </trkpt>
      <trkpt lat="43.18382" lon="5.69122">
        <ele>20.81</ele>
        <time>2012-07-19T07:33:22Z</time>
      </trkpt>
      <trkpt lat="43.18384" lon="5.69115">
        <ele>20.32</ele>
        <time>2012-07-19T07:33:23Z</time>
      </trkpt>
      <trkpt lat="43.18386" lon="5.69107">
        <ele>20.81</ele>
        <time>2012-07-19T07:33:24Z</time>
      </trkpt>
      <trkpt lat="43.18386" lon="5.691">
        <ele>20.81</ele>
        <time>2012-07-19T07:33:25Z</time>
      </trkpt>
      <trkpt lat="43.18386" lon="5.69091">
        <ele>20.32</ele>
        <time>2012-07-19T07:33:26Z</time>
      </trkpt>
      <trkpt lat="43.18384" lon="5.69084">
        <ele>19.84</ele>
        <time>2012-07-19T07:33:27Z</time>
      </trkpt>
      <trkpt lat="43.18381" lon="5.69076">
        <ele>19.84</ele>
        <time>2012-07-19T07:33:28Z</time>
      </trkpt>
      <trkpt lat="43.18377" lon="5.69069">
        <ele>19.84</ele>
        <time>2012-07-19T07:33:29Z</time>
      </trkpt>
      <trkpt lat="43.18372" lon="5.69063">
        <ele>19.84</ele>
        <time>2012-07-19T07:33:30Z</time>
      </trkpt>
      <trkpt lat="43.18368" lon="5.69057">
        <ele>19.84</ele>
        <time>2012-07-19T07:33:31Z</time>
      </trkpt>
      <trkpt lat="43.18363" lon="5.69051">
        <ele>19.36</ele>
        <time>2012-07-19T07:33:32Z</time>
      </trkpt>
      <trkpt lat="43.18359" lon="5.69044">
        <ele>19.84</ele>
        <time>2012-07-19T07:33:33Z</time>
      </trkpt>
      <trkpt lat="43.18356" lon="5.69036">
        <ele>19.36</ele>
        <time>2012-07-19T07:33:34Z</time>
      </trkpt>
      <trkpt lat="43.18337" lon="5.68919">
        <ele>18.4</ele>
        <time>2012-07-19T07:33:47Z</time>
      </trkpt>
      <trkpt lat="43.18341" lon="5.6879">
        <ele>18.88</ele>
        <time>2012-07-19T07:34:01Z</time>
      </trkpt>
      <trkpt lat="43.18344" lon="5.68694">
        <ele>18.4</ele>
        <time>2012-07-19T07:34:11Z</time>
      </trkpt>
      <trkpt lat="43.18317" lon="5.68573">
        <ele>19.36</ele>
        <time>2012-07-19T07:34:25Z</time>
      </trkpt>
      <trkpt lat="43.18307" lon="5.6855">
        <ele>18.88</ele>
        <time>2012-07-19T07:34:28Z</time>
      </trkpt>
      <trkpt lat="43.18304" lon="5.68542">
        <ele>19.36</ele>
        <time>2012-07-19T07:34:29Z</time>
      </trkpt>
      <trkpt lat="43.183" lon="5.68525">
        <ele>19.36</ele>
        <time>2012-07-19T07:34:31Z</time>
      </trkpt>
      <trkpt lat="43.18296" lon="5.68518">
        <ele>19.36</ele>
        <time>2012-07-19T07:34:32Z</time>
      </trkpt>
      <trkpt lat="43.18291" lon="5.68511">
        <ele>19.36</ele>
        <time>2012-07-19T07:34:33Z</time>
      </trkpt>
      <trkpt lat="43.18277" lon="5.6849">
        <ele>18.88</ele>
        <time>2012-07-19T07:34:36Z</time>
      </trkpt>
      <trkpt lat="43.18273" lon="5.68482">
        <ele>19.36</ele>
        <time>2012-07-19T07:34:37Z</time>
      </trkpt>
      <trkpt lat="43.1822" lon="5.68368">
        <ele>19.84</ele>
        <time>2012-07-19T07:34:52Z</time>
      </trkpt>
      <trkpt lat="43.18164" lon="5.68254">
        <ele>21.77</ele>
        <time>2012-07-19T07:35:08Z</time>
      </trkpt>
      <trkpt lat="43.18107" lon="5.68134">
        <ele>19.84</ele>
        <time>2012-07-19T07:35:23Z</time>
      </trkpt>
      <trkpt lat="43.18063" lon="5.6804">
        <ele>16.48</ele>
        <time>2012-07-19T07:35:33Z</time>
      </trkpt>
      <trkpt lat="43.18059" lon="5.6803">
        <ele>16.48</ele>
        <time>2012-07-19T07:35:34Z</time>
      </trkpt>
      <trkpt lat="43.18045" lon="5.68">
        <ele>15.04</ele>
        <time>2012-07-19T07:35:37Z</time>
      </trkpt>
      <trkpt lat="43.18013" lon="5.67925">
        <ele>13.12</ele>
        <time>2012-07-19T07:35:44Z</time>
      </trkpt>
      <trkpt lat="43.18011" lon="5.67913">
        <ele>12.63</ele>
        <time>2012-07-19T07:35:45Z</time>
      </trkpt>
      <trkpt lat="43.18011" lon="5.67901">
        <ele>12.63</ele>
        <time>2012-07-19T07:35:46Z</time>
      </trkpt>
      <trkpt lat="43.1801" lon="5.67848">
        <ele>14.08</ele>
        <time>2012-07-19T07:35:51Z</time>
      </trkpt>
      <trkpt lat="43.18007" lon="5.6784">
        <ele>14.08</ele>
        <time>2012-07-19T07:35:52Z</time>
      </trkpt>
      <trkpt lat="43.18002" lon="5.67833">
        <ele>14.08</ele>
        <time>2012-07-19T07:35:53Z</time>
      </trkpt>
      <trkpt lat="43.1799" lon="5.67822">
        <ele>14.08</ele>
        <time>2012-07-19T07:35:55Z</time>
      </trkpt>
      <trkpt lat="43.17985" lon="5.67815">
        <ele>14.08</ele>
        <time>2012-07-19T07:35:56Z</time>
      </trkpt>
      <trkpt lat="43.17982" lon="5.67808">
        <ele>14.56</ele>
        <time>2012-07-19T07:35:57Z</time>
      </trkpt>
      <trkpt lat="43.17979" lon="5.678">
        <ele>15.52</ele>
        <time>2012-07-19T07:35:58Z</time>
      </trkpt>
      <trkpt lat="43.17978" lon="5.67792">
        <ele>16</ele>
        <time>2012-07-19T07:35:59Z</time>
      </trkpt>
      <trkpt lat="43.17977" lon="5.67784">
        <ele>16.48</ele>
        <time>2012-07-19T07:36:00Z</time>
      </trkpt>
      <trkpt lat="43.17977" lon="5.67776">
        <ele>16.48</ele>
        <time>2012-07-19T07:36:01Z</time>
      </trkpt>
      <trkpt lat="43.17977" lon="5.67768">
        <ele>16.48</ele>
        <time>2012-07-19T07:36:02Z</time>
      </trkpt>
      <trkpt lat="43.17977" lon="5.6776">
        <ele>16.96</ele>
        <time>2012-07-19T07:36:03Z</time>
      </trkpt>
      <trkpt lat="43.17992" lon="5.67638">
        <ele>18.88</ele>
        <time>2012-07-19T07:36:18Z</time>
      </trkpt>
      <trkpt lat="43.18019" lon="5.67496">
        <ele>21.29</ele>
        <time>2012-07-19T07:36:35Z</time>
      </trkpt>
      <trkpt lat="43.18033" lon="5.67408">
        <ele>24.17</ele>
        <time>2012-07-19T07:36:46Z</time>
      </trkpt>
      <trkpt lat="43.18047" lon="5.67316">
        <ele>25.61</ele>
        <time>2012-07-19T07:36:58Z</time>
      </trkpt>
      <trkpt lat="43.18051" lon="5.67293">
        <ele>26.09</ele>
        <time>2012-07-19T07:37:01Z</time>
      </trkpt>
      <trkpt lat="43.18053" lon="5.67285">
        <ele>25.61</ele>
        <time>2012-07-19T07:37:02Z</time>
      </trkpt>
      <trkpt lat="43.18082" lon="5.67181">
        <ele>23.69</ele>
        <time>2012-07-19T07:37:15Z</time>
      </trkpt>
      <trkpt lat="43.18109" lon="5.67119">
        <ele>21.77</ele>
        <time>2012-07-19T07:37:22Z</time>
      </trkpt>
      <trkpt lat="43.18194" lon="5.67003">
        <ele>19.84</ele>
        <time>2012-07-19T07:37:37Z</time>
      </trkpt>
      <trkpt lat="43.18258" lon="5.66935">
        <ele>23.21</ele>
        <time>2012-07-19T07:37:50Z</time>
      </trkpt>
      <trkpt lat="43.18298" lon="5.66879">
        <ele>26.09</ele>
        <time>2012-07-19T07:38:02Z</time>
      </trkpt>
      <trkpt lat="43.18335" lon="5.6682">
        <ele>29.94</ele>
        <time>2012-07-19T07:38:14Z</time>
      </trkpt>
      <trkpt lat="43.18374" lon="5.66731">
        <ele>32.34</ele>
        <time>2012-07-19T07:38:30Z</time>
      </trkpt>
      <trkpt lat="43.18375" lon="5.66724">
        <ele>32.34</ele>
        <time>2012-07-19T07:38:31Z</time>
      </trkpt>
      <trkpt lat="43.18408" lon="5.66611">
        <ele>31.86</ele>
        <time>2012-07-19T07:38:47Z</time>
      </trkpt>
      <trkpt lat="43.18434" lon="5.66518">
        <ele>28.5</ele>
        <time>2012-07-19T07:38:57Z</time>
      </trkpt>
      <trkpt lat="43.18461" lon="5.66417">
        <ele>25.13</ele>
        <time>2012-07-19T07:39:06Z</time>
      </trkpt>
      <trkpt lat="43.18488" lon="5.66318">
        <ele>21.77</ele>
        <time>2012-07-19T07:39:14Z</time>
      </trkpt>
      <trkpt lat="43.18549" lon="5.66118">
        <ele>20.32</ele>
        <time>2012-07-19T07:39:31Z</time>
      </trkpt>
      <trkpt lat="43.18588" lon="5.66003">
        <ele>23.21</ele>
        <time>2012-07-19T07:39:45Z</time>
      </trkpt>
      <trkpt lat="43.186" lon="5.65973">
        <ele>24.65</ele>
        <time>2012-07-19T07:39:49Z</time>
      </trkpt>
      <trkpt lat="43.18638" lon="5.65853">
        <ele>28.02</ele>
        <time>2012-07-19T07:40:04Z</time>
      </trkpt>
      <trkpt lat="43.18675" lon="5.65717">
        <ele>28.98</ele>
        <time>2012-07-19T07:40:21Z</time>
      </trkpt>
      <trkpt lat="43.18688" lon="5.65567">
        <ele>30.42</ele>
        <time>2012-07-19T07:40:38Z</time>
      </trkpt>
      <trkpt lat="43.18709" lon="5.65428">
        <ele>30.9</ele>
        <time>2012-07-19T07:40:54Z</time>
      </trkpt>
      <trkpt lat="43.18727" lon="5.65388">
        <ele>29.94</ele>
        <time>2012-07-19T07:40:59Z</time>
      </trkpt>
      <trkpt lat="43.18763" lon="5.65336">
        <ele>28.02</ele>
        <time>2012-07-19T07:41:06Z</time>
      </trkpt>
      <trkpt lat="43.18825" lon="5.65264">
        <ele>24.65</ele>
        <time>2012-07-19T07:41:15Z</time>
      </trkpt>
      <trkpt lat="43.1884" lon="5.65247">
        <ele>23.69</ele>
        <time>2012-07-19T07:41:17Z</time>
      </trkpt>
      <trkpt lat="43.18885" lon="5.65191">
        <ele>19.36</ele>
        <time>2012-07-19T07:41:23Z</time>
      </trkpt>
      <trkpt lat="43.18893" lon="5.65181">
        <ele>19.36</ele>
        <time>2012-07-19T07:41:24Z</time>
      </trkpt>
      <trkpt lat="43.18912" lon="5.65148">
        <ele>17.92</ele>
        <time>2012-07-19T07:41:27Z</time>
      </trkpt>
      <trkpt lat="43.18955" lon="5.65018">
        <ele>15.52</ele>
        <time>2012-07-19T07:41:38Z</time>
      </trkpt>
      <trkpt lat="43.1896" lon="5.64892">
        <ele>17.92</ele>
        <time>2012-07-19T07:41:50Z</time>
      </trkpt>
      <trkpt lat="43.18944" lon="5.64745">
        <ele>18.88</ele>
        <time>2012-07-19T07:42:06Z</time>
      </trkpt>
      <trkpt lat="43.18939" lon="5.64669">
        <ele>18.88</ele>
        <time>2012-07-19T07:42:14Z</time>
      </trkpt>
      <trkpt lat="43.18939" lon="5.6466">
        <ele>19.36</ele>
        <time>2012-07-19T07:42:15Z</time>
      </trkpt>
      <trkpt lat="43.18939" lon="5.64651">
        <ele>18.88</ele>
        <time>2012-07-19T07:42:16Z</time>
      </trkpt>
      <trkpt lat="43.18944" lon="5.64512">
        <ele>17.92</ele>
        <time>2012-07-19T07:42:30Z</time>
      </trkpt>
      <trkpt lat="43.18978" lon="5.64375">
        <ele>17.44</ele>
        <time>2012-07-19T07:42:44Z</time>
      </trkpt>
      <trkpt lat="43.19041" lon="5.64223">
        <ele>16.96</ele>
        <time>2012-07-19T07:43:01Z</time>
      </trkpt>
      <trkpt lat="43.19076" lon="5.64077">
        <ele>17.44</ele>
        <time>2012-07-19T07:43:17Z</time>
      </trkpt>
      <trkpt lat="43.19072" lon="5.63927">
        <ele>15.52</ele>
        <time>2012-07-19T07:43:32Z</time>
      </trkpt>
      <trkpt lat="43.19047" lon="5.63778">
        <ele>14.08</ele>
        <time>2012-07-19T07:43:46Z</time>
      </trkpt>
      <trkpt lat="43.18991" lon="5.63605">
        <ele>13.12</ele>
        <time>2012-07-19T07:44:03Z</time>
      </trkpt>
      <trkpt lat="43.18931" lon="5.63464">
        <ele>12.15</ele>
        <time>2012-07-19T07:44:18Z</time>
      </trkpt>
      <trkpt lat="43.189" lon="5.63331">
        <ele>13.12</ele>
        <time>2012-07-19T07:44:32Z</time>
      </trkpt>
      <trkpt lat="43.18905" lon="5.63202">
        <ele>13.6</ele>
        <time>2012-07-19T07:44:45Z</time>
      </trkpt>
      <trkpt lat="43.18931" lon="5.63056">
        <ele>13.6</ele>
        <time>2012-07-19T07:45:00Z</time>
      </trkpt>
      <trkpt lat="43.18956" lon="5.62896">
        <ele>13.6</ele>
        <time>2012-07-19T07:45:17Z</time>
      </trkpt>
      <trkpt lat="43.18958" lon="5.62889">
        <ele>14.08</ele>
        <time>2012-07-19T07:45:18Z</time>
      </trkpt>
      <trkpt lat="43.18961" lon="5.62884">
        <ele>14.08</ele>
        <time>2012-07-19T07:45:19Z</time>
      </trkpt>
      <trkpt lat="43.18964" lon="5.62879">
        <ele>14.56</ele>
        <time>2012-07-19T07:45:20Z</time>
      </trkpt>
      <trkpt lat="43.18968" lon="5.62875">
        <ele>15.04</ele>
        <time>2012-07-19T07:45:21Z</time>
      </trkpt>
      <trkpt lat="43.18972" lon="5.62872">
        <ele>14.56</ele>
        <time>2012-07-19T07:45:22Z</time>
      </trkpt>
      <trkpt lat="43.19041" lon="5.62831">
        <ele>15.52</ele>
        <time>2012-07-19T07:45:35Z</time>
      </trkpt>
      <trkpt lat="43.19115" lon="5.6279">
        <ele>17.92</ele>
        <time>2012-07-19T07:45:49Z</time>
      </trkpt>
      <trkpt lat="43.19135" lon="5.6278">
        <ele>19.36</ele>
        <time>2012-07-19T07:45:53Z</time>
      </trkpt>
      <trkpt lat="43.1914" lon="5.62779">
        <ele>19.36</ele>
        <time>2012-07-19T07:45:54Z</time>
      </trkpt>
      <trkpt lat="43.19146" lon="5.6278">
        <ele>19.36</ele>
        <time>2012-07-19T07:45:55Z</time>
      </trkpt>
      <trkpt lat="43.19151" lon="5.6278">
        <ele>19.36</ele>
        <time>2012-07-19T07:45:56Z</time>
      </trkpt>
      <trkpt lat="43.19157" lon="5.62781">
        <ele>19.36</ele>
        <time>2012-07-19T07:45:57Z</time>
      </trkpt>
      <trkpt lat="43.19199" lon="5.6279">
        <ele>20.81</ele>
        <time>2012-07-19T07:46:05Z</time>
      </trkpt>
      <trkpt lat="43.19276" lon="5.62785">
        <ele>22.73</ele>
        <time>2012-07-19T07:46:19Z</time>
      </trkpt>
      <trkpt lat="43.19282" lon="5.62785">
        <ele>22.73</ele>
        <time>2012-07-19T07:46:20Z</time>
      </trkpt>
      <trkpt lat="43.19364" lon="5.62811">
        <ele>22.73</ele>
        <time>2012-07-19T07:46:34Z</time>
      </trkpt>
      <trkpt lat="43.19447" lon="5.62845">
        <ele>25.13</ele>
        <time>2012-07-19T07:46:49Z</time>
      </trkpt>
      <trkpt lat="43.19473" lon="5.62855">
        <ele>25.61</ele>
        <time>2012-07-19T07:46:54Z</time>
      </trkpt>
      <trkpt lat="43.19478" lon="5.62856">
        <ele>26.09</ele>
        <time>2012-07-19T07:46:55Z</time>
      </trkpt>
      <trkpt lat="43.195" lon="5.62864">
        <ele>26.09</ele>
        <time>2012-07-19T07:46:59Z</time>
      </trkpt>
      <trkpt lat="43.19506" lon="5.62865">
        <ele>26.09</ele>
        <time>2012-07-19T07:47:00Z</time>
      </trkpt>
      <trkpt lat="43.19511" lon="5.62865">
        <ele>26.09</ele>
        <time>2012-07-19T07:47:01Z</time>
      </trkpt>
      <trkpt lat="43.19517" lon="5.62864">
        <ele>26.57</ele>
        <time>2012-07-19T07:47:02Z</time>
      </trkpt>
      <trkpt lat="43.19522" lon="5.62862">
        <ele>26.57</ele>
        <time>2012-07-19T07:47:03Z</time>
      </trkpt>
      <trkpt lat="43.19573" lon="5.62837">
        <ele>27.05</ele>
        <time>2012-07-19T07:47:12Z</time>
      </trkpt>
      <trkpt lat="43.19578" lon="5.62833">
        <ele>27.53</ele>
        <time>2012-07-19T07:47:13Z</time>
      </trkpt>
      <trkpt lat="43.19583" lon="5.62828">
        <ele>27.53</ele>
        <time>2012-07-19T07:47:14Z</time>
      </trkpt>
      <trkpt lat="43.19587" lon="5.62822">
        <ele>27.53</ele>
        <time>2012-07-19T07:47:15Z</time>
      </trkpt>
      <trkpt lat="43.19591" lon="5.62815">
        <ele>27.05</ele>
        <time>2012-07-19T07:47:16Z</time>
      </trkpt>
      <trkpt lat="43.19595" lon="5.62807">
        <ele>27.05</ele>
        <time>2012-07-19T07:47:17Z</time>
      </trkpt>
      <trkpt lat="43.19619" lon="5.62764">
        <ele>27.05</ele>
        <time>2012-07-19T07:47:24Z</time>
      </trkpt>
      <trkpt lat="43.19624" lon="5.6276">
        <ele>27.53</ele>
        <time>2012-07-19T07:47:25Z</time>
      </trkpt>
      <trkpt lat="43.19629" lon="5.62755">
        <ele>27.05</ele>
        <time>2012-07-19T07:47:26Z</time>
      </trkpt>
      <trkpt lat="43.19634" lon="5.62752">
        <ele>27.53</ele>
        <time>2012-07-19T07:47:27Z</time>
      </trkpt>
      <trkpt lat="43.1964" lon="5.6275">
        <ele>27.53</ele>
        <time>2012-07-19T07:47:28Z</time>
      </trkpt>
      <trkpt lat="43.19646" lon="5.62748">
        <ele>28.02</ele>
        <time>2012-07-19T07:47:29Z</time>
      </trkpt>
      <trkpt lat="43.19652" lon="5.62747">
        <ele>27.53</ele>
        <time>2012-07-19T07:47:30Z</time>
      </trkpt>
      <trkpt lat="43.19657" lon="5.62747">
        <ele>28.02</ele>
        <time>2012-07-19T07:47:31Z</time>
      </trkpt>
      <trkpt lat="43.19663" lon="5.62747">
        <ele>28.02</ele>
        <time>2012-07-19T07:47:32Z</time>
      </trkpt>
      <trkpt lat="43.19669" lon="5.62749">
        <ele>28.02</ele>
        <time>2012-07-19T07:47:33Z</time>
      </trkpt>
      <trkpt lat="43.19675" lon="5.62752">
        <ele>27.53</ele>
        <time>2012-07-19T07:47:34Z</time>
      </trkpt>
      <trkpt lat="43.19691" lon="5.62759">
        <ele>28.5</ele>
        <time>2012-07-19T07:47:37Z</time>
      </trkpt>
      <trkpt lat="43.19698" lon="5.62759">
        <ele>28.5</ele>
        <time>2012-07-19T07:47:38Z</time>
      </trkpt>
      <trkpt lat="43.19704" lon="5.62759">
        <ele>28.5</ele>
        <time>2012-07-19T07:47:39Z</time>
      </trkpt>
      <trkpt lat="43.19711" lon="5.62756">
        <ele>28.5</ele>
        <time>2012-07-19T07:47:40Z</time>
      </trkpt>
      <trkpt lat="43.19717" lon="5.62752">
        <ele>29.46</ele>
        <time>2012-07-19T07:47:41Z</time>
      </trkpt>
      <trkpt lat="43.19722" lon="5.62748">
        <ele>28.98</ele>
        <time>2012-07-19T07:47:42Z</time>
      </trkpt>
      <trkpt lat="43.19727" lon="5.62743">
        <ele>29.46</ele>
        <time>2012-07-19T07:47:43Z</time>
      </trkpt>
      <trkpt lat="43.19774" lon="5.62687">
        <ele>32.82</ele>
        <time>2012-07-19T07:47:55Z</time>
      </trkpt>
      <trkpt lat="43.1979" lon="5.62673">
        <ele>33.3</ele>
        <time>2012-07-19T07:47:59Z</time>
      </trkpt>
      <trkpt lat="43.19794" lon="5.62671">
        <ele>34.26</ele>
        <time>2012-07-19T07:48:00Z</time>
      </trkpt>
      <trkpt lat="43.19827" lon="5.62659">
        <ele>35.71</ele>
        <time>2012-07-19T07:48:07Z</time>
      </trkpt>
      <trkpt lat="43.19832" lon="5.62658">
        <ele>36.19</ele>
        <time>2012-07-19T07:48:08Z</time>
      </trkpt>
      <trkpt lat="43.19883" lon="5.62652">
        <ele>37.15</ele>
        <time>2012-07-19T07:48:21Z</time>
      </trkpt>
      <trkpt lat="43.19896" lon="5.62649">
        <ele>38.59</ele>
        <time>2012-07-19T07:48:24Z</time>
      </trkpt>
      <trkpt lat="43.1995" lon="5.62652">
        <ele>40.99</ele>
        <time>2012-07-19T07:48:37Z</time>
      </trkpt>
      <trkpt lat="43.19985" lon="5.6266">
        <ele>41.47</ele>
        <time>2012-07-19T07:48:45Z</time>
      </trkpt>
      <trkpt lat="43.1999" lon="5.6266">
        <ele>42.44</ele>
        <time>2012-07-19T07:48:46Z</time>
      </trkpt>
      <trkpt lat="43.19994" lon="5.6266">
        <ele>42.44</ele>
        <time>2012-07-19T07:48:47Z</time>
      </trkpt>
      <trkpt lat="43.20058" lon="5.6265">
        <ele>44.36</ele>
        <time>2012-07-19T07:49:01Z</time>
      </trkpt>
      <trkpt lat="43.20147" lon="5.62642">
        <ele>47.72</ele>
        <time>2012-07-19T07:49:20Z</time>
      </trkpt>
      <trkpt lat="43.20223" lon="5.62627">
        <ele>49.65</ele>
        <time>2012-07-19T07:49:36Z</time>
      </trkpt>
      <trkpt lat="43.2031" lon="5.62597">
        <ele>52.05</ele>
        <time>2012-07-19T07:49:55Z</time>
      </trkpt>
      <trkpt lat="43.20323" lon="5.6259">
        <ele>52.53</ele>
        <time>2012-07-19T07:49:58Z</time>
      </trkpt>
      <trkpt lat="43.20328" lon="5.62588">
        <ele>52.53</ele>
        <time>2012-07-19T07:49:59Z</time>
      </trkpt>
      <trkpt lat="43.20333" lon="5.62589">
        <ele>52.53</ele>
        <time>2012-07-19T07:50:00Z</time>
      </trkpt>
      <trkpt lat="43.20337" lon="5.62591">
        <ele>52.05</ele>
        <time>2012-07-19T07:50:01Z</time>
      </trkpt>
      <trkpt lat="43.20341" lon="5.62595">
        <ele>52.53</ele>
        <time>2012-07-19T07:50:02Z</time>
      </trkpt>
      <trkpt lat="43.20345" lon="5.626">
        <ele>52.53</ele>
        <time>2012-07-19T07:50:03Z</time>
      </trkpt>
      <trkpt lat="43.20416" lon="5.62652">
        <ele>53.01</ele>
        <time>2012-07-19T07:50:18Z</time>
      </trkpt>
      <trkpt lat="43.20501" lon="5.62672">
        <ele>50.13</ele>
        <time>2012-07-19T07:50:30Z</time>
      </trkpt>
      <trkpt lat="43.2055" lon="5.62689">
        <ele>53.01</ele>
        <time>2012-07-19T07:50:38Z</time>
      </trkpt>
      <trkpt lat="43.20561" lon="5.62694">
        <ele>53.01</ele>
        <time>2012-07-19T07:50:40Z</time>
      </trkpt>
      <trkpt lat="43.2057" lon="5.62699">
        <ele>53.97</ele>
        <time>2012-07-19T07:50:42Z</time>
      </trkpt>
      <trkpt lat="43.20625" lon="5.62729">
        <ele>57.34</ele>
        <time>2012-07-19T07:50:54Z</time>
      </trkpt>
      <trkpt lat="43.20629" lon="5.62731">
        <ele>57.34</ele>
        <time>2012-07-19T07:50:55Z</time>
      </trkpt>
      <trkpt lat="43.20656" lon="5.62743">
        <ele>58.78</ele>
        <time>2012-07-19T07:51:01Z</time>
      </trkpt>
      <trkpt lat="43.2066" lon="5.62745">
        <ele>58.78</ele>
        <time>2012-07-19T07:51:02Z</time>
      </trkpt>
      <trkpt lat="43.20718" lon="5.62762">
        <ele>60.7</ele>
        <time>2012-07-19T07:51:15Z</time>
      </trkpt>
      <trkpt lat="43.20791" lon="5.62771">
        <ele>63.1</ele>
        <time>2012-07-19T07:51:30Z</time>
      </trkpt>
      <trkpt lat="43.20859" lon="5.62788">
        <ele>65.03</ele>
        <time>2012-07-19T07:51:45Z</time>
      </trkpt>
      <trkpt lat="43.20908" lon="5.62822">
        <ele>67.43</ele>
        <time>2012-07-19T07:51:58Z</time>
      </trkpt>
      <trkpt lat="43.20925" lon="5.62838">
        <ele>68.87</ele>
        <time>2012-07-19T07:52:03Z</time>
      </trkpt>
      <trkpt lat="43.2093" lon="5.62841">
        <ele>68.39</ele>
        <time>2012-07-19T07:52:04Z</time>
      </trkpt>
      <trkpt lat="43.20934" lon="5.62846">
        <ele>68.87</ele>
        <time>2012-07-19T07:52:05Z</time>
      </trkpt>
      <trkpt lat="43.2094" lon="5.62857">
        <ele>69.35</ele>
        <time>2012-07-19T07:52:07Z</time>
      </trkpt>
      <trkpt lat="43.20944" lon="5.62861">
        <ele>68.87</ele>
        <time>2012-07-19T07:52:08Z</time>
      </trkpt>
      <trkpt lat="43.20949" lon="5.62863">
        <ele>69.35</ele>
        <time>2012-07-19T07:52:09Z</time>
      </trkpt>
      <trkpt lat="43.20954" lon="5.62864">
        <ele>69.83</ele>
        <time>2012-07-19T07:52:10Z</time>
      </trkpt>
      <trkpt lat="43.20959" lon="5.62865">
        <ele>69.83</ele>
        <time>2012-07-19T07:52:11Z</time>
      </trkpt>
      <trkpt lat="43.20964" lon="5.62867">
        <ele>69.83</ele>
        <time>2012-07-19T07:52:12Z</time>
      </trkpt>
      <trkpt lat="43.20969" lon="5.62869">
        <ele>69.83</ele>
        <time>2012-07-19T07:52:13Z</time>
      </trkpt>
      <trkpt lat="43.2101" lon="5.62884">
        <ele>70.79</ele>
        <time>2012-07-19T07:52:22Z</time>
      </trkpt>
      <trkpt lat="43.21088" lon="5.62885">
        <ele>72.72</ele>
        <time>2012-07-19T07:52:38Z</time>
      </trkpt>
      <trkpt lat="43.21152" lon="5.62899">
        <ele>74.64</ele>
        <time>2012-07-19T07:52:52Z</time>
      </trkpt>
      <trkpt lat="43.21216" lon="5.6293">
        <ele>75.12</ele>
        <time>2012-07-19T07:53:05Z</time>
      </trkpt>
      <trkpt lat="43.21286" lon="5.62966">
        <ele>76.56</ele>
        <time>2012-07-19T07:53:20Z</time>
      </trkpt>
      <trkpt lat="43.21301" lon="5.62975">
        <ele>76.08</ele>
        <time>2012-07-19T07:53:23Z</time>
      </trkpt>
      <trkpt lat="43.21306" lon="5.62979">
        <ele>76.08</ele>
        <time>2012-07-19T07:53:24Z</time>
      </trkpt>
      <trkpt lat="43.21311" lon="5.62984">
        <ele>76.08</ele>
        <time>2012-07-19T07:53:25Z</time>
      </trkpt>
      <trkpt lat="43.21315" lon="5.62989">
        <ele>76.56</ele>
        <time>2012-07-19T07:53:26Z</time>
      </trkpt>
      <trkpt lat="43.21319" lon="5.62994">
        <ele>76.56</ele>
        <time>2012-07-19T07:53:27Z</time>
      </trkpt>
      <trkpt lat="43.21347" lon="5.63034">
        <ele>76.56</ele>
        <time>2012-07-19T07:53:34Z</time>
      </trkpt>
      <trkpt lat="43.2136" lon="5.63056">
        <ele>77.04</ele>
        <time>2012-07-19T07:53:38Z</time>
      </trkpt>
      <trkpt lat="43.21378" lon="5.63082">
        <ele>79.45</ele>
        <time>2012-07-19T07:53:44Z</time>
      </trkpt>
      <trkpt lat="43.21407" lon="5.6313">
        <ele>82.33</ele>
        <time>2012-07-19T07:53:56Z</time>
      </trkpt>
      <trkpt lat="43.21436" lon="5.63171">
        <ele>85.21</ele>
        <time>2012-07-19T07:54:07Z</time>
      </trkpt>
      <trkpt lat="43.21468" lon="5.63215">
        <ele>88.58</ele>
        <time>2012-07-19T07:54:19Z</time>
      </trkpt>
      <trkpt lat="43.21501" lon="5.63243">
        <ele>91.94</ele>
        <time>2012-07-19T07:54:30Z</time>
      </trkpt>
      <trkpt lat="43.21543" lon="5.6327">
        <ele>94.83</ele>
        <time>2012-07-19T07:54:43Z</time>
      </trkpt>
      <trkpt lat="43.21578" lon="5.63299">
        <ele>97.71</ele>
        <time>2012-07-19T07:54:55Z</time>
      </trkpt>
      <trkpt lat="43.21605" lon="5.63342">
        <ele>101.08</ele>
        <time>2012-07-19T07:55:08Z</time>
      </trkpt>
      <trkpt lat="43.21607" lon="5.63345">
        <ele>101.08</ele>
        <time>2012-07-19T07:55:09Z</time>
      </trkpt>
      <trkpt lat="43.21633" lon="5.63387">
        <ele>104.44</ele>
        <time>2012-07-19T07:55:22Z</time>
      </trkpt>
      <trkpt lat="43.21659" lon="5.6343">
        <ele>107.32</ele>
        <time>2012-07-19T07:55:35Z</time>
      </trkpt>
      <trkpt lat="43.21681" lon="5.63473">
        <ele>110.69</ele>
        <time>2012-07-19T07:55:48Z</time>
      </trkpt>
      <trkpt lat="43.21685" lon="5.63483">
        <ele>111.65</ele>
        <time>2012-07-19T07:55:51Z</time>
      </trkpt>
      <trkpt lat="43.21716" lon="5.635">
        <ele>113.57</ele>
        <time>2012-07-19T07:56:03Z</time>
      </trkpt>
      <trkpt lat="43.21751" lon="5.63497">
        <ele>116.94</ele>
        <time>2012-07-19T07:56:15Z</time>
      </trkpt>
      <trkpt lat="43.21782" lon="5.63514">
        <ele>119.82</ele>
        <time>2012-07-19T07:56:27Z</time>
      </trkpt>
      <trkpt lat="43.21808" lon="5.63548">
        <ele>122.71</ele>
        <time>2012-07-19T07:56:39Z</time>
      </trkpt>
      <trkpt lat="43.21821" lon="5.63592">
        <ele>125.11</ele>
        <time>2012-07-19T07:56:51Z</time>
      </trkpt>
      <trkpt lat="43.21824" lon="5.6364">
        <ele>127.99</ele>
        <time>2012-07-19T07:57:03Z</time>
      </trkpt>
      <trkpt lat="43.21826" lon="5.63701">
        <ele>130.88</ele>
        <time>2012-07-19T07:57:18Z</time>
      </trkpt>
      <trkpt lat="43.21817" lon="5.63747">
        <ele>133.76</ele>
        <time>2012-07-19T07:57:30Z</time>
      </trkpt>
      <trkpt lat="43.21803" lon="5.63797">
        <ele>137.13</ele>
        <time>2012-07-19T07:57:43Z</time>
      </trkpt>
      <trkpt lat="43.21801" lon="5.63843">
        <ele>140.49</ele>
        <time>2012-07-19T07:57:55Z</time>
      </trkpt>
      <trkpt lat="43.21825" lon="5.63882">
        <ele>143.37</ele>
        <time>2012-07-19T07:58:08Z</time>
      </trkpt>
      <trkpt lat="43.21845" lon="5.63931">
        <ele>146.26</ele>
        <time>2012-07-19T07:58:22Z</time>
      </trkpt>
      <trkpt lat="43.21863" lon="5.63965">
        <ele>149.14</ele>
        <time>2012-07-19T07:58:32Z</time>
      </trkpt>
      <trkpt lat="43.21896" lon="5.63999">
        <ele>152.51</ele>
        <time>2012-07-19T07:58:46Z</time>
      </trkpt>
      <trkpt lat="43.21931" lon="5.64017">
        <ele>155.39</ele>
        <time>2012-07-19T07:58:59Z</time>
      </trkpt>
      <trkpt lat="43.21945" lon="5.64037">
        <ele>157.31</ele>
        <time>2012-07-19T07:59:06Z</time>
      </trkpt>
      <trkpt lat="43.21957" lon="5.64085">
        <ele>160.68</ele>
        <time>2012-07-19T07:59:19Z</time>
      </trkpt>
      <trkpt lat="43.21971" lon="5.64117">
        <ele>163.08</ele>
        <time>2012-07-19T07:59:29Z</time>
      </trkpt>
      <trkpt lat="43.21992" lon="5.64161">
        <ele>165.96</ele>
        <time>2012-07-19T07:59:43Z</time>
      </trkpt>
      <trkpt lat="43.2202" lon="5.64199">
        <ele>168.85</ele>
        <time>2012-07-19T07:59:57Z</time>
      </trkpt>
      <trkpt lat="43.22047" lon="5.64237">
        <ele>171.73</ele>
        <time>2012-07-19T08:00:10Z</time>
      </trkpt>
      <trkpt lat="43.22058" lon="5.64279">
        <ele>175.1</ele>
        <time>2012-07-19T08:00:22Z</time>
      </trkpt>
      <trkpt lat="43.22061" lon="5.64328">
        <ele>177.98</ele>
        <time>2012-07-19T08:00:35Z</time>
      </trkpt>
      <trkpt lat="43.22067" lon="5.64374">
        <ele>180.87</ele>
        <time>2012-07-19T08:00:47Z</time>
      </trkpt>
      <trkpt lat="43.22082" lon="5.64421">
        <ele>184.23</ele>
        <time>2012-07-19T08:01:00Z</time>
      </trkpt>
      <trkpt lat="43.22115" lon="5.64472">
        <ele>187.11</ele>
        <time>2012-07-19T08:01:16Z</time>
      </trkpt>
      <trkpt lat="43.22138" lon="5.64516">
        <ele>190.48</ele>
        <time>2012-07-19T08:01:30Z</time>
      </trkpt>
      <trkpt lat="43.22157" lon="5.6456">
        <ele>193.36</ele>
        <time>2012-07-19T08:01:43Z</time>
      </trkpt>
      <trkpt lat="43.22174" lon="5.64601">
        <ele>196.25</ele>
        <time>2012-07-19T08:01:55Z</time>
      </trkpt>
      <trkpt lat="43.22189" lon="5.6465">
        <ele>198.65</ele>
        <time>2012-07-19T08:02:08Z</time>
      </trkpt>
      <trkpt lat="43.22196" lon="5.64699">
        <ele>202.01</ele>
        <time>2012-07-19T08:02:21Z</time>
      </trkpt>
      <trkpt lat="43.22204" lon="5.64748">
        <ele>204.9</ele>
        <time>2012-07-19T08:02:34Z</time>
      </trkpt>
      <trkpt lat="43.22225" lon="5.64798">
        <ele>208.26</ele>
        <time>2012-07-19T08:02:48Z</time>
      </trkpt>
      <trkpt lat="43.22247" lon="5.6484">
        <ele>210.67</ele>
        <time>2012-07-19T08:03:01Z</time>
      </trkpt>
      <trkpt lat="43.22276" lon="5.64882">
        <ele>214.03</ele>
        <time>2012-07-19T08:03:15Z</time>
      </trkpt>
      <trkpt lat="43.22321" lon="5.64911">
        <ele>215.95</ele>
        <time>2012-07-19T08:03:29Z</time>
      </trkpt>
      <trkpt lat="43.22367" lon="5.64933">
        <ele>217.4</ele>
        <time>2012-07-19T08:03:42Z</time>
      </trkpt>
      <trkpt lat="43.22434" lon="5.64966">
        <ele>218.84</ele>
        <time>2012-07-19T08:03:59Z</time>
      </trkpt>
      <trkpt lat="43.2248" lon="5.64987">
        <ele>218.36</ele>
        <time>2012-07-19T08:04:09Z</time>
      </trkpt>
      <trkpt lat="43.22485" lon="5.64987">
        <ele>217.88</ele>
        <time>2012-07-19T08:04:10Z</time>
      </trkpt>
      <trkpt lat="43.2249" lon="5.64986">
        <ele>217.88</ele>
        <time>2012-07-19T08:04:11Z</time>
      </trkpt>
      <trkpt lat="43.22496" lon="5.64984">
        <ele>217.88</ele>
        <time>2012-07-19T08:04:12Z</time>
      </trkpt>
      <trkpt lat="43.22501" lon="5.6498">
        <ele>217.88</ele>
        <time>2012-07-19T08:04:13Z</time>
      </trkpt>
      <trkpt lat="43.22505" lon="5.64976">
        <ele>217.88</ele>
        <time>2012-07-19T08:04:14Z</time>
      </trkpt>
      <trkpt lat="43.22508" lon="5.6497">
        <ele>217.88</ele>
        <time>2012-07-19T08:04:15Z</time>
      </trkpt>
      <trkpt lat="43.2251" lon="5.64964">
        <ele>217.88</ele>
        <time>2012-07-19T08:04:16Z</time>
      </trkpt>
      <trkpt lat="43.22512" lon="5.64957">
        <ele>217.88</ele>
        <time>2012-07-19T08:04:17Z</time>
      </trkpt>
      <trkpt lat="43.22514" lon="5.6495">
        <ele>218.36</ele>
        <time>2012-07-19T08:04:18Z</time>
      </trkpt>
      <trkpt lat="43.22515" lon="5.64943">
        <ele>217.88</ele>
        <time>2012-07-19T08:04:19Z</time>
      </trkpt>
      <trkpt lat="43.22522" lon="5.64834">
        <ele>217.4</ele>
        <time>2012-07-19T08:04:32Z</time>
      </trkpt>
      <trkpt lat="43.22524" lon="5.64826">
        <ele>216.91</ele>
        <time>2012-07-19T08:04:33Z</time>
      </trkpt>
      <trkpt lat="43.22528" lon="5.6482">
        <ele>216.91</ele>
        <time>2012-07-19T08:04:34Z</time>
      </trkpt>
      <trkpt lat="43.22534" lon="5.64816">
        <ele>216.43</ele>
        <time>2012-07-19T08:04:35Z</time>
      </trkpt>
      <trkpt lat="43.2254" lon="5.64816">
        <ele>216.43</ele>
        <time>2012-07-19T08:04:36Z</time>
      </trkpt>
      <trkpt lat="43.22545" lon="5.64818">
        <ele>216.43</ele>
        <time>2012-07-19T08:04:37Z</time>
      </trkpt>
      <trkpt lat="43.22551" lon="5.64823">
        <ele>216.91</ele>
        <time>2012-07-19T08:04:38Z</time>
      </trkpt>
      <trkpt lat="43.22555" lon="5.64827">
        <ele>216.91</ele>
        <time>2012-07-19T08:04:39Z</time>
      </trkpt>
      <trkpt lat="43.2256" lon="5.64833">
        <ele>216.91</ele>
        <time>2012-07-19T08:04:40Z</time>
      </trkpt>
      <trkpt lat="43.2258" lon="5.64853">
        <ele>216.43</ele>
        <time>2012-07-19T08:04:44Z</time>
      </trkpt>
      <trkpt lat="43.22585" lon="5.64857">
        <ele>216.43</ele>
        <time>2012-07-19T08:04:45Z</time>
      </trkpt>
      <trkpt lat="43.22591" lon="5.64859">
        <ele>215.95</ele>
        <time>2012-07-19T08:04:46Z</time>
      </trkpt>
      <trkpt lat="43.22597" lon="5.6486">
        <ele>215.95</ele>
        <time>2012-07-19T08:04:47Z</time>
      </trkpt>
      <trkpt lat="43.22603" lon="5.64859">
        <ele>215.95</ele>
        <time>2012-07-19T08:04:48Z</time>
      </trkpt>
      <trkpt lat="43.22609" lon="5.64857">
        <ele>216.43</ele>
        <time>2012-07-19T08:04:49Z</time>
      </trkpt>
      <trkpt lat="43.22614" lon="5.64852">
        <ele>216.43</ele>
        <time>2012-07-19T08:04:50Z</time>
      </trkpt>
      <trkpt lat="43.22618" lon="5.64847">
        <ele>216.91</ele>
        <time>2012-07-19T08:04:51Z</time>
      </trkpt>
      <trkpt lat="43.22621" lon="5.64841">
        <ele>217.4</ele>
        <time>2012-07-19T08:04:52Z</time>
      </trkpt>
      <trkpt lat="43.22623" lon="5.64836">
        <ele>217.88</ele>
        <time>2012-07-19T08:04:53Z</time>
      </trkpt>
      <trkpt lat="43.22625" lon="5.6483">
        <ele>217.88</ele>
        <time>2012-07-19T08:04:54Z</time>
      </trkpt>
      <trkpt lat="43.2264" lon="5.64784">
        <ele>221.24</ele>
        <time>2012-07-19T08:05:03Z</time>
      </trkpt>
      <trkpt lat="43.22652" lon="5.64777">
        <ele>223.16</ele>
        <time>2012-07-19T08:05:07Z</time>
      </trkpt>
      <trkpt lat="43.22665" lon="5.64783">
        <ele>224.61</ele>
        <time>2012-07-19T08:05:11Z</time>
      </trkpt>
      <trkpt lat="43.22701" lon="5.64814">
        <ele>227.49</ele>
        <time>2012-07-19T08:05:23Z</time>
      </trkpt>
      <trkpt lat="43.2271" lon="5.64822">
        <ele>228.93</ele>
        <time>2012-07-19T08:05:26Z</time>
      </trkpt>
      <trkpt lat="43.22738" lon="5.64864">
        <ele>231.81</ele>
        <time>2012-07-19T08:05:38Z</time>
      </trkpt>
      <trkpt lat="43.22742" lon="5.64879">
        <ele>232.78</ele>
        <time>2012-07-19T08:05:42Z</time>
      </trkpt>
      <trkpt lat="43.22744" lon="5.64883">
        <ele>233.26</ele>
        <time>2012-07-19T08:05:43Z</time>
      </trkpt>
      <trkpt lat="43.22747" lon="5.64886">
        <ele>233.26</ele>
        <time>2012-07-19T08:05:44Z</time>
      </trkpt>
      <trkpt lat="43.22749" lon="5.6489">
        <ele>233.74</ele>
        <time>2012-07-19T08:05:45Z</time>
      </trkpt>
      <trkpt lat="43.22752" lon="5.64893">
        <ele>233.26</ele>
        <time>2012-07-19T08:05:46Z</time>
      </trkpt>
      <trkpt lat="43.22755" lon="5.64896">
        <ele>233.74</ele>
        <time>2012-07-19T08:05:47Z</time>
      </trkpt>
      <trkpt lat="43.22759" lon="5.64898">
        <ele>234.22</ele>
        <time>2012-07-19T08:05:48Z</time>
      </trkpt>
      <trkpt lat="43.22762" lon="5.64899">
        <ele>234.22</ele>
        <time>2012-07-19T08:05:49Z</time>
      </trkpt>
      <trkpt lat="43.22789" lon="5.64879">
        <ele>235.66</ele>
        <time>2012-07-19T08:05:58Z</time>
      </trkpt>
      <trkpt lat="43.22781" lon="5.64814">
        <ele>238.54</ele>
        <time>2012-07-19T08:06:12Z</time>
      </trkpt>
      <trkpt lat="43.22762" lon="5.64771">
        <ele>240.47</ele>
        <time>2012-07-19T08:06:22Z</time>
      </trkpt>
      <trkpt lat="43.22755" lon="5.64719">
        <ele>242.39</ele>
        <time>2012-07-19T08:06:33Z</time>
      </trkpt>
      <trkpt lat="43.22758" lon="5.64716">
        <ele>242.39</ele>
        <time>2012-07-19T08:06:34Z</time>
      </trkpt>
      <trkpt lat="43.22761" lon="5.64715">
        <ele>242.87</ele>
        <time>2012-07-19T08:06:35Z</time>
      </trkpt>
      <trkpt lat="43.22764" lon="5.64715">
        <ele>243.35</ele>
        <time>2012-07-19T08:06:36Z</time>
      </trkpt>
      <trkpt lat="43.22767" lon="5.64716">
        <ele>243.35</ele>
        <time>2012-07-19T08:06:37Z</time>
      </trkpt>
      <trkpt lat="43.2277" lon="5.64718">
        <ele>243.83</ele>
        <time>2012-07-19T08:06:38Z</time>
      </trkpt>
      <trkpt lat="43.22773" lon="5.64721">
        <ele>243.83</ele>
        <time>2012-07-19T08:06:39Z</time>
      </trkpt>
      <trkpt lat="43.22775" lon="5.64725">
        <ele>244.79</ele>
        <time>2012-07-19T08:06:40Z</time>
      </trkpt>
      <trkpt lat="43.22792" lon="5.64779">
        <ele>247.68</ele>
        <time>2012-07-19T08:06:53Z</time>
      </trkpt>
      <trkpt lat="43.22793" lon="5.64783">
        <ele>248.16</ele>
        <time>2012-07-19T08:06:54Z</time>
      </trkpt>
      <trkpt lat="43.22807" lon="5.64826">
        <ele>250.08</ele>
        <time>2012-07-19T08:07:07Z</time>
      </trkpt>
      <trkpt lat="43.2282" lon="5.64874">
        <ele>253.93</ele>
        <time>2012-07-19T08:07:20Z</time>
      </trkpt>
      <trkpt lat="43.22835" lon="5.64927">
        <ele>256.81</ele>
        <time>2012-07-19T08:07:35Z</time>
      </trkpt>
      <trkpt lat="43.22852" lon="5.64976">
        <ele>259.69</ele>
        <time>2012-07-19T08:07:49Z</time>
      </trkpt>
      <trkpt lat="43.2287" lon="5.65015">
        <ele>262.58</ele>
        <time>2012-07-19T08:08:01Z</time>
      </trkpt>
      <trkpt lat="43.22899" lon="5.65057">
        <ele>265.46</ele>
        <time>2012-07-19T08:08:16Z</time>
      </trkpt>
      <trkpt lat="43.22925" lon="5.65099">
        <ele>268.35</ele>
        <time>2012-07-19T08:08:30Z</time>
      </trkpt>
      <trkpt lat="43.22945" lon="5.65154">
        <ele>272.19</ele>
        <time>2012-07-19T08:08:45Z</time>
      </trkpt>
      <trkpt lat="43.22959" lon="5.65204">
        <ele>275.07</ele>
        <time>2012-07-19T08:08:59Z</time>
      </trkpt>
      <trkpt lat="43.22969" lon="5.65248">
        <ele>277.48</ele>
        <time>2012-07-19T08:09:11Z</time>
      </trkpt>
      <trkpt lat="43.22981" lon="5.65294">
        <ele>280.36</ele>
        <time>2012-07-19T08:09:23Z</time>
      </trkpt>
      <trkpt lat="43.22978" lon="5.65341">
        <ele>282.77</ele>
        <time>2012-07-19T08:09:35Z</time>
      </trkpt>
      <trkpt lat="43.22992" lon="5.65366">
        <ele>285.17</ele>
        <time>2012-07-19T08:09:44Z</time>
      </trkpt>
      <trkpt lat="43.23009" lon="5.65362">
        <ele>286.61</ele>
        <time>2012-07-19T08:09:50Z</time>
      </trkpt>
      <trkpt lat="43.23011" lon="5.65359">
        <ele>286.61</ele>
        <time>2012-07-19T08:09:51Z</time>
      </trkpt>
      <trkpt lat="43.23012" lon="5.65356">
        <ele>287.09</ele>
        <time>2012-07-19T08:09:52Z</time>
      </trkpt>
      <trkpt lat="43.23016" lon="5.65305">
        <ele>289.01</ele>
        <time>2012-07-19T08:10:05Z</time>
      </trkpt>
      <trkpt lat="43.23039" lon="5.65284">
        <ele>292.38</ele>
        <time>2012-07-19T08:10:16Z</time>
      </trkpt>
      <trkpt lat="43.23056" lon="5.65317">
        <ele>294.78</ele>
        <time>2012-07-19T08:10:27Z</time>
      </trkpt>
      <trkpt lat="43.23047" lon="5.65377">
        <ele>297.18</ele>
        <time>2012-07-19T08:10:41Z</time>
      </trkpt>
      <trkpt lat="43.23037" lon="5.6543">
        <ele>300.07</ele>
        <time>2012-07-19T08:10:53Z</time>
      </trkpt>
      <trkpt lat="43.23036" lon="5.655">
        <ele>302.47</ele>
        <time>2012-07-19T08:11:08Z</time>
      </trkpt>
      <trkpt lat="43.23041" lon="5.6556">
        <ele>304.88</ele>
        <time>2012-07-19T08:11:21Z</time>
      </trkpt>
      <trkpt lat="43.2305" lon="5.65624">
        <ele>306.8</ele>
        <time>2012-07-19T08:11:35Z</time>
      </trkpt>
      <trkpt lat="43.23044" lon="5.65683">
        <ele>309.68</ele>
        <time>2012-07-19T08:11:48Z</time>
      </trkpt>
      <trkpt lat="43.23028" lon="5.65741">
        <ele>312.57</ele>
        <time>2012-07-19T08:12:01Z</time>
      </trkpt>
      <trkpt lat="43.23011" lon="5.65794">
        <ele>314.49</ele>
        <time>2012-07-19T08:12:13Z</time>
      </trkpt>
      <trkpt lat="43.22997" lon="5.65839">
        <ele>316.89</ele>
        <time>2012-07-19T08:12:24Z</time>
      </trkpt>
      <trkpt lat="43.2302" lon="5.65846">
        <ele>318.81</ele>
        <time>2012-07-19T08:12:32Z</time>
      </trkpt>
      <trkpt lat="43.23047" lon="5.65825">
        <ele>320.26</ele>
        <time>2012-07-19T08:12:41Z</time>
      </trkpt>
      <trkpt lat="43.23073" lon="5.65852">
        <ele>322.66</ele>
        <time>2012-07-19T08:12:51Z</time>
      </trkpt>
      <trkpt lat="43.23099" lon="5.65848">
        <ele>325.06</ele>
        <time>2012-07-19T08:12:59Z</time>
      </trkpt>
      <trkpt lat="43.23103" lon="5.65801">
        <ele>326.5</ele>
        <time>2012-07-19T08:13:09Z</time>
      </trkpt>
      <trkpt lat="43.23104" lon="5.65733">
        <ele>328.91</ele>
        <time>2012-07-19T08:13:24Z</time>
      </trkpt>
      <trkpt lat="43.23129" lon="5.657">
        <ele>331.31</ele>
        <time>2012-07-19T08:13:34Z</time>
      </trkpt>
      <trkpt lat="43.23163" lon="5.65716">
        <ele>333.23</ele>
        <time>2012-07-19T08:13:45Z</time>
      </trkpt>
      <trkpt lat="43.23183" lon="5.65764">
        <ele>336.12</ele>
        <time>2012-07-19T08:13:57Z</time>
      </trkpt>
      <trkpt lat="43.23206" lon="5.65828">
        <ele>338.52</ele>
        <time>2012-07-19T08:14:12Z</time>
      </trkpt>
      <trkpt lat="43.2321" lon="5.65882">
        <ele>340.92</ele>
        <time>2012-07-19T08:14:24Z</time>
      </trkpt>
      <trkpt lat="43.23187" lon="5.65934">
        <ele>343.81</ele>
        <time>2012-07-19T08:14:37Z</time>
      </trkpt>
      <trkpt lat="43.23166" lon="5.65994">
        <ele>346.69</ele>
        <time>2012-07-19T08:14:51Z</time>
      </trkpt>
      <trkpt lat="43.23188" lon="5.66028">
        <ele>348.62</ele>
        <time>2012-07-19T08:15:01Z</time>
      </trkpt>
      <trkpt lat="43.23221" lon="5.66068">
        <ele>351.98</ele>
        <time>2012-07-19T08:15:14Z</time>
      </trkpt>
      <trkpt lat="43.23247" lon="5.66132">
        <ele>354.86</ele>
        <time>2012-07-19T08:15:29Z</time>
      </trkpt>
      <trkpt lat="43.23266" lon="5.66188">
        <ele>357.75</ele>
        <time>2012-07-19T08:15:42Z</time>
      </trkpt>
      <trkpt lat="43.23272" lon="5.66242">
        <ele>359.67</ele>
        <time>2012-07-19T08:15:54Z</time>
      </trkpt>
      <trkpt lat="43.23298" lon="5.66259">
        <ele>361.59</ele>
        <time>2012-07-19T08:16:03Z</time>
      </trkpt>
      <trkpt lat="43.23329" lon="5.66273">
        <ele>364.48</ele>
        <time>2012-07-19T08:16:14Z</time>
      </trkpt>
      <trkpt lat="43.23346" lon="5.66311">
        <ele>366.4</ele>
        <time>2012-07-19T08:16:24Z</time>
      </trkpt>
      <trkpt lat="43.23363" lon="5.66367">
        <ele>369.28</ele>
        <time>2012-07-19T08:16:37Z</time>
      </trkpt>
      <trkpt lat="43.23357" lon="5.66436">
        <ele>371.69</ele>
        <time>2012-07-19T08:16:51Z</time>
      </trkpt>
      <trkpt lat="43.2335" lon="5.66485">
        <ele>372.65</ele>
        <time>2012-07-19T08:17:00Z</time>
      </trkpt>
      <trkpt lat="43.23348" lon="5.66542">
        <ele>373.61</ele>
        <time>2012-07-19T08:17:10Z</time>
      </trkpt>
      <trkpt lat="43.23351" lon="5.66565">
        <ele>373.61</ele>
        <time>2012-07-19T08:17:14Z</time>
      </trkpt>
      <trkpt lat="43.23352" lon="5.66571">
        <ele>373.61</ele>
        <time>2012-07-19T08:17:15Z</time>
      </trkpt>
      <trkpt lat="43.23354" lon="5.66577">
        <ele>374.09</ele>
        <time>2012-07-19T08:17:16Z</time>
      </trkpt>
      <trkpt lat="43.23356" lon="5.66582">
        <ele>374.09</ele>
        <time>2012-07-19T08:17:17Z</time>
      </trkpt>
      <trkpt lat="43.23359" lon="5.66587">
        <ele>374.57</ele>
        <time>2012-07-19T08:17:18Z</time>
      </trkpt>
      <trkpt lat="43.23361" lon="5.66592">
        <ele>374.09</ele>
        <time>2012-07-19T08:17:19Z</time>
      </trkpt>
      <trkpt lat="43.23364" lon="5.66596">
        <ele>374.09</ele>
        <time>2012-07-19T08:17:20Z</time>
      </trkpt>
      <trkpt lat="43.23367" lon="5.666">
        <ele>374.57</ele>
        <time>2012-07-19T08:17:21Z</time>
      </trkpt>
      <trkpt lat="43.23379" lon="5.66616">
        <ele>375.53</ele>
        <time>2012-07-19T08:17:25Z</time>
      </trkpt>
      <trkpt lat="43.23396" lon="5.66658">
        <ele>377.45</ele>
        <time>2012-07-19T08:17:34Z</time>
      </trkpt>
      <trkpt lat="43.23399" lon="5.66674">
        <ele>377.94</ele>
        <time>2012-07-19T08:17:37Z</time>
      </trkpt>
      <trkpt lat="43.23399" lon="5.6668">
        <ele>377.94</ele>
        <time>2012-07-19T08:17:38Z</time>
      </trkpt>
      <trkpt lat="43.23403" lon="5.66755">
        <ele>380.82</ele>
        <time>2012-07-19T08:17:52Z</time>
      </trkpt>
      <trkpt lat="43.23408" lon="5.66769">
        <ele>381.3</ele>
        <time>2012-07-19T08:17:55Z</time>
      </trkpt>
      <trkpt lat="43.23409" lon="5.66774">
        <ele>381.3</ele>
        <time>2012-07-19T08:17:56Z</time>
      </trkpt>
      <trkpt lat="43.23418" lon="5.6685">
        <ele>383.7</ele>
        <time>2012-07-19T08:18:10Z</time>
      </trkpt>
      <trkpt lat="43.23409" lon="5.66918">
        <ele>386.11</ele>
        <time>2012-07-19T08:18:23Z</time>
      </trkpt>
      <trkpt lat="43.23406" lon="5.66939">
        <ele>387.07</ele>
        <time>2012-07-19T08:18:27Z</time>
      </trkpt>
      <trkpt lat="43.23405" lon="5.66945">
        <ele>387.07</ele>
        <time>2012-07-19T08:18:28Z</time>
      </trkpt>
      <trkpt lat="43.23404" lon="5.6695">
        <ele>387.55</ele>
        <time>2012-07-19T08:18:29Z</time>
      </trkpt>
      <trkpt lat="43.23404" lon="5.66956">
        <ele>388.03</ele>
        <time>2012-07-19T08:18:30Z</time>
      </trkpt>
      <trkpt lat="43.23405" lon="5.66961">
        <ele>387.55</ele>
        <time>2012-07-19T08:18:31Z</time>
      </trkpt>
      <trkpt lat="43.23405" lon="5.66967">
        <ele>388.03</ele>
        <time>2012-07-19T08:18:32Z</time>
      </trkpt>
      <trkpt lat="43.23407" lon="5.66984">
        <ele>388.03</ele>
        <time>2012-07-19T08:18:35Z</time>
      </trkpt>
      <trkpt lat="43.23412" lon="5.67012">
        <ele>388.99</ele>
        <time>2012-07-19T08:18:40Z</time>
      </trkpt>
      <trkpt lat="43.23413" lon="5.67018">
        <ele>388.99</ele>
        <time>2012-07-19T08:18:41Z</time>
      </trkpt>
      <trkpt lat="43.23426" lon="5.67084">
        <ele>391.87</ele>
        <time>2012-07-19T08:18:53Z</time>
      </trkpt>
      <trkpt lat="43.23427" lon="5.6709">
        <ele>391.39</ele>
        <time>2012-07-19T08:18:54Z</time>
      </trkpt>
      <trkpt lat="43.23448" lon="5.67176">
        <ele>394.28</ele>
        <time>2012-07-19T08:19:10Z</time>
      </trkpt>
      <trkpt lat="43.23455" lon="5.67187">
        <ele>394.76</ele>
        <time>2012-07-19T08:19:13Z</time>
      </trkpt>
      <trkpt lat="43.23459" lon="5.67186">
        <ele>394.76</ele>
        <time>2012-07-19T08:19:14Z</time>
      </trkpt>
      <trkpt lat="43.23463" lon="5.67184">
        <ele>394.76</ele>
        <time>2012-07-19T08:19:15Z</time>
      </trkpt>
      <trkpt lat="43.23466" lon="5.67179">
        <ele>395.24</ele>
        <time>2012-07-19T08:19:16Z</time>
      </trkpt>
      <trkpt lat="43.23468" lon="5.67174">
        <ele>395.24</ele>
        <time>2012-07-19T08:19:17Z</time>
      </trkpt>
      <trkpt lat="43.23468" lon="5.67169">
        <ele>395.24</ele>
        <time>2012-07-19T08:19:18Z</time>
      </trkpt>
      <trkpt lat="43.23469" lon="5.67163">
        <ele>395.72</ele>
        <time>2012-07-19T08:19:19Z</time>
      </trkpt>
      <trkpt lat="43.23483" lon="5.67087">
        <ele>396.68</ele>
        <time>2012-07-19T08:19:33Z</time>
      </trkpt>
      <trkpt lat="43.23496" lon="5.67067">
        <ele>397.64</ele>
        <time>2012-07-19T08:19:38Z</time>
      </trkpt>
      <trkpt lat="43.23536" lon="5.6704">
        <ele>399.08</ele>
        <time>2012-07-19T08:19:50Z</time>
      </trkpt>
      <trkpt lat="43.23561" lon="5.67017">
        <ele>398.12</ele>
        <time>2012-07-19T08:20:00Z</time>
      </trkpt>
      <trkpt lat="43.2359" lon="5.66969">
        <ele>394.76</ele>
        <time>2012-07-19T08:20:08Z</time>
      </trkpt>
      <trkpt lat="43.23623" lon="5.66916">
        <ele>391.39</ele>
        <time>2012-07-19T08:20:15Z</time>
      </trkpt>
      <trkpt lat="43.23646" lon="5.66882">
        <ele>389.47</ele>
        <time>2012-07-19T08:20:19Z</time>
      </trkpt>
      <trkpt lat="43.23704" lon="5.66802">
        <ele>386.59</ele>
        <time>2012-07-19T08:20:28Z</time>
      </trkpt>
      <trkpt lat="43.23713" lon="5.66796">
        <ele>386.11</ele>
        <time>2012-07-19T08:20:29Z</time>
      </trkpt>
      <trkpt lat="43.23722" lon="5.66791">
        <ele>386.11</ele>
        <time>2012-07-19T08:20:30Z</time>
      </trkpt>
      <trkpt lat="43.23746" lon="5.66775">
        <ele>385.63</ele>
        <time>2012-07-19T08:20:33Z</time>
      </trkpt>
      <trkpt lat="43.23753" lon="5.66767">
        <ele>385.63</ele>
        <time>2012-07-19T08:20:34Z</time>
      </trkpt>
      <trkpt lat="43.23759" lon="5.66758">
        <ele>384.66</ele>
        <time>2012-07-19T08:20:35Z</time>
      </trkpt>
      <trkpt lat="43.23764" lon="5.66748">
        <ele>385.15</ele>
        <time>2012-07-19T08:20:36Z</time>
      </trkpt>
      <trkpt lat="43.23767" lon="5.66737">
        <ele>384.66</ele>
        <time>2012-07-19T08:20:37Z</time>
      </trkpt>
      <trkpt lat="43.2377" lon="5.66725">
        <ele>384.18</ele>
        <time>2012-07-19T08:20:38Z</time>
      </trkpt>
      <trkpt lat="43.23771" lon="5.66714">
        <ele>384.18</ele>
        <time>2012-07-19T08:20:39Z</time>
      </trkpt>
      <trkpt lat="43.23773" lon="5.66702">
        <ele>383.7</ele>
        <time>2012-07-19T08:20:40Z</time>
      </trkpt>
      <trkpt lat="43.23779" lon="5.66643">
        <ele>382.74</ele>
        <time>2012-07-19T08:20:45Z</time>
      </trkpt>
      <trkpt lat="43.23782" lon="5.66631">
        <ele>382.26</ele>
        <time>2012-07-19T08:20:46Z</time>
      </trkpt>
      <trkpt lat="43.23785" lon="5.6662">
        <ele>382.26</ele>
        <time>2012-07-19T08:20:47Z</time>
      </trkpt>
      <trkpt lat="43.2379" lon="5.66609">
        <ele>382.26</ele>
        <time>2012-07-19T08:20:48Z</time>
      </trkpt>
      <trkpt lat="43.23795" lon="5.66599">
        <ele>382.26</ele>
        <time>2012-07-19T08:20:49Z</time>
      </trkpt>
      <trkpt lat="43.23801" lon="5.66589">
        <ele>381.78</ele>
        <time>2012-07-19T08:20:50Z</time>
      </trkpt>
      <trkpt lat="43.23811" lon="5.6657">
        <ele>381.78</ele>
        <time>2012-07-19T08:20:52Z</time>
      </trkpt>
      <trkpt lat="43.23815" lon="5.66559">
        <ele>381.3</ele>
        <time>2012-07-19T08:20:53Z</time>
      </trkpt>
      <trkpt lat="43.23817" lon="5.66548">
        <ele>380.34</ele>
        <time>2012-07-19T08:20:54Z</time>
      </trkpt>
      <trkpt lat="43.23817" lon="5.66536">
        <ele>379.86</ele>
        <time>2012-07-19T08:20:55Z</time>
      </trkpt>
      <trkpt lat="43.23815" lon="5.66524">
        <ele>379.38</ele>
        <time>2012-07-19T08:20:56Z</time>
      </trkpt>
      <trkpt lat="43.23813" lon="5.66512">
        <ele>379.38</ele>
        <time>2012-07-19T08:20:57Z</time>
      </trkpt>
      <trkpt lat="43.2381" lon="5.66501">
        <ele>379.38</ele>
        <time>2012-07-19T08:20:58Z</time>
      </trkpt>
      <trkpt lat="43.23795" lon="5.6641">
        <ele>377.45</ele>
        <time>2012-07-19T08:21:06Z</time>
      </trkpt>
      <trkpt lat="43.23791" lon="5.66399">
        <ele>376.49</ele>
        <time>2012-07-19T08:21:07Z</time>
      </trkpt>
      <trkpt lat="43.23787" lon="5.66389">
        <ele>376.49</ele>
        <time>2012-07-19T08:21:08Z</time>
      </trkpt>
      <trkpt lat="43.23781" lon="5.66381">
        <ele>376.01</ele>
        <time>2012-07-19T08:21:09Z</time>
      </trkpt>
      <trkpt lat="43.23774" lon="5.66373">
        <ele>375.53</ele>
        <time>2012-07-19T08:21:10Z</time>
      </trkpt>
      <trkpt lat="43.23766" lon="5.66366">
        <ele>375.53</ele>
        <time>2012-07-19T08:21:11Z</time>
      </trkpt>
      <trkpt lat="43.23753" lon="5.6635">
        <ele>374.57</ele>
        <time>2012-07-19T08:21:13Z</time>
      </trkpt>
      <trkpt lat="43.23748" lon="5.66339">
        <ele>374.09</ele>
        <time>2012-07-19T08:21:14Z</time>
      </trkpt>
      <trkpt lat="43.23745" lon="5.66327">
        <ele>373.13</ele>
        <time>2012-07-19T08:21:15Z</time>
      </trkpt>
      <trkpt lat="43.23743" lon="5.66314">
        <ele>373.61</ele>
        <time>2012-07-19T08:21:16Z</time>
      </trkpt>
      <trkpt lat="43.23744" lon="5.66302">
        <ele>372.65</ele>
        <time>2012-07-19T08:21:17Z</time>
      </trkpt>
      <trkpt lat="43.23746" lon="5.66289">
        <ele>372.17</ele>
        <time>2012-07-19T08:21:18Z</time>
      </trkpt>
      <trkpt lat="43.2375" lon="5.66277">
        <ele>371.69</ele>
        <time>2012-07-19T08:21:19Z</time>
      </trkpt>
      <trkpt lat="43.23754" lon="5.66266">
        <ele>371.69</ele>
        <time>2012-07-19T08:21:20Z</time>
      </trkpt>
      <trkpt lat="43.23769" lon="5.66234">
        <ele>370.73</ele>
        <time>2012-07-19T08:21:23Z</time>
      </trkpt>
      <trkpt lat="43.23775" lon="5.66225">
        <ele>370.24</ele>
        <time>2012-07-19T08:21:24Z</time>
      </trkpt>
      <trkpt lat="43.23783" lon="5.66218">
        <ele>370.24</ele>
        <time>2012-07-19T08:21:25Z</time>
      </trkpt>
      <trkpt lat="43.23792" lon="5.66213">
        <ele>369.76</ele>
        <time>2012-07-19T08:21:26Z</time>
      </trkpt>
      <trkpt lat="43.23801" lon="5.66211">
        <ele>369.28</ele>
        <time>2012-07-19T08:21:27Z</time>
      </trkpt>
      <trkpt lat="43.23811" lon="5.66212">
        <ele>369.28</ele>
        <time>2012-07-19T08:21:28Z</time>
      </trkpt>
      <trkpt lat="43.2382" lon="5.66213">
        <ele>369.28</ele>
        <time>2012-07-19T08:21:29Z</time>
      </trkpt>
      <trkpt lat="43.23839" lon="5.66214">
        <ele>368.8</ele>
        <time>2012-07-19T08:21:31Z</time>
      </trkpt>
      <trkpt lat="43.23849" lon="5.66212">
        <ele>368.32</ele>
        <time>2012-07-19T08:21:32Z</time>
      </trkpt>
      <trkpt lat="43.23858" lon="5.66207">
        <ele>367.84</ele>
        <time>2012-07-19T08:21:33Z</time>
      </trkpt>
      <trkpt lat="43.23866" lon="5.662">
        <ele>367.84</ele>
        <time>2012-07-19T08:21:34Z</time>
      </trkpt>
      <trkpt lat="43.23873" lon="5.66191">
        <ele>367.36</ele>
        <time>2012-07-19T08:21:35Z</time>
      </trkpt>
      <trkpt lat="43.23879" lon="5.6618">
        <ele>366.88</ele>
        <time>2012-07-19T08:21:36Z</time>
      </trkpt>
      <trkpt lat="43.23884" lon="5.66168">
        <ele>366.88</ele>
        <time>2012-07-19T08:21:37Z</time>
      </trkpt>
      <trkpt lat="43.23895" lon="5.66144">
        <ele>365.44</ele>
        <time>2012-07-19T08:21:39Z</time>
      </trkpt>
      <trkpt lat="43.23902" lon="5.66133">
        <ele>364.96</ele>
        <time>2012-07-19T08:21:40Z</time>
      </trkpt>
      <trkpt lat="43.23909" lon="5.66123">
        <ele>364.48</ele>
        <time>2012-07-19T08:21:41Z</time>
      </trkpt>
      <trkpt lat="43.23917" lon="5.66114">
        <ele>364.48</ele>
        <time>2012-07-19T08:21:42Z</time>
      </trkpt>
      <trkpt lat="43.23926" lon="5.66108">
        <ele>364</ele>
        <time>2012-07-19T08:21:43Z</time>
      </trkpt>
      <trkpt lat="43.23934" lon="5.66103">
        <ele>364</ele>
        <time>2012-07-19T08:21:44Z</time>
      </trkpt>
      <trkpt lat="43.23941" lon="5.661">
        <ele>363.52</ele>
        <time>2012-07-19T08:21:45Z</time>
      </trkpt>
      <trkpt lat="43.23947" lon="5.66098">
        <ele>364</ele>
        <time>2012-07-19T08:21:46Z</time>
      </trkpt>
      <trkpt lat="43.2397" lon="5.66088">
        <ele>363.04</ele>
        <time>2012-07-19T08:21:51Z</time>
      </trkpt>
      <trkpt lat="43.23975" lon="5.66086">
        <ele>362.55</ele>
        <time>2012-07-19T08:21:52Z</time>
      </trkpt>
      <trkpt lat="43.24012" lon="5.6607">
        <ele>362.07</ele>
        <time>2012-07-19T08:22:02Z</time>
      </trkpt>
      <trkpt lat="43.24012" lon="5.6607">
        <ele>352.94</ele>
        <time>2012-07-19T08:22:08Z</time>
      </trkpt>
      <trkpt lat="43.24012" lon="5.6607">
        <ele>364</ele>
        <time>2012-07-19T08:22:09Z</time>
      </trkpt>
      <trkpt lat="43.24012" lon="5.6607">
        <ele>351.98</ele>
        <time>2012-07-19T08:22:10Z</time>
      </trkpt>
      <trkpt lat="43.24012" lon="5.6607">
        <ele>376.01</ele>
        <time>2012-07-19T08:22:11Z</time>
      </trkpt>
      <trkpt lat="43.24012" lon="5.6607">
        <ele>363.04</ele>
        <time>2012-07-19T08:22:12Z</time>
      </trkpt>
      <trkpt lat="43.24012" lon="5.6607">
        <ele>362.07</ele>
        <time>2012-07-19T08:22:14Z</time>
      </trkpt>
      <trkpt lat="43.24012" lon="5.6607">
        <ele>362.07</ele>
        <time>2012-07-19T08:22:40Z</time>
      </trkpt>
      <trkpt lat="43.24012" lon="5.6607">
        <ele>362.07</ele>
        <time>2012-07-19T08:22:53Z</time>
      </trkpt>
      <trkpt lat="43.24012" lon="5.6607">
        <ele>362.07</ele>
        <time>2012-07-19T08:23:15Z</time>
      </trkpt>
      <trkpt lat="43.24013" lon="5.66069">
        <ele>362.07</ele>
        <time>2012-07-19T08:23:32Z</time>
      </trkpt>
      <trkpt lat="43.24047" lon="5.66043">
        <ele>360.63</ele>
        <time>2012-07-19T08:23:43Z</time>
      </trkpt>
      <trkpt lat="43.24073" lon="5.66027">
        <ele>372.17</ele>
        <time>2012-07-19T08:23:48Z</time>
      </trkpt>
      <trkpt lat="43.24078" lon="5.66025">
        <ele>359.19</ele>
        <time>2012-07-19T08:23:49Z</time>
      </trkpt>
      <trkpt lat="43.24148" lon="5.66006">
        <ele>354.86</ele>
        <time>2012-07-19T08:23:59Z</time>
      </trkpt>
      <trkpt lat="43.2418" lon="5.66003">
        <ele>354.38</ele>
        <time>2012-07-19T08:24:03Z</time>
      </trkpt>
      <trkpt lat="43.24189" lon="5.66004">
        <ele>354.86</ele>
        <time>2012-07-19T08:24:04Z</time>
      </trkpt>
      <trkpt lat="43.24197" lon="5.66006">
        <ele>354.38</ele>
        <time>2012-07-19T08:24:05Z</time>
      </trkpt>
      <trkpt lat="43.24281" lon="5.66063">
        <ele>352.94</ele>
        <time>2012-07-19T08:24:16Z</time>
      </trkpt>
      <trkpt lat="43.24349" lon="5.66147">
        <ele>350.54</ele>
        <time>2012-07-19T08:24:27Z</time>
      </trkpt>
      <trkpt lat="43.24356" lon="5.66153">
        <ele>351.5</ele>
        <time>2012-07-19T08:24:28Z</time>
      </trkpt>
      <trkpt lat="43.24363" lon="5.66156">
        <ele>351.5</ele>
        <time>2012-07-19T08:24:29Z</time>
      </trkpt>
      <trkpt lat="43.24371" lon="5.66156">
        <ele>351.02</ele>
        <time>2012-07-19T08:24:30Z</time>
      </trkpt>
      <trkpt lat="43.24378" lon="5.66153">
        <ele>351.02</ele>
        <time>2012-07-19T08:24:31Z</time>
      </trkpt>
      <trkpt lat="43.24386" lon="5.66149">
        <ele>351.02</ele>
        <time>2012-07-19T08:24:32Z</time>
      </trkpt>
      <trkpt lat="43.24393" lon="5.66145">
        <ele>351.02</ele>
        <time>2012-07-19T08:24:33Z</time>
      </trkpt>
      <trkpt lat="43.24427" lon="5.66125">
        <ele>350.54</ele>
        <time>2012-07-19T08:24:38Z</time>
      </trkpt>
      <trkpt lat="43.24435" lon="5.66123">
        <ele>350.06</ele>
        <time>2012-07-19T08:24:39Z</time>
      </trkpt>
      <trkpt lat="43.24442" lon="5.66124">
        <ele>350.06</ele>
        <time>2012-07-19T08:24:40Z</time>
      </trkpt>
      <trkpt lat="43.24449" lon="5.66126">
        <ele>350.06</ele>
        <time>2012-07-19T08:24:41Z</time>
      </trkpt>
      <trkpt lat="43.24456" lon="5.6613">
        <ele>350.06</ele>
        <time>2012-07-19T08:24:42Z</time>
      </trkpt>
      <trkpt lat="43.24462" lon="5.66136">
        <ele>350.54</ele>
        <time>2012-07-19T08:24:43Z</time>
      </trkpt>
      <trkpt lat="43.24467" lon="5.66143">
        <ele>350.54</ele>
        <time>2012-07-19T08:24:44Z</time>
      </trkpt>
      <trkpt lat="43.24472" lon="5.6615">
        <ele>350.54</ele>
        <time>2012-07-19T08:24:45Z</time>
      </trkpt>
      <trkpt lat="43.24523" lon="5.66226">
        <ele>349.58</ele>
        <time>2012-07-19T08:24:56Z</time>
      </trkpt>
      <trkpt lat="43.24529" lon="5.66231">
        <ele>349.58</ele>
        <time>2012-07-19T08:24:57Z</time>
      </trkpt>
      <trkpt lat="43.24536" lon="5.66233">
        <ele>349.1</ele>
        <time>2012-07-19T08:24:58Z</time>
      </trkpt>
      <trkpt lat="43.24543" lon="5.66234">
        <ele>348.62</ele>
        <time>2012-07-19T08:24:59Z</time>
      </trkpt>
      <trkpt lat="43.2455" lon="5.66234">
        <ele>349.1</ele>
        <time>2012-07-19T08:25:00Z</time>
      </trkpt>
      <trkpt lat="43.24557" lon="5.66233">
        <ele>349.1</ele>
        <time>2012-07-19T08:25:01Z</time>
      </trkpt>
      <trkpt lat="43.24608" lon="5.66229">
        <ele>348.13</ele>
        <time>2012-07-19T08:25:08Z</time>
      </trkpt>
      <trkpt lat="43.24616" lon="5.66232">
        <ele>348.62</ele>
        <time>2012-07-19T08:25:09Z</time>
      </trkpt>
      <trkpt lat="43.24622" lon="5.66236">
        <ele>348.13</ele>
        <time>2012-07-19T08:25:10Z</time>
      </trkpt>
      <trkpt lat="43.24673" lon="5.66272">
        <ele>347.65</ele>
        <time>2012-07-19T08:25:18Z</time>
      </trkpt>
      <trkpt lat="43.24678" lon="5.66279">
        <ele>348.13</ele>
        <time>2012-07-19T08:25:19Z</time>
      </trkpt>
      <trkpt lat="43.24682" lon="5.66287">
        <ele>347.65</ele>
        <time>2012-07-19T08:25:20Z</time>
      </trkpt>
      <trkpt lat="43.24717" lon="5.66358">
        <ele>348.13</ele>
        <time>2012-07-19T08:25:29Z</time>
      </trkpt>
      <trkpt lat="43.24722" lon="5.66363">
        <ele>348.13</ele>
        <time>2012-07-19T08:25:30Z</time>
      </trkpt>
      <trkpt lat="43.24728" lon="5.66368">
        <ele>347.65</ele>
        <time>2012-07-19T08:25:31Z</time>
      </trkpt>
      <trkpt lat="43.24735" lon="5.66371">
        <ele>348.13</ele>
        <time>2012-07-19T08:25:32Z</time>
      </trkpt>
      <trkpt lat="43.24742" lon="5.66374">
        <ele>348.13</ele>
        <time>2012-07-19T08:25:33Z</time>
      </trkpt>
      <trkpt lat="43.24785" lon="5.66391">
        <ele>346.21</ele>
        <time>2012-07-19T08:25:39Z</time>
      </trkpt>
      <trkpt lat="43.24793" lon="5.66393">
        <ele>346.21</ele>
        <time>2012-07-19T08:25:40Z</time>
      </trkpt>
      <trkpt lat="43.24801" lon="5.66393">
        <ele>345.25</ele>
        <time>2012-07-19T08:25:41Z</time>
      </trkpt>
      <trkpt lat="43.24809" lon="5.66391">
        <ele>344.29</ele>
        <time>2012-07-19T08:25:42Z</time>
      </trkpt>
      <trkpt lat="43.24818" lon="5.66388">
        <ele>343.81</ele>
        <time>2012-07-19T08:25:43Z</time>
      </trkpt>
      <trkpt lat="43.24827" lon="5.66383">
        <ele>342.85</ele>
        <time>2012-07-19T08:25:44Z</time>
      </trkpt>
      <trkpt lat="43.24844" lon="5.66374">
        <ele>341.41</ele>
        <time>2012-07-19T08:25:46Z</time>
      </trkpt>
      <trkpt lat="43.24853" lon="5.66373">
        <ele>340.92</ele>
        <time>2012-07-19T08:25:47Z</time>
      </trkpt>
      <trkpt lat="43.24861" lon="5.66377">
        <ele>340.44</ele>
        <time>2012-07-19T08:25:48Z</time>
      </trkpt>
      <trkpt lat="43.24868" lon="5.66384">
        <ele>339</ele>
        <time>2012-07-19T08:25:49Z</time>
      </trkpt>
      <trkpt lat="43.24873" lon="5.66392">
        <ele>337.56</ele>
        <time>2012-07-19T08:25:50Z</time>
      </trkpt>
      <trkpt lat="43.24875" lon="5.66401">
        <ele>337.08</ele>
        <time>2012-07-19T08:25:51Z</time>
      </trkpt>
      <trkpt lat="43.24873" lon="5.66409">
        <ele>336.6</ele>
        <time>2012-07-19T08:25:52Z</time>
      </trkpt>
      <trkpt lat="43.2487" lon="5.66421">
        <ele>335.64</ele>
        <time>2012-07-19T08:25:53Z</time>
      </trkpt>
      <trkpt lat="43.24866" lon="5.66436">
        <ele>334.68</ele>
        <time>2012-07-19T08:25:54Z</time>
      </trkpt>
      <trkpt lat="43.24863" lon="5.66453">
        <ele>334.2</ele>
        <time>2012-07-19T08:25:55Z</time>
      </trkpt>
      <trkpt lat="43.24863" lon="5.66469">
        <ele>333.23</ele>
        <time>2012-07-19T08:25:56Z</time>
      </trkpt>
      <trkpt lat="43.24865" lon="5.66483">
        <ele>333.23</ele>
        <time>2012-07-19T08:25:57Z</time>
      </trkpt>
      <trkpt lat="43.24869" lon="5.66495">
        <ele>332.75</ele>
        <time>2012-07-19T08:25:58Z</time>
      </trkpt>
      <trkpt lat="43.24876" lon="5.66504">
        <ele>332.27</ele>
        <time>2012-07-19T08:25:59Z</time>
      </trkpt>
      <trkpt lat="43.24884" lon="5.66509">
        <ele>332.27</ele>
        <time>2012-07-19T08:26:00Z</time>
      </trkpt>
      <trkpt lat="43.24893" lon="5.66512">
        <ele>330.83</ele>
        <time>2012-07-19T08:26:01Z</time>
      </trkpt>
      <trkpt lat="43.24904" lon="5.66513">
        <ele>330.83</ele>
        <time>2012-07-19T08:26:02Z</time>
      </trkpt>
      <trkpt lat="43.24914" lon="5.66514">
        <ele>329.39</ele>
        <time>2012-07-19T08:26:03Z</time>
      </trkpt>
      <trkpt lat="43.24925" lon="5.66516">
        <ele>328.91</ele>
        <time>2012-07-19T08:26:04Z</time>
      </trkpt>
      <trkpt lat="43.24969" lon="5.66527">
        <ele>325.06</ele>
        <time>2012-07-19T08:26:08Z</time>
      </trkpt>
      <trkpt lat="43.25016" lon="5.66537">
        <ele>321.22</ele>
        <time>2012-07-19T08:26:12Z</time>
      </trkpt>
      <trkpt lat="43.25054" lon="5.66545">
        <ele>318.33</ele>
        <time>2012-07-19T08:26:15Z</time>
      </trkpt>
      <trkpt lat="43.25079" lon="5.66555">
        <ele>315.93</ele>
        <time>2012-07-19T08:26:17Z</time>
      </trkpt>
      <trkpt lat="43.25091" lon="5.66563">
        <ele>314.97</ele>
        <time>2012-07-19T08:26:18Z</time>
      </trkpt>
      <trkpt lat="43.25103" lon="5.66572">
        <ele>314.01</ele>
        <time>2012-07-19T08:26:19Z</time>
      </trkpt>
      <trkpt lat="43.25113" lon="5.66584">
        <ele>313.05</ele>
        <time>2012-07-19T08:26:20Z</time>
      </trkpt>
      <trkpt lat="43.25124" lon="5.66596">
        <ele>312.09</ele>
        <time>2012-07-19T08:26:21Z</time>
      </trkpt>
      <trkpt lat="43.25134" lon="5.66609">
        <ele>311.12</ele>
        <time>2012-07-19T08:26:22Z</time>
      </trkpt>
      <trkpt lat="43.2517" lon="5.66661">
        <ele>307.76</ele>
        <time>2012-07-19T08:26:26Z</time>
      </trkpt>
      <trkpt lat="43.25179" lon="5.66671">
        <ele>306.8</ele>
        <time>2012-07-19T08:26:27Z</time>
      </trkpt>
      <trkpt lat="43.25191" lon="5.66677">
        <ele>306.32</ele>
        <time>2012-07-19T08:26:28Z</time>
      </trkpt>
      <trkpt lat="43.25212" lon="5.66688">
        <ele>304.39</ele>
        <time>2012-07-19T08:26:30Z</time>
      </trkpt>
      <trkpt lat="43.2522" lon="5.66696">
        <ele>303.43</ele>
        <time>2012-07-19T08:26:31Z</time>
      </trkpt>
      <trkpt lat="43.25227" lon="5.66706">
        <ele>302.95</ele>
        <time>2012-07-19T08:26:32Z</time>
      </trkpt>
      <trkpt lat="43.25231" lon="5.66719">
        <ele>301.51</ele>
        <time>2012-07-19T08:26:33Z</time>
      </trkpt>
      <trkpt lat="43.25233" lon="5.66733">
        <ele>300.55</ele>
        <time>2012-07-19T08:26:34Z</time>
      </trkpt>
      <trkpt lat="43.25234" lon="5.66748">
        <ele>299.59</ele>
        <time>2012-07-19T08:26:35Z</time>
      </trkpt>
      <trkpt lat="43.25229" lon="5.66809">
        <ele>296.22</ele>
        <time>2012-07-19T08:26:39Z</time>
      </trkpt>
      <trkpt lat="43.2523" lon="5.66825">
        <ele>295.26</ele>
        <time>2012-07-19T08:26:40Z</time>
      </trkpt>
      <trkpt lat="43.25233" lon="5.66841">
        <ele>294.3</ele>
        <time>2012-07-19T08:26:41Z</time>
      </trkpt>
      <trkpt lat="43.25245" lon="5.66887">
        <ele>290.94</ele>
        <time>2012-07-19T08:26:44Z</time>
      </trkpt>
      <trkpt lat="43.25252" lon="5.66901">
        <ele>290.46</ele>
        <time>2012-07-19T08:26:45Z</time>
      </trkpt>
      <trkpt lat="43.25259" lon="5.66913">
        <ele>289.49</ele>
        <time>2012-07-19T08:26:46Z</time>
      </trkpt>
      <trkpt lat="43.25269" lon="5.66924">
        <ele>289.01</ele>
        <time>2012-07-19T08:26:47Z</time>
      </trkpt>
      <trkpt lat="43.2528" lon="5.66931">
        <ele>288.05</ele>
        <time>2012-07-19T08:26:48Z</time>
      </trkpt>
      <trkpt lat="43.25291" lon="5.66936">
        <ele>286.61</ele>
        <time>2012-07-19T08:26:49Z</time>
      </trkpt>
      <trkpt lat="43.25303" lon="5.6694">
        <ele>286.61</ele>
        <time>2012-07-19T08:26:50Z</time>
      </trkpt>
      <trkpt lat="43.25315" lon="5.66944">
        <ele>285.65</ele>
        <time>2012-07-19T08:26:51Z</time>
      </trkpt>
      <trkpt lat="43.2534" lon="5.66952">
        <ele>284.21</ele>
        <time>2012-07-19T08:26:53Z</time>
      </trkpt>
      <trkpt lat="43.25377" lon="5.66965">
        <ele>280.36</ele>
        <time>2012-07-19T08:26:56Z</time>
      </trkpt>
      <trkpt lat="43.25416" lon="5.66981">
        <ele>277</ele>
        <time>2012-07-19T08:26:59Z</time>
      </trkpt>
      <trkpt lat="43.25443" lon="5.6699">
        <ele>273.15</ele>
        <time>2012-07-19T08:27:01Z</time>
      </trkpt>
      <trkpt lat="43.255" lon="5.66996">
        <ele>270.27</ele>
        <time>2012-07-19T08:27:05Z</time>
      </trkpt>
      <trkpt lat="43.25514" lon="5.66995">
        <ele>270.27</ele>
        <time>2012-07-19T08:27:06Z</time>
      </trkpt>
      <trkpt lat="43.25563" lon="5.66983">
        <ele>269.31</ele>
        <time>2012-07-19T08:27:10Z</time>
      </trkpt>
      <trkpt lat="43.25574" lon="5.66977">
        <ele>268.35</ele>
        <time>2012-07-19T08:27:11Z</time>
      </trkpt>
      <trkpt lat="43.25584" lon="5.66969">
        <ele>268.35</ele>
        <time>2012-07-19T08:27:12Z</time>
      </trkpt>
      <trkpt lat="43.25631" lon="5.66924">
        <ele>264.5</ele>
        <time>2012-07-19T08:27:17Z</time>
      </trkpt>
      <trkpt lat="43.25641" lon="5.66916">
        <ele>263.54</ele>
        <time>2012-07-19T08:27:18Z</time>
      </trkpt>
      <trkpt lat="43.25652" lon="5.66911">
        <ele>263.54</ele>
        <time>2012-07-19T08:27:19Z</time>
      </trkpt>
      <trkpt lat="43.25663" lon="5.66906">
        <ele>263.06</ele>
        <time>2012-07-19T08:27:20Z</time>
      </trkpt>
      <trkpt lat="43.25674" lon="5.66902">
        <ele>262.1</ele>
        <time>2012-07-19T08:27:21Z</time>
      </trkpt>
      <trkpt lat="43.25685" lon="5.669">
        <ele>261.62</ele>
        <time>2012-07-19T08:27:22Z</time>
      </trkpt>
      <trkpt lat="43.25726" lon="5.6689">
        <ele>260.65</ele>
        <time>2012-07-19T08:27:26Z</time>
      </trkpt>
      <trkpt lat="43.25735" lon="5.66885">
        <ele>260.17</ele>
        <time>2012-07-19T08:27:27Z</time>
      </trkpt>
      <trkpt lat="43.25744" lon="5.66879">
        <ele>260.17</ele>
        <time>2012-07-19T08:27:28Z</time>
      </trkpt>
      <trkpt lat="43.25809" lon="5.66826">
        <ele>258.25</ele>
        <time>2012-07-19T08:27:36Z</time>
      </trkpt>
      <trkpt lat="43.25816" lon="5.66818">
        <ele>258.73</ele>
        <time>2012-07-19T08:27:37Z</time>
      </trkpt>
      <trkpt lat="43.25822" lon="5.66809">
        <ele>258.73</ele>
        <time>2012-07-19T08:27:38Z</time>
      </trkpt>
      <trkpt lat="43.25827" lon="5.66798">
        <ele>258.73</ele>
        <time>2012-07-19T08:27:39Z</time>
      </trkpt>
      <trkpt lat="43.25831" lon="5.66788">
        <ele>258.73</ele>
        <time>2012-07-19T08:27:40Z</time>
      </trkpt>
      <trkpt lat="43.25834" lon="5.66778">
        <ele>259.21</ele>
        <time>2012-07-19T08:27:41Z</time>
      </trkpt>
      <trkpt lat="43.25837" lon="5.66769">
        <ele>259.69</ele>
        <time>2012-07-19T08:27:42Z</time>
      </trkpt>
      <trkpt lat="43.25841" lon="5.66761">
        <ele>259.69</ele>
        <time>2012-07-19T08:27:43Z</time>
      </trkpt>
      <trkpt lat="43.25846" lon="5.66755">
        <ele>260.65</ele>
        <time>2012-07-19T08:27:44Z</time>
      </trkpt>
      <trkpt lat="43.25851" lon="5.66749">
        <ele>260.65</ele>
        <time>2012-07-19T08:27:45Z</time>
      </trkpt>
      <trkpt lat="43.25856" lon="5.66744">
        <ele>261.62</ele>
        <time>2012-07-19T08:27:46Z</time>
      </trkpt>
      <trkpt lat="43.25861" lon="5.6674">
        <ele>262.1</ele>
        <time>2012-07-19T08:27:47Z</time>
      </trkpt>
      <trkpt lat="43.25907" lon="5.66693">
        <ele>264.02</ele>
        <time>2012-07-19T08:27:58Z</time>
      </trkpt>
      <trkpt lat="43.25911" lon="5.66687">
        <ele>264.5</ele>
        <time>2012-07-19T08:27:59Z</time>
      </trkpt>
      <trkpt lat="43.25914" lon="5.66681">
        <ele>264.98</ele>
        <time>2012-07-19T08:28:00Z</time>
      </trkpt>
      <trkpt lat="43.25916" lon="5.66674">
        <ele>264.98</ele>
        <time>2012-07-19T08:28:01Z</time>
      </trkpt>
      <trkpt lat="43.25917" lon="5.66667">
        <ele>264.98</ele>
        <time>2012-07-19T08:28:02Z</time>
      </trkpt>
      <trkpt lat="43.25919" lon="5.6666">
        <ele>265.46</ele>
        <time>2012-07-19T08:28:03Z</time>
      </trkpt>
      <trkpt lat="43.25919" lon="5.66654">
        <ele>265.46</ele>
        <time>2012-07-19T08:28:04Z</time>
      </trkpt>
      <trkpt lat="43.2592" lon="5.66647">
        <ele>265.46</ele>
        <time>2012-07-19T08:28:05Z</time>
      </trkpt>
      <trkpt lat="43.25919" lon="5.66596">
        <ele>267.38</ele>
        <time>2012-07-19T08:28:13Z</time>
      </trkpt>
      <trkpt lat="43.25913" lon="5.66572">
        <ele>268.35</ele>
        <time>2012-07-19T08:28:17Z</time>
      </trkpt>
      <trkpt lat="43.25908" lon="5.66561">
        <ele>268.83</ele>
        <time>2012-07-19T08:28:19Z</time>
      </trkpt>
      <trkpt lat="43.25905" lon="5.66557">
        <ele>268.83</ele>
        <time>2012-07-19T08:28:20Z</time>
      </trkpt>
      <trkpt lat="43.25895" lon="5.66544">
        <ele>269.31</ele>
        <time>2012-07-19T08:28:23Z</time>
      </trkpt>
      <trkpt lat="43.25892" lon="5.66541">
        <ele>270.27</ele>
        <time>2012-07-19T08:28:24Z</time>
      </trkpt>
      <trkpt lat="43.2588" lon="5.66532">
        <ele>270.75</ele>
        <time>2012-07-19T08:28:27Z</time>
      </trkpt>
      <trkpt lat="43.25876" lon="5.6653">
        <ele>270.27</ele>
        <time>2012-07-19T08:28:28Z</time>
      </trkpt>
      <trkpt lat="43.25826" lon="5.66511">
        <ele>272.67</ele>
        <time>2012-07-19T08:28:40Z</time>
      </trkpt>
      <trkpt lat="43.25822" lon="5.66511">
        <ele>273.63</ele>
        <time>2012-07-19T08:28:41Z</time>
      </trkpt>
      <trkpt lat="43.2581" lon="5.66512">
        <ele>273.63</ele>
        <time>2012-07-19T08:28:44Z</time>
      </trkpt>
      <trkpt lat="43.25784" lon="5.66518">
        <ele>274.59</ele>
        <time>2012-07-19T08:28:50Z</time>
      </trkpt>
      <trkpt lat="43.2578" lon="5.66518">
        <ele>274.59</ele>
        <time>2012-07-19T08:28:51Z</time>
      </trkpt>
      <trkpt lat="43.25776" lon="5.66516">
        <ele>274.59</ele>
        <time>2012-07-19T08:28:52Z</time>
      </trkpt>
      <trkpt lat="43.25772" lon="5.66513">
        <ele>275.07</ele>
        <time>2012-07-19T08:28:53Z</time>
      </trkpt>
      <trkpt lat="43.25769" lon="5.66509">
        <ele>275.07</ele>
        <time>2012-07-19T08:28:54Z</time>
      </trkpt>
      <trkpt lat="43.25767" lon="5.66504">
        <ele>275.07</ele>
        <time>2012-07-19T08:28:55Z</time>
      </trkpt>
      <trkpt lat="43.25767" lon="5.66498">
        <ele>275.56</ele>
        <time>2012-07-19T08:28:56Z</time>
      </trkpt>
      <trkpt lat="43.25767" lon="5.66493">
        <ele>276.04</ele>
        <time>2012-07-19T08:28:57Z</time>
      </trkpt>
      <trkpt lat="43.25768" lon="5.66488">
        <ele>276.04</ele>
        <time>2012-07-19T08:28:58Z</time>
      </trkpt>
      <trkpt lat="43.25771" lon="5.66483">
        <ele>276.04</ele>
        <time>2012-07-19T08:28:59Z</time>
      </trkpt>
      <trkpt lat="43.25774" lon="5.66479">
        <ele>276.52</ele>
        <time>2012-07-19T08:29:00Z</time>
      </trkpt>
      <trkpt lat="43.25777" lon="5.66476">
        <ele>277</ele>
        <time>2012-07-19T08:29:01Z</time>
      </trkpt>
      <trkpt lat="43.2578" lon="5.66473">
        <ele>277</ele>
        <time>2012-07-19T08:29:02Z</time>
      </trkpt>
      <trkpt lat="43.25783" lon="5.6647">
        <ele>277.48</ele>
        <time>2012-07-19T08:29:03Z</time>
      </trkpt>
      <trkpt lat="43.25833" lon="5.6642">
        <ele>279.88</ele>
        <time>2012-07-19T08:29:18Z</time>
      </trkpt>
      <trkpt lat="43.25838" lon="5.66405">
        <ele>280.84</ele>
        <time>2012-07-19T08:29:21Z</time>
      </trkpt>
      <trkpt lat="43.25839" lon="5.664">
        <ele>280.84</ele>
        <time>2012-07-19T08:29:22Z</time>
      </trkpt>
      <trkpt lat="43.25842" lon="5.66377">
        <ele>281.32</ele>
        <time>2012-07-19T08:29:26Z</time>
      </trkpt>
      <trkpt lat="43.25842" lon="5.66372">
        <ele>281.32</ele>
        <time>2012-07-19T08:29:27Z</time>
      </trkpt>
      <trkpt lat="43.2584" lon="5.66355">
        <ele>281.8</ele>
        <time>2012-07-19T08:29:30Z</time>
      </trkpt>
      <trkpt lat="43.25836" lon="5.66328">
        <ele>282.28</ele>
        <time>2012-07-19T08:29:35Z</time>
      </trkpt>
      <trkpt lat="43.2583" lon="5.66312">
        <ele>283.25</ele>
        <time>2012-07-19T08:29:38Z</time>
      </trkpt>
      <trkpt lat="43.25827" lon="5.66308">
        <ele>283.25</ele>
        <time>2012-07-19T08:29:39Z</time>
      </trkpt>
      <trkpt lat="43.25813" lon="5.66288">
        <ele>284.21</ele>
        <time>2012-07-19T08:29:44Z</time>
      </trkpt>
      <trkpt lat="43.2581" lon="5.66286">
        <ele>285.17</ele>
        <time>2012-07-19T08:29:45Z</time>
      </trkpt>
      <trkpt lat="43.25772" lon="5.66268">
        <ele>286.61</ele>
        <time>2012-07-19T08:29:55Z</time>
      </trkpt>
      <trkpt lat="43.25769" lon="5.66264">
        <ele>286.13</ele>
        <time>2012-07-19T08:29:56Z</time>
      </trkpt>
      <trkpt lat="43.25766" lon="5.6626">
        <ele>286.61</ele>
        <time>2012-07-19T08:29:57Z</time>
      </trkpt>
      <trkpt lat="43.25764" lon="5.66256">
        <ele>286.61</ele>
        <time>2012-07-19T08:29:58Z</time>
      </trkpt>
      <trkpt lat="43.25762" lon="5.66251">
        <ele>287.09</ele>
        <time>2012-07-19T08:29:59Z</time>
      </trkpt>
      <trkpt lat="43.2576" lon="5.66246">
        <ele>287.09</ele>
        <time>2012-07-19T08:30:00Z</time>
      </trkpt>
      <trkpt lat="43.25759" lon="5.6624">
        <ele>286.61</ele>
        <time>2012-07-19T08:30:01Z</time>
      </trkpt>
      <trkpt lat="43.25759" lon="5.66235">
        <ele>287.57</ele>
        <time>2012-07-19T08:30:02Z</time>
      </trkpt>
      <trkpt lat="43.25759" lon="5.66229">
        <ele>287.57</ele>
        <time>2012-07-19T08:30:03Z</time>
      </trkpt>
      <trkpt lat="43.2575" lon="5.66183">
        <ele>289.49</ele>
        <time>2012-07-19T08:30:12Z</time>
      </trkpt>
      <trkpt lat="43.25747" lon="5.66179">
        <ele>290.46</ele>
        <time>2012-07-19T08:30:13Z</time>
      </trkpt>
      <trkpt lat="43.25741" lon="5.66171">
        <ele>290.46</ele>
        <time>2012-07-19T08:30:15Z</time>
      </trkpt>
      <trkpt lat="43.25729" lon="5.66156">
        <ele>290.94</ele>
        <time>2012-07-19T08:30:19Z</time>
      </trkpt>
      <trkpt lat="43.25727" lon="5.66151">
        <ele>291.42</ele>
        <time>2012-07-19T08:30:20Z</time>
      </trkpt>
      <trkpt lat="43.25725" lon="5.66146">
        <ele>291.42</ele>
        <time>2012-07-19T08:30:21Z</time>
      </trkpt>
      <trkpt lat="43.25724" lon="5.66141">
        <ele>291.42</ele>
        <time>2012-07-19T08:30:22Z</time>
      </trkpt>
      <trkpt lat="43.25723" lon="5.66136">
        <ele>291.42</ele>
        <time>2012-07-19T08:30:23Z</time>
      </trkpt>
      <trkpt lat="43.25724" lon="5.66131">
        <ele>291.9</ele>
        <time>2012-07-19T08:30:24Z</time>
      </trkpt>
      <trkpt lat="43.25724" lon="5.66126">
        <ele>292.38</ele>
        <time>2012-07-19T08:30:25Z</time>
      </trkpt>
      <trkpt lat="43.25725" lon="5.66121">
        <ele>291.9</ele>
        <time>2012-07-19T08:30:26Z</time>
      </trkpt>
      <trkpt lat="43.25726" lon="5.66116">
        <ele>292.38</ele>
        <time>2012-07-19T08:30:27Z</time>
      </trkpt>
      <trkpt lat="43.25728" lon="5.66112">
        <ele>292.86</ele>
        <time>2012-07-19T08:30:28Z</time>
      </trkpt>
      <trkpt lat="43.25743" lon="5.66051">
        <ele>294.78</ele>
        <time>2012-07-19T08:30:40Z</time>
      </trkpt>
      <trkpt lat="43.25754" lon="5.65995">
        <ele>296.7</ele>
        <time>2012-07-19T08:30:51Z</time>
      </trkpt>
      <trkpt lat="43.25741" lon="5.65922">
        <ele>299.11</ele>
        <time>2012-07-19T08:31:05Z</time>
      </trkpt>
      <trkpt lat="43.25732" lon="5.65847">
        <ele>301.99</ele>
        <time>2012-07-19T08:31:19Z</time>
      </trkpt>
      <trkpt lat="43.25741" lon="5.65784">
        <ele>303.91</ele>
        <time>2012-07-19T08:31:31Z</time>
      </trkpt>
      <trkpt lat="43.25748" lon="5.65738">
        <ele>305.36</ele>
        <time>2012-07-19T08:31:40Z</time>
      </trkpt>
      <trkpt lat="43.25745" lon="5.65674">
        <ele>307.28</ele>
        <time>2012-07-19T08:31:52Z</time>
      </trkpt>
      <trkpt lat="43.2574" lon="5.65659">
        <ele>307.28</ele>
        <time>2012-07-19T08:31:55Z</time>
      </trkpt>
      <trkpt lat="43.25718" lon="5.65591">
        <ele>310.16</ele>
        <time>2012-07-19T08:32:08Z</time>
      </trkpt>
      <trkpt lat="43.25717" lon="5.65585">
        <ele>310.64</ele>
        <time>2012-07-19T08:32:09Z</time>
      </trkpt>
      <trkpt lat="43.25717" lon="5.6558">
        <ele>310.16</ele>
        <time>2012-07-19T08:32:10Z</time>
      </trkpt>
      <trkpt lat="43.25717" lon="5.65563">
        <ele>311.12</ele>
        <time>2012-07-19T08:32:13Z</time>
      </trkpt>
      <trkpt lat="43.25719" lon="5.65552">
        <ele>311.12</ele>
        <time>2012-07-19T08:32:15Z</time>
      </trkpt>
      <trkpt lat="43.25732" lon="5.65488">
        <ele>313.05</ele>
        <time>2012-07-19T08:32:27Z</time>
      </trkpt>
      <trkpt lat="43.25735" lon="5.65444">
        <ele>314.97</ele>
        <time>2012-07-19T08:32:35Z</time>
      </trkpt>
      <trkpt lat="43.25735" lon="5.65438">
        <ele>314.49</ele>
        <time>2012-07-19T08:32:36Z</time>
      </trkpt>
      <trkpt lat="43.25722" lon="5.6537">
        <ele>314.97</ele>
        <time>2012-07-19T08:32:47Z</time>
      </trkpt>
      <trkpt lat="43.2572" lon="5.65363">
        <ele>314.97</ele>
        <time>2012-07-19T08:32:48Z</time>
      </trkpt>
      <trkpt lat="43.25699" lon="5.65253">
        <ele>314.49</ele>
        <time>2012-07-19T08:33:03Z</time>
      </trkpt>
      <trkpt lat="43.25675" lon="5.6513">
        <ele>313.53</ele>
        <time>2012-07-19T08:33:19Z</time>
      </trkpt>
      <trkpt lat="43.25656" lon="5.65031">
        <ele>313.05</ele>
        <time>2012-07-19T08:33:31Z</time>
      </trkpt>
      <trkpt lat="43.25637" lon="5.64933">
        <ele>309.68</ele>
        <time>2012-07-19T08:33:41Z</time>
      </trkpt>
      <trkpt lat="43.25631" lon="5.64898">
        <ele>308.24</ele>
        <time>2012-07-19T08:33:44Z</time>
      </trkpt>
      <trkpt lat="43.25631" lon="5.64885">
        <ele>307.76</ele>
        <time>2012-07-19T08:33:45Z</time>
      </trkpt>
      <trkpt lat="43.25634" lon="5.64872">
        <ele>307.76</ele>
        <time>2012-07-19T08:33:46Z</time>
      </trkpt>
      <trkpt lat="43.25638" lon="5.64861">
        <ele>307.28</ele>
        <time>2012-07-19T08:33:47Z</time>
      </trkpt>
      <trkpt lat="43.25645" lon="5.64853">
        <ele>307.28</ele>
        <time>2012-07-19T08:33:48Z</time>
      </trkpt>
      <trkpt lat="43.25653" lon="5.64847">
        <ele>306.8</ele>
        <time>2012-07-19T08:33:49Z</time>
      </trkpt>
      <trkpt lat="43.25661" lon="5.64843">
        <ele>307.28</ele>
        <time>2012-07-19T08:33:50Z</time>
      </trkpt>
      <trkpt lat="43.25669" lon="5.64842">
        <ele>307.28</ele>
        <time>2012-07-19T08:33:51Z</time>
      </trkpt>
      <trkpt lat="43.25677" lon="5.64841">
        <ele>308.24</ele>
        <time>2012-07-19T08:33:52Z</time>
      </trkpt>
      <trkpt lat="43.25702" lon="5.64836">
        <ele>310.16</ele>
        <time>2012-07-19T08:33:56Z</time>
      </trkpt>
      <trkpt lat="43.25713" lon="5.64831">
        <ele>311.12</ele>
        <time>2012-07-19T08:33:58Z</time>
      </trkpt>
      <trkpt lat="43.25718" lon="5.64828">
        <ele>311.12</ele>
        <time>2012-07-19T08:33:59Z</time>
      </trkpt>
      <trkpt lat="43.2577" lon="5.64778">
        <ele>314.49</ele>
        <time>2012-07-19T08:34:13Z</time>
      </trkpt>
      <trkpt lat="43.25794" lon="5.64752">
        <ele>316.41</ele>
        <time>2012-07-19T08:34:20Z</time>
      </trkpt>
      <trkpt lat="43.25852" lon="5.64691">
        <ele>319.3</ele>
        <time>2012-07-19T08:34:37Z</time>
      </trkpt>
      <trkpt lat="43.25887" lon="5.64629">
        <ele>322.18</ele>
        <time>2012-07-19T08:34:51Z</time>
      </trkpt>
      <trkpt lat="43.25913" lon="5.64562">
        <ele>325.54</ele>
        <time>2012-07-19T08:35:05Z</time>
      </trkpt>
      <trkpt lat="43.25908" lon="5.64483">
        <ele>328.43</ele>
        <time>2012-07-19T08:35:20Z</time>
      </trkpt>
      <trkpt lat="43.25875" lon="5.64431">
        <ele>330.83</ele>
        <time>2012-07-19T08:35:33Z</time>
      </trkpt>
      <trkpt lat="43.25866" lon="5.64374">
        <ele>333.71</ele>
        <time>2012-07-19T08:35:45Z</time>
      </trkpt>
      <trkpt lat="43.25893" lon="5.6431">
        <ele>336.6</ele>
        <time>2012-07-19T08:35:59Z</time>
      </trkpt>
      <trkpt lat="43.25904" lon="5.64247">
        <ele>339</ele>
        <time>2012-07-19T08:36:12Z</time>
      </trkpt>
      <trkpt lat="43.259" lon="5.64226">
        <ele>339.48</ele>
        <time>2012-07-19T08:36:16Z</time>
      </trkpt>
      <trkpt lat="43.25883" lon="5.64174">
        <ele>341.41</ele>
        <time>2012-07-19T08:36:27Z</time>
      </trkpt>
      <trkpt lat="43.25881" lon="5.6417">
        <ele>341.41</ele>
        <time>2012-07-19T08:36:28Z</time>
      </trkpt>
      <trkpt lat="43.25868" lon="5.64154">
        <ele>341.89</ele>
        <time>2012-07-19T08:36:32Z</time>
      </trkpt>
      <trkpt lat="43.25864" lon="5.64151">
        <ele>341.89</ele>
        <time>2012-07-19T08:36:33Z</time>
      </trkpt>
      <trkpt lat="43.25799" lon="5.64114">
        <ele>342.37</ele>
        <time>2012-07-19T08:36:48Z</time>
      </trkpt>
      <trkpt lat="43.25779" lon="5.64095">
        <ele>342.85</ele>
        <time>2012-07-19T08:36:53Z</time>
      </trkpt>
      <trkpt lat="43.25776" lon="5.64089">
        <ele>343.33</ele>
        <time>2012-07-19T08:36:54Z</time>
      </trkpt>
      <trkpt lat="43.25773" lon="5.64084">
        <ele>343.33</ele>
        <time>2012-07-19T08:36:55Z</time>
      </trkpt>
      <trkpt lat="43.25769" lon="5.64072">
        <ele>343.33</ele>
        <time>2012-07-19T08:36:57Z</time>
      </trkpt>
      <trkpt lat="43.25767" lon="5.64066">
        <ele>343.33</ele>
        <time>2012-07-19T08:36:58Z</time>
      </trkpt>
      <trkpt lat="43.25766" lon="5.6406">
        <ele>343.33</ele>
        <time>2012-07-19T08:36:59Z</time>
      </trkpt>
      <trkpt lat="43.25765" lon="5.64053">
        <ele>343.33</ele>
        <time>2012-07-19T08:37:00Z</time>
      </trkpt>
      <trkpt lat="43.25765" lon="5.64047">
        <ele>343.81</ele>
        <time>2012-07-19T08:37:01Z</time>
      </trkpt>
      <trkpt lat="43.25766" lon="5.6404">
        <ele>343.81</ele>
        <time>2012-07-19T08:37:02Z</time>
      </trkpt>
      <trkpt lat="43.25767" lon="5.64033">
        <ele>343.81</ele>
        <time>2012-07-19T08:37:03Z</time>
      </trkpt>
      <trkpt lat="43.25768" lon="5.64027">
        <ele>343.81</ele>
        <time>2012-07-19T08:37:04Z</time>
      </trkpt>
      <trkpt lat="43.25782" lon="5.6394">
        <ele>346.21</ele>
        <time>2012-07-19T08:37:18Z</time>
      </trkpt>
      <trkpt lat="43.25782" lon="5.63934">
        <ele>346.21</ele>
        <time>2012-07-19T08:37:19Z</time>
      </trkpt>
      <trkpt lat="43.25778" lon="5.63915">
        <ele>346.21</ele>
        <time>2012-07-19T08:37:22Z</time>
      </trkpt>
      <trkpt lat="43.25776" lon="5.63909">
        <ele>346.69</ele>
        <time>2012-07-19T08:37:23Z</time>
      </trkpt>
      <trkpt lat="43.25773" lon="5.63903">
        <ele>346.69</ele>
        <time>2012-07-19T08:37:24Z</time>
      </trkpt>
      <trkpt lat="43.25767" lon="5.63893">
        <ele>347.17</ele>
        <time>2012-07-19T08:37:26Z</time>
      </trkpt>
      <trkpt lat="43.25741" lon="5.63846">
        <ele>347.17</ele>
        <time>2012-07-19T08:37:34Z</time>
      </trkpt>
      <trkpt lat="43.25739" lon="5.63838">
        <ele>347.17</ele>
        <time>2012-07-19T08:37:35Z</time>
      </trkpt>
      <trkpt lat="43.25738" lon="5.63831">
        <ele>347.17</ele>
        <time>2012-07-19T08:37:36Z</time>
      </trkpt>
      <trkpt lat="43.25737" lon="5.63823">
        <ele>348.13</ele>
        <time>2012-07-19T08:37:37Z</time>
      </trkpt>
      <trkpt lat="43.25736" lon="5.63816">
        <ele>348.13</ele>
        <time>2012-07-19T08:37:38Z</time>
      </trkpt>
      <trkpt lat="43.25741" lon="5.63715">
        <ele>350.54</ele>
        <time>2012-07-19T08:37:52Z</time>
      </trkpt>
      <trkpt lat="43.25744" lon="5.63629">
        <ele>351.98</ele>
        <time>2012-07-19T08:38:04Z</time>
      </trkpt>
      <trkpt lat="43.25742" lon="5.63622">
        <ele>351.98</ele>
        <time>2012-07-19T08:38:05Z</time>
      </trkpt>
      <trkpt lat="43.25702" lon="5.6355">
        <ele>353.9</ele>
        <time>2012-07-19T08:38:18Z</time>
      </trkpt>
      <trkpt lat="43.2568" lon="5.63533">
        <ele>354.86</ele>
        <time>2012-07-19T08:38:23Z</time>
      </trkpt>
      <trkpt lat="43.25675" lon="5.63531">
        <ele>355.83</ele>
        <time>2012-07-19T08:38:24Z</time>
      </trkpt>
      <trkpt lat="43.25606" lon="5.63497">
        <ele>357.75</ele>
        <time>2012-07-19T08:38:39Z</time>
      </trkpt>
      <trkpt lat="43.25538" lon="5.63451">
        <ele>359.67</ele>
        <time>2012-07-19T08:38:55Z</time>
      </trkpt>
      <trkpt lat="43.25478" lon="5.63385">
        <ele>357.27</ele>
        <time>2012-07-19T08:39:08Z</time>
      </trkpt>
      <trkpt lat="43.25443" lon="5.63339">
        <ele>354.38</ele>
        <time>2012-07-19T08:39:14Z</time>
      </trkpt>
      <trkpt lat="43.25417" lon="5.63286">
        <ele>351.02</ele>
        <time>2012-07-19T08:39:19Z</time>
      </trkpt>
      <trkpt lat="43.25394" lon="5.63209">
        <ele>348.62</ele>
        <time>2012-07-19T08:39:25Z</time>
      </trkpt>
      <trkpt lat="43.25385" lon="5.63136">
        <ele>344.77</ele>
        <time>2012-07-19T08:39:30Z</time>
      </trkpt>
      <trkpt lat="43.25377" lon="5.63093">
        <ele>342.37</ele>
        <time>2012-07-19T08:39:33Z</time>
      </trkpt>
      <trkpt lat="43.25371" lon="5.63081">
        <ele>341.89</ele>
        <time>2012-07-19T08:39:34Z</time>
      </trkpt>
      <trkpt lat="43.25351" lon="5.63042">
        <ele>340.44</ele>
        <time>2012-07-19T08:39:37Z</time>
      </trkpt>
      <trkpt lat="43.25347" lon="5.63027">
        <ele>339.96</ele>
        <time>2012-07-19T08:39:38Z</time>
      </trkpt>
      <trkpt lat="43.25343" lon="5.63012">
        <ele>339.48</ele>
        <time>2012-07-19T08:39:39Z</time>
      </trkpt>
      <trkpt lat="43.25338" lon="5.62981">
        <ele>338.52</ele>
        <time>2012-07-19T08:39:41Z</time>
      </trkpt>
      <trkpt lat="43.2532" lon="5.62894">
        <ele>335.16</ele>
        <time>2012-07-19T08:39:47Z</time>
      </trkpt>
      <trkpt lat="43.25298" lon="5.62823">
        <ele>331.79</ele>
        <time>2012-07-19T08:39:52Z</time>
      </trkpt>
      <trkpt lat="43.25293" lon="5.62809">
        <ele>331.79</ele>
        <time>2012-07-19T08:39:53Z</time>
      </trkpt>
      <trkpt lat="43.2528" lon="5.62767">
        <ele>330.35</ele>
        <time>2012-07-19T08:39:56Z</time>
      </trkpt>
      <trkpt lat="43.25266" lon="5.62706">
        <ele>326.99</ele>
        <time>2012-07-19T08:40:00Z</time>
      </trkpt>
      <trkpt lat="43.25264" lon="5.6269">
        <ele>326.5</ele>
        <time>2012-07-19T08:40:01Z</time>
      </trkpt>
      <trkpt lat="43.25263" lon="5.62595">
        <ele>323.14</ele>
        <time>2012-07-19T08:40:07Z</time>
      </trkpt>
      <trkpt lat="43.2526" lon="5.62532">
        <ele>320.26</ele>
        <time>2012-07-19T08:40:11Z</time>
      </trkpt>
      <trkpt lat="43.25257" lon="5.62517">
        <ele>320.74</ele>
        <time>2012-07-19T08:40:12Z</time>
      </trkpt>
      <trkpt lat="43.25223" lon="5.62398">
        <ele>322.66</ele>
        <time>2012-07-19T08:40:22Z</time>
      </trkpt>
      <trkpt lat="43.25219" lon="5.6239">
        <ele>322.66</ele>
        <time>2012-07-19T08:40:23Z</time>
      </trkpt>
      <trkpt lat="43.25214" lon="5.62382">
        <ele>322.66</ele>
        <time>2012-07-19T08:40:24Z</time>
      </trkpt>
      <trkpt lat="43.25209" lon="5.62376">
        <ele>323.14</ele>
        <time>2012-07-19T08:40:25Z</time>
      </trkpt>
      <trkpt lat="43.25203" lon="5.6237">
        <ele>322.66</ele>
        <time>2012-07-19T08:40:26Z</time>
      </trkpt>
      <trkpt lat="43.25197" lon="5.62365">
        <ele>323.14</ele>
        <time>2012-07-19T08:40:27Z</time>
      </trkpt>
      <trkpt lat="43.2519" lon="5.62361">
        <ele>323.14</ele>
        <time>2012-07-19T08:40:28Z</time>
      </trkpt>
      <trkpt lat="43.25183" lon="5.62359">
        <ele>323.14</ele>
        <time>2012-07-19T08:40:29Z</time>
      </trkpt>
      <trkpt lat="43.25176" lon="5.62357">
        <ele>323.14</ele>
        <time>2012-07-19T08:40:30Z</time>
      </trkpt>
      <trkpt lat="43.25169" lon="5.62356">
        <ele>323.62</ele>
        <time>2012-07-19T08:40:31Z</time>
      </trkpt>
      <trkpt lat="43.25132" lon="5.62347">
        <ele>324.58</ele>
        <time>2012-07-19T08:40:37Z</time>
      </trkpt>
      <trkpt lat="43.25127" lon="5.62344">
        <ele>324.1</ele>
        <time>2012-07-19T08:40:38Z</time>
      </trkpt>
      <trkpt lat="43.25121" lon="5.62339">
        <ele>323.14</ele>
        <time>2012-07-19T08:40:39Z</time>
      </trkpt>
      <trkpt lat="43.25116" lon="5.62333">
        <ele>323.14</ele>
        <time>2012-07-19T08:40:40Z</time>
      </trkpt>
      <trkpt lat="43.25112" lon="5.62324">
        <ele>321.7</ele>
        <time>2012-07-19T08:40:41Z</time>
      </trkpt>
      <trkpt lat="43.2511" lon="5.62314">
        <ele>321.7</ele>
        <time>2012-07-19T08:40:42Z</time>
      </trkpt>
      <trkpt lat="43.25108" lon="5.62303">
        <ele>320.74</ele>
        <time>2012-07-19T08:40:43Z</time>
      </trkpt>
      <trkpt lat="43.25106" lon="5.62292">
        <ele>320.74</ele>
        <time>2012-07-19T08:40:44Z</time>
      </trkpt>
      <trkpt lat="43.25087" lon="5.62165">
        <ele>317.37</ele>
        <time>2012-07-19T08:40:55Z</time>
      </trkpt>
      <trkpt lat="43.25053" lon="5.61954">
        <ele>314.49</ele>
        <time>2012-07-19T08:41:14Z</time>
      </trkpt>
      <trkpt lat="43.25012" lon="5.61783">
        <ele>313.05</ele>
        <time>2012-07-19T08:41:30Z</time>
      </trkpt>
      <trkpt lat="43.24973" lon="5.61623">
        <ele>312.09</ele>
        <time>2012-07-19T08:41:46Z</time>
      </trkpt>
      <trkpt lat="43.24964" lon="5.61502">
        <ele>312.57</ele>
        <time>2012-07-19T08:41:58Z</time>
      </trkpt>
      <trkpt lat="43.24968" lon="5.61392">
        <ele>310.64</ele>
        <time>2012-07-19T08:42:09Z</time>
      </trkpt>
      <trkpt lat="43.24965" lon="5.61319">
        <ele>307.76</ele>
        <time>2012-07-19T08:42:15Z</time>
      </trkpt>
      <trkpt lat="43.24963" lon="5.61293">
        <ele>306.8</ele>
        <time>2012-07-19T08:42:17Z</time>
      </trkpt>
      <trkpt lat="43.2496" lon="5.61266">
        <ele>305.36</ele>
        <time>2012-07-19T08:42:19Z</time>
      </trkpt>
      <trkpt lat="43.24956" lon="5.61223">
        <ele>303.91</ele>
        <time>2012-07-19T08:42:22Z</time>
      </trkpt>
      <trkpt lat="43.24952" lon="5.61047">
        <ele>301.99</ele>
        <time>2012-07-19T08:42:36Z</time>
      </trkpt>
      <trkpt lat="43.24941" lon="5.60928">
        <ele>298.63</ele>
        <time>2012-07-19T08:42:46Z</time>
      </trkpt>
      <trkpt lat="43.24932" lon="5.6083">
        <ele>295.26</ele>
        <time>2012-07-19T08:42:54Z</time>
      </trkpt>
      <trkpt lat="43.24928" lon="5.60792">
        <ele>293.34</ele>
        <time>2012-07-19T08:42:57Z</time>
      </trkpt>
      <trkpt lat="43.2492" lon="5.60726">
        <ele>290.94</ele>
        <time>2012-07-19T08:43:02Z</time>
      </trkpt>
      <trkpt lat="43.24909" lon="5.60646">
        <ele>287.09</ele>
        <time>2012-07-19T08:43:08Z</time>
      </trkpt>
      <trkpt lat="43.24897" lon="5.60563">
        <ele>284.21</ele>
        <time>2012-07-19T08:43:14Z</time>
      </trkpt>
      <trkpt lat="43.2489" lon="5.60505">
        <ele>280.36</ele>
        <time>2012-07-19T08:43:18Z</time>
      </trkpt>
      <trkpt lat="43.24888" lon="5.60491">
        <ele>280.36</ele>
        <time>2012-07-19T08:43:19Z</time>
      </trkpt>
      <trkpt lat="43.24884" lon="5.60463">
        <ele>278.92</ele>
        <time>2012-07-19T08:43:21Z</time>
      </trkpt>
      <trkpt lat="43.24878" lon="5.60421">
        <ele>277.96</ele>
        <time>2012-07-19T08:43:25Z</time>
      </trkpt>
      <trkpt lat="43.24876" lon="5.60416">
        <ele>277.96</ele>
        <time>2012-07-19T08:43:26Z</time>
      </trkpt>
      <trkpt lat="43.24872" lon="5.60414">
        <ele>278.44</ele>
        <time>2012-07-19T08:43:27Z</time>
      </trkpt>
      <trkpt lat="43.24867" lon="5.60415">
        <ele>277.48</ele>
        <time>2012-07-19T08:43:28Z</time>
      </trkpt>
      <trkpt lat="43.24861" lon="5.60418">
        <ele>277.48</ele>
        <time>2012-07-19T08:43:29Z</time>
      </trkpt>
      <trkpt lat="43.24856" lon="5.60421">
        <ele>277.48</ele>
        <time>2012-07-19T08:43:30Z</time>
      </trkpt>
      <trkpt lat="43.24805" lon="5.60441">
        <ele>278.44</ele>
        <time>2012-07-19T08:43:39Z</time>
      </trkpt>
      <trkpt lat="43.248" lon="5.60441">
        <ele>278.92</ele>
        <time>2012-07-19T08:43:40Z</time>
      </trkpt>
      <trkpt lat="43.24785" lon="5.60438">
        <ele>279.88</ele>
        <time>2012-07-19T08:43:43Z</time>
      </trkpt>
      <trkpt lat="43.24772" lon="5.60433">
        <ele>280.36</ele>
        <time>2012-07-19T08:43:46Z</time>
      </trkpt>
      <trkpt lat="43.24767" lon="5.60433">
        <ele>280.84</ele>
        <time>2012-07-19T08:43:47Z</time>
      </trkpt>
      <trkpt lat="43.24705" lon="5.60446">
        <ele>283.73</ele>
        <time>2012-07-19T08:44:02Z</time>
      </trkpt>
      <trkpt lat="43.24697" lon="5.60446">
        <ele>284.21</ele>
        <time>2012-07-19T08:44:04Z</time>
      </trkpt>
      <trkpt lat="43.24693" lon="5.60445">
        <ele>284.69</ele>
        <time>2012-07-19T08:44:05Z</time>
      </trkpt>
      <trkpt lat="43.2469" lon="5.60443">
        <ele>284.69</ele>
        <time>2012-07-19T08:44:06Z</time>
      </trkpt>
      <trkpt lat="43.24686" lon="5.6044">
        <ele>284.69</ele>
        <time>2012-07-19T08:44:07Z</time>
      </trkpt>
      <trkpt lat="43.24683" lon="5.60436">
        <ele>285.17</ele>
        <time>2012-07-19T08:44:08Z</time>
      </trkpt>
      <trkpt lat="43.24681" lon="5.60432">
        <ele>285.17</ele>
        <time>2012-07-19T08:44:09Z</time>
      </trkpt>
      <trkpt lat="43.24679" lon="5.60428">
        <ele>285.65</ele>
        <time>2012-07-19T08:44:10Z</time>
      </trkpt>
      <trkpt lat="43.24665" lon="5.60399">
        <ele>287.09</ele>
        <time>2012-07-19T08:44:16Z</time>
      </trkpt>
      <trkpt lat="43.24662" lon="5.60394">
        <ele>287.09</ele>
        <time>2012-07-19T08:44:17Z</time>
      </trkpt>
      <trkpt lat="43.24648" lon="5.60361">
        <ele>287.09</ele>
        <time>2012-07-19T08:44:23Z</time>
      </trkpt>
      <trkpt lat="43.24622" lon="5.60282">
        <ele>287.09</ele>
        <time>2012-07-19T08:44:36Z</time>
      </trkpt>
      <trkpt lat="43.24605" lon="5.60225">
        <ele>287.57</ele>
        <time>2012-07-19T08:44:45Z</time>
      </trkpt>
      <trkpt lat="43.24603" lon="5.60219">
        <ele>287.57</ele>
        <time>2012-07-19T08:44:46Z</time>
      </trkpt>
      <trkpt lat="43.24601" lon="5.60213">
        <ele>287.57</ele>
        <time>2012-07-19T08:44:47Z</time>
      </trkpt>
      <trkpt lat="43.24591" lon="5.60188">
        <ele>287.57</ele>
        <time>2012-07-19T08:44:51Z</time>
      </trkpt>
      <trkpt lat="43.24539" lon="5.6008">
        <ele>288.05</ele>
        <time>2012-07-19T08:45:10Z</time>
      </trkpt>
      <trkpt lat="43.24535" lon="5.60075">
        <ele>288.53</ele>
        <time>2012-07-19T08:45:11Z</time>
      </trkpt>
      <trkpt lat="43.2453" lon="5.60072">
        <ele>288.05</ele>
        <time>2012-07-19T08:45:12Z</time>
      </trkpt>
      <trkpt lat="43.24525" lon="5.60071">
        <ele>288.05</ele>
        <time>2012-07-19T08:45:13Z</time>
      </trkpt>
      <trkpt lat="43.2452" lon="5.6007">
        <ele>288.53</ele>
        <time>2012-07-19T08:45:14Z</time>
      </trkpt>
      <trkpt lat="43.24516" lon="5.60071">
        <ele>289.01</ele>
        <time>2012-07-19T08:45:15Z</time>
      </trkpt>
      <trkpt lat="43.24511" lon="5.60072">
        <ele>289.49</ele>
        <time>2012-07-19T08:45:16Z</time>
      </trkpt>
      <trkpt lat="43.24507" lon="5.60073">
        <ele>289.49</ele>
        <time>2012-07-19T08:45:17Z</time>
      </trkpt>
      <trkpt lat="43.24503" lon="5.60075">
        <ele>289.97</ele>
        <time>2012-07-19T08:45:18Z</time>
      </trkpt>
      <trkpt lat="43.24499" lon="5.60078">
        <ele>289.97</ele>
        <time>2012-07-19T08:45:19Z</time>
      </trkpt>
      <trkpt lat="43.24495" lon="5.60081">
        <ele>290.46</ele>
        <time>2012-07-19T08:45:20Z</time>
      </trkpt>
      <trkpt lat="43.24455" lon="5.60111">
        <ele>293.82</ele>
        <time>2012-07-19T08:45:32Z</time>
      </trkpt>
      <trkpt lat="43.24444" lon="5.60116">
        <ele>294.78</ele>
        <time>2012-07-19T08:45:35Z</time>
      </trkpt>
      <trkpt lat="43.2444" lon="5.60118">
        <ele>294.78</ele>
        <time>2012-07-19T08:45:36Z</time>
      </trkpt>
      <trkpt lat="43.24425" lon="5.60119">
        <ele>295.74</ele>
        <time>2012-07-19T08:45:40Z</time>
      </trkpt>
      <trkpt lat="43.24421" lon="5.60118">
        <ele>296.7</ele>
        <time>2012-07-19T08:45:41Z</time>
      </trkpt>
      <trkpt lat="43.24417" lon="5.60115">
        <ele>296.7</ele>
        <time>2012-07-19T08:45:42Z</time>
      </trkpt>
      <trkpt lat="43.24415" lon="5.60111">
        <ele>296.7</ele>
        <time>2012-07-19T08:45:43Z</time>
      </trkpt>
      <trkpt lat="43.24413" lon="5.60106">
        <ele>297.18</ele>
        <time>2012-07-19T08:45:44Z</time>
      </trkpt>
      <trkpt lat="43.24378" lon="5.60023">
        <ele>294.3</ele>
        <time>2012-07-19T08:45:56Z</time>
      </trkpt>
      <trkpt lat="43.24347" lon="5.59946">
        <ele>297.18</ele>
        <time>2012-07-19T08:46:08Z</time>
      </trkpt>
      <trkpt lat="43.24345" lon="5.5993">
        <ele>298.63</ele>
        <time>2012-07-19T08:46:11Z</time>
      </trkpt>
      <trkpt lat="43.24341" lon="5.59897">
        <ele>301.03</ele>
        <time>2012-07-19T08:46:17Z</time>
      </trkpt>
      <trkpt lat="43.24315" lon="5.59852">
        <ele>303.91</ele>
        <time>2012-07-19T08:46:28Z</time>
      </trkpt>
      <trkpt lat="43.2429" lon="5.59792">
        <ele>306.8</ele>
        <time>2012-07-19T08:46:41Z</time>
      </trkpt>
      <trkpt lat="43.24288" lon="5.59787">
        <ele>306.8</ele>
        <time>2012-07-19T08:46:42Z</time>
      </trkpt>
      <trkpt lat="43.2425" lon="5.5967">
        <ele>306.32</ele>
        <time>2012-07-19T08:47:03Z</time>
      </trkpt>
      <trkpt lat="43.24233" lon="5.59586">
        <ele>307.28</ele>
        <time>2012-07-19T08:47:17Z</time>
      </trkpt>
      <trkpt lat="43.24222" lon="5.59535">
        <ele>306.32</ele>
        <time>2012-07-19T08:47:25Z</time>
      </trkpt>
      <trkpt lat="43.24201" lon="5.59457">
        <ele>303.43</ele>
        <time>2012-07-19T08:47:35Z</time>
      </trkpt>
      <trkpt lat="43.24193" lon="5.59427">
        <ele>301.51</ele>
        <time>2012-07-19T08:47:38Z</time>
      </trkpt>
      <trkpt lat="43.24189" lon="5.5942">
        <ele>301.51</ele>
        <time>2012-07-19T08:47:39Z</time>
      </trkpt>
      <trkpt lat="43.24185" lon="5.59413">
        <ele>301.51</ele>
        <time>2012-07-19T08:47:40Z</time>
      </trkpt>
      <trkpt lat="43.2418" lon="5.59408">
        <ele>301.03</ele>
        <time>2012-07-19T08:47:41Z</time>
      </trkpt>
      <trkpt lat="43.24175" lon="5.59404">
        <ele>301.51</ele>
        <time>2012-07-19T08:47:42Z</time>
      </trkpt>
      <trkpt lat="43.24169" lon="5.59401">
        <ele>301.51</ele>
        <time>2012-07-19T08:47:43Z</time>
      </trkpt>
      <trkpt lat="43.24164" lon="5.59399">
        <ele>301.51</ele>
        <time>2012-07-19T08:47:44Z</time>
      </trkpt>
      <trkpt lat="43.24155" lon="5.59395">
        <ele>302.95</ele>
        <time>2012-07-19T08:47:46Z</time>
      </trkpt>
      <trkpt lat="43.24151" lon="5.59392">
        <ele>302.47</ele>
        <time>2012-07-19T08:47:47Z</time>
      </trkpt>
      <trkpt lat="43.24148" lon="5.59388">
        <ele>303.43</ele>
        <time>2012-07-19T08:47:48Z</time>
      </trkpt>
      <trkpt lat="43.24127" lon="5.59365">
        <ele>306.8</ele>
        <time>2012-07-19T08:47:56Z</time>
      </trkpt>
      <trkpt lat="43.24099" lon="5.59336">
        <ele>309.68</ele>
        <time>2012-07-19T08:48:07Z</time>
      </trkpt>
      <trkpt lat="43.24068" lon="5.59318">
        <ele>313.05</ele>
        <time>2012-07-19T08:48:18Z</time>
      </trkpt>
      <trkpt lat="43.24044" lon="5.59303">
        <ele>315.93</ele>
        <time>2012-07-19T08:48:27Z</time>
      </trkpt>
      <trkpt lat="43.24" lon="5.59282">
        <ele>319.3</ele>
        <time>2012-07-19T08:48:43Z</time>
      </trkpt>
      <trkpt lat="43.23958" lon="5.59286">
        <ele>322.66</ele>
        <time>2012-07-19T08:48:57Z</time>
      </trkpt>
      <trkpt lat="43.23916" lon="5.59308">
        <ele>325.54</ele>
        <time>2012-07-19T08:49:12Z</time>
      </trkpt>
      <trkpt lat="43.2388" lon="5.59343">
        <ele>328.43</ele>
        <time>2012-07-19T08:49:26Z</time>
      </trkpt>
      <trkpt lat="43.23858" lon="5.59403">
        <ele>331.31</ele>
        <time>2012-07-19T08:49:41Z</time>
      </trkpt>
      <trkpt lat="43.23831" lon="5.59455">
        <ele>334.2</ele>
        <time>2012-07-19T08:49:56Z</time>
      </trkpt>
      <trkpt lat="43.23827" lon="5.59453">
        <ele>334.2</ele>
        <time>2012-07-19T08:49:57Z</time>
      </trkpt>
      <trkpt lat="43.23824" lon="5.59449">
        <ele>334.2</ele>
        <time>2012-07-19T08:49:58Z</time>
      </trkpt>
      <trkpt lat="43.23823" lon="5.59444">
        <ele>334.68</ele>
        <time>2012-07-19T08:49:59Z</time>
      </trkpt>
      <trkpt lat="43.23821" lon="5.59439">
        <ele>334.68</ele>
        <time>2012-07-19T08:50:00Z</time>
      </trkpt>
      <trkpt lat="43.23821" lon="5.59433">
        <ele>334.68</ele>
        <time>2012-07-19T08:50:01Z</time>
      </trkpt>
      <trkpt lat="43.2382" lon="5.59428">
        <ele>335.16</ele>
        <time>2012-07-19T08:50:02Z</time>
      </trkpt>
      <trkpt lat="43.23819" lon="5.59353">
        <ele>337.56</ele>
        <time>2012-07-19T08:50:17Z</time>
      </trkpt>
      <trkpt lat="43.23793" lon="5.59279">
        <ele>338.04</ele>
        <time>2012-07-19T08:50:31Z</time>
      </trkpt>
      <trkpt lat="43.23791" lon="5.59274">
        <ele>338.52</ele>
        <time>2012-07-19T08:50:32Z</time>
      </trkpt>
      <trkpt lat="43.23748" lon="5.59208">
        <ele>340.44</ele>
        <time>2012-07-19T08:50:47Z</time>
      </trkpt>
      <trkpt lat="43.23679" lon="5.59155">
        <ele>342.85</ele>
        <time>2012-07-19T08:51:05Z</time>
      </trkpt>
      <trkpt lat="43.23648" lon="5.59139">
        <ele>345.73</ele>
        <time>2012-07-19T08:51:13Z</time>
      </trkpt>
      <trkpt lat="43.23594" lon="5.59107">
        <ele>349.58</ele>
        <time>2012-07-19T08:51:28Z</time>
      </trkpt>
      <trkpt lat="43.23553" lon="5.59074">
        <ele>351.98</ele>
        <time>2012-07-19T08:51:40Z</time>
      </trkpt>
      <trkpt lat="43.23521" lon="5.59049">
        <ele>353.42</ele>
        <time>2012-07-19T08:51:49Z</time>
      </trkpt>
      <trkpt lat="43.23517" lon="5.59047">
        <ele>352.94</ele>
        <time>2012-07-19T08:51:50Z</time>
      </trkpt>
      <trkpt lat="43.23513" lon="5.59046">
        <ele>352.94</ele>
        <time>2012-07-19T08:51:51Z</time>
      </trkpt>
      <trkpt lat="43.23509" lon="5.59046">
        <ele>353.42</ele>
        <time>2012-07-19T08:51:52Z</time>
      </trkpt>
      <trkpt lat="43.23505" lon="5.59046">
        <ele>353.42</ele>
        <time>2012-07-19T08:51:53Z</time>
      </trkpt>
      <trkpt lat="43.23502" lon="5.59046">
        <ele>353.9</ele>
        <time>2012-07-19T08:51:54Z</time>
      </trkpt>
      <trkpt lat="43.23498" lon="5.59047">
        <ele>353.42</ele>
        <time>2012-07-19T08:51:55Z</time>
      </trkpt>
      <trkpt lat="43.23494" lon="5.59048">
        <ele>353.9</ele>
        <time>2012-07-19T08:51:56Z</time>
      </trkpt>
      <trkpt lat="43.23491" lon="5.5905">
        <ele>353.9</ele>
        <time>2012-07-19T08:51:57Z</time>
      </trkpt>
      <trkpt lat="43.23435" lon="5.59086">
        <ele>352.94</ele>
        <time>2012-07-19T08:52:14Z</time>
      </trkpt>
      <trkpt lat="43.23422" lon="5.59087">
        <ele>352.46</ele>
        <time>2012-07-19T08:52:17Z</time>
      </trkpt>
      <trkpt lat="43.23418" lon="5.59087">
        <ele>351.98</ele>
        <time>2012-07-19T08:52:18Z</time>
      </trkpt>
      <trkpt lat="43.23414" lon="5.59086">
        <ele>351.98</ele>
        <time>2012-07-19T08:52:19Z</time>
      </trkpt>
      <trkpt lat="43.2341" lon="5.59084">
        <ele>351.98</ele>
        <time>2012-07-19T08:52:20Z</time>
      </trkpt>
      <trkpt lat="43.23406" lon="5.59081">
        <ele>351.5</ele>
        <time>2012-07-19T08:52:21Z</time>
      </trkpt>
      <trkpt lat="43.23401" lon="5.59078">
        <ele>351.5</ele>
        <time>2012-07-19T08:52:22Z</time>
      </trkpt>
      <trkpt lat="43.23397" lon="5.59073">
        <ele>351.02</ele>
        <time>2012-07-19T08:52:23Z</time>
      </trkpt>
      <trkpt lat="43.23394" lon="5.59068">
        <ele>351.02</ele>
        <time>2012-07-19T08:52:24Z</time>
      </trkpt>
      <trkpt lat="43.2339" lon="5.59062">
        <ele>351.02</ele>
        <time>2012-07-19T08:52:25Z</time>
      </trkpt>
      <trkpt lat="43.23388" lon="5.59056">
        <ele>351.02</ele>
        <time>2012-07-19T08:52:26Z</time>
      </trkpt>
      <trkpt lat="43.23385" lon="5.59048">
        <ele>350.54</ele>
        <time>2012-07-19T08:52:27Z</time>
      </trkpt>
      <trkpt lat="43.23383" lon="5.5904">
        <ele>350.06</ele>
        <time>2012-07-19T08:52:28Z</time>
      </trkpt>
      <trkpt lat="43.23383" lon="5.59031">
        <ele>350.06</ele>
        <time>2012-07-19T08:52:29Z</time>
      </trkpt>
      <trkpt lat="43.23383" lon="5.59022">
        <ele>349.58</ele>
        <time>2012-07-19T08:52:30Z</time>
      </trkpt>
      <trkpt lat="43.23383" lon="5.59012">
        <ele>349.1</ele>
        <time>2012-07-19T08:52:31Z</time>
      </trkpt>
      <trkpt lat="43.23385" lon="5.58944">
        <ele>346.21</ele>
        <time>2012-07-19T08:52:37Z</time>
      </trkpt>
      <trkpt lat="43.23385" lon="5.58918">
        <ele>344.77</ele>
        <time>2012-07-19T08:52:39Z</time>
      </trkpt>
      <trkpt lat="43.23383" lon="5.58906">
        <ele>344.29</ele>
        <time>2012-07-19T08:52:40Z</time>
      </trkpt>
      <trkpt lat="43.2338" lon="5.58894">
        <ele>343.33</ele>
        <time>2012-07-19T08:52:41Z</time>
      </trkpt>
      <trkpt lat="43.23375" lon="5.58883">
        <ele>342.37</ele>
        <time>2012-07-19T08:52:42Z</time>
      </trkpt>
      <trkpt lat="43.23368" lon="5.58873">
        <ele>341.89</ele>
        <time>2012-07-19T08:52:43Z</time>
      </trkpt>
      <trkpt lat="43.23359" lon="5.58866">
        <ele>341.41</ele>
        <time>2012-07-19T08:52:44Z</time>
      </trkpt>
      <trkpt lat="43.23349" lon="5.5886">
        <ele>340.44</ele>
        <time>2012-07-19T08:52:45Z</time>
      </trkpt>
      <trkpt lat="43.23338" lon="5.58858">
        <ele>339.48</ele>
        <time>2012-07-19T08:52:46Z</time>
      </trkpt>
      <trkpt lat="43.23328" lon="5.58859">
        <ele>339</ele>
        <time>2012-07-19T08:52:47Z</time>
      </trkpt>
      <trkpt lat="43.23317" lon="5.58862">
        <ele>338.52</ele>
        <time>2012-07-19T08:52:48Z</time>
      </trkpt>
      <trkpt lat="43.23307" lon="5.58868">
        <ele>337.56</ele>
        <time>2012-07-19T08:52:49Z</time>
      </trkpt>
      <trkpt lat="43.23298" lon="5.58876">
        <ele>337.08</ele>
        <time>2012-07-19T08:52:50Z</time>
      </trkpt>
      <trkpt lat="43.2329" lon="5.58884">
        <ele>335.16</ele>
        <time>2012-07-19T08:52:51Z</time>
      </trkpt>
      <trkpt lat="43.23281" lon="5.58892">
        <ele>335.64</ele>
        <time>2012-07-19T08:52:52Z</time>
      </trkpt>
      <trkpt lat="43.23244" lon="5.58926">
        <ele>332.27</ele>
        <time>2012-07-19T08:52:56Z</time>
      </trkpt>
      <trkpt lat="43.23235" lon="5.58935">
        <ele>332.75</ele>
        <time>2012-07-19T08:52:57Z</time>
      </trkpt>
      <trkpt lat="43.23205" lon="5.58958">
        <ele>329.39</ele>
        <time>2012-07-19T08:53:00Z</time>
      </trkpt>
      <trkpt lat="43.23194" lon="5.58963">
        <ele>328.91</ele>
        <time>2012-07-19T08:53:01Z</time>
      </trkpt>
      <trkpt lat="43.23182" lon="5.58964">
        <ele>327.95</ele>
        <time>2012-07-19T08:53:02Z</time>
      </trkpt>
      <trkpt lat="43.23171" lon="5.5896">
        <ele>326.99</ele>
        <time>2012-07-19T08:53:03Z</time>
      </trkpt>
      <trkpt lat="43.23161" lon="5.5895">
        <ele>326.5</ele>
        <time>2012-07-19T08:53:04Z</time>
      </trkpt>
      <trkpt lat="43.23153" lon="5.58937">
        <ele>326.5</ele>
        <time>2012-07-19T08:53:05Z</time>
      </trkpt>
      <trkpt lat="43.23147" lon="5.58923">
        <ele>324.58</ele>
        <time>2012-07-19T08:53:06Z</time>
      </trkpt>
      <trkpt lat="43.23141" lon="5.58908">
        <ele>323.62</ele>
        <time>2012-07-19T08:53:07Z</time>
      </trkpt>
      <trkpt lat="43.23116" lon="5.5885">
        <ele>320.26</ele>
        <time>2012-07-19T08:53:11Z</time>
      </trkpt>
      <trkpt lat="43.23087" lon="5.58794">
        <ele>316.89</ele>
        <time>2012-07-19T08:53:15Z</time>
      </trkpt>
      <trkpt lat="43.2307" lon="5.58767">
        <ele>314.49</ele>
        <time>2012-07-19T08:53:17Z</time>
      </trkpt>
      <trkpt lat="43.23063" lon="5.5875">
        <ele>313.53</ele>
        <time>2012-07-19T08:53:18Z</time>
      </trkpt>
      <trkpt lat="43.2306" lon="5.58732">
        <ele>312.57</ele>
        <time>2012-07-19T08:53:19Z</time>
      </trkpt>
      <trkpt lat="43.23059" lon="5.58713">
        <ele>310.64</ele>
        <time>2012-07-19T08:53:20Z</time>
      </trkpt>
      <trkpt lat="43.23058" lon="5.58694">
        <ele>310.16</ele>
        <time>2012-07-19T08:53:21Z</time>
      </trkpt>
      <trkpt lat="43.23057" lon="5.58677">
        <ele>309.2</ele>
        <time>2012-07-19T08:53:22Z</time>
      </trkpt>
      <trkpt lat="43.23053" lon="5.58661">
        <ele>308.24</ele>
        <time>2012-07-19T08:53:23Z</time>
      </trkpt>
      <trkpt lat="43.23046" lon="5.58649">
        <ele>307.28</ele>
        <time>2012-07-19T08:53:24Z</time>
      </trkpt>
      <trkpt lat="43.23035" lon="5.58641">
        <ele>306.32</ele>
        <time>2012-07-19T08:53:25Z</time>
      </trkpt>
      <trkpt lat="43.23023" lon="5.58638">
        <ele>305.36</ele>
        <time>2012-07-19T08:53:26Z</time>
      </trkpt>
      <trkpt lat="43.2301" lon="5.58641">
        <ele>303.91</ele>
        <time>2012-07-19T08:53:27Z</time>
      </trkpt>
      <trkpt lat="43.22998" lon="5.58648">
        <ele>302.95</ele>
        <time>2012-07-19T08:53:28Z</time>
      </trkpt>
      <trkpt lat="43.22987" lon="5.58656">
        <ele>301.99</ele>
        <time>2012-07-19T08:53:29Z</time>
      </trkpt>
      <trkpt lat="43.22941" lon="5.58688">
        <ele>297.67</ele>
        <time>2012-07-19T08:53:33Z</time>
      </trkpt>
      <trkpt lat="43.22928" lon="5.58693">
        <ele>296.7</ele>
        <time>2012-07-19T08:53:34Z</time>
      </trkpt>
      <trkpt lat="43.22915" lon="5.58697">
        <ele>295.26</ele>
        <time>2012-07-19T08:53:35Z</time>
      </trkpt>
      <trkpt lat="43.22875" lon="5.58702">
        <ele>291.9</ele>
        <time>2012-07-19T08:53:38Z</time>
      </trkpt>
      <trkpt lat="43.22834" lon="5.58705">
        <ele>288.53</ele>
        <time>2012-07-19T08:53:41Z</time>
      </trkpt>
      <trkpt lat="43.22808" lon="5.58711">
        <ele>286.61</ele>
        <time>2012-07-19T08:53:43Z</time>
      </trkpt>
      <trkpt lat="43.22796" lon="5.58716">
        <ele>285.17</ele>
        <time>2012-07-19T08:53:44Z</time>
      </trkpt>
      <trkpt lat="43.22784" lon="5.58723">
        <ele>284.21</ele>
        <time>2012-07-19T08:53:45Z</time>
      </trkpt>
      <trkpt lat="43.22772" lon="5.58731">
        <ele>283.73</ele>
        <time>2012-07-19T08:53:46Z</time>
      </trkpt>
      <trkpt lat="43.22761" lon="5.58741">
        <ele>283.73</ele>
        <time>2012-07-19T08:53:47Z</time>
      </trkpt>
      <trkpt lat="43.22751" lon="5.58752">
        <ele>282.28</ele>
        <time>2012-07-19T08:53:48Z</time>
      </trkpt>
      <trkpt lat="43.22741" lon="5.58764">
        <ele>280.84</ele>
        <time>2012-07-19T08:53:49Z</time>
      </trkpt>
      <trkpt lat="43.2273" lon="5.58774">
        <ele>280.36</ele>
        <time>2012-07-19T08:53:50Z</time>
      </trkpt>
      <trkpt lat="43.2272" lon="5.58782">
        <ele>279.88</ele>
        <time>2012-07-19T08:53:51Z</time>
      </trkpt>
      <trkpt lat="43.2271" lon="5.58787">
        <ele>279.4</ele>
        <time>2012-07-19T08:53:52Z</time>
      </trkpt>
      <trkpt lat="43.22699" lon="5.58787">
        <ele>278.92</ele>
        <time>2012-07-19T08:53:53Z</time>
      </trkpt>
      <trkpt lat="43.22689" lon="5.58782">
        <ele>277</ele>
        <time>2012-07-19T08:53:54Z</time>
      </trkpt>
      <trkpt lat="43.22681" lon="5.58771">
        <ele>276.52</ele>
        <time>2012-07-19T08:53:55Z</time>
      </trkpt>
      <trkpt lat="43.22675" lon="5.58757">
        <ele>275.56</ele>
        <time>2012-07-19T08:53:56Z</time>
      </trkpt>
      <trkpt lat="43.22671" lon="5.5874">
        <ele>274.11</ele>
        <time>2012-07-19T08:53:57Z</time>
      </trkpt>
      <trkpt lat="43.2267" lon="5.58724">
        <ele>273.15</ele>
        <time>2012-07-19T08:53:58Z</time>
      </trkpt>
      <trkpt lat="43.22674" lon="5.58711">
        <ele>271.71</ele>
        <time>2012-07-19T08:53:59Z</time>
      </trkpt>
      <trkpt lat="43.22684" lon="5.58701">
        <ele>271.23</ele>
        <time>2012-07-19T08:54:00Z</time>
      </trkpt>
      <trkpt lat="43.22694" lon="5.58693">
        <ele>270.75</ele>
        <time>2012-07-19T08:54:01Z</time>
      </trkpt>
      <trkpt lat="43.22705" lon="5.58685">
        <ele>269.79</ele>
        <time>2012-07-19T08:54:02Z</time>
      </trkpt>
      <trkpt lat="43.22754" lon="5.58632">
        <ele>266.42</ele>
        <time>2012-07-19T08:54:07Z</time>
      </trkpt>
      <trkpt lat="43.22779" lon="5.58591">
        <ele>263.06</ele>
        <time>2012-07-19T08:54:10Z</time>
      </trkpt>
      <trkpt lat="43.22784" lon="5.58577">
        <ele>261.62</ele>
        <time>2012-07-19T08:54:11Z</time>
      </trkpt>
      <trkpt lat="43.22788" lon="5.58561">
        <ele>261.14</ele>
        <time>2012-07-19T08:54:12Z</time>
      </trkpt>
      <trkpt lat="43.22788" lon="5.58546">
        <ele>260.65</ele>
        <time>2012-07-19T08:54:13Z</time>
      </trkpt>
      <trkpt lat="43.22783" lon="5.58533">
        <ele>259.69</ele>
        <time>2012-07-19T08:54:14Z</time>
      </trkpt>
      <trkpt lat="43.22776" lon="5.58522">
        <ele>258.25</ele>
        <time>2012-07-19T08:54:15Z</time>
      </trkpt>
      <trkpt lat="43.22766" lon="5.58516">
        <ele>257.29</ele>
        <time>2012-07-19T08:54:16Z</time>
      </trkpt>
      <trkpt lat="43.22755" lon="5.58515">
        <ele>256.81</ele>
        <time>2012-07-19T08:54:17Z</time>
      </trkpt>
      <trkpt lat="43.22744" lon="5.58518">
        <ele>255.85</ele>
        <time>2012-07-19T08:54:18Z</time>
      </trkpt>
      <trkpt lat="43.22734" lon="5.58526">
        <ele>255.37</ele>
        <time>2012-07-19T08:54:19Z</time>
      </trkpt>
      <trkpt lat="43.22725" lon="5.58536">
        <ele>253.93</ele>
        <time>2012-07-19T08:54:20Z</time>
      </trkpt>
      <trkpt lat="43.22718" lon="5.58548">
        <ele>253.44</ele>
        <time>2012-07-19T08:54:21Z</time>
      </trkpt>
      <trkpt lat="43.2271" lon="5.5856">
        <ele>252.96</ele>
        <time>2012-07-19T08:54:22Z</time>
      </trkpt>
      <trkpt lat="43.22689" lon="5.58601">
        <ele>250.08</ele>
        <time>2012-07-19T08:54:25Z</time>
      </trkpt>
      <trkpt lat="43.2268" lon="5.58612">
        <ele>250.08</ele>
        <time>2012-07-19T08:54:26Z</time>
      </trkpt>
      <trkpt lat="43.2267" lon="5.58621">
        <ele>248.64</ele>
        <time>2012-07-19T08:54:27Z</time>
      </trkpt>
      <trkpt lat="43.2266" lon="5.58624">
        <ele>247.68</ele>
        <time>2012-07-19T08:54:28Z</time>
      </trkpt>
      <trkpt lat="43.22649" lon="5.58623">
        <ele>246.23</ele>
        <time>2012-07-19T08:54:29Z</time>
      </trkpt>
      <trkpt lat="43.2264" lon="5.58616">
        <ele>246.23</ele>
        <time>2012-07-19T08:54:30Z</time>
      </trkpt>
      <trkpt lat="43.22632" lon="5.58604">
        <ele>244.79</ele>
        <time>2012-07-19T08:54:31Z</time>
      </trkpt>
      <trkpt lat="43.22627" lon="5.58588">
        <ele>243.83</ele>
        <time>2012-07-19T08:54:32Z</time>
      </trkpt>
      <trkpt lat="43.22623" lon="5.58571">
        <ele>242.39</ele>
        <time>2012-07-19T08:54:33Z</time>
      </trkpt>
      <trkpt lat="43.22621" lon="5.58554">
        <ele>241.43</ele>
        <time>2012-07-19T08:54:34Z</time>
      </trkpt>
      <trkpt lat="43.22621" lon="5.58537">
        <ele>240.47</ele>
        <time>2012-07-19T08:54:35Z</time>
      </trkpt>
      <trkpt lat="43.2262" lon="5.5852">
        <ele>239.51</ele>
        <time>2012-07-19T08:54:36Z</time>
      </trkpt>
      <trkpt lat="43.22618" lon="5.58503">
        <ele>239.02</ele>
        <time>2012-07-19T08:54:37Z</time>
      </trkpt>
      <trkpt lat="43.22616" lon="5.58487">
        <ele>238.06</ele>
        <time>2012-07-19T08:54:38Z</time>
      </trkpt>
      <trkpt lat="43.22612" lon="5.58471">
        <ele>238.06</ele>
        <time>2012-07-19T08:54:39Z</time>
      </trkpt>
      <trkpt lat="43.22606" lon="5.58438">
        <ele>236.62</ele>
        <time>2012-07-19T08:54:41Z</time>
      </trkpt>
      <trkpt lat="43.22595" lon="5.5839">
        <ele>233.26</ele>
        <time>2012-07-19T08:54:44Z</time>
      </trkpt>
      <trkpt lat="43.22589" lon="5.58375">
        <ele>232.78</ele>
        <time>2012-07-19T08:54:45Z</time>
      </trkpt>
      <trkpt lat="43.22582" lon="5.58361">
        <ele>231.33</ele>
        <time>2012-07-19T08:54:46Z</time>
      </trkpt>
      <trkpt lat="43.22572" lon="5.58349">
        <ele>230.85</ele>
        <time>2012-07-19T08:54:47Z</time>
      </trkpt>
      <trkpt lat="43.22562" lon="5.58339">
        <ele>229.89</ele>
        <time>2012-07-19T08:54:48Z</time>
      </trkpt>
      <trkpt lat="43.22551" lon="5.5833">
        <ele>229.41</ele>
        <time>2012-07-19T08:54:49Z</time>
      </trkpt>
      <trkpt lat="43.22539" lon="5.58324">
        <ele>229.41</ele>
        <time>2012-07-19T08:54:50Z</time>
      </trkpt>
      <trkpt lat="43.22526" lon="5.5832">
        <ele>228.93</ele>
        <time>2012-07-19T08:54:51Z</time>
      </trkpt>
      <trkpt lat="43.22514" lon="5.58318">
        <ele>227.97</ele>
        <time>2012-07-19T08:54:52Z</time>
      </trkpt>
      <trkpt lat="43.22502" lon="5.58318">
        <ele>227.97</ele>
        <time>2012-07-19T08:54:53Z</time>
      </trkpt>
      <trkpt lat="43.22489" lon="5.58319">
        <ele>226.53</ele>
        <time>2012-07-19T08:54:54Z</time>
      </trkpt>
      <trkpt lat="43.22477" lon="5.5832">
        <ele>226.05</ele>
        <time>2012-07-19T08:54:55Z</time>
      </trkpt>
      <trkpt lat="43.22466" lon="5.5832">
        <ele>226.05</ele>
        <time>2012-07-19T08:54:56Z</time>
      </trkpt>
      <trkpt lat="43.22454" lon="5.58318">
        <ele>225.09</ele>
        <time>2012-07-19T08:54:57Z</time>
      </trkpt>
      <trkpt lat="43.22443" lon="5.58313">
        <ele>224.12</ele>
        <time>2012-07-19T08:54:58Z</time>
      </trkpt>
      <trkpt lat="43.22432" lon="5.58306">
        <ele>223.16</ele>
        <time>2012-07-19T08:54:59Z</time>
      </trkpt>
      <trkpt lat="43.22421" lon="5.58298">
        <ele>222.68</ele>
        <time>2012-07-19T08:55:00Z</time>
      </trkpt>
      <trkpt lat="43.22412" lon="5.58288">
        <ele>221.72</ele>
        <time>2012-07-19T08:55:01Z</time>
      </trkpt>
      <trkpt lat="43.22404" lon="5.58276">
        <ele>221.24</ele>
        <time>2012-07-19T08:55:02Z</time>
      </trkpt>
      <trkpt lat="43.22397" lon="5.58262">
        <ele>220.28</ele>
        <time>2012-07-19T08:55:03Z</time>
      </trkpt>
      <trkpt lat="43.22391" lon="5.58248">
        <ele>220.28</ele>
        <time>2012-07-19T08:55:04Z</time>
      </trkpt>
      <trkpt lat="43.22387" lon="5.58233">
        <ele>220.28</ele>
        <time>2012-07-19T08:55:05Z</time>
      </trkpt>
      <trkpt lat="43.22383" lon="5.58218">
        <ele>219.8</ele>
        <time>2012-07-19T08:55:06Z</time>
      </trkpt>
      <trkpt lat="43.22365" lon="5.58144">
        <ele>217.88</ele>
        <time>2012-07-19T08:55:11Z</time>
      </trkpt>
      <trkpt lat="43.22355" lon="5.58118">
        <ele>217.4</ele>
        <time>2012-07-19T08:55:13Z</time>
      </trkpt>
      <trkpt lat="43.22349" lon="5.58107">
        <ele>216.91</ele>
        <time>2012-07-19T08:55:14Z</time>
      </trkpt>
      <trkpt lat="43.22344" lon="5.58097">
        <ele>217.4</ele>
        <time>2012-07-19T08:55:15Z</time>
      </trkpt>
      <trkpt lat="43.22337" lon="5.58088">
        <ele>216.91</ele>
        <time>2012-07-19T08:55:16Z</time>
      </trkpt>
      <trkpt lat="43.22329" lon="5.58081">
        <ele>216.91</ele>
        <time>2012-07-19T08:55:17Z</time>
      </trkpt>
      <trkpt lat="43.22321" lon="5.58074">
        <ele>216.43</ele>
        <time>2012-07-19T08:55:18Z</time>
      </trkpt>
      <trkpt lat="43.22313" lon="5.58068">
        <ele>216.43</ele>
        <time>2012-07-19T08:55:19Z</time>
      </trkpt>
      <trkpt lat="43.22229" lon="5.58011">
        <ele>213.55</ele>
        <time>2012-07-19T08:55:29Z</time>
      </trkpt>
      <trkpt lat="43.22221" lon="5.58003">
        <ele>213.07</ele>
        <time>2012-07-19T08:55:30Z</time>
      </trkpt>
      <trkpt lat="43.22215" lon="5.57995">
        <ele>212.59</ele>
        <time>2012-07-19T08:55:31Z</time>
      </trkpt>
      <trkpt lat="43.22212" lon="5.57984">
        <ele>212.59</ele>
        <time>2012-07-19T08:55:32Z</time>
      </trkpt>
      <trkpt lat="43.22211" lon="5.57974">
        <ele>213.07</ele>
        <time>2012-07-19T08:55:33Z</time>
      </trkpt>
      <trkpt lat="43.2221" lon="5.57963">
        <ele>212.11</ele>
        <time>2012-07-19T08:55:34Z</time>
      </trkpt>
      <trkpt lat="43.22208" lon="5.57954">
        <ele>212.11</ele>
        <time>2012-07-19T08:55:35Z</time>
      </trkpt>
      <trkpt lat="43.22203" lon="5.57948">
        <ele>211.63</ele>
        <time>2012-07-19T08:55:36Z</time>
      </trkpt>
      <trkpt lat="43.22196" lon="5.57946">
        <ele>211.63</ele>
        <time>2012-07-19T08:55:37Z</time>
      </trkpt>
      <trkpt lat="43.22189" lon="5.57947">
        <ele>211.63</ele>
        <time>2012-07-19T08:55:38Z</time>
      </trkpt>
      <trkpt lat="43.22182" lon="5.5795">
        <ele>212.11</ele>
        <time>2012-07-19T08:55:39Z</time>
      </trkpt>
      <trkpt lat="43.22175" lon="5.57954">
        <ele>212.11</ele>
        <time>2012-07-19T08:55:40Z</time>
      </trkpt>
      <trkpt lat="43.22168" lon="5.5796">
        <ele>212.11</ele>
        <time>2012-07-19T08:55:41Z</time>
      </trkpt>
      <trkpt lat="43.22134" lon="5.57988">
        <ele>212.11</ele>
        <time>2012-07-19T08:55:47Z</time>
      </trkpt>
      <trkpt lat="43.22115" lon="5.57998">
        <ele>210.67</ele>
        <time>2012-07-19T08:55:50Z</time>
      </trkpt>
      <trkpt lat="43.22033" lon="5.58046">
        <ele>207.3</ele>
        <time>2012-07-19T08:56:01Z</time>
      </trkpt>
      <trkpt lat="43.21977" lon="5.58065">
        <ele>203.94</ele>
        <time>2012-07-19T08:56:07Z</time>
      </trkpt>
      <trkpt lat="43.21916" lon="5.58066">
        <ele>200.57</ele>
        <time>2012-07-19T08:56:13Z</time>
      </trkpt>
      <trkpt lat="43.21871" lon="5.58074">
        <ele>196.73</ele>
        <time>2012-07-19T08:56:17Z</time>
      </trkpt>
      <trkpt lat="43.21835" lon="5.58081">
        <ele>193.84</ele>
        <time>2012-07-19T08:56:20Z</time>
      </trkpt>
      <trkpt lat="43.21796" lon="5.58085">
        <ele>190</ele>
        <time>2012-07-19T08:56:23Z</time>
      </trkpt>
      <trkpt lat="43.21756" lon="5.58089">
        <ele>186.15</ele>
        <time>2012-07-19T08:56:26Z</time>
      </trkpt>
      <trkpt lat="43.21716" lon="5.58097">
        <ele>182.79</ele>
        <time>2012-07-19T08:56:29Z</time>
      </trkpt>
      <trkpt lat="43.21703" lon="5.58103">
        <ele>181.35</ele>
        <time>2012-07-19T08:56:30Z</time>
      </trkpt>
      <trkpt lat="43.2169" lon="5.5811">
        <ele>180.87</ele>
        <time>2012-07-19T08:56:31Z</time>
      </trkpt>
      <trkpt lat="43.21666" lon="5.58126">
        <ele>179.9</ele>
        <time>2012-07-19T08:56:33Z</time>
      </trkpt>
      <trkpt lat="43.21619" lon="5.58152">
        <ele>176.06</ele>
        <time>2012-07-19T08:56:37Z</time>
      </trkpt>
      <trkpt lat="43.21607" lon="5.58155">
        <ele>175.58</ele>
        <time>2012-07-19T08:56:38Z</time>
      </trkpt>
      <trkpt lat="43.21551" lon="5.58154">
        <ele>171.73</ele>
        <time>2012-07-19T08:56:42Z</time>
      </trkpt>
      <trkpt lat="43.21538" lon="5.58149">
        <ele>170.77</ele>
        <time>2012-07-19T08:56:43Z</time>
      </trkpt>
      <trkpt lat="43.21527" lon="5.58139">
        <ele>170.29</ele>
        <time>2012-07-19T08:56:44Z</time>
      </trkpt>
      <trkpt lat="43.21516" lon="5.58128">
        <ele>169.33</ele>
        <time>2012-07-19T08:56:45Z</time>
      </trkpt>
      <trkpt lat="43.21507" lon="5.58114">
        <ele>168.37</ele>
        <time>2012-07-19T08:56:46Z</time>
      </trkpt>
      <trkpt lat="43.21501" lon="5.58098">
        <ele>167.89</ele>
        <time>2012-07-19T08:56:47Z</time>
      </trkpt>
      <trkpt lat="43.21497" lon="5.58081">
        <ele>166.93</ele>
        <time>2012-07-19T08:56:48Z</time>
      </trkpt>
      <trkpt lat="43.21496" lon="5.58063">
        <ele>166.45</ele>
        <time>2012-07-19T08:56:49Z</time>
      </trkpt>
      <trkpt lat="43.21497" lon="5.58045">
        <ele>165.48</ele>
        <time>2012-07-19T08:56:50Z</time>
      </trkpt>
      <trkpt lat="43.215" lon="5.58027">
        <ele>165.48</ele>
        <time>2012-07-19T08:56:51Z</time>
      </trkpt>
      <trkpt lat="43.21504" lon="5.58011">
        <ele>164.52</ele>
        <time>2012-07-19T08:56:52Z</time>
      </trkpt>
      <trkpt lat="43.2151" lon="5.57996">
        <ele>164.04</ele>
        <time>2012-07-19T08:56:53Z</time>
      </trkpt>
      <trkpt lat="43.2152" lon="5.57965">
        <ele>163.56</ele>
        <time>2012-07-19T08:56:55Z</time>
      </trkpt>
      <trkpt lat="43.21523" lon="5.57949">
        <ele>163.56</ele>
        <time>2012-07-19T08:56:56Z</time>
      </trkpt>
      <trkpt lat="43.21521" lon="5.57933">
        <ele>162.6</ele>
        <time>2012-07-19T08:56:57Z</time>
      </trkpt>
      <trkpt lat="43.21516" lon="5.57919">
        <ele>162.12</ele>
        <time>2012-07-19T08:56:58Z</time>
      </trkpt>
      <trkpt lat="43.21508" lon="5.57908">
        <ele>161.64</ele>
        <time>2012-07-19T08:56:59Z</time>
      </trkpt>
      <trkpt lat="43.21498" lon="5.57898">
        <ele>161.16</ele>
        <time>2012-07-19T08:57:00Z</time>
      </trkpt>
      <trkpt lat="43.21479" lon="5.5788">
        <ele>160.68</ele>
        <time>2012-07-19T08:57:02Z</time>
      </trkpt>
      <trkpt lat="43.21468" lon="5.57874">
        <ele>159.72</ele>
        <time>2012-07-19T08:57:03Z</time>
      </trkpt>
      <trkpt lat="43.21455" lon="5.57873">
        <ele>159.24</ele>
        <time>2012-07-19T08:57:04Z</time>
      </trkpt>
      <trkpt lat="43.21443" lon="5.57878">
        <ele>158.75</ele>
        <time>2012-07-19T08:57:05Z</time>
      </trkpt>
      <trkpt lat="43.21435" lon="5.57888">
        <ele>157.79</ele>
        <time>2012-07-19T08:57:06Z</time>
      </trkpt>
      <trkpt lat="43.21429" lon="5.57901">
        <ele>157.79</ele>
        <time>2012-07-19T08:57:07Z</time>
      </trkpt>
      <trkpt lat="43.21423" lon="5.57914">
        <ele>156.83</ele>
        <time>2012-07-19T08:57:08Z</time>
      </trkpt>
      <trkpt lat="43.21393" lon="5.5796">
        <ele>155.39</ele>
        <time>2012-07-19T08:57:12Z</time>
      </trkpt>
      <trkpt lat="43.21384" lon="5.57969">
        <ele>154.43</ele>
        <time>2012-07-19T08:57:13Z</time>
      </trkpt>
      <trkpt lat="43.21375" lon="5.57976">
        <ele>154.91</ele>
        <time>2012-07-19T08:57:14Z</time>
      </trkpt>
      <trkpt lat="43.21311" lon="5.58032">
        <ele>151.06</ele>
        <time>2012-07-19T08:57:21Z</time>
      </trkpt>
      <trkpt lat="43.21302" lon="5.58039">
        <ele>151.06</ele>
        <time>2012-07-19T08:57:22Z</time>
      </trkpt>
      <trkpt lat="43.21291" lon="5.58045">
        <ele>150.1</ele>
        <time>2012-07-19T08:57:23Z</time>
      </trkpt>
      <trkpt lat="43.2128" lon="5.58049">
        <ele>150.1</ele>
        <time>2012-07-19T08:57:24Z</time>
      </trkpt>
      <trkpt lat="43.21269" lon="5.5805">
        <ele>149.62</ele>
        <time>2012-07-19T08:57:25Z</time>
      </trkpt>
      <trkpt lat="43.21257" lon="5.58048">
        <ele>149.14</ele>
        <time>2012-07-19T08:57:26Z</time>
      </trkpt>
      <trkpt lat="43.21245" lon="5.58043">
        <ele>148.66</ele>
        <time>2012-07-19T08:57:27Z</time>
      </trkpt>
      <trkpt lat="43.21235" lon="5.58037">
        <ele>148.66</ele>
        <time>2012-07-19T08:57:28Z</time>
      </trkpt>
      <trkpt lat="43.21225" lon="5.5803">
        <ele>148.18</ele>
        <time>2012-07-19T08:57:29Z</time>
      </trkpt>
      <trkpt lat="43.21215" lon="5.58024">
        <ele>147.7</ele>
        <time>2012-07-19T08:57:30Z</time>
      </trkpt>
      <trkpt lat="43.21124" lon="5.57983">
        <ele>144.34</ele>
        <time>2012-07-19T08:57:39Z</time>
      </trkpt>
      <trkpt lat="43.21049" lon="5.57971">
        <ele>141.45</ele>
        <time>2012-07-19T08:57:46Z</time>
      </trkpt>
      <trkpt lat="43.21018" lon="5.57974">
        <ele>140.01</ele>
        <time>2012-07-19T08:57:49Z</time>
      </trkpt>
      <trkpt lat="43.20936" lon="5.58">
        <ele>136.64</ele>
        <time>2012-07-19T08:57:57Z</time>
      </trkpt>
      <trkpt lat="43.20872" lon="5.58049">
        <ele>134.72</ele>
        <time>2012-07-19T08:58:04Z</time>
      </trkpt>
      <trkpt lat="43.20865" lon="5.58058">
        <ele>134.72</ele>
        <time>2012-07-19T08:58:05Z</time>
      </trkpt>
      <trkpt lat="43.20831" lon="5.58096">
        <ele>131.36</ele>
        <time>2012-07-19T08:58:09Z</time>
      </trkpt>
      <trkpt lat="43.20822" lon="5.58106">
        <ele>131.36</ele>
        <time>2012-07-19T08:58:10Z</time>
      </trkpt>
      <trkpt lat="43.20806" lon="5.58127">
        <ele>129.43</ele>
        <time>2012-07-19T08:58:12Z</time>
      </trkpt>
      <trkpt lat="43.20776" lon="5.58171">
        <ele>127.51</ele>
        <time>2012-07-19T08:58:16Z</time>
      </trkpt>
      <trkpt lat="43.2074" lon="5.58247">
        <ele>124.15</ele>
        <time>2012-07-19T08:58:22Z</time>
      </trkpt>
      <trkpt lat="43.20729" lon="5.58275">
        <ele>123.19</ele>
        <time>2012-07-19T08:58:24Z</time>
      </trkpt>
      <trkpt lat="43.20713" lon="5.58317">
        <ele>120.3</ele>
        <time>2012-07-19T08:58:27Z</time>
      </trkpt>
      <trkpt lat="43.20708" lon="5.58331">
        <ele>120.3</ele>
        <time>2012-07-19T08:58:28Z</time>
      </trkpt>
      <trkpt lat="43.20666" lon="5.58458">
        <ele>116.94</ele>
        <time>2012-07-19T08:58:37Z</time>
      </trkpt>
      <trkpt lat="43.20659" lon="5.58485">
        <ele>116.46</ele>
        <time>2012-07-19T08:58:39Z</time>
      </trkpt>
      <trkpt lat="43.20657" lon="5.58499">
        <ele>116.94</ele>
        <time>2012-07-19T08:58:40Z</time>
      </trkpt>
      <trkpt lat="43.20656" lon="5.58513">
        <ele>115.98</ele>
        <time>2012-07-19T08:58:41Z</time>
      </trkpt>
      <trkpt lat="43.20652" lon="5.58556">
        <ele>114.53</ele>
        <time>2012-07-19T08:58:44Z</time>
      </trkpt>
      <trkpt lat="43.20648" lon="5.58569">
        <ele>114.53</ele>
        <time>2012-07-19T08:58:45Z</time>
      </trkpt>
      <trkpt lat="43.20642" lon="5.5858">
        <ele>114.05</ele>
        <time>2012-07-19T08:58:46Z</time>
      </trkpt>
      <trkpt lat="43.20635" lon="5.58589">
        <ele>113.57</ele>
        <time>2012-07-19T08:58:47Z</time>
      </trkpt>
      <trkpt lat="43.20627" lon="5.58597">
        <ele>113.57</ele>
        <time>2012-07-19T08:58:48Z</time>
      </trkpt>
      <trkpt lat="43.20618" lon="5.58603">
        <ele>113.57</ele>
        <time>2012-07-19T08:58:49Z</time>
      </trkpt>
      <trkpt lat="43.20592" lon="5.58624">
        <ele>112.61</ele>
        <time>2012-07-19T08:58:52Z</time>
      </trkpt>
      <trkpt lat="43.20584" lon="5.58633">
        <ele>112.13</ele>
        <time>2012-07-19T08:58:53Z</time>
      </trkpt>
      <trkpt lat="43.20578" lon="5.58643">
        <ele>111.65</ele>
        <time>2012-07-19T08:58:54Z</time>
      </trkpt>
      <trkpt lat="43.20572" lon="5.58654">
        <ele>110.69</ele>
        <time>2012-07-19T08:58:55Z</time>
      </trkpt>
      <trkpt lat="43.20568" lon="5.58666">
        <ele>110.69</ele>
        <time>2012-07-19T08:58:56Z</time>
      </trkpt>
      <trkpt lat="43.20565" lon="5.58679">
        <ele>110.21</ele>
        <time>2012-07-19T08:58:57Z</time>
      </trkpt>
      <trkpt lat="43.20563" lon="5.58693">
        <ele>109.73</ele>
        <time>2012-07-19T08:58:58Z</time>
      </trkpt>
      <trkpt lat="43.20561" lon="5.58707">
        <ele>109.73</ele>
        <time>2012-07-19T08:58:59Z</time>
      </trkpt>
      <trkpt lat="43.20558" lon="5.5872">
        <ele>109.25</ele>
        <time>2012-07-19T08:59:00Z</time>
      </trkpt>
      <trkpt lat="43.20554" lon="5.58732">
        <ele>109.25</ele>
        <time>2012-07-19T08:59:01Z</time>
      </trkpt>
      <trkpt lat="43.20548" lon="5.58744">
        <ele>108.77</ele>
        <time>2012-07-19T08:59:02Z</time>
      </trkpt>
      <trkpt lat="43.20542" lon="5.58755">
        <ele>107.81</ele>
        <time>2012-07-19T08:59:03Z</time>
      </trkpt>
      <trkpt lat="43.20535" lon="5.58765">
        <ele>107.32</ele>
        <time>2012-07-19T08:59:04Z</time>
      </trkpt>
      <trkpt lat="43.20527" lon="5.58773">
        <ele>107.32</ele>
        <time>2012-07-19T08:59:05Z</time>
      </trkpt>
      <trkpt lat="43.20521" lon="5.5878">
        <ele>106.36</ele>
        <time>2012-07-19T08:59:06Z</time>
      </trkpt>
      <trkpt lat="43.20514" lon="5.58785">
        <ele>106.36</ele>
        <time>2012-07-19T08:59:07Z</time>
      </trkpt>
      <trkpt lat="43.20506" lon="5.58788">
        <ele>105.88</ele>
        <time>2012-07-19T08:59:08Z</time>
      </trkpt>
      <trkpt lat="43.20456" lon="5.588">
        <ele>104.92</ele>
        <time>2012-07-19T08:59:13Z</time>
      </trkpt>
      <trkpt lat="43.20375" lon="5.58842">
        <ele>102.04</ele>
        <time>2012-07-19T08:59:21Z</time>
      </trkpt>
      <trkpt lat="43.20357" lon="5.58855">
        <ele>101.56</ele>
        <time>2012-07-19T08:59:23Z</time>
      </trkpt>
      <trkpt lat="43.20349" lon="5.58864">
        <ele>101.56</ele>
        <time>2012-07-19T08:59:24Z</time>
      </trkpt>
      <trkpt lat="43.20297" lon="5.58927">
        <ele>98.67</ele>
        <time>2012-07-19T08:59:31Z</time>
      </trkpt>
      <trkpt lat="43.20282" lon="5.5894">
        <ele>97.23</ele>
        <time>2012-07-19T08:59:33Z</time>
      </trkpt>
      <trkpt lat="43.20276" lon="5.58943">
        <ele>97.23</ele>
        <time>2012-07-19T08:59:34Z</time>
      </trkpt>
      <trkpt lat="43.20271" lon="5.58943">
        <ele>97.23</ele>
        <time>2012-07-19T08:59:35Z</time>
      </trkpt>
      <trkpt lat="43.20267" lon="5.5894">
        <ele>97.23</ele>
        <time>2012-07-19T08:59:36Z</time>
      </trkpt>
      <trkpt lat="43.20261" lon="5.58929">
        <ele>96.75</ele>
        <time>2012-07-19T08:59:37Z</time>
      </trkpt>
      <trkpt lat="43.20255" lon="5.58917">
        <ele>96.75</ele>
        <time>2012-07-19T08:59:38Z</time>
      </trkpt>
      <trkpt lat="43.20241" lon="5.58883">
        <ele>95.31</ele>
        <time>2012-07-19T08:59:41Z</time>
      </trkpt>
      <trkpt lat="43.20235" lon="5.58872">
        <ele>95.31</ele>
        <time>2012-07-19T08:59:42Z</time>
      </trkpt>
      <trkpt lat="43.20227" lon="5.58862">
        <ele>94.35</ele>
        <time>2012-07-19T08:59:43Z</time>
      </trkpt>
      <trkpt lat="43.20218" lon="5.58854">
        <ele>94.35</ele>
        <time>2012-07-19T08:59:44Z</time>
      </trkpt>
      <trkpt lat="43.20139" lon="5.58788">
        <ele>92.42</ele>
        <time>2012-07-19T08:59:53Z</time>
      </trkpt>
      <trkpt lat="43.20119" lon="5.58778">
        <ele>92.42</ele>
        <time>2012-07-19T08:59:55Z</time>
      </trkpt>
      <trkpt lat="43.20097" lon="5.58771">
        <ele>90.98</ele>
        <time>2012-07-19T08:59:57Z</time>
      </trkpt>
      <trkpt lat="43.20086" lon="5.5877">
        <ele>90.98</ele>
        <time>2012-07-19T08:59:58Z</time>
      </trkpt>
      <trkpt lat="43.20076" lon="5.58772">
        <ele>90.02</ele>
        <time>2012-07-19T08:59:59Z</time>
      </trkpt>
      <trkpt lat="43.20066" lon="5.58775">
        <ele>90.02</ele>
        <time>2012-07-19T09:00:00Z</time>
      </trkpt>
      <trkpt lat="43.20057" lon="5.58781">
        <ele>90.02</ele>
        <time>2012-07-19T09:00:01Z</time>
      </trkpt>
      <trkpt lat="43.20048" lon="5.58788">
        <ele>90.02</ele>
        <time>2012-07-19T09:00:02Z</time>
      </trkpt>
      <trkpt lat="43.2004" lon="5.58797">
        <ele>89.54</ele>
        <time>2012-07-19T09:00:03Z</time>
      </trkpt>
      <trkpt lat="43.20033" lon="5.58807">
        <ele>89.54</ele>
        <time>2012-07-19T09:00:04Z</time>
      </trkpt>
      <trkpt lat="43.20027" lon="5.58817">
        <ele>89.54</ele>
        <time>2012-07-19T09:00:05Z</time>
      </trkpt>
      <trkpt lat="43.20021" lon="5.58829">
        <ele>89.06</ele>
        <time>2012-07-19T09:00:06Z</time>
      </trkpt>
      <trkpt lat="43.20017" lon="5.58841">
        <ele>89.06</ele>
        <time>2012-07-19T09:00:07Z</time>
      </trkpt>
      <trkpt lat="43.20013" lon="5.58854">
        <ele>88.58</ele>
        <time>2012-07-19T09:00:08Z</time>
      </trkpt>
      <trkpt lat="43.19987" lon="5.58943">
        <ele>87.14</ele>
        <time>2012-07-19T09:00:15Z</time>
      </trkpt>
      <trkpt lat="43.1998" lon="5.58954">
        <ele>86.66</ele>
        <time>2012-07-19T09:00:16Z</time>
      </trkpt>
      <trkpt lat="43.19972" lon="5.58961">
        <ele>85.69</ele>
        <time>2012-07-19T09:00:17Z</time>
      </trkpt>
      <trkpt lat="43.19962" lon="5.58967">
        <ele>85.69</ele>
        <time>2012-07-19T09:00:18Z</time>
      </trkpt>
      <trkpt lat="43.19952" lon="5.58971">
        <ele>85.21</ele>
        <time>2012-07-19T09:00:19Z</time>
      </trkpt>
      <trkpt lat="43.19943" lon="5.58974">
        <ele>85.21</ele>
        <time>2012-07-19T09:00:20Z</time>
      </trkpt>
      <trkpt lat="43.19933" lon="5.58975">
        <ele>84.73</ele>
        <time>2012-07-19T09:00:21Z</time>
      </trkpt>
      <trkpt lat="43.19923" lon="5.58975">
        <ele>84.25</ele>
        <time>2012-07-19T09:00:22Z</time>
      </trkpt>
      <trkpt lat="43.19913" lon="5.58976">
        <ele>83.77</ele>
        <time>2012-07-19T09:00:23Z</time>
      </trkpt>
      <trkpt lat="43.19893" lon="5.5898">
        <ele>83.29</ele>
        <time>2012-07-19T09:00:25Z</time>
      </trkpt>
      <trkpt lat="43.19884" lon="5.58984">
        <ele>83.77</ele>
        <time>2012-07-19T09:00:26Z</time>
      </trkpt>
      <trkpt lat="43.19866" lon="5.58997">
        <ele>82.81</ele>
        <time>2012-07-19T09:00:28Z</time>
      </trkpt>
      <trkpt lat="43.19859" lon="5.59006">
        <ele>82.33</ele>
        <time>2012-07-19T09:00:29Z</time>
      </trkpt>
      <trkpt lat="43.19845" lon="5.59026">
        <ele>81.85</ele>
        <time>2012-07-19T09:00:31Z</time>
      </trkpt>
      <trkpt lat="43.19834" lon="5.59061">
        <ele>81.37</ele>
        <time>2012-07-19T09:00:34Z</time>
      </trkpt>
      <trkpt lat="43.19832" lon="5.59071">
        <ele>80.89</ele>
        <time>2012-07-19T09:00:35Z</time>
      </trkpt>
      <trkpt lat="43.19832" lon="5.59081">
        <ele>80.89</ele>
        <time>2012-07-19T09:00:36Z</time>
      </trkpt>
      <trkpt lat="43.19832" lon="5.5909">
        <ele>80.89</ele>
        <time>2012-07-19T09:00:37Z</time>
      </trkpt>
      <trkpt lat="43.19833" lon="5.591">
        <ele>80.41</ele>
        <time>2012-07-19T09:00:38Z</time>
      </trkpt>
      <trkpt lat="43.19836" lon="5.59119">
        <ele>79.45</ele>
        <time>2012-07-19T09:00:40Z</time>
      </trkpt>
      <trkpt lat="43.1985" lon="5.59181">
        <ele>78.48</ele>
        <time>2012-07-19T09:00:46Z</time>
      </trkpt>
      <trkpt lat="43.1985" lon="5.59192">
        <ele>78</ele>
        <time>2012-07-19T09:00:47Z</time>
      </trkpt>
      <trkpt lat="43.1985" lon="5.59203">
        <ele>78</ele>
        <time>2012-07-19T09:00:48Z</time>
      </trkpt>
      <trkpt lat="43.19847" lon="5.59214">
        <ele>78</ele>
        <time>2012-07-19T09:00:49Z</time>
      </trkpt>
      <trkpt lat="43.19844" lon="5.59224">
        <ele>77.04</ele>
        <time>2012-07-19T09:00:50Z</time>
      </trkpt>
      <trkpt lat="43.1984" lon="5.59234">
        <ele>77.04</ele>
        <time>2012-07-19T09:00:51Z</time>
      </trkpt>
      <trkpt lat="43.19834" lon="5.59242">
        <ele>77.52</ele>
        <time>2012-07-19T09:00:52Z</time>
      </trkpt>
      <trkpt lat="43.19828" lon="5.59248">
        <ele>77.04</ele>
        <time>2012-07-19T09:00:53Z</time>
      </trkpt>
      <trkpt lat="43.19821" lon="5.59252">
        <ele>76.56</ele>
        <time>2012-07-19T09:00:54Z</time>
      </trkpt>
      <trkpt lat="43.19814" lon="5.59251">
        <ele>76.56</ele>
        <time>2012-07-19T09:00:55Z</time>
      </trkpt>
      <trkpt lat="43.19806" lon="5.59249">
        <ele>76.08</ele>
        <time>2012-07-19T09:00:56Z</time>
      </trkpt>
      <trkpt lat="43.19799" lon="5.59247">
        <ele>75.6</ele>
        <time>2012-07-19T09:00:57Z</time>
      </trkpt>
      <trkpt lat="43.19792" lon="5.59246">
        <ele>76.08</ele>
        <time>2012-07-19T09:00:58Z</time>
      </trkpt>
      <trkpt lat="43.19741" lon="5.59239">
        <ele>74.64</ele>
        <time>2012-07-19T09:01:06Z</time>
      </trkpt>
      <trkpt lat="43.19734" lon="5.59242">
        <ele>74.64</ele>
        <time>2012-07-19T09:01:07Z</time>
      </trkpt>
      <trkpt lat="43.19726" lon="5.59246">
        <ele>73.68</ele>
        <time>2012-07-19T09:01:08Z</time>
      </trkpt>
      <trkpt lat="43.1972" lon="5.59253">
        <ele>73.68</ele>
        <time>2012-07-19T09:01:09Z</time>
      </trkpt>
      <trkpt lat="43.19716" lon="5.59263">
        <ele>73.2</ele>
        <time>2012-07-19T09:01:10Z</time>
      </trkpt>
      <trkpt lat="43.19713" lon="5.59273">
        <ele>72.72</ele>
        <time>2012-07-19T09:01:11Z</time>
      </trkpt>
      <trkpt lat="43.1971" lon="5.59283">
        <ele>72.24</ele>
        <time>2012-07-19T09:01:12Z</time>
      </trkpt>
      <trkpt lat="43.19709" lon="5.59295">
        <ele>72.24</ele>
        <time>2012-07-19T09:01:13Z</time>
      </trkpt>
      <trkpt lat="43.197" lon="5.59327">
        <ele>71.27</ele>
        <time>2012-07-19T09:01:16Z</time>
      </trkpt>
      <trkpt lat="43.19695" lon="5.59336">
        <ele>70.79</ele>
        <time>2012-07-19T09:01:17Z</time>
      </trkpt>
      <trkpt lat="43.19687" lon="5.59356">
        <ele>70.79</ele>
        <time>2012-07-19T09:01:19Z</time>
      </trkpt>
      <trkpt lat="43.19684" lon="5.59367">
        <ele>70.31</ele>
        <time>2012-07-19T09:01:20Z</time>
      </trkpt>
      <trkpt lat="43.19683" lon="5.59379">
        <ele>70.31</ele>
        <time>2012-07-19T09:01:21Z</time>
      </trkpt>
      <trkpt lat="43.19683" lon="5.5939">
        <ele>69.83</ele>
        <time>2012-07-19T09:01:22Z</time>
      </trkpt>
      <trkpt lat="43.19685" lon="5.59402">
        <ele>69.35</ele>
        <time>2012-07-19T09:01:23Z</time>
      </trkpt>
      <trkpt lat="43.19687" lon="5.59413">
        <ele>69.35</ele>
        <time>2012-07-19T09:01:24Z</time>
      </trkpt>
      <trkpt lat="43.19692" lon="5.59425">
        <ele>69.35</ele>
        <time>2012-07-19T09:01:25Z</time>
      </trkpt>
      <trkpt lat="43.19695" lon="5.59438">
        <ele>68.87</ele>
        <time>2012-07-19T09:01:26Z</time>
      </trkpt>
      <trkpt lat="43.19696" lon="5.5945">
        <ele>68.39</ele>
        <time>2012-07-19T09:01:27Z</time>
      </trkpt>
      <trkpt lat="43.19696" lon="5.59462">
        <ele>68.39</ele>
        <time>2012-07-19T09:01:28Z</time>
      </trkpt>
      <trkpt lat="43.19694" lon="5.59474">
        <ele>68.87</ele>
        <time>2012-07-19T09:01:29Z</time>
      </trkpt>
      <trkpt lat="43.19691" lon="5.59485">
        <ele>68.87</ele>
        <time>2012-07-19T09:01:30Z</time>
      </trkpt>
      <trkpt lat="43.19687" lon="5.59496">
        <ele>67.91</ele>
        <time>2012-07-19T09:01:31Z</time>
      </trkpt>
      <trkpt lat="43.19683" lon="5.59506">
        <ele>67.43</ele>
        <time>2012-07-19T09:01:32Z</time>
      </trkpt>
      <trkpt lat="43.19626" lon="5.59658">
        <ele>64.55</ele>
        <time>2012-07-19T09:01:46Z</time>
      </trkpt>
      <trkpt lat="43.19593" lon="5.59744">
        <ele>63.58</ele>
        <time>2012-07-19T09:01:54Z</time>
      </trkpt>
      <trkpt lat="43.19588" lon="5.59754">
        <ele>63.1</ele>
        <time>2012-07-19T09:01:55Z</time>
      </trkpt>
      <trkpt lat="43.19576" lon="5.59771">
        <ele>62.62</ele>
        <time>2012-07-19T09:01:57Z</time>
      </trkpt>
      <trkpt lat="43.1957" lon="5.59779">
        <ele>62.62</ele>
        <time>2012-07-19T09:01:58Z</time>
      </trkpt>
      <trkpt lat="43.19563" lon="5.59786">
        <ele>62.14</ele>
        <time>2012-07-19T09:01:59Z</time>
      </trkpt>
      <trkpt lat="43.19473" lon="5.59863">
        <ele>61.18</ele>
        <time>2012-07-19T09:02:12Z</time>
      </trkpt>
      <trkpt lat="43.19467" lon="5.59871">
        <ele>61.18</ele>
        <time>2012-07-19T09:02:13Z</time>
      </trkpt>
      <trkpt lat="43.19462" lon="5.5988">
        <ele>60.7</ele>
        <time>2012-07-19T09:02:14Z</time>
      </trkpt>
      <trkpt lat="43.19457" lon="5.5989">
        <ele>61.18</ele>
        <time>2012-07-19T09:02:15Z</time>
      </trkpt>
      <trkpt lat="43.19454" lon="5.599">
        <ele>60.7</ele>
        <time>2012-07-19T09:02:16Z</time>
      </trkpt>
      <trkpt lat="43.19451" lon="5.59911">
        <ele>60.22</ele>
        <time>2012-07-19T09:02:17Z</time>
      </trkpt>
      <trkpt lat="43.19449" lon="5.59923">
        <ele>60.22</ele>
        <time>2012-07-19T09:02:18Z</time>
      </trkpt>
      <trkpt lat="43.19447" lon="5.59934">
        <ele>60.22</ele>
        <time>2012-07-19T09:02:19Z</time>
      </trkpt>
      <trkpt lat="43.19429" lon="5.6001">
        <ele>59.74</ele>
        <time>2012-07-19T09:02:26Z</time>
      </trkpt>
      <trkpt lat="43.19425" lon="5.60019">
        <ele>59.74</ele>
        <time>2012-07-19T09:02:27Z</time>
      </trkpt>
      <trkpt lat="43.19359" lon="5.60137">
        <ele>56.37</ele>
        <time>2012-07-19T09:02:40Z</time>
      </trkpt>
      <trkpt lat="43.1933" lon="5.6019">
        <ele>53.97</ele>
        <time>2012-07-19T09:02:45Z</time>
      </trkpt>
      <trkpt lat="43.19278" lon="5.60313">
        <ele>50.61</ele>
        <time>2012-07-19T09:02:56Z</time>
      </trkpt>
      <trkpt lat="43.19229" lon="5.60411">
        <ele>48.68</ele>
        <time>2012-07-19T09:03:06Z</time>
      </trkpt>
      <trkpt lat="43.19223" lon="5.60417">
        <ele>48.68</ele>
        <time>2012-07-19T09:03:07Z</time>
      </trkpt>
      <trkpt lat="43.19217" lon="5.60421">
        <ele>48.68</ele>
        <time>2012-07-19T09:03:08Z</time>
      </trkpt>
      <trkpt lat="43.19212" lon="5.60425">
        <ele>48.2</ele>
        <time>2012-07-19T09:03:09Z</time>
      </trkpt>
      <trkpt lat="43.19208" lon="5.60427">
        <ele>48.2</ele>
        <time>2012-07-19T09:03:10Z</time>
      </trkpt>
      <trkpt lat="43.19205" lon="5.60428">
        <ele>48.2</ele>
        <time>2012-07-19T09:03:11Z</time>
      </trkpt>
      <trkpt lat="43.19201" lon="5.60429">
        <ele>48.2</ele>
        <time>2012-07-19T09:03:12Z</time>
      </trkpt>
      <trkpt lat="43.1918" lon="5.60433">
        <ele>47.24</ele>
        <time>2012-07-19T09:03:16Z</time>
      </trkpt>
      <trkpt lat="43.19174" lon="5.60437">
        <ele>46.76</ele>
        <time>2012-07-19T09:03:17Z</time>
      </trkpt>
      <trkpt lat="43.19169" lon="5.60444">
        <ele>46.28</ele>
        <time>2012-07-19T09:03:18Z</time>
      </trkpt>
      <trkpt lat="43.19166" lon="5.60452">
        <ele>46.76</ele>
        <time>2012-07-19T09:03:19Z</time>
      </trkpt>
      <trkpt lat="43.19164" lon="5.60461">
        <ele>46.28</ele>
        <time>2012-07-19T09:03:20Z</time>
      </trkpt>
      <trkpt lat="43.19164" lon="5.6047">
        <ele>46.28</ele>
        <time>2012-07-19T09:03:21Z</time>
      </trkpt>
      <trkpt lat="43.19167" lon="5.60478">
        <ele>46.76</ele>
        <time>2012-07-19T09:03:22Z</time>
      </trkpt>
      <trkpt lat="43.19171" lon="5.60485">
        <ele>46.76</ele>
        <time>2012-07-19T09:03:23Z</time>
      </trkpt>
      <trkpt lat="43.19175" lon="5.60492">
        <ele>47.24</ele>
        <time>2012-07-19T09:03:24Z</time>
      </trkpt>
      <trkpt lat="43.19179" lon="5.60499">
        <ele>47.24</ele>
        <time>2012-07-19T09:03:25Z</time>
      </trkpt>
      <trkpt lat="43.19182" lon="5.60507">
        <ele>46.76</ele>
        <time>2012-07-19T09:03:26Z</time>
      </trkpt>
      <trkpt lat="43.19184" lon="5.60516">
        <ele>47.24</ele>
        <time>2012-07-19T09:03:27Z</time>
      </trkpt>
      <trkpt lat="43.19185" lon="5.60525">
        <ele>46.28</ele>
        <time>2012-07-19T09:03:28Z</time>
      </trkpt>
      <trkpt lat="43.19186" lon="5.60535">
        <ele>46.28</ele>
        <time>2012-07-19T09:03:29Z</time>
      </trkpt>
      <trkpt lat="43.19187" lon="5.60546">
        <ele>45.8</ele>
        <time>2012-07-19T09:03:30Z</time>
      </trkpt>
      <trkpt lat="43.19192" lon="5.60589">
        <ele>44.36</ele>
        <time>2012-07-19T09:03:34Z</time>
      </trkpt>
      <trkpt lat="43.1921" lon="5.60762">
        <ele>42.44</ele>
        <time>2012-07-19T09:03:49Z</time>
      </trkpt>
      <trkpt lat="43.19229" lon="5.6088">
        <ele>43.88</ele>
        <time>2012-07-19T09:04:02Z</time>
      </trkpt>
      <trkpt lat="43.19228" lon="5.60888">
        <ele>43.88</ele>
        <time>2012-07-19T09:04:03Z</time>
      </trkpt>
      <trkpt lat="43.19227" lon="5.60896">
        <ele>44.36</ele>
        <time>2012-07-19T09:04:04Z</time>
      </trkpt>
      <trkpt lat="43.19224" lon="5.60904">
        <ele>43.88</ele>
        <time>2012-07-19T09:04:05Z</time>
      </trkpt>
      <trkpt lat="43.19222" lon="5.60911">
        <ele>44.36</ele>
        <time>2012-07-19T09:04:06Z</time>
      </trkpt>
      <trkpt lat="43.1922" lon="5.6092">
        <ele>44.36</ele>
        <time>2012-07-19T09:04:07Z</time>
      </trkpt>
      <trkpt lat="43.19219" lon="5.60928">
        <ele>44.36</ele>
        <time>2012-07-19T09:04:08Z</time>
      </trkpt>
      <trkpt lat="43.1922" lon="5.60937">
        <ele>44.36</ele>
        <time>2012-07-19T09:04:09Z</time>
      </trkpt>
      <trkpt lat="43.19222" lon="5.60944">
        <ele>44.36</ele>
        <time>2012-07-19T09:04:10Z</time>
      </trkpt>
      <trkpt lat="43.19224" lon="5.60952">
        <ele>44.84</ele>
        <time>2012-07-19T09:04:11Z</time>
      </trkpt>
      <trkpt lat="43.19227" lon="5.60959">
        <ele>44.84</ele>
        <time>2012-07-19T09:04:12Z</time>
      </trkpt>
      <trkpt lat="43.19229" lon="5.60967">
        <ele>44.36</ele>
        <time>2012-07-19T09:04:13Z</time>
      </trkpt>
      <trkpt lat="43.19231" lon="5.60975">
        <ele>44.36</ele>
        <time>2012-07-19T09:04:14Z</time>
      </trkpt>
      <trkpt lat="43.19231" lon="5.60983">
        <ele>43.88</ele>
        <time>2012-07-19T09:04:15Z</time>
      </trkpt>
      <trkpt lat="43.19231" lon="5.60992">
        <ele>43.88</ele>
        <time>2012-07-19T09:04:16Z</time>
      </trkpt>
      <trkpt lat="43.1923" lon="5.61002">
        <ele>43.4</ele>
        <time>2012-07-19T09:04:17Z</time>
      </trkpt>
      <trkpt lat="43.19242" lon="5.61145">
        <ele>41.47</ele>
        <time>2012-07-19T09:04:31Z</time>
      </trkpt>
      <trkpt lat="43.19249" lon="5.61327">
        <ele>39.07</ele>
        <time>2012-07-19T09:04:49Z</time>
      </trkpt>
      <trkpt lat="43.19242" lon="5.61441">
        <ele>36.67</ele>
        <time>2012-07-19T09:05:00Z</time>
      </trkpt>
      <trkpt lat="43.1922" lon="5.61574">
        <ele>34.26</ele>
        <time>2012-07-19T09:05:13Z</time>
      </trkpt>
      <trkpt lat="43.19196" lon="5.61685">
        <ele>31.38</ele>
        <time>2012-07-19T09:05:23Z</time>
      </trkpt>
      <trkpt lat="43.19179" lon="5.61757">
        <ele>29.94</ele>
        <time>2012-07-19T09:05:31Z</time>
      </trkpt>
      <trkpt lat="43.19176" lon="5.61763">
        <ele>29.46</ele>
        <time>2012-07-19T09:05:32Z</time>
      </trkpt>
      <trkpt lat="43.19172" lon="5.61769">
        <ele>29.46</ele>
        <time>2012-07-19T09:05:33Z</time>
      </trkpt>
      <trkpt lat="43.19168" lon="5.61776">
        <ele>29.94</ele>
        <time>2012-07-19T09:05:34Z</time>
      </trkpt>
      <trkpt lat="43.19165" lon="5.61784">
        <ele>29.94</ele>
        <time>2012-07-19T09:05:35Z</time>
      </trkpt>
      <trkpt lat="43.19165" lon="5.61793">
        <ele>29.46</ele>
        <time>2012-07-19T09:05:36Z</time>
      </trkpt>
      <trkpt lat="43.19166" lon="5.61802">
        <ele>29.46</ele>
        <time>2012-07-19T09:05:37Z</time>
      </trkpt>
      <trkpt lat="43.19169" lon="5.6181">
        <ele>29.46</ele>
        <time>2012-07-19T09:05:38Z</time>
      </trkpt>
      <trkpt lat="43.19173" lon="5.61818">
        <ele>28.98</ele>
        <time>2012-07-19T09:05:39Z</time>
      </trkpt>
      <trkpt lat="43.19176" lon="5.61827">
        <ele>28.5</ele>
        <time>2012-07-19T09:05:40Z</time>
      </trkpt>
      <trkpt lat="43.19178" lon="5.61836">
        <ele>28.5</ele>
        <time>2012-07-19T09:05:41Z</time>
      </trkpt>
      <trkpt lat="43.19177" lon="5.61846">
        <ele>28.5</ele>
        <time>2012-07-19T09:05:42Z</time>
      </trkpt>
      <trkpt lat="43.19176" lon="5.61856">
        <ele>28.02</ele>
        <time>2012-07-19T09:05:43Z</time>
      </trkpt>
      <trkpt lat="43.19174" lon="5.61865">
        <ele>28.02</ele>
        <time>2012-07-19T09:05:44Z</time>
      </trkpt>
      <trkpt lat="43.19171" lon="5.61875">
        <ele>28.5</ele>
        <time>2012-07-19T09:05:45Z</time>
      </trkpt>
      <trkpt lat="43.19168" lon="5.61884">
        <ele>28.5</ele>
        <time>2012-07-19T09:05:46Z</time>
      </trkpt>
      <trkpt lat="43.19117" lon="5.62029">
        <ele>26.09</ele>
        <time>2012-07-19T09:06:01Z</time>
      </trkpt>
      <trkpt lat="43.19109" lon="5.62063">
        <ele>25.13</ele>
        <time>2012-07-19T09:06:04Z</time>
      </trkpt>
      <trkpt lat="43.19078" lon="5.62166">
        <ele>21.77</ele>
        <time>2012-07-19T09:06:13Z</time>
      </trkpt>
      <trkpt lat="43.19073" lon="5.62176">
        <ele>21.29</ele>
        <time>2012-07-19T09:06:14Z</time>
      </trkpt>
      <trkpt lat="43.19067" lon="5.62185">
        <ele>21.29</ele>
        <time>2012-07-19T09:06:15Z</time>
      </trkpt>
      <trkpt lat="43.19062" lon="5.62194">
        <ele>21.77</ele>
        <time>2012-07-19T09:06:16Z</time>
      </trkpt>
      <trkpt lat="43.19058" lon="5.62205">
        <ele>21.29</ele>
        <time>2012-07-19T09:06:17Z</time>
      </trkpt>
      <trkpt lat="43.19056" lon="5.62215">
        <ele>21.29</ele>
        <time>2012-07-19T09:06:18Z</time>
      </trkpt>
      <trkpt lat="43.19055" lon="5.62227">
        <ele>21.77</ele>
        <time>2012-07-19T09:06:19Z</time>
      </trkpt>
      <trkpt lat="43.19054" lon="5.62238">
        <ele>21.77</ele>
        <time>2012-07-19T09:06:20Z</time>
      </trkpt>
      <trkpt lat="43.19052" lon="5.62248">
        <ele>21.29</ele>
        <time>2012-07-19T09:06:21Z</time>
      </trkpt>
      <trkpt lat="43.19011" lon="5.62468">
        <ele>20.32</ele>
        <time>2012-07-19T09:06:41Z</time>
      </trkpt>
      <trkpt lat="43.18983" lon="5.62633">
        <ele>19.84</ele>
        <time>2012-07-19T09:06:57Z</time>
      </trkpt>
      <trkpt lat="43.18956" lon="5.62798">
        <ele>19.84</ele>
        <time>2012-07-19T09:07:15Z</time>
      </trkpt>
      <trkpt lat="43.18952" lon="5.62814">
        <ele>20.32</ele>
        <time>2012-07-19T09:07:18Z</time>
      </trkpt>
      <trkpt lat="43.18949" lon="5.62819">
        <ele>20.32</ele>
        <time>2012-07-19T09:07:19Z</time>
      </trkpt>
      <trkpt lat="43.18945" lon="5.62824">
        <ele>19.84</ele>
        <time>2012-07-19T09:07:20Z</time>
      </trkpt>
      <trkpt lat="43.18941" lon="5.6283">
        <ele>19.84</ele>
        <time>2012-07-19T09:07:21Z</time>
      </trkpt>
      <trkpt lat="43.18938" lon="5.62837">
        <ele>19.84</ele>
        <time>2012-07-19T09:07:22Z</time>
      </trkpt>
      <trkpt lat="43.18936" lon="5.62845">
        <ele>19.84</ele>
        <time>2012-07-19T09:07:23Z</time>
      </trkpt>
      <trkpt lat="43.18936" lon="5.62853">
        <ele>19.84</ele>
        <time>2012-07-19T09:07:24Z</time>
      </trkpt>
      <trkpt lat="43.18938" lon="5.62862">
        <ele>19.84</ele>
        <time>2012-07-19T09:07:25Z</time>
      </trkpt>
      <trkpt lat="43.1894" lon="5.6287">
        <ele>19.84</ele>
        <time>2012-07-19T09:07:26Z</time>
      </trkpt>
      <trkpt lat="43.18943" lon="5.62886">
        <ele>19.84</ele>
        <time>2012-07-19T09:07:28Z</time>
      </trkpt>
      <trkpt lat="43.18943" lon="5.62895">
        <ele>19.84</ele>
        <time>2012-07-19T09:07:29Z</time>
      </trkpt>
      <trkpt lat="43.18943" lon="5.62903">
        <ele>20.32</ele>
        <time>2012-07-19T09:07:30Z</time>
      </trkpt>
      <trkpt lat="43.18925" lon="5.63035">
        <ele>19.36</ele>
        <time>2012-07-19T09:07:45Z</time>
      </trkpt>
      <trkpt lat="43.189" lon="5.63206">
        <ele>19.84</ele>
        <time>2012-07-19T09:08:04Z</time>
      </trkpt>
      <trkpt lat="43.18895" lon="5.63334">
        <ele>18.88</ele>
        <time>2012-07-19T09:08:18Z</time>
      </trkpt>
      <trkpt lat="43.18926" lon="5.6347">
        <ele>18.4</ele>
        <time>2012-07-19T09:08:33Z</time>
      </trkpt>
      <trkpt lat="43.18987" lon="5.63612">
        <ele>18.4</ele>
        <time>2012-07-19T09:08:50Z</time>
      </trkpt>
      <trkpt lat="43.1903" lon="5.63734">
        <ele>19.36</ele>
        <time>2012-07-19T09:09:05Z</time>
      </trkpt>
      <trkpt lat="43.19061" lon="5.63861">
        <ele>21.29</ele>
        <time>2012-07-19T09:09:21Z</time>
      </trkpt>
      <trkpt lat="43.19069" lon="5.63983">
        <ele>22.25</ele>
        <time>2012-07-19T09:09:37Z</time>
      </trkpt>
      <trkpt lat="43.19071" lon="5.64024">
        <ele>22.73</ele>
        <time>2012-07-19T09:09:48Z</time>
      </trkpt>
      <trkpt lat="43.19071" lon="5.64031">
        <ele>22.25</ele>
        <time>2012-07-19T09:10:05Z</time>
      </trkpt>
      <trkpt lat="43.19071" lon="5.64036">
        <ele>22.25</ele>
        <time>2012-07-19T09:10:06Z</time>
      </trkpt>
      <trkpt lat="43.19071" lon="5.64054">
        <ele>22.25</ele>
        <time>2012-07-19T09:10:09Z</time>
      </trkpt>
      <trkpt lat="43.19049" lon="5.64175">
        <ele>22.25</ele>
        <time>2012-07-19T09:10:25Z</time>
      </trkpt>
      <trkpt lat="43.18992" lon="5.64321">
        <ele>22.73</ele>
        <time>2012-07-19T09:10:45Z</time>
      </trkpt>
      <trkpt lat="43.18948" lon="5.64443">
        <ele>23.69</ele>
        <time>2012-07-19T09:11:02Z</time>
      </trkpt>
      <trkpt lat="43.18932" lon="5.6458">
        <ele>24.17</ele>
        <time>2012-07-19T09:11:19Z</time>
      </trkpt>
      <trkpt lat="43.18932" lon="5.64604">
        <ele>24.17</ele>
        <time>2012-07-19T09:11:22Z</time>
      </trkpt>
      <trkpt lat="43.18932" lon="5.64612">
        <ele>24.65</ele>
        <time>2012-07-19T09:11:23Z</time>
      </trkpt>
      <trkpt lat="43.18932" lon="5.6462">
        <ele>24.65</ele>
        <time>2012-07-19T09:11:24Z</time>
      </trkpt>
      <trkpt lat="43.18931" lon="5.64628">
        <ele>24.65</ele>
        <time>2012-07-19T09:11:25Z</time>
      </trkpt>
      <trkpt lat="43.18931" lon="5.64637">
        <ele>24.17</ele>
        <time>2012-07-19T09:11:26Z</time>
      </trkpt>
      <trkpt lat="43.18939" lon="5.64784">
        <ele>24.17</ele>
        <time>2012-07-19T09:11:44Z</time>
      </trkpt>
      <trkpt lat="43.18954" lon="5.64942">
        <ele>21.29</ele>
        <time>2012-07-19T09:12:00Z</time>
      </trkpt>
      <trkpt lat="43.1893" lon="5.65086">
        <ele>21.29</ele>
        <time>2012-07-19T09:12:15Z</time>
      </trkpt>
      <trkpt lat="43.18893" lon="5.65169">
        <ele>24.17</ele>
        <time>2012-07-19T09:12:27Z</time>
      </trkpt>
      <trkpt lat="43.18889" lon="5.65175">
        <ele>24.65</ele>
        <time>2012-07-19T09:12:28Z</time>
      </trkpt>
      <trkpt lat="43.18848" lon="5.65228">
        <ele>27.53</ele>
        <time>2012-07-19T09:12:39Z</time>
      </trkpt>
      <trkpt lat="43.18808" lon="5.65274">
        <ele>30.9</ele>
        <time>2012-07-19T09:12:50Z</time>
      </trkpt>
      <trkpt lat="43.18759" lon="5.65327">
        <ele>34.26</ele>
        <time>2012-07-19T09:13:03Z</time>
      </trkpt>
      <trkpt lat="43.18709" lon="5.65401">
        <ele>36.67</ele>
        <time>2012-07-19T09:13:18Z</time>
      </trkpt>
      <trkpt lat="43.18683" lon="5.65507">
        <ele>35.71</ele>
        <time>2012-07-19T09:13:32Z</time>
      </trkpt>
      <trkpt lat="43.18672" lon="5.65667">
        <ele>33.78</ele>
        <time>2012-07-19T09:13:49Z</time>
      </trkpt>
      <trkpt lat="43.18668" lon="5.65697">
        <ele>33.78</ele>
        <time>2012-07-19T09:13:52Z</time>
      </trkpt>
      <trkpt lat="43.18666" lon="5.65706">
        <ele>33.78</ele>
        <time>2012-07-19T09:13:53Z</time>
      </trkpt>
      <trkpt lat="43.18619" lon="5.65869">
        <ele>31.38</ele>
        <time>2012-07-19T09:14:10Z</time>
      </trkpt>
      <trkpt lat="43.18577" lon="5.66006">
        <ele>28.5</ele>
        <time>2012-07-19T09:14:23Z</time>
      </trkpt>
      <trkpt lat="43.18545" lon="5.66111">
        <ele>25.13</ele>
        <time>2012-07-19T09:14:32Z</time>
      </trkpt>
      <trkpt lat="43.18517" lon="5.66205">
        <ele>24.17</ele>
        <time>2012-07-19T09:14:40Z</time>
      </trkpt>
      <trkpt lat="43.18514" lon="5.66216">
        <ele>23.69</ele>
        <time>2012-07-19T09:14:41Z</time>
      </trkpt>
      <trkpt lat="43.18481" lon="5.66323">
        <ele>27.05</ele>
        <time>2012-07-19T09:14:53Z</time>
      </trkpt>
      <trkpt lat="43.18468" lon="5.66367">
        <ele>28.02</ele>
        <time>2012-07-19T09:14:59Z</time>
      </trkpt>
      <trkpt lat="43.18459" lon="5.66403">
        <ele>29.46</ele>
        <time>2012-07-19T09:15:04Z</time>
      </trkpt>
      <trkpt lat="43.18454" lon="5.66417">
        <ele>29.94</ele>
        <time>2012-07-19T09:15:06Z</time>
      </trkpt>
      <trkpt lat="43.18425" lon="5.66505">
        <ele>32.34</ele>
        <time>2012-07-19T09:15:20Z</time>
      </trkpt>
      <trkpt lat="43.18419" lon="5.66526">
        <ele>33.78</ele>
        <time>2012-07-19T09:15:23Z</time>
      </trkpt>
      <trkpt lat="43.18409" lon="5.66561">
        <ele>35.23</ele>
        <time>2012-07-19T09:15:28Z</time>
      </trkpt>
      <trkpt lat="43.1838" lon="5.66672">
        <ele>36.67</ele>
        <time>2012-07-19T09:15:43Z</time>
      </trkpt>
      <trkpt lat="43.18335" lon="5.66801">
        <ele>34.74</ele>
        <time>2012-07-19T09:15:59Z</time>
      </trkpt>
      <trkpt lat="43.18304" lon="5.66856">
        <ele>30.9</ele>
        <time>2012-07-19T09:16:05Z</time>
      </trkpt>
      <trkpt lat="43.18298" lon="5.66866">
        <ele>30.9</ele>
        <time>2012-07-19T09:16:06Z</time>
      </trkpt>
      <trkpt lat="43.18258" lon="5.66923">
        <ele>27.53</ele>
        <time>2012-07-19T09:16:12Z</time>
      </trkpt>
      <trkpt lat="43.18234" lon="5.66951">
        <ele>26.57</ele>
        <time>2012-07-19T09:16:15Z</time>
      </trkpt>
      <trkpt lat="43.18132" lon="5.67063">
        <ele>24.65</ele>
        <time>2012-07-19T09:16:28Z</time>
      </trkpt>
      <trkpt lat="43.18084" lon="5.67152">
        <ele>27.53</ele>
        <time>2012-07-19T09:16:39Z</time>
      </trkpt>
      <trkpt lat="43.18048" lon="5.67277">
        <ele>30.42</ele>
        <time>2012-07-19T09:16:54Z</time>
      </trkpt>
      <trkpt lat="43.18027" lon="5.67408">
        <ele>28.5</ele>
        <time>2012-07-19T09:17:08Z</time>
      </trkpt>
      <trkpt lat="43.18018" lon="5.67463">
        <ele>27.05</ele>
        <time>2012-07-19T09:17:13Z</time>
      </trkpt>
      <trkpt lat="43.17999" lon="5.67584">
        <ele>24.17</ele>
        <time>2012-07-19T09:17:23Z</time>
      </trkpt>
      <trkpt lat="43.17973" lon="5.67786">
        <ele>21.29</ele>
        <time>2012-07-19T09:17:41Z</time>
      </trkpt>
      <trkpt lat="43.17974" lon="5.67797">
        <ele>20.81</ele>
        <time>2012-07-19T09:17:42Z</time>
      </trkpt>
      <trkpt lat="43.17976" lon="5.67808">
        <ele>19.84</ele>
        <time>2012-07-19T09:17:43Z</time>
      </trkpt>
      <trkpt lat="43.17979" lon="5.67819">
        <ele>19.84</ele>
        <time>2012-07-19T09:17:44Z</time>
      </trkpt>
      <trkpt lat="43.17982" lon="5.67829">
        <ele>19.36</ele>
        <time>2012-07-19T09:17:45Z</time>
      </trkpt>
      <trkpt lat="43.17985" lon="5.67839">
        <ele>18.4</ele>
        <time>2012-07-19T09:17:46Z</time>
      </trkpt>
      <trkpt lat="43.17996" lon="5.67869">
        <ele>17.92</ele>
        <time>2012-07-19T09:17:49Z</time>
      </trkpt>
      <trkpt lat="43.18006" lon="5.67887">
        <ele>17.92</ele>
        <time>2012-07-19T09:17:51Z</time>
      </trkpt>
      <trkpt lat="43.18008" lon="5.67898">
        <ele>17.92</ele>
        <time>2012-07-19T09:17:52Z</time>
      </trkpt>
      <trkpt lat="43.18009" lon="5.67909">
        <ele>17.92</ele>
        <time>2012-07-19T09:17:53Z</time>
      </trkpt>
      <trkpt lat="43.18009" lon="5.6792">
        <ele>17.92</ele>
        <time>2012-07-19T09:17:54Z</time>
      </trkpt>
      <trkpt lat="43.1801" lon="5.67931">
        <ele>17.92</ele>
        <time>2012-07-19T09:17:55Z</time>
      </trkpt>
      <trkpt lat="43.18012" lon="5.67942">
        <ele>17.92</ele>
        <time>2012-07-19T09:17:56Z</time>
      </trkpt>
      <trkpt lat="43.18015" lon="5.67952">
        <ele>18.4</ele>
        <time>2012-07-19T09:17:57Z</time>
      </trkpt>
      <trkpt lat="43.18019" lon="5.67961">
        <ele>19.36</ele>
        <time>2012-07-19T09:17:58Z</time>
      </trkpt>
      <trkpt lat="43.18064" lon="5.68056">
        <ele>22.25</ele>
        <time>2012-07-19T09:18:10Z</time>
      </trkpt>
      <trkpt lat="43.18106" lon="5.68149">
        <ele>25.13</ele>
        <time>2012-07-19T09:18:23Z</time>
      </trkpt>
      <trkpt lat="43.18159" lon="5.68259">
        <ele>26.09</ele>
        <time>2012-07-19T09:18:39Z</time>
      </trkpt>
      <trkpt lat="43.18217" lon="5.68379">
        <ele>25.61</ele>
        <time>2012-07-19T09:18:55Z</time>
      </trkpt>
      <trkpt lat="43.18268" lon="5.68491">
        <ele>24.17</ele>
        <time>2012-07-19T09:19:09Z</time>
      </trkpt>
      <trkpt lat="43.18282" lon="5.68522">
        <ele>24.17</ele>
        <time>2012-07-19T09:19:13Z</time>
      </trkpt>
      <trkpt lat="43.18287" lon="5.68539">
        <ele>24.17</ele>
        <time>2012-07-19T09:19:15Z</time>
      </trkpt>
      <trkpt lat="43.18291" lon="5.68546">
        <ele>24.17</ele>
        <time>2012-07-19T09:19:16Z</time>
      </trkpt>
      <trkpt lat="43.18308" lon="5.68575">
        <ele>24.17</ele>
        <time>2012-07-19T09:19:20Z</time>
      </trkpt>
      <trkpt lat="43.18338" lon="5.687">
        <ele>23.21</ele>
        <time>2012-07-19T09:19:33Z</time>
      </trkpt>
      <trkpt lat="43.18332" lon="5.68841">
        <ele>23.69</ele>
        <time>2012-07-19T09:19:47Z</time>
      </trkpt>
      <trkpt lat="43.18326" lon="5.68961">
        <ele>24.17</ele>
        <time>2012-07-19T09:20:00Z</time>
      </trkpt>
      <trkpt lat="43.18322" lon="5.69041">
        <ele>24.17</ele>
        <time>2012-07-19T09:20:09Z</time>
      </trkpt>
      <trkpt lat="43.18316" lon="5.69095">
        <ele>25.13</ele>
        <time>2012-07-19T09:20:15Z</time>
      </trkpt>
      <trkpt lat="43.18311" lon="5.69226">
        <ele>25.61</ele>
        <time>2012-07-19T09:20:30Z</time>
      </trkpt>
      <trkpt lat="43.18288" lon="5.69366">
        <ele>25.13</ele>
        <time>2012-07-19T09:20:46Z</time>
      </trkpt>
      <trkpt lat="43.18232" lon="5.69499">
        <ele>23.69</ele>
        <time>2012-07-19T09:21:03Z</time>
      </trkpt>
      <trkpt lat="43.18157" lon="5.69603">
        <ele>21.77</ele>
        <time>2012-07-19T09:21:18Z</time>
      </trkpt>
      <trkpt lat="43.18124" lon="5.69635">
        <ele>20.32</ele>
        <time>2012-07-19T09:21:25Z</time>
      </trkpt>
      <trkpt lat="43.18119" lon="5.69637">
        <ele>20.81</ele>
        <time>2012-07-19T09:21:26Z</time>
      </trkpt>
      <trkpt lat="43.18114" lon="5.69637">
        <ele>20.32</ele>
        <time>2012-07-19T09:21:27Z</time>
      </trkpt>
      <trkpt lat="43.18109" lon="5.69637">
        <ele>19.84</ele>
        <time>2012-07-19T09:21:28Z</time>
      </trkpt>
      <trkpt lat="43.18103" lon="5.69636">
        <ele>19.84</ele>
        <time>2012-07-19T09:21:29Z</time>
      </trkpt>
      <trkpt lat="43.18097" lon="5.69636">
        <ele>20.32</ele>
        <time>2012-07-19T09:21:30Z</time>
      </trkpt>
      <trkpt lat="43.1809" lon="5.69638">
        <ele>19.84</ele>
        <time>2012-07-19T09:21:31Z</time>
      </trkpt>
      <trkpt lat="43.18085" lon="5.69643">
        <ele>19.84</ele>
        <time>2012-07-19T09:21:32Z</time>
      </trkpt>
      <trkpt lat="43.1808" lon="5.69649">
        <ele>19.84</ele>
        <time>2012-07-19T09:21:33Z</time>
      </trkpt>
      <trkpt lat="43.18076" lon="5.69657">
        <ele>19.84</ele>
        <time>2012-07-19T09:21:34Z</time>
      </trkpt>
      <trkpt lat="43.18074" lon="5.69667">
        <ele>19.84</ele>
        <time>2012-07-19T09:21:35Z</time>
      </trkpt>
      <trkpt lat="43.18074" lon="5.69676">
        <ele>19.84</ele>
        <time>2012-07-19T09:21:36Z</time>
      </trkpt>
      <trkpt lat="43.18076" lon="5.69686">
        <ele>19.36</ele>
        <time>2012-07-19T09:21:37Z</time>
      </trkpt>
      <trkpt lat="43.1808" lon="5.69694">
        <ele>19.36</ele>
        <time>2012-07-19T09:21:38Z</time>
      </trkpt>
      <trkpt lat="43.18085" lon="5.69701">
        <ele>19.84</ele>
        <time>2012-07-19T09:21:39Z</time>
      </trkpt>
      <trkpt lat="43.18091" lon="5.69705">
        <ele>19.36</ele>
        <time>2012-07-19T09:21:40Z</time>
      </trkpt>
      <trkpt lat="43.18098" lon="5.69708">
        <ele>19.84</ele>
        <time>2012-07-19T09:21:41Z</time>
      </trkpt>
      <trkpt lat="43.18105" lon="5.69709">
        <ele>19.84</ele>
        <time>2012-07-19T09:21:42Z</time>
      </trkpt>
      <trkpt lat="43.18112" lon="5.69711">
        <ele>20.32</ele>
        <time>2012-07-19T09:21:43Z</time>
      </trkpt>
      <trkpt lat="43.18119" lon="5.69713">
        <ele>19.84</ele>
        <time>2012-07-19T09:21:44Z</time>
      </trkpt>
      <trkpt lat="43.18125" lon="5.69718">
        <ele>20.32</ele>
        <time>2012-07-19T09:21:45Z</time>
      </trkpt>
      <trkpt lat="43.1813" lon="5.69725">
        <ele>20.32</ele>
        <time>2012-07-19T09:21:46Z</time>
      </trkpt>
      <trkpt lat="43.18173" lon="5.69797">
        <ele>21.29</ele>
        <time>2012-07-19T09:21:56Z</time>
      </trkpt>
      <trkpt lat="43.18234" lon="5.69869">
        <ele>23.21</ele>
        <time>2012-07-19T09:22:08Z</time>
      </trkpt>
      <trkpt lat="43.18297" lon="5.69943">
        <ele>25.61</ele>
        <time>2012-07-19T09:22:22Z</time>
      </trkpt>
      <trkpt lat="43.18309" lon="5.69959">
        <ele>26.09</ele>
        <time>2012-07-19T09:22:25Z</time>
      </trkpt>
      <trkpt lat="43.18313" lon="5.69965">
        <ele>26.57</ele>
        <time>2012-07-19T09:22:26Z</time>
      </trkpt>
      <trkpt lat="43.18347" lon="5.70033">
        <ele>27.05</ele>
        <time>2012-07-19T09:22:36Z</time>
      </trkpt>
      <trkpt lat="43.18351" lon="5.70039">
        <ele>27.05</ele>
        <time>2012-07-19T09:22:37Z</time>
      </trkpt>
      <trkpt lat="43.18418" lon="5.70148">
        <ele>28.98</ele>
        <time>2012-07-19T09:22:54Z</time>
      </trkpt>
      <trkpt lat="43.1846" lon="5.70244">
        <ele>31.38</ele>
        <time>2012-07-19T09:23:08Z</time>
      </trkpt>
      <trkpt lat="43.18469" lon="5.70263">
        <ele>31.86</ele>
        <time>2012-07-19T09:23:11Z</time>
      </trkpt>
      <trkpt lat="43.18472" lon="5.70269">
        <ele>32.34</ele>
        <time>2012-07-19T09:23:12Z</time>
      </trkpt>
      <trkpt lat="43.18489" lon="5.70299">
        <ele>32.82</ele>
        <time>2012-07-19T09:23:17Z</time>
      </trkpt>
      <trkpt lat="43.18525" lon="5.70355">
        <ele>33.78</ele>
        <time>2012-07-19T09:23:27Z</time>
      </trkpt>
      <trkpt lat="43.18527" lon="5.70361">
        <ele>33.78</ele>
        <time>2012-07-19T09:23:28Z</time>
      </trkpt>
      <trkpt lat="43.18528" lon="5.70368">
        <ele>34.74</ele>
        <time>2012-07-19T09:23:29Z</time>
      </trkpt>
      <trkpt lat="43.18528" lon="5.70375">
        <ele>34.26</ele>
        <time>2012-07-19T09:23:30Z</time>
      </trkpt>
      <trkpt lat="43.18527" lon="5.70383">
        <ele>34.26</ele>
        <time>2012-07-19T09:23:31Z</time>
      </trkpt>
      <trkpt lat="43.18514" lon="5.70437">
        <ele>30.9</ele>
        <time>2012-07-19T09:23:37Z</time>
      </trkpt>
      <trkpt lat="43.18515" lon="5.70448">
        <ele>30.9</ele>
        <time>2012-07-19T09:23:38Z</time>
      </trkpt>
      <trkpt lat="43.18517" lon="5.70457">
        <ele>30.9</ele>
        <time>2012-07-19T09:23:39Z</time>
      </trkpt>
      <trkpt lat="43.18522" lon="5.70465">
        <ele>30.42</ele>
        <time>2012-07-19T09:23:40Z</time>
      </trkpt>
      <trkpt lat="43.18528" lon="5.70473">
        <ele>30.42</ele>
        <time>2012-07-19T09:23:41Z</time>
      </trkpt>
      <trkpt lat="43.18533" lon="5.70479">
        <ele>30.9</ele>
        <time>2012-07-19T09:23:42Z</time>
      </trkpt>
      <trkpt lat="43.18546" lon="5.70501">
        <ele>31.38</ele>
        <time>2012-07-19T09:23:45Z</time>
      </trkpt>
      <trkpt lat="43.18548" lon="5.7051">
        <ele>31.86</ele>
        <time>2012-07-19T09:23:46Z</time>
      </trkpt>
      <trkpt lat="43.18549" lon="5.70518">
        <ele>31.38</ele>
        <time>2012-07-19T09:23:47Z</time>
      </trkpt>
      <trkpt lat="43.18557" lon="5.70551">
        <ele>31.86</ele>
        <time>2012-07-19T09:23:51Z</time>
      </trkpt>
      <trkpt lat="43.1856" lon="5.70559">
        <ele>32.34</ele>
        <time>2012-07-19T09:23:52Z</time>
      </trkpt>
      <trkpt lat="43.18567" lon="5.70572">
        <ele>33.78</ele>
        <time>2012-07-19T09:23:54Z</time>
      </trkpt>
      <trkpt lat="43.18571" lon="5.70579">
        <ele>33.78</ele>
        <time>2012-07-19T09:23:55Z</time>
      </trkpt>
      <trkpt lat="43.18626" lon="5.70642">
        <ele>36.67</ele>
        <time>2012-07-19T09:24:08Z</time>
      </trkpt>
      <trkpt lat="43.18694" lon="5.70701">
        <ele>38.59</ele>
        <time>2012-07-19T09:24:22Z</time>
      </trkpt>
      <trkpt lat="43.18696" lon="5.70707">
        <ele>39.07</ele>
        <time>2012-07-19T09:24:23Z</time>
      </trkpt>
      <trkpt lat="43.18697" lon="5.70714">
        <ele>39.55</ele>
        <time>2012-07-19T09:24:24Z</time>
      </trkpt>
      <trkpt lat="43.18695" lon="5.70722">
        <ele>39.07</ele>
        <time>2012-07-19T09:24:25Z</time>
      </trkpt>
      <trkpt lat="43.18693" lon="5.70728">
        <ele>39.55</ele>
        <time>2012-07-19T09:24:26Z</time>
      </trkpt>
      <trkpt lat="43.18689" lon="5.70735">
        <ele>39.07</ele>
        <time>2012-07-19T09:24:27Z</time>
      </trkpt>
      <trkpt lat="43.18646" lon="5.70825">
        <ele>38.59</ele>
        <time>2012-07-19T09:24:40Z</time>
      </trkpt>
      <trkpt lat="43.18615" lon="5.70892">
        <ele>38.11</ele>
        <time>2012-07-19T09:24:49Z</time>
      </trkpt>
      <trkpt lat="43.18557" lon="5.71011">
        <ele>37.15</ele>
        <time>2012-07-19T09:25:05Z</time>
      </trkpt>
      <trkpt lat="43.18551" lon="5.71016">
        <ele>36.67</ele>
        <time>2012-07-19T09:25:06Z</time>
      </trkpt>
      <trkpt lat="43.18544" lon="5.71018">
        <ele>36.19</ele>
        <time>2012-07-19T09:25:07Z</time>
      </trkpt>
      <trkpt lat="43.18538" lon="5.71021">
        <ele>36.19</ele>
        <time>2012-07-19T09:25:08Z</time>
      </trkpt>
      <trkpt lat="43.18533" lon="5.71027">
        <ele>36.19</ele>
        <time>2012-07-19T09:25:09Z</time>
      </trkpt>
      <trkpt lat="43.1853" lon="5.71035">
        <ele>35.71</ele>
        <time>2012-07-19T09:25:10Z</time>
      </trkpt>
      <trkpt lat="43.18527" lon="5.71043">
        <ele>35.71</ele>
        <time>2012-07-19T09:25:11Z</time>
      </trkpt>
      <trkpt lat="43.18524" lon="5.71051">
        <ele>35.71</ele>
        <time>2012-07-19T09:25:12Z</time>
      </trkpt>
      <trkpt lat="43.18519" lon="5.71058">
        <ele>35.23</ele>
        <time>2012-07-19T09:25:13Z</time>
      </trkpt>
      <trkpt lat="43.18514" lon="5.71065">
        <ele>35.71</ele>
        <time>2012-07-19T09:25:14Z</time>
      </trkpt>
      <trkpt lat="43.18509" lon="5.71071">
        <ele>35.23</ele>
        <time>2012-07-19T09:25:15Z</time>
      </trkpt>
      <trkpt lat="43.18499" lon="5.71084">
        <ele>35.23</ele>
        <time>2012-07-19T09:25:17Z</time>
      </trkpt>
      <trkpt lat="43.18416" lon="5.71161">
        <ele>33.78</ele>
        <time>2012-07-19T09:25:31Z</time>
      </trkpt>
      <trkpt lat="43.18323" lon="5.7124">
        <ele>32.82</ele>
        <time>2012-07-19T09:25:46Z</time>
      </trkpt>
      <trkpt lat="43.18292" lon="5.71266">
        <ele>32.34</ele>
        <time>2012-07-19T09:25:52Z</time>
      </trkpt>
      <trkpt lat="43.18287" lon="5.71266">
        <ele>32.34</ele>
        <time>2012-07-19T09:25:53Z</time>
      </trkpt>
      <trkpt lat="43.18282" lon="5.71265">
        <ele>32.34</ele>
        <time>2012-07-19T09:25:54Z</time>
      </trkpt>
      <trkpt lat="43.18277" lon="5.71266">
        <ele>31.86</ele>
        <time>2012-07-19T09:25:55Z</time>
      </trkpt>
      <trkpt lat="43.18275" lon="5.71271">
        <ele>32.34</ele>
        <time>2012-07-19T09:25:56Z</time>
      </trkpt>
      <trkpt lat="43.18277" lon="5.71276">
        <ele>32.34</ele>
        <time>2012-07-19T09:25:57Z</time>
      </trkpt>
      <trkpt lat="43.18281" lon="5.71279">
        <ele>32.82</ele>
        <time>2012-07-19T09:25:58Z</time>
      </trkpt>
      <trkpt lat="43.18285" lon="5.7128">
        <ele>32.82</ele>
        <time>2012-07-19T09:25:59Z</time>
      </trkpt>
      <trkpt lat="43.18289" lon="5.71283">
        <ele>32.82</ele>
        <time>2012-07-19T09:26:00Z</time>
      </trkpt>
      <trkpt lat="43.18293" lon="5.71287">
        <ele>32.82</ele>
        <time>2012-07-19T09:26:01Z</time>
      </trkpt>
      <trkpt lat="43.18322" lon="5.7132">
        <ele>33.78</ele>
        <time>2012-07-19T09:26:08Z</time>
      </trkpt>
      <trkpt lat="43.18339" lon="5.71337">
        <ele>34.26</ele>
        <time>2012-07-19T09:26:12Z</time>
      </trkpt>
      <trkpt lat="43.18361" lon="5.71359">
        <ele>34.74</ele>
        <time>2012-07-19T09:26:17Z</time>
      </trkpt>
      <trkpt lat="43.18366" lon="5.71363">
        <ele>35.23</ele>
        <time>2012-07-19T09:26:18Z</time>
      </trkpt>
      <trkpt lat="43.18375" lon="5.71373">
        <ele>35.71</ele>
        <time>2012-07-19T09:26:20Z</time>
      </trkpt>
      <trkpt lat="43.18408" lon="5.71409">
        <ele>37.15</ele>
        <time>2012-07-19T09:26:28Z</time>
      </trkpt>
      <trkpt lat="43.18411" lon="5.71415">
        <ele>36.67</ele>
        <time>2012-07-19T09:26:29Z</time>
      </trkpt>
      <trkpt lat="43.18413" lon="5.71422">
        <ele>37.15</ele>
        <time>2012-07-19T09:26:30Z</time>
      </trkpt>
      <trkpt lat="43.18416" lon="5.71437">
        <ele>37.63</ele>
        <time>2012-07-19T09:26:32Z</time>
      </trkpt>
      <trkpt lat="43.18419" lon="5.71443">
        <ele>37.63</ele>
        <time>2012-07-19T09:26:33Z</time>
      </trkpt>
      <trkpt lat="43.18423" lon="5.71448">
        <ele>37.15</ele>
        <time>2012-07-19T09:26:34Z</time>
      </trkpt>
      <trkpt lat="43.18427" lon="5.71453">
        <ele>38.11</ele>
        <time>2012-07-19T09:26:35Z</time>
      </trkpt>
      <trkpt lat="43.18431" lon="5.71457">
        <ele>38.11</ele>
        <time>2012-07-19T09:26:36Z</time>
      </trkpt>
      <trkpt lat="43.18443" lon="5.71469">
        <ele>38.59</ele>
        <time>2012-07-19T09:26:39Z</time>
      </trkpt>
      <trkpt lat="43.18448" lon="5.7147">
        <ele>38.59</ele>
        <time>2012-07-19T09:26:40Z</time>
      </trkpt>
      <trkpt lat="43.18453" lon="5.71469">
        <ele>38.59</ele>
        <time>2012-07-19T09:26:41Z</time>
      </trkpt>
      <trkpt lat="43.18458" lon="5.71467">
        <ele>38.59</ele>
        <time>2012-07-19T09:26:42Z</time>
      </trkpt>
      <trkpt lat="43.18463" lon="5.71467">
        <ele>38.59</ele>
        <time>2012-07-19T09:26:43Z</time>
      </trkpt>
      <trkpt lat="43.18468" lon="5.7147">
        <ele>38.59</ele>
        <time>2012-07-19T09:26:44Z</time>
      </trkpt>
      <trkpt lat="43.18472" lon="5.71474">
        <ele>39.07</ele>
        <time>2012-07-19T09:26:45Z</time>
      </trkpt>
      <trkpt lat="43.18476" lon="5.71479">
        <ele>38.59</ele>
        <time>2012-07-19T09:26:46Z</time>
      </trkpt>
      <trkpt lat="43.18497" lon="5.71503">
        <ele>40.03</ele>
        <time>2012-07-19T09:26:55Z</time>
      </trkpt>
      <trkpt lat="43.18497" lon="5.71503">
        <ele>40.51</ele>
        <time>2012-07-19T09:27:21Z</time>
      </trkpt>
      <trkpt lat="43.18507" lon="5.71514">
        <ele>40.51</ele>
        <time>2012-07-19T09:27:34Z</time>
      </trkpt>
      <trkpt lat="43.1853" lon="5.71532">
        <ele>40.51</ele>
        <time>2012-07-19T09:27:41Z</time>
      </trkpt>
      <trkpt lat="43.18547" lon="5.71541">
        <ele>41.47</ele>
        <time>2012-07-19T09:27:45Z</time>
      </trkpt>
      <trkpt lat="43.1856" lon="5.7155">
        <ele>41.47</ele>
        <time>2012-07-19T09:27:48Z</time>
      </trkpt>
      <trkpt lat="43.18564" lon="5.71553">
        <ele>41.47</ele>
        <time>2012-07-19T09:27:49Z</time>
      </trkpt>
      <trkpt lat="43.18628" lon="5.71621">
        <ele>43.88</ele>
        <time>2012-07-19T09:28:06Z</time>
      </trkpt>
      <trkpt lat="43.18666" lon="5.71649">
        <ele>45.32</ele>
        <time>2012-07-19T09:28:14Z</time>
      </trkpt>
      <trkpt lat="43.18732" lon="5.71716">
        <ele>46.76</ele>
        <time>2012-07-19T09:28:29Z</time>
      </trkpt>
      <trkpt lat="43.18799" lon="5.71825">
        <ele>48.68</ele>
        <time>2012-07-19T09:28:47Z</time>
      </trkpt>
      <trkpt lat="43.18851" lon="5.71903">
        <ele>51.09</ele>
        <time>2012-07-19T09:29:01Z</time>
      </trkpt>
      <trkpt lat="43.18921" lon="5.71977">
        <ele>52.53</ele>
        <time>2012-07-19T09:29:17Z</time>
      </trkpt>
      <trkpt lat="43.19009" lon="5.72039">
        <ele>53.49</ele>
        <time>2012-07-19T09:29:35Z</time>
      </trkpt>
      <trkpt lat="43.19074" lon="5.72112">
        <ele>53.49</ele>
        <time>2012-07-19T09:29:49Z</time>
      </trkpt>
      <trkpt lat="43.19138" lon="5.72195">
        <ele>54.45</ele>
        <time>2012-07-19T09:30:03Z</time>
      </trkpt>
      <trkpt lat="43.19141" lon="5.72202">
        <ele>54.93</ele>
        <time>2012-07-19T09:30:04Z</time>
      </trkpt>
      <trkpt lat="43.19158" lon="5.72237">
        <ele>54.93</ele>
        <time>2012-07-19T09:30:09Z</time>
      </trkpt>
      <trkpt lat="43.19195" lon="5.72282">
        <ele>54.93</ele>
        <time>2012-07-19T09:30:17Z</time>
      </trkpt>
      <trkpt lat="43.19274" lon="5.72332">
        <ele>56.37</ele>
        <time>2012-07-19T09:30:31Z</time>
      </trkpt>
      <trkpt lat="43.19278" lon="5.72337">
        <ele>56.37</ele>
        <time>2012-07-19T09:30:32Z</time>
      </trkpt>
      <trkpt lat="43.19283" lon="5.72343">
        <ele>55.89</ele>
        <time>2012-07-19T09:30:33Z</time>
      </trkpt>
      <trkpt lat="43.19287" lon="5.72349">
        <ele>55.89</ele>
        <time>2012-07-19T09:30:34Z</time>
      </trkpt>
      <trkpt lat="43.1929" lon="5.72356">
        <ele>56.37</ele>
        <time>2012-07-19T09:30:35Z</time>
      </trkpt>
      <trkpt lat="43.19293" lon="5.72364">
        <ele>56.37</ele>
        <time>2012-07-19T09:30:36Z</time>
      </trkpt>
      <trkpt lat="43.19295" lon="5.72372">
        <ele>56.37</ele>
        <time>2012-07-19T09:30:37Z</time>
      </trkpt>
      <trkpt lat="43.19297" lon="5.7238">
        <ele>56.37</ele>
        <time>2012-07-19T09:30:38Z</time>
      </trkpt>
      <trkpt lat="43.1931" lon="5.7242">
        <ele>56.86</ele>
        <time>2012-07-19T09:30:43Z</time>
      </trkpt>
      <trkpt lat="43.19321" lon="5.72441">
        <ele>56.86</ele>
        <time>2012-07-19T09:30:46Z</time>
      </trkpt>
      <trkpt lat="43.19397" lon="5.72536">
        <ele>56.86</ele>
        <time>2012-07-19T09:31:02Z</time>
      </trkpt>
      <trkpt lat="43.19411" lon="5.72553">
        <ele>57.34</ele>
        <time>2012-07-19T09:31:05Z</time>
      </trkpt>
      <trkpt lat="43.19424" lon="5.72579">
        <ele>57.34</ele>
        <time>2012-07-19T09:31:09Z</time>
      </trkpt>
      <trkpt lat="43.19428" lon="5.72585">
        <ele>57.82</ele>
        <time>2012-07-19T09:31:10Z</time>
      </trkpt>
      <trkpt lat="43.19433" lon="5.7259">
        <ele>58.3</ele>
        <time>2012-07-19T09:31:11Z</time>
      </trkpt>
      <trkpt lat="43.19505" lon="5.72651">
        <ele>61.18</ele>
        <time>2012-07-19T09:31:25Z</time>
      </trkpt>
      <trkpt lat="43.19581" lon="5.72716">
        <ele>64.55</ele>
        <time>2012-07-19T09:31:42Z</time>
      </trkpt>
      <trkpt lat="43.19647" lon="5.72777">
        <ele>67.43</ele>
        <time>2012-07-19T09:31:58Z</time>
      </trkpt>
      <trkpt lat="43.19693" lon="5.72833">
        <ele>69.83</ele>
        <time>2012-07-19T09:32:11Z</time>
      </trkpt>
      <trkpt lat="43.19741" lon="5.72906">
        <ele>73.2</ele>
        <time>2012-07-19T09:32:26Z</time>
      </trkpt>
      <trkpt lat="43.19748" lon="5.72914">
        <ele>72.72</ele>
        <time>2012-07-19T09:32:28Z</time>
      </trkpt>
      <trkpt lat="43.19793" lon="5.72962">
        <ele>75.12</ele>
        <time>2012-07-19T09:32:40Z</time>
      </trkpt>
      <trkpt lat="43.19803" lon="5.72977">
        <ele>75.12</ele>
        <time>2012-07-19T09:32:43Z</time>
      </trkpt>
      <trkpt lat="43.19803" lon="5.72983">
        <ele>75.6</ele>
        <time>2012-07-19T09:32:44Z</time>
      </trkpt>
      <trkpt lat="43.19802" lon="5.7299">
        <ele>76.08</ele>
        <time>2012-07-19T09:32:45Z</time>
      </trkpt>
      <trkpt lat="43.198" lon="5.72995">
        <ele>76.08</ele>
        <time>2012-07-19T09:32:46Z</time>
      </trkpt>
      <trkpt lat="43.19797" lon="5.73">
        <ele>76.56</ele>
        <time>2012-07-19T09:32:47Z</time>
      </trkpt>
      <trkpt lat="43.19795" lon="5.73005">
        <ele>76.56</ele>
        <time>2012-07-19T09:32:48Z</time>
      </trkpt>
      <trkpt lat="43.19793" lon="5.7301">
        <ele>77.04</ele>
        <time>2012-07-19T09:32:49Z</time>
      </trkpt>
      <trkpt lat="43.19793" lon="5.73016">
        <ele>77.52</ele>
        <time>2012-07-19T09:32:50Z</time>
      </trkpt>
      <trkpt lat="43.19795" lon="5.73021">
        <ele>78</ele>
        <time>2012-07-19T09:32:51Z</time>
      </trkpt>
      <trkpt lat="43.19798" lon="5.73025">
        <ele>78.48</ele>
        <time>2012-07-19T09:32:52Z</time>
      </trkpt>
      <trkpt lat="43.19801" lon="5.73028">
        <ele>78.48</ele>
        <time>2012-07-19T09:32:53Z</time>
      </trkpt>
      <trkpt lat="43.19805" lon="5.73031">
        <ele>78</ele>
        <time>2012-07-19T09:32:54Z</time>
      </trkpt>
      <trkpt lat="43.19812" lon="5.73035">
        <ele>78.97</ele>
        <time>2012-07-19T09:32:56Z</time>
      </trkpt>
      <trkpt lat="43.19849" lon="5.73049">
        <ele>78.97</ele>
        <time>2012-07-19T09:33:04Z</time>
      </trkpt>
      <trkpt lat="43.19918" lon="5.73086">
        <ele>81.37</ele>
        <time>2012-07-19T09:33:20Z</time>
      </trkpt>
      <trkpt lat="43.19982" lon="5.73104">
        <ele>82.81</ele>
        <time>2012-07-19T09:33:34Z</time>
      </trkpt>
      <trkpt lat="43.19986" lon="5.73105">
        <ele>83.29</ele>
        <time>2012-07-19T09:33:35Z</time>
      </trkpt>
      <trkpt lat="43.20011" lon="5.73118">
        <ele>85.21</ele>
        <time>2012-07-19T09:33:41Z</time>
      </trkpt>
      <trkpt lat="43.2003" lon="5.7314">
        <ele>86.66</ele>
        <time>2012-07-19T09:33:47Z</time>
      </trkpt>
      <trkpt lat="43.20033" lon="5.73144">
        <ele>86.18</ele>
        <time>2012-07-19T09:33:48Z</time>
      </trkpt>
      <trkpt lat="43.20047" lon="5.73167">
        <ele>87.14</ele>
        <time>2012-07-19T09:33:53Z</time>
      </trkpt>
      <trkpt lat="43.20063" lon="5.73199">
        <ele>88.1</ele>
        <time>2012-07-19T09:33:59Z</time>
      </trkpt>
      <trkpt lat="43.20091" lon="5.73274">
        <ele>91.94</ele>
        <time>2012-07-19T09:34:13Z</time>
      </trkpt>
      <trkpt lat="43.20114" lon="5.73338">
        <ele>94.83</ele>
        <time>2012-07-19T09:34:25Z</time>
      </trkpt>
      <trkpt lat="43.20135" lon="5.73404">
        <ele>97.71</ele>
        <time>2012-07-19T09:34:37Z</time>
      </trkpt>
      <trkpt lat="43.20163" lon="5.73496">
        <ele>100.11</ele>
        <time>2012-07-19T09:34:53Z</time>
      </trkpt>
      <trkpt lat="43.20203" lon="5.73616">
        <ele>100.11</ele>
        <time>2012-07-19T09:35:11Z</time>
      </trkpt>
      <trkpt lat="43.20205" lon="5.73624">
        <ele>100.6</ele>
        <time>2012-07-19T09:35:12Z</time>
      </trkpt>
      <trkpt lat="43.20206" lon="5.73633">
        <ele>100.11</ele>
        <time>2012-07-19T09:35:13Z</time>
      </trkpt>
      <trkpt lat="43.20208" lon="5.73651">
        <ele>100.6</ele>
        <time>2012-07-19T09:35:15Z</time>
      </trkpt>
      <trkpt lat="43.20208" lon="5.73684">
        <ele>102.04</ele>
        <time>2012-07-19T09:35:19Z</time>
      </trkpt>
      <trkpt lat="43.20209" lon="5.73708">
        <ele>102.52</ele>
        <time>2012-07-19T09:35:22Z</time>
      </trkpt>
      <trkpt lat="43.20225" lon="5.73851">
        <ele>103.96</ele>
        <time>2012-07-19T09:35:40Z</time>
      </trkpt>
      <trkpt lat="43.20239" lon="5.73966">
        <ele>105.88</ele>
        <time>2012-07-19T09:35:55Z</time>
      </trkpt>
      <trkpt lat="43.20241" lon="5.73973">
        <ele>105.88</ele>
        <time>2012-07-19T09:35:56Z</time>
      </trkpt>
      <trkpt lat="43.20245" lon="5.73979">
        <ele>105.88</ele>
        <time>2012-07-19T09:35:57Z</time>
      </trkpt>
      <trkpt lat="43.2025" lon="5.73983">
        <ele>105.4</ele>
        <time>2012-07-19T09:35:58Z</time>
      </trkpt>
      <trkpt lat="43.20256" lon="5.73985">
        <ele>104.92</ele>
        <time>2012-07-19T09:35:59Z</time>
      </trkpt>
      <trkpt lat="43.20262" lon="5.73985">
        <ele>104.92</ele>
        <time>2012-07-19T09:36:00Z</time>
      </trkpt>
      <trkpt lat="43.20268" lon="5.73985">
        <ele>104.44</ele>
        <time>2012-07-19T09:36:01Z</time>
      </trkpt>
      <trkpt lat="43.20315" lon="5.73983">
        <ele>102.52</ele>
        <time>2012-07-19T09:36:08Z</time>
      </trkpt>
      <trkpt lat="43.20322" lon="5.73988">
        <ele>102.52</ele>
        <time>2012-07-19T09:36:09Z</time>
      </trkpt>
      <trkpt lat="43.20326" lon="5.73996">
        <ele>102.04</ele>
        <time>2012-07-19T09:36:10Z</time>
      </trkpt>
      <trkpt lat="43.20326" lon="5.74007">
        <ele>101.56</ele>
        <time>2012-07-19T09:36:11Z</time>
      </trkpt>
      <trkpt lat="43.20325" lon="5.74018">
        <ele>102.04</ele>
        <time>2012-07-19T09:36:12Z</time>
      </trkpt>
      <trkpt lat="43.20322" lon="5.74029">
        <ele>101.08</ele>
        <time>2012-07-19T09:36:13Z</time>
      </trkpt>
      <trkpt lat="43.20319" lon="5.74039">
        <ele>101.08</ele>
        <time>2012-07-19T09:36:14Z</time>
      </trkpt>
      <trkpt lat="43.20307" lon="5.74185">
        <ele>99.63</ele>
        <time>2012-07-19T09:36:27Z</time>
      </trkpt>
      <trkpt lat="43.20297" lon="5.74406">
        <ele>99.15</ele>
        <time>2012-07-19T09:36:47Z</time>
      </trkpt>
      <trkpt lat="43.20266" lon="5.74617">
        <ele>97.71</ele>
        <time>2012-07-19T09:37:07Z</time>
      </trkpt>
      <trkpt lat="43.20224" lon="5.74821">
        <ele>96.75</ele>
        <time>2012-07-19T09:37:26Z</time>
      </trkpt>
      <trkpt lat="43.20215" lon="5.74857">
        <ele>97.23</ele>
        <time>2012-07-19T09:37:33Z</time>
      </trkpt>
      <trkpt lat="43.20214" lon="5.7486">
        <ele>97.23</ele>
        <time>2012-07-19T09:37:44Z</time>
      </trkpt>
      <trkpt lat="43.20214" lon="5.7486">
        <ele>97.23</ele>
        <time>2012-07-19T09:38:09Z</time>
      </trkpt>
      <trkpt lat="43.20215" lon="5.74859">
        <ele>96.75</ele>
        <time>2012-07-19T09:38:32Z</time>
      </trkpt>
      <trkpt lat="43.20215" lon="5.74859">
        <ele>96.75</ele>
        <time>2012-07-19T09:39:08Z</time>
      </trkpt>
      <trkpt lat="43.20215" lon="5.74859">
        <ele>96.75</ele>
        <time>2012-07-19T09:39:39Z</time>
      </trkpt>
      <trkpt lat="43.20215" lon="5.74859">
        <ele>96.75</ele>
        <time>2012-07-19T09:40:07Z</time>
      </trkpt>
      <trkpt lat="43.20215" lon="5.74859">
        <ele>96.75</ele>
        <time>2012-07-19T09:40:40Z</time>
      </trkpt>
      <trkpt lat="43.20215" lon="5.74858">
        <ele>96.27</ele>
        <time>2012-07-19T09:41:10Z</time>
      </trkpt>
      <trkpt lat="43.20214" lon="5.74858">
        <ele>96.27</ele>
        <time>2012-07-19T09:41:35Z</time>
      </trkpt>
      <trkpt lat="43.20214" lon="5.74858">
        <ele>96.27</ele>
        <time>2012-07-19T09:42:06Z</time>
      </trkpt>
      <trkpt lat="43.20214" lon="5.74858">
        <ele>96.27</ele>
        <time>2012-07-19T09:42:27Z</time>
      </trkpt>
      <trkpt lat="43.20214" lon="5.74858">
        <ele>96.27</ele>
        <time>2012-07-19T09:42:57Z</time>
      </trkpt>
      <trkpt lat="43.20214" lon="5.7486">
        <ele>96.75</ele>
        <time>2012-07-19T09:43:22Z</time>
      </trkpt>
      <trkpt lat="43.20214" lon="5.74861">
        <ele>96.27</ele>
        <time>2012-07-19T09:43:40Z</time>
      </trkpt>
      <trkpt lat="43.20214" lon="5.74863">
        <ele>96.75</ele>
        <time>2012-07-19T09:43:41Z</time>
      </trkpt>
      <trkpt lat="43.20213" lon="5.74865">
        <ele>96.27</ele>
        <time>2012-07-19T09:43:42Z</time>
      </trkpt>
      <trkpt lat="43.20213" lon="5.74868">
        <ele>96.75</ele>
        <time>2012-07-19T09:43:43Z</time>
      </trkpt>
      <trkpt lat="43.20212" lon="5.74871">
        <ele>96.27</ele>
        <time>2012-07-19T09:43:44Z</time>
      </trkpt>
      <trkpt lat="43.20212" lon="5.74874">
        <ele>96.27</ele>
        <time>2012-07-19T09:43:45Z</time>
      </trkpt>
      <trkpt lat="43.20211" lon="5.74879">
        <ele>96.27</ele>
        <time>2012-07-19T09:43:46Z</time>
      </trkpt>
      <trkpt lat="43.2021" lon="5.74883">
        <ele>96.27</ele>
        <time>2012-07-19T09:43:47Z</time>
      </trkpt>
      <trkpt lat="43.20188" lon="5.74972">
        <ele>95.79</ele>
        <time>2012-07-19T09:44:00Z</time>
      </trkpt>
      <trkpt lat="43.20146" lon="5.75121">
        <ele>94.83</ele>
        <time>2012-07-19T09:44:16Z</time>
      </trkpt>
      <trkpt lat="43.20108" lon="5.75277">
        <ele>94.83</ele>
        <time>2012-07-19T09:44:32Z</time>
      </trkpt>
      <trkpt lat="43.20065" lon="5.75437">
        <ele>93.87</ele>
        <time>2012-07-19T09:44:48Z</time>
      </trkpt>
      <trkpt lat="43.20047" lon="5.75588">
        <ele>93.87</ele>
        <time>2012-07-19T09:45:02Z</time>
      </trkpt>
      <trkpt lat="43.20027" lon="5.75737">
        <ele>92.9</ele>
        <time>2012-07-19T09:45:16Z</time>
      </trkpt>
      <trkpt lat="43.20028" lon="5.7592">
        <ele>93.39</ele>
        <time>2012-07-19T09:45:33Z</time>
      </trkpt>
      <trkpt lat="43.20027" lon="5.75962">
        <ele>92.9</ele>
        <time>2012-07-19T09:45:37Z</time>
      </trkpt>
      <trkpt lat="43.20025" lon="5.75972">
        <ele>92.9</ele>
        <time>2012-07-19T09:45:38Z</time>
      </trkpt>
      <trkpt lat="43.20022" lon="5.75982">
        <ele>92.42</ele>
        <time>2012-07-19T09:45:39Z</time>
      </trkpt>
      <trkpt lat="43.19997" lon="5.76095">
        <ele>92.42</ele>
        <time>2012-07-19T09:45:50Z</time>
      </trkpt>
      <trkpt lat="43.20009" lon="5.76221">
        <ele>91.94</ele>
        <time>2012-07-19T09:46:02Z</time>
      </trkpt>
      <trkpt lat="43.20007" lon="5.76272">
        <ele>92.42</ele>
        <time>2012-07-19T09:46:07Z</time>
      </trkpt>
      <trkpt lat="43.20005" lon="5.76282">
        <ele>92.42</ele>
        <time>2012-07-19T09:46:08Z</time>
      </trkpt>
      <trkpt lat="43.20001" lon="5.76291">
        <ele>92.42</ele>
        <time>2012-07-19T09:46:09Z</time>
      </trkpt>
      <trkpt lat="43.19995" lon="5.76297">
        <ele>92.42</ele>
        <time>2012-07-19T09:46:10Z</time>
      </trkpt>
      <trkpt lat="43.19988" lon="5.76301">
        <ele>91.94</ele>
        <time>2012-07-19T09:46:11Z</time>
      </trkpt>
      <trkpt lat="43.1998" lon="5.76303">
        <ele>91.94</ele>
        <time>2012-07-19T09:46:12Z</time>
      </trkpt>
      <trkpt lat="43.19972" lon="5.76303">
        <ele>91.94</ele>
        <time>2012-07-19T09:46:13Z</time>
      </trkpt>
      <trkpt lat="43.19964" lon="5.76303">
        <ele>91.94</ele>
        <time>2012-07-19T09:46:14Z</time>
      </trkpt>
      <trkpt lat="43.19879" lon="5.76331">
        <ele>92.42</ele>
        <time>2012-07-19T09:46:26Z</time>
      </trkpt>
      <trkpt lat="43.19792" lon="5.76358">
        <ele>90.5</ele>
        <time>2012-07-19T09:46:38Z</time>
      </trkpt>
      <trkpt lat="43.19783" lon="5.76357">
        <ele>89.54</ele>
        <time>2012-07-19T09:46:39Z</time>
      </trkpt>
      <trkpt lat="43.19775" lon="5.76355">
        <ele>90.02</ele>
        <time>2012-07-19T09:46:40Z</time>
      </trkpt>
      <trkpt lat="43.19734" lon="5.76337">
        <ele>88.1</ele>
        <time>2012-07-19T09:46:45Z</time>
      </trkpt>
      <trkpt lat="43.19727" lon="5.76331">
        <ele>88.1</ele>
        <time>2012-07-19T09:46:46Z</time>
      </trkpt>
      <trkpt lat="43.19719" lon="5.76324">
        <ele>87.62</ele>
        <time>2012-07-19T09:46:47Z</time>
      </trkpt>
      <trkpt lat="43.19712" lon="5.76316">
        <ele>87.14</ele>
        <time>2012-07-19T09:46:48Z</time>
      </trkpt>
      <trkpt lat="43.19705" lon="5.76308">
        <ele>87.14</ele>
        <time>2012-07-19T09:46:49Z</time>
      </trkpt>
      <trkpt lat="43.19663" lon="5.76259">
        <ele>85.69</ele>
        <time>2012-07-19T09:46:55Z</time>
      </trkpt>
      <trkpt lat="43.19655" lon="5.76254">
        <ele>85.69</ele>
        <time>2012-07-19T09:46:56Z</time>
      </trkpt>
      <trkpt lat="43.19647" lon="5.7625">
        <ele>86.18</ele>
        <time>2012-07-19T09:46:57Z</time>
      </trkpt>
      <trkpt lat="43.19639" lon="5.76247">
        <ele>86.18</ele>
        <time>2012-07-19T09:46:58Z</time>
      </trkpt>
      <trkpt lat="43.19631" lon="5.76245">
        <ele>87.14</ele>
        <time>2012-07-19T09:46:59Z</time>
      </trkpt>
      <trkpt lat="43.19623" lon="5.76244">
        <ele>86.66</ele>
        <time>2012-07-19T09:47:00Z</time>
      </trkpt>
      <trkpt lat="43.19615" lon="5.76244">
        <ele>87.14</ele>
        <time>2012-07-19T09:47:01Z</time>
      </trkpt>
      <trkpt lat="43.19602" lon="5.76246">
        <ele>88.1</ele>
        <time>2012-07-19T09:47:03Z</time>
      </trkpt>
      <trkpt lat="43.1958" lon="5.76252">
        <ele>90.5</ele>
        <time>2012-07-19T09:47:07Z</time>
      </trkpt>
      <trkpt lat="43.19539" lon="5.76266">
        <ele>92.42</ele>
        <time>2012-07-19T09:47:15Z</time>
      </trkpt>
      <trkpt lat="43.1947" lon="5.76298">
        <ele>90.02</ele>
        <time>2012-07-19T09:47:26Z</time>
      </trkpt>
      <trkpt lat="43.19444" lon="5.76307">
        <ele>88.58</ele>
        <time>2012-07-19T09:47:29Z</time>
      </trkpt>
      <trkpt lat="43.19426" lon="5.76315">
        <ele>87.14</ele>
        <time>2012-07-19T09:47:31Z</time>
      </trkpt>
      <trkpt lat="43.194" lon="5.76328">
        <ele>84.73</ele>
        <time>2012-07-19T09:47:34Z</time>
      </trkpt>
      <trkpt lat="43.19339" lon="5.76374">
        <ele>83.29</ele>
        <time>2012-07-19T09:47:42Z</time>
      </trkpt>
      <trkpt lat="43.19334" lon="5.76382">
        <ele>83.29</ele>
        <time>2012-07-19T09:47:43Z</time>
      </trkpt>
      <trkpt lat="43.19329" lon="5.76391">
        <ele>83.77</ele>
        <time>2012-07-19T09:47:44Z</time>
      </trkpt>
      <trkpt lat="43.19311" lon="5.76426">
        <ele>82.33</ele>
        <time>2012-07-19T09:47:48Z</time>
      </trkpt>
      <trkpt lat="43.19304" lon="5.76432">
        <ele>82.33</ele>
        <time>2012-07-19T09:47:49Z</time>
      </trkpt>
      <trkpt lat="43.19297" lon="5.76434">
        <ele>82.33</ele>
        <time>2012-07-19T09:47:50Z</time>
      </trkpt>
      <trkpt lat="43.19289" lon="5.76434">
        <ele>82.81</ele>
        <time>2012-07-19T09:47:51Z</time>
      </trkpt>
      <trkpt lat="43.19282" lon="5.76431">
        <ele>83.29</ele>
        <time>2012-07-19T09:47:52Z</time>
      </trkpt>
      <trkpt lat="43.19275" lon="5.76428">
        <ele>83.29</ele>
        <time>2012-07-19T09:47:53Z</time>
      </trkpt>
      <trkpt lat="43.19267" lon="5.76427">
        <ele>83.29</ele>
        <time>2012-07-19T09:47:54Z</time>
      </trkpt>
      <trkpt lat="43.1926" lon="5.76429">
        <ele>83.29</ele>
        <time>2012-07-19T09:47:55Z</time>
      </trkpt>
      <trkpt lat="43.19254" lon="5.76434">
        <ele>82.81</ele>
        <time>2012-07-19T09:47:56Z</time>
      </trkpt>
      <trkpt lat="43.19248" lon="5.76441">
        <ele>83.29</ele>
        <time>2012-07-19T09:47:57Z</time>
      </trkpt>
      <trkpt lat="43.19245" lon="5.76449">
        <ele>83.29</ele>
        <time>2012-07-19T09:47:58Z</time>
      </trkpt>
      <trkpt lat="43.19241" lon="5.76458">
        <ele>82.81</ele>
        <time>2012-07-19T09:47:59Z</time>
      </trkpt>
      <trkpt lat="43.19237" lon="5.76467">
        <ele>82.33</ele>
        <time>2012-07-19T09:48:00Z</time>
      </trkpt>
      <trkpt lat="43.19232" lon="5.76474">
        <ele>81.85</ele>
        <time>2012-07-19T09:48:01Z</time>
      </trkpt>
      <trkpt lat="43.19225" lon="5.76479">
        <ele>81.85</ele>
        <time>2012-07-19T09:48:02Z</time>
      </trkpt>
      <trkpt lat="43.19218" lon="5.76483">
        <ele>81.37</ele>
        <time>2012-07-19T09:48:03Z</time>
      </trkpt>
      <trkpt lat="43.1921" lon="5.76486">
        <ele>81.37</ele>
        <time>2012-07-19T09:48:04Z</time>
      </trkpt>
      <trkpt lat="43.19202" lon="5.76488">
        <ele>81.37</ele>
        <time>2012-07-19T09:48:05Z</time>
      </trkpt>
      <trkpt lat="43.19169" lon="5.76498">
        <ele>79.45</ele>
        <time>2012-07-19T09:48:09Z</time>
      </trkpt>
      <trkpt lat="43.19116" lon="5.76521">
        <ele>76.08</ele>
        <time>2012-07-19T09:48:15Z</time>
      </trkpt>
      <trkpt lat="43.18999" lon="5.76606">
        <ele>75.6</ele>
        <time>2012-07-19T09:48:30Z</time>
      </trkpt>
      <trkpt lat="43.18944" lon="5.76655">
        <ele>72.24</ele>
        <time>2012-07-19T09:48:37Z</time>
      </trkpt>
      <trkpt lat="43.18806" lon="5.76774">
        <ele>70.79</ele>
        <time>2012-07-19T09:48:55Z</time>
      </trkpt>
      <trkpt lat="43.18727" lon="5.76842">
        <ele>73.2</ele>
        <time>2012-07-19T09:49:09Z</time>
      </trkpt>
      <trkpt lat="43.18611" lon="5.76933">
        <ele>71.76</ele>
        <time>2012-07-19T09:49:29Z</time>
      </trkpt>
      <trkpt lat="43.18488" lon="5.76977">
        <ele>69.35</ele>
        <time>2012-07-19T09:49:46Z</time>
      </trkpt>
      <trkpt lat="43.18403" lon="5.76994">
        <ele>66.95</ele>
        <time>2012-07-19T09:49:57Z</time>
      </trkpt>
      <trkpt lat="43.18273" lon="5.77035">
        <ele>65.03</ele>
        <time>2012-07-19T09:50:14Z</time>
      </trkpt>
      <trkpt lat="43.18151" lon="5.77091">
        <ele>64.07</ele>
        <time>2012-07-19T09:50:31Z</time>
      </trkpt>
      <trkpt lat="43.1805" lon="5.77102">
        <ele>64.55</ele>
        <time>2012-07-19T09:50:45Z</time>
      </trkpt>
      <trkpt lat="43.18044" lon="5.77104">
        <ele>64.55</ele>
        <time>2012-07-19T09:50:46Z</time>
      </trkpt>
      <trkpt lat="43.18038" lon="5.77107">
        <ele>64.55</ele>
        <time>2012-07-19T09:50:47Z</time>
      </trkpt>
      <trkpt lat="43.18032" lon="5.7711">
        <ele>64.55</ele>
        <time>2012-07-19T09:50:48Z</time>
      </trkpt>
      <trkpt lat="43.18026" lon="5.77115">
        <ele>64.55</ele>
        <time>2012-07-19T09:50:49Z</time>
      </trkpt>
      <trkpt lat="43.18021" lon="5.77122">
        <ele>64.55</ele>
        <time>2012-07-19T09:50:50Z</time>
      </trkpt>
      <trkpt lat="43.18017" lon="5.7713">
        <ele>65.51</ele>
        <time>2012-07-19T09:50:51Z</time>
      </trkpt>
      <trkpt lat="43.18014" lon="5.77138">
        <ele>65.03</ele>
        <time>2012-07-19T09:50:52Z</time>
      </trkpt>
      <trkpt lat="43.18012" lon="5.77147">
        <ele>65.03</ele>
        <time>2012-07-19T09:50:53Z</time>
      </trkpt>
      <trkpt lat="43.18011" lon="5.77157">
        <ele>65.03</ele>
        <time>2012-07-19T09:50:54Z</time>
      </trkpt>
      <trkpt lat="43.1801" lon="5.77166">
        <ele>65.03</ele>
        <time>2012-07-19T09:50:55Z</time>
      </trkpt>
      <trkpt lat="43.18009" lon="5.77175">
        <ele>65.03</ele>
        <time>2012-07-19T09:50:56Z</time>
      </trkpt>
      <trkpt lat="43.18002" lon="5.77276">
        <ele>65.99</ele>
        <time>2012-07-19T09:51:07Z</time>
      </trkpt>
      <trkpt lat="43.18" lon="5.77283">
        <ele>65.99</ele>
        <time>2012-07-19T09:51:08Z</time>
      </trkpt>
      <trkpt lat="43.17997" lon="5.77291">
        <ele>66.47</ele>
        <time>2012-07-19T09:51:09Z</time>
      </trkpt>
      <trkpt lat="43.17993" lon="5.77297">
        <ele>66.95</ele>
        <time>2012-07-19T09:51:10Z</time>
      </trkpt>
      <trkpt lat="43.17988" lon="5.77303">
        <ele>67.43</ele>
        <time>2012-07-19T09:51:11Z</time>
      </trkpt>
      <trkpt lat="43.17983" lon="5.77307">
        <ele>66.95</ele>
        <time>2012-07-19T09:51:12Z</time>
      </trkpt>
      <trkpt lat="43.17978" lon="5.77311">
        <ele>67.43</ele>
        <time>2012-07-19T09:51:13Z</time>
      </trkpt>
      <trkpt lat="43.17972" lon="5.77314">
        <ele>67.43</ele>
        <time>2012-07-19T09:51:14Z</time>
      </trkpt>
      <trkpt lat="43.17966" lon="5.77316">
        <ele>67.43</ele>
        <time>2012-07-19T09:51:15Z</time>
      </trkpt>
      <trkpt lat="43.1796" lon="5.77317">
        <ele>67.43</ele>
        <time>2012-07-19T09:51:16Z</time>
      </trkpt>
      <trkpt lat="43.17954" lon="5.77318">
        <ele>67.91</ele>
        <time>2012-07-19T09:51:17Z</time>
      </trkpt>
      <trkpt lat="43.17863" lon="5.77332">
        <ele>70.31</ele>
        <time>2012-07-19T09:51:33Z</time>
      </trkpt>
      <trkpt lat="43.17857" lon="5.77331">
        <ele>70.79</ele>
        <time>2012-07-19T09:51:34Z</time>
      </trkpt>
      <trkpt lat="43.17783" lon="5.77322">
        <ele>69.83</ele>
        <time>2012-07-19T09:51:47Z</time>
      </trkpt>
      <trkpt lat="43.17777" lon="5.77323">
        <ele>69.83</ele>
        <time>2012-07-19T09:51:48Z</time>
      </trkpt>
      <trkpt lat="43.1777" lon="5.77325">
        <ele>69.83</ele>
        <time>2012-07-19T09:51:49Z</time>
      </trkpt>
      <trkpt lat="43.17763" lon="5.77325">
        <ele>69.35</ele>
        <time>2012-07-19T09:51:50Z</time>
      </trkpt>
      <trkpt lat="43.17742" lon="5.77322">
        <ele>68.39</ele>
        <time>2012-07-19T09:51:53Z</time>
      </trkpt>
      <trkpt lat="43.17735" lon="5.77318">
        <ele>67.43</ele>
        <time>2012-07-19T09:51:54Z</time>
      </trkpt>
      <trkpt lat="43.17711" lon="5.77303">
        <ele>64.55</ele>
        <time>2012-07-19T09:51:57Z</time>
      </trkpt>
      <trkpt lat="43.17684" lon="5.77287">
        <ele>61.18</ele>
        <time>2012-07-19T09:52:00Z</time>
      </trkpt>
      <trkpt lat="43.17675" lon="5.77283">
        <ele>61.18</ele>
        <time>2012-07-19T09:52:01Z</time>
      </trkpt>
      <trkpt lat="43.17649" lon="5.77271">
        <ele>60.7</ele>
        <time>2012-07-19T09:52:04Z</time>
      </trkpt>
      <trkpt lat="43.17641" lon="5.77264">
        <ele>60.22</ele>
        <time>2012-07-19T09:52:05Z</time>
      </trkpt>
      <trkpt lat="43.17618" lon="5.77246">
        <ele>59.26</ele>
        <time>2012-07-19T09:52:08Z</time>
      </trkpt>
      <trkpt lat="43.17609" lon="5.77241">
        <ele>58.3</ele>
        <time>2012-07-19T09:52:09Z</time>
      </trkpt>
      <trkpt lat="43.17601" lon="5.77238">
        <ele>57.82</ele>
        <time>2012-07-19T09:52:10Z</time>
      </trkpt>
      <trkpt lat="43.17564" lon="5.77233">
        <ele>56.37</ele>
        <time>2012-07-19T09:52:15Z</time>
      </trkpt>
      <trkpt lat="43.17557" lon="5.7723">
        <ele>55.89</ele>
        <time>2012-07-19T09:52:16Z</time>
      </trkpt>
      <trkpt lat="43.1755" lon="5.77227">
        <ele>56.37</ele>
        <time>2012-07-19T09:52:17Z</time>
      </trkpt>
      <trkpt lat="43.17543" lon="5.77222">
        <ele>55.89</ele>
        <time>2012-07-19T09:52:18Z</time>
      </trkpt>
      <trkpt lat="43.17536" lon="5.77216">
        <ele>55.89</ele>
        <time>2012-07-19T09:52:19Z</time>
      </trkpt>
      <trkpt lat="43.1753" lon="5.77209">
        <ele>55.89</ele>
        <time>2012-07-19T09:52:20Z</time>
      </trkpt>
      <trkpt lat="43.17525" lon="5.77202">
        <ele>56.37</ele>
        <time>2012-07-19T09:52:21Z</time>
      </trkpt>
      <trkpt lat="43.17519" lon="5.77195">
        <ele>55.41</ele>
        <time>2012-07-19T09:52:22Z</time>
      </trkpt>
      <trkpt lat="43.17452" lon="5.77093">
        <ele>55.89</ele>
        <time>2012-07-19T09:52:36Z</time>
      </trkpt>
      <trkpt lat="43.17447" lon="5.77087">
        <ele>55.89</ele>
        <time>2012-07-19T09:52:37Z</time>
      </trkpt>
      <trkpt lat="43.17441" lon="5.77083">
        <ele>55.89</ele>
        <time>2012-07-19T09:52:38Z</time>
      </trkpt>
      <trkpt lat="43.17436" lon="5.77079">
        <ele>55.89</ele>
        <time>2012-07-19T09:52:39Z</time>
      </trkpt>
      <trkpt lat="43.1743" lon="5.77076">
        <ele>56.37</ele>
        <time>2012-07-19T09:52:40Z</time>
      </trkpt>
      <trkpt lat="43.17423" lon="5.77074">
        <ele>56.37</ele>
        <time>2012-07-19T09:52:41Z</time>
      </trkpt>
      <trkpt lat="43.17417" lon="5.77073">
        <ele>55.89</ele>
        <time>2012-07-19T09:52:42Z</time>
      </trkpt>
      <trkpt lat="43.17324" lon="5.77071">
        <ele>57.34</ele>
        <time>2012-07-19T09:52:57Z</time>
      </trkpt>
      <trkpt lat="43.17215" lon="5.77068">
        <ele>58.78</ele>
        <time>2012-07-19T09:53:15Z</time>
      </trkpt>
      <trkpt lat="43.17192" lon="5.7707">
        <ele>59.26</ele>
        <time>2012-07-19T09:53:19Z</time>
      </trkpt>
      <trkpt lat="43.17186" lon="5.77073">
        <ele>59.26</ele>
        <time>2012-07-19T09:53:20Z</time>
      </trkpt>
      <trkpt lat="43.17109" lon="5.77132">
        <ele>55.89</ele>
        <time>2012-07-19T09:53:32Z</time>
      </trkpt>
      <trkpt lat="43.17012" lon="5.77164">
        <ele>55.41</ele>
        <time>2012-07-19T09:53:45Z</time>
      </trkpt>
      <trkpt lat="43.1691" lon="5.7716">
        <ele>56.86</ele>
        <time>2012-07-19T09:54:00Z</time>
      </trkpt>
      <trkpt lat="43.16904" lon="5.77157">
        <ele>57.34</ele>
        <time>2012-07-19T09:54:01Z</time>
      </trkpt>
      <trkpt lat="43.16898" lon="5.77154">
        <ele>56.86</ele>
        <time>2012-07-19T09:54:02Z</time>
      </trkpt>
      <trkpt lat="43.16892" lon="5.7715">
        <ele>55.89</ele>
        <time>2012-07-19T09:54:03Z</time>
      </trkpt>
      <trkpt lat="43.16886" lon="5.77145">
        <ele>56.37</ele>
        <time>2012-07-19T09:54:04Z</time>
      </trkpt>
      <trkpt lat="43.16881" lon="5.77138">
        <ele>55.89</ele>
        <time>2012-07-19T09:54:05Z</time>
      </trkpt>
      <trkpt lat="43.16876" lon="5.7713">
        <ele>54.93</ele>
        <time>2012-07-19T09:54:06Z</time>
      </trkpt>
      <trkpt lat="43.16872" lon="5.7712">
        <ele>53.97</ele>
        <time>2012-07-19T09:54:07Z</time>
      </trkpt>
      <trkpt lat="43.16865" lon="5.77098">
        <ele>53.49</ele>
        <time>2012-07-19T09:54:09Z</time>
      </trkpt>
      <trkpt lat="43.16862" lon="5.77087">
        <ele>53.49</ele>
        <time>2012-07-19T09:54:10Z</time>
      </trkpt>
      <trkpt lat="43.1686" lon="5.77075">
        <ele>52.53</ele>
        <time>2012-07-19T09:54:11Z</time>
      </trkpt>
      <trkpt lat="43.16858" lon="5.77063">
        <ele>52.05</ele>
        <time>2012-07-19T09:54:12Z</time>
      </trkpt>
      <trkpt lat="43.16849" lon="5.77017">
        <ele>51.57</ele>
        <time>2012-07-19T09:54:16Z</time>
      </trkpt>
      <trkpt lat="43.16845" lon="5.77007">
        <ele>51.09</ele>
        <time>2012-07-19T09:54:17Z</time>
      </trkpt>
      <trkpt lat="43.1684" lon="5.76997">
        <ele>52.05</ele>
        <time>2012-07-19T09:54:18Z</time>
      </trkpt>
      <trkpt lat="43.16834" lon="5.76988">
        <ele>51.09</ele>
        <time>2012-07-19T09:54:19Z</time>
      </trkpt>
      <trkpt lat="43.16827" lon="5.76979">
        <ele>51.09</ele>
        <time>2012-07-19T09:54:20Z</time>
      </trkpt>
      <trkpt lat="43.1682" lon="5.76972">
        <ele>51.09</ele>
        <time>2012-07-19T09:54:21Z</time>
      </trkpt>
      <trkpt lat="43.16813" lon="5.76964">
        <ele>50.61</ele>
        <time>2012-07-19T09:54:22Z</time>
      </trkpt>
      <trkpt lat="43.16805" lon="5.76958">
        <ele>50.13</ele>
        <time>2012-07-19T09:54:23Z</time>
      </trkpt>
      <trkpt lat="43.16789" lon="5.76945">
        <ele>49.16</ele>
        <time>2012-07-19T09:54:25Z</time>
      </trkpt>
      <trkpt lat="43.16707" lon="5.76882">
        <ele>45.8</ele>
        <time>2012-07-19T09:54:35Z</time>
      </trkpt>
      <trkpt lat="43.1664" lon="5.76839">
        <ele>43.88</ele>
        <time>2012-07-19T09:54:43Z</time>
      </trkpt>
      <trkpt lat="43.16631" lon="5.76837">
        <ele>43.88</ele>
        <time>2012-07-19T09:54:44Z</time>
      </trkpt>
      <trkpt lat="43.16586" lon="5.76829">
        <ele>41.95</ele>
        <time>2012-07-19T09:54:49Z</time>
      </trkpt>
      <trkpt lat="43.16553" lon="5.76812">
        <ele>42.92</ele>
        <time>2012-07-19T09:54:53Z</time>
      </trkpt>
      <trkpt lat="43.16546" lon="5.76806">
        <ele>42.92</ele>
        <time>2012-07-19T09:54:54Z</time>
      </trkpt>
      <trkpt lat="43.1654" lon="5.76799">
        <ele>43.4</ele>
        <time>2012-07-19T09:54:55Z</time>
      </trkpt>
      <trkpt lat="43.16534" lon="5.76792">
        <ele>42.92</ele>
        <time>2012-07-19T09:54:56Z</time>
      </trkpt>
      <trkpt lat="43.16528" lon="5.76783">
        <ele>42.92</ele>
        <time>2012-07-19T09:54:57Z</time>
      </trkpt>
      <trkpt lat="43.16523" lon="5.76775">
        <ele>42.92</ele>
        <time>2012-07-19T09:54:58Z</time>
      </trkpt>
      <trkpt lat="43.16519" lon="5.76766">
        <ele>42.92</ele>
        <time>2012-07-19T09:54:59Z</time>
      </trkpt>
      <trkpt lat="43.16515" lon="5.76757">
        <ele>43.4</ele>
        <time>2012-07-19T09:55:00Z</time>
      </trkpt>
      <trkpt lat="43.16512" lon="5.76749">
        <ele>43.4</ele>
        <time>2012-07-19T09:55:01Z</time>
      </trkpt>
      <trkpt lat="43.16509" lon="5.7674">
        <ele>43.88</ele>
        <time>2012-07-19T09:55:02Z</time>
      </trkpt>
      <trkpt lat="43.16503" lon="5.76723">
        <ele>43.88</ele>
        <time>2012-07-19T09:55:04Z</time>
      </trkpt>
      <trkpt lat="43.16495" lon="5.76682">
        <ele>44.84</ele>
        <time>2012-07-19T09:55:09Z</time>
      </trkpt>
      <trkpt lat="43.16466" lon="5.76588">
        <ele>44.84</ele>
        <time>2012-07-19T09:55:20Z</time>
      </trkpt>
      <trkpt lat="43.16391" lon="5.76491">
        <ele>41.47</ele>
        <time>2012-07-19T09:55:34Z</time>
      </trkpt>
      <trkpt lat="43.16354" lon="5.76458">
        <ele>38.59</ele>
        <time>2012-07-19T09:55:39Z</time>
      </trkpt>
      <trkpt lat="43.16346" lon="5.76452">
        <ele>38.59</ele>
        <time>2012-07-19T09:55:40Z</time>
      </trkpt>
      <trkpt lat="43.16338" lon="5.76448">
        <ele>38.59</ele>
        <time>2012-07-19T09:55:41Z</time>
      </trkpt>
      <trkpt lat="43.16329" lon="5.76444">
        <ele>38.11</ele>
        <time>2012-07-19T09:55:42Z</time>
      </trkpt>
      <trkpt lat="43.16321" lon="5.76442">
        <ele>37.63</ele>
        <time>2012-07-19T09:55:43Z</time>
      </trkpt>
      <trkpt lat="43.16312" lon="5.7644">
        <ele>38.11</ele>
        <time>2012-07-19T09:55:44Z</time>
      </trkpt>
      <trkpt lat="43.16194" lon="5.76416">
        <ele>36.19</ele>
        <time>2012-07-19T09:55:59Z</time>
      </trkpt>
      <trkpt lat="43.16078" lon="5.76373">
        <ele>36.19</ele>
        <time>2012-07-19T09:56:15Z</time>
      </trkpt>
      <trkpt lat="43.16011" lon="5.76366">
        <ele>35.71</ele>
        <time>2012-07-19T09:56:24Z</time>
      </trkpt>
      <trkpt lat="43.15981" lon="5.76376">
        <ele>36.19</ele>
        <time>2012-07-19T09:56:28Z</time>
      </trkpt>
      <trkpt lat="43.15974" lon="5.7638">
        <ele>35.71</ele>
        <time>2012-07-19T09:56:29Z</time>
      </trkpt>
      <trkpt lat="43.15968" lon="5.76385">
        <ele>35.71</ele>
        <time>2012-07-19T09:56:30Z</time>
      </trkpt>
      <trkpt lat="43.15961" lon="5.76391">
        <ele>35.71</ele>
        <time>2012-07-19T09:56:31Z</time>
      </trkpt>
      <trkpt lat="43.15955" lon="5.76397">
        <ele>35.71</ele>
        <time>2012-07-19T09:56:32Z</time>
      </trkpt>
      <trkpt lat="43.15943" lon="5.76409">
        <ele>35.71</ele>
        <time>2012-07-19T09:56:34Z</time>
      </trkpt>
      <trkpt lat="43.15938" lon="5.76417">
        <ele>35.71</ele>
        <time>2012-07-19T09:56:35Z</time>
      </trkpt>
      <trkpt lat="43.15913" lon="5.76464">
        <ele>37.63</ele>
        <time>2012-07-19T09:56:41Z</time>
      </trkpt>
      <trkpt lat="43.15893" lon="5.76501">
        <ele>36.19</ele>
        <time>2012-07-19T09:56:46Z</time>
      </trkpt>
      <trkpt lat="43.15886" lon="5.76506">
        <ele>35.71</ele>
        <time>2012-07-19T09:56:47Z</time>
      </trkpt>
      <trkpt lat="43.15879" lon="5.7651">
        <ele>35.23</ele>
        <time>2012-07-19T09:56:48Z</time>
      </trkpt>
      <trkpt lat="43.15871" lon="5.76512">
        <ele>34.74</ele>
        <time>2012-07-19T09:56:49Z</time>
      </trkpt>
      <trkpt lat="43.15863" lon="5.76513">
        <ele>33.78</ele>
        <time>2012-07-19T09:56:50Z</time>
      </trkpt>
      <trkpt lat="43.15854" lon="5.76513">
        <ele>33.3</ele>
        <time>2012-07-19T09:56:51Z</time>
      </trkpt>
      <trkpt lat="43.15818" lon="5.76513">
        <ele>31.86</ele>
        <time>2012-07-19T09:56:55Z</time>
      </trkpt>
      <trkpt lat="43.15809" lon="5.7651">
        <ele>31.38</ele>
        <time>2012-07-19T09:56:56Z</time>
      </trkpt>
      <trkpt lat="43.15801" lon="5.76507">
        <ele>30.9</ele>
        <time>2012-07-19T09:56:57Z</time>
      </trkpt>
      <trkpt lat="43.15793" lon="5.76503">
        <ele>30.42</ele>
        <time>2012-07-19T09:56:58Z</time>
      </trkpt>
      <trkpt lat="43.157" lon="5.76429">
        <ele>27.05</ele>
        <time>2012-07-19T09:57:10Z</time>
      </trkpt>
      <trkpt lat="43.15692" lon="5.76424">
        <ele>27.53</ele>
        <time>2012-07-19T09:57:11Z</time>
      </trkpt>
      <trkpt lat="43.15684" lon="5.76421">
        <ele>27.53</ele>
        <time>2012-07-19T09:57:12Z</time>
      </trkpt>
      <trkpt lat="43.15676" lon="5.76419">
        <ele>27.53</ele>
        <time>2012-07-19T09:57:13Z</time>
      </trkpt>
      <trkpt lat="43.15667" lon="5.76419">
        <ele>27.53</ele>
        <time>2012-07-19T09:57:14Z</time>
      </trkpt>
      <trkpt lat="43.15659" lon="5.76419">
        <ele>27.53</ele>
        <time>2012-07-19T09:57:15Z</time>
      </trkpt>
      <trkpt lat="43.15569" lon="5.76406">
        <ele>27.05</ele>
        <time>2012-07-19T09:57:27Z</time>
      </trkpt>
      <trkpt lat="43.15444" lon="5.76378">
        <ele>26.57</ele>
        <time>2012-07-19T09:57:45Z</time>
      </trkpt>
      <trkpt lat="43.15367" lon="5.76365">
        <ele>27.05</ele>
        <time>2012-07-19T09:57:56Z</time>
      </trkpt>
      <trkpt lat="43.15299" lon="5.7635">
        <ele>28.02</ele>
        <time>2012-07-19T09:58:07Z</time>
      </trkpt>
      <trkpt lat="43.15292" lon="5.76351">
        <ele>28.02</ele>
        <time>2012-07-19T09:58:08Z</time>
      </trkpt>
      <trkpt lat="43.15286" lon="5.76352">
        <ele>28.02</ele>
        <time>2012-07-19T09:58:09Z</time>
      </trkpt>
      <trkpt lat="43.15204" lon="5.76393">
        <ele>24.65</ele>
        <time>2012-07-19T09:58:22Z</time>
      </trkpt>
      <trkpt lat="43.15111" lon="5.76468">
        <ele>23.69</ele>
        <time>2012-07-19T09:58:37Z</time>
      </trkpt>
      <trkpt lat="43.15053" lon="5.76487">
        <ele>20.81</ele>
        <time>2012-07-19T09:58:45Z</time>
      </trkpt>
      <trkpt lat="43.15045" lon="5.76488">
        <ele>21.77</ele>
        <time>2012-07-19T09:58:46Z</time>
      </trkpt>
      <trkpt lat="43.15038" lon="5.76487">
        <ele>22.73</ele>
        <time>2012-07-19T09:58:47Z</time>
      </trkpt>
      <trkpt lat="43.1503" lon="5.76486">
        <ele>21.77</ele>
        <time>2012-07-19T09:58:48Z</time>
      </trkpt>
      <trkpt lat="43.15023" lon="5.76484">
        <ele>21.77</ele>
        <time>2012-07-19T09:58:49Z</time>
      </trkpt>
      <trkpt lat="43.1496" lon="5.76458">
        <ele>22.25</ele>
        <time>2012-07-19T09:58:59Z</time>
      </trkpt>
      <trkpt lat="43.14957" lon="5.76454">
        <ele>22.73</ele>
        <time>2012-07-19T09:59:00Z</time>
      </trkpt>
      <trkpt lat="43.14955" lon="5.7645">
        <ele>22.25</ele>
        <time>2012-07-19T09:59:01Z</time>
      </trkpt>
      <trkpt lat="43.14951" lon="5.76431">
        <ele>21.77</ele>
        <time>2012-07-19T09:59:05Z</time>
      </trkpt>
      <trkpt lat="43.14951" lon="5.76426">
        <ele>22.25</ele>
        <time>2012-07-19T09:59:06Z</time>
      </trkpt>
      <trkpt lat="43.14953" lon="5.76413">
        <ele>22.73</ele>
        <time>2012-07-19T09:59:08Z</time>
      </trkpt>
      <trkpt lat="43.14953" lon="5.76406">
        <ele>23.21</ele>
        <time>2012-07-19T09:59:09Z</time>
      </trkpt>
      <trkpt lat="43.14953" lon="5.76398">
        <ele>22.73</ele>
        <time>2012-07-19T09:59:10Z</time>
      </trkpt>
      <trkpt lat="43.14952" lon="5.7639">
        <ele>23.21</ele>
        <time>2012-07-19T09:59:11Z</time>
      </trkpt>
      <trkpt lat="43.14949" lon="5.76382">
        <ele>23.21</ele>
        <time>2012-07-19T09:59:12Z</time>
      </trkpt>
      <trkpt lat="43.14945" lon="5.76375">
        <ele>23.69</ele>
        <time>2012-07-19T09:59:13Z</time>
      </trkpt>
      <trkpt lat="43.1494" lon="5.76369">
        <ele>24.17</ele>
        <time>2012-07-19T09:59:14Z</time>
      </trkpt>
      <trkpt lat="43.14934" lon="5.76365">
        <ele>23.69</ele>
        <time>2012-07-19T09:59:15Z</time>
      </trkpt>
      <trkpt lat="43.14928" lon="5.76364">
        <ele>23.69</ele>
        <time>2012-07-19T09:59:16Z</time>
      </trkpt>
      <trkpt lat="43.14921" lon="5.76364">
        <ele>23.69</ele>
        <time>2012-07-19T09:59:17Z</time>
      </trkpt>
      <trkpt lat="43.14915" lon="5.76366">
        <ele>23.69</ele>
        <time>2012-07-19T09:59:18Z</time>
      </trkpt>
      <trkpt lat="43.14909" lon="5.76369">
        <ele>23.21</ele>
        <time>2012-07-19T09:59:19Z</time>
      </trkpt>
      <trkpt lat="43.14904" lon="5.76374">
        <ele>22.73</ele>
        <time>2012-07-19T09:59:20Z</time>
      </trkpt>
      <trkpt lat="43.149" lon="5.76381">
        <ele>22.73</ele>
        <time>2012-07-19T09:59:21Z</time>
      </trkpt>
      <trkpt lat="43.14896" lon="5.7639">
        <ele>23.21</ele>
        <time>2012-07-19T09:59:22Z</time>
      </trkpt>
      <trkpt lat="43.14894" lon="5.76399">
        <ele>22.73</ele>
        <time>2012-07-19T09:59:23Z</time>
      </trkpt>
      <trkpt lat="43.14893" lon="5.76409">
        <ele>22.25</ele>
        <time>2012-07-19T09:59:24Z</time>
      </trkpt>
      <trkpt lat="43.14891" lon="5.76418">
        <ele>21.77</ele>
        <time>2012-07-19T09:59:25Z</time>
      </trkpt>
      <trkpt lat="43.14889" lon="5.76428">
        <ele>21.29</ele>
        <time>2012-07-19T09:59:26Z</time>
      </trkpt>
      <trkpt lat="43.14885" lon="5.76437">
        <ele>21.29</ele>
        <time>2012-07-19T09:59:27Z</time>
      </trkpt>
      <trkpt lat="43.14879" lon="5.76444">
        <ele>20.81</ele>
        <time>2012-07-19T09:59:28Z</time>
      </trkpt>
      <trkpt lat="43.14872" lon="5.76448">
        <ele>20.32</ele>
        <time>2012-07-19T09:59:29Z</time>
      </trkpt>
      <trkpt lat="43.14864" lon="5.76451">
        <ele>20.32</ele>
        <time>2012-07-19T09:59:30Z</time>
      </trkpt>
      <trkpt lat="43.14856" lon="5.76452">
        <ele>19.84</ele>
        <time>2012-07-19T09:59:31Z</time>
      </trkpt>
      <trkpt lat="43.14848" lon="5.76452">
        <ele>20.32</ele>
        <time>2012-07-19T09:59:32Z</time>
      </trkpt>
      <trkpt lat="43.14751" lon="5.76479">
        <ele>19.36</ele>
        <time>2012-07-19T09:59:45Z</time>
      </trkpt>
      <trkpt lat="43.14633" lon="5.76564">
        <ele>18.4</ele>
        <time>2012-07-19T10:00:03Z</time>
      </trkpt>
      <trkpt lat="43.14607" lon="5.76608">
        <ele>17.92</ele>
        <time>2012-07-19T10:00:09Z</time>
      </trkpt>
      <trkpt lat="43.14603" lon="5.76617">
        <ele>18.4</ele>
        <time>2012-07-19T10:00:10Z</time>
      </trkpt>
      <trkpt lat="43.14601" lon="5.76626">
        <ele>18.4</ele>
        <time>2012-07-19T10:00:11Z</time>
      </trkpt>
      <trkpt lat="43.14575" lon="5.76719">
        <ele>16</ele>
        <time>2012-07-19T10:00:21Z</time>
      </trkpt>
      <trkpt lat="43.14572" lon="5.76728">
        <ele>16.48</ele>
        <time>2012-07-19T10:00:22Z</time>
      </trkpt>
      <trkpt lat="43.14568" lon="5.76736">
        <ele>16.48</ele>
        <time>2012-07-19T10:00:23Z</time>
      </trkpt>
      <trkpt lat="43.14563" lon="5.76744">
        <ele>16.96</ele>
        <time>2012-07-19T10:00:24Z</time>
      </trkpt>
      <trkpt lat="43.14558" lon="5.76751">
        <ele>16.48</ele>
        <time>2012-07-19T10:00:25Z</time>
      </trkpt>
      <trkpt lat="43.14553" lon="5.76758">
        <ele>16</ele>
        <time>2012-07-19T10:00:26Z</time>
      </trkpt>
      <trkpt lat="43.14548" lon="5.76764">
        <ele>16</ele>
        <time>2012-07-19T10:00:27Z</time>
      </trkpt>
      <trkpt lat="43.14543" lon="5.7677">
        <ele>16</ele>
        <time>2012-07-19T10:00:28Z</time>
      </trkpt>
      <trkpt lat="43.14537" lon="5.76774">
        <ele>15.52</ele>
        <time>2012-07-19T10:00:29Z</time>
      </trkpt>
      <trkpt lat="43.14531" lon="5.76778">
        <ele>15.52</ele>
        <time>2012-07-19T10:00:30Z</time>
      </trkpt>
      <trkpt lat="43.14524" lon="5.7678">
        <ele>15.04</ele>
        <time>2012-07-19T10:00:31Z</time>
      </trkpt>
      <trkpt lat="43.14518" lon="5.76782">
        <ele>15.04</ele>
        <time>2012-07-19T10:00:32Z</time>
      </trkpt>
      <trkpt lat="43.14511" lon="5.76784">
        <ele>15.52</ele>
        <time>2012-07-19T10:00:33Z</time>
      </trkpt>
      <trkpt lat="43.14497" lon="5.76787">
        <ele>15.04</ele>
        <time>2012-07-19T10:00:35Z</time>
      </trkpt>
      <trkpt lat="43.1449" lon="5.76786">
        <ele>14.56</ele>
        <time>2012-07-19T10:00:36Z</time>
      </trkpt>
      <trkpt lat="43.14369" lon="5.7677">
        <ele>13.12</ele>
        <time>2012-07-19T10:00:53Z</time>
      </trkpt>
      <trkpt lat="43.143" lon="5.76777">
        <ele>13.12</ele>
        <time>2012-07-19T10:01:03Z</time>
      </trkpt>
      <trkpt lat="43.14251" lon="5.76804">
        <ele>13.12</ele>
        <time>2012-07-19T10:01:11Z</time>
      </trkpt>
      <trkpt lat="43.14245" lon="5.76804">
        <ele>13.6</ele>
        <time>2012-07-19T10:01:12Z</time>
      </trkpt>
      <trkpt lat="43.14232" lon="5.76804">
        <ele>13.6</ele>
        <time>2012-07-19T10:01:14Z</time>
      </trkpt>
      <trkpt lat="43.14226" lon="5.76805">
        <ele>13.6</ele>
        <time>2012-07-19T10:01:15Z</time>
      </trkpt>
      <trkpt lat="43.1422" lon="5.76807">
        <ele>13.6</ele>
        <time>2012-07-19T10:01:16Z</time>
      </trkpt>
      <trkpt lat="43.14214" lon="5.76811">
        <ele>13.6</ele>
        <time>2012-07-19T10:01:17Z</time>
      </trkpt>
      <trkpt lat="43.14209" lon="5.76817">
        <ele>13.6</ele>
        <time>2012-07-19T10:01:18Z</time>
      </trkpt>
      <trkpt lat="43.14205" lon="5.76823">
        <ele>13.6</ele>
        <time>2012-07-19T10:01:19Z</time>
      </trkpt>
      <trkpt lat="43.14202" lon="5.76831">
        <ele>13.12</ele>
        <time>2012-07-19T10:01:20Z</time>
      </trkpt>
      <trkpt lat="43.14201" lon="5.76841">
        <ele>13.12</ele>
        <time>2012-07-19T10:01:21Z</time>
      </trkpt>
      <trkpt lat="43.14202" lon="5.7685">
        <ele>13.12</ele>
        <time>2012-07-19T10:01:22Z</time>
      </trkpt>
      <trkpt lat="43.14203" lon="5.76859">
        <ele>13.12</ele>
        <time>2012-07-19T10:01:23Z</time>
      </trkpt>
      <trkpt lat="43.14204" lon="5.76869">
        <ele>12.63</ele>
        <time>2012-07-19T10:01:24Z</time>
      </trkpt>
      <trkpt lat="43.14204" lon="5.76878">
        <ele>12.63</ele>
        <time>2012-07-19T10:01:25Z</time>
      </trkpt>
      <trkpt lat="43.14203" lon="5.76887">
        <ele>12.63</ele>
        <time>2012-07-19T10:01:26Z</time>
      </trkpt>
      <trkpt lat="43.142" lon="5.76896">
        <ele>11.67</ele>
        <time>2012-07-19T10:01:27Z</time>
      </trkpt>
      <trkpt lat="43.14148" lon="5.77042">
        <ele>10.71</ele>
        <time>2012-07-19T10:01:44Z</time>
      </trkpt>
      <trkpt lat="43.14105" lon="5.77129">
        <ele>9.75</ele>
        <time>2012-07-19T10:01:56Z</time>
      </trkpt>
      <trkpt lat="43.14099" lon="5.77135">
        <ele>9.75</ele>
        <time>2012-07-19T10:01:57Z</time>
      </trkpt>
      <trkpt lat="43.14093" lon="5.77139">
        <ele>9.27</ele>
        <time>2012-07-19T10:01:58Z</time>
      </trkpt>
      <trkpt lat="43.14086" lon="5.77143">
        <ele>9.75</ele>
        <time>2012-07-19T10:01:59Z</time>
      </trkpt>
      <trkpt lat="43.1408" lon="5.77146">
        <ele>9.75</ele>
        <time>2012-07-19T10:02:00Z</time>
      </trkpt>
      <trkpt lat="43.14073" lon="5.77147">
        <ele>8.31</ele>
        <time>2012-07-19T10:02:01Z</time>
      </trkpt>
      <trkpt lat="43.14066" lon="5.77148">
        <ele>9.27</ele>
        <time>2012-07-19T10:02:02Z</time>
      </trkpt>
      <trkpt lat="43.14059" lon="5.77147">
        <ele>9.27</ele>
        <time>2012-07-19T10:02:03Z</time>
      </trkpt>
      <trkpt lat="43.14052" lon="5.77145">
        <ele>8.79</ele>
        <time>2012-07-19T10:02:04Z</time>
      </trkpt>
      <trkpt lat="43.14045" lon="5.77143">
        <ele>9.27</ele>
        <time>2012-07-19T10:02:05Z</time>
      </trkpt>
      <trkpt lat="43.14039" lon="5.7714">
        <ele>9.27</ele>
        <time>2012-07-19T10:02:06Z</time>
      </trkpt>
      <trkpt lat="43.14033" lon="5.77135">
        <ele>9.27</ele>
        <time>2012-07-19T10:02:07Z</time>
      </trkpt>
      <trkpt lat="43.1398" lon="5.77034">
        <ele>8.79</ele>
        <time>2012-07-19T10:02:20Z</time>
      </trkpt>
      <trkpt lat="43.1396" lon="5.76977">
        <ele>8.31</ele>
        <time>2012-07-19T10:02:27Z</time>
      </trkpt>
      <trkpt lat="43.13957" lon="5.76972">
        <ele>8.79</ele>
        <time>2012-07-19T10:02:28Z</time>
      </trkpt>
      <trkpt lat="43.13953" lon="5.76967">
        <ele>8.79</ele>
        <time>2012-07-19T10:02:29Z</time>
      </trkpt>
      <trkpt lat="43.1395" lon="5.76966">
        <ele>9.27</ele>
        <time>2012-07-19T10:02:30Z</time>
      </trkpt>
      <trkpt lat="43.13947" lon="5.76966">
        <ele>9.75</ele>
        <time>2012-07-19T10:02:31Z</time>
      </trkpt>
      <trkpt lat="43.13944" lon="5.76967">
        <ele>9.75</ele>
        <time>2012-07-19T10:02:32Z</time>
      </trkpt>
      <trkpt lat="43.13941" lon="5.7697">
        <ele>9.75</ele>
        <time>2012-07-19T10:02:33Z</time>
      </trkpt>
      <trkpt lat="43.13937" lon="5.76975">
        <ele>9.27</ele>
        <time>2012-07-19T10:02:34Z</time>
      </trkpt>
      <trkpt lat="43.13934" lon="5.7698">
        <ele>9.75</ele>
        <time>2012-07-19T10:02:35Z</time>
      </trkpt>
      <trkpt lat="43.13932" lon="5.76986">
        <ele>9.27</ele>
        <time>2012-07-19T10:02:36Z</time>
      </trkpt>
      <trkpt lat="43.1393" lon="5.76993">
        <ele>9.75</ele>
        <time>2012-07-19T10:02:37Z</time>
      </trkpt>
      <trkpt lat="43.13906" lon="5.77105">
        <ele>8.31</ele>
        <time>2012-07-19T10:02:53Z</time>
      </trkpt>
      <trkpt lat="43.13906" lon="5.7711">
        <ele>8.79</ele>
        <time>2012-07-19T10:02:54Z</time>
      </trkpt>
      <trkpt lat="43.13905" lon="5.77115">
        <ele>8.31</ele>
        <time>2012-07-19T10:02:55Z</time>
      </trkpt>
      <trkpt lat="43.13894" lon="5.77151">
        <ele>7.35</ele>
        <time>2012-07-19T10:03:01Z</time>
      </trkpt>
      <trkpt lat="43.13889" lon="5.77164">
        <ele>7.35</ele>
        <time>2012-07-19T10:03:03Z</time>
      </trkpt>
      <trkpt lat="43.13887" lon="5.77172">
        <ele>7.83</ele>
        <time>2012-07-19T10:03:04Z</time>
      </trkpt>
      <trkpt lat="43.13854" lon="5.77292">
        <ele>7.35</ele>
        <time>2012-07-19T10:03:20Z</time>
      </trkpt>
      <trkpt lat="43.13816" lon="5.77402">
        <ele>8.31</ele>
        <time>2012-07-19T10:03:35Z</time>
      </trkpt>
      <trkpt lat="43.13763" lon="5.77525">
        <ele>8.31</ele>
        <time>2012-07-19T10:03:52Z</time>
      </trkpt>
      <trkpt lat="43.137" lon="5.77638">
        <ele>10.71</ele>
        <time>2012-07-19T10:04:09Z</time>
      </trkpt>
      <trkpt lat="43.13645" lon="5.77715">
        <ele>13.6</ele>
        <time>2012-07-19T10:04:23Z</time>
      </trkpt>
      <trkpt lat="43.13576" lon="5.77801">
        <ele>16</ele>
        <time>2012-07-19T10:04:40Z</time>
      </trkpt>
      <trkpt lat="43.13562" lon="5.77821">
        <ele>16.48</ele>
        <time>2012-07-19T10:04:44Z</time>
      </trkpt>
      <trkpt lat="43.13505" lon="5.77899">
        <ele>17.44</ele>
        <time>2012-07-19T10:04:59Z</time>
      </trkpt>
      <trkpt lat="43.13437" lon="5.77953">
        <ele>20.81</ele>
        <time>2012-07-19T10:05:14Z</time>
      </trkpt>
      <trkpt lat="43.13377" lon="5.78003">
        <ele>23.69</ele>
        <time>2012-07-19T10:05:28Z</time>
      </trkpt>
      <trkpt lat="43.13368" lon="5.78009">
        <ele>24.17</ele>
        <time>2012-07-19T10:05:30Z</time>
      </trkpt>
      <trkpt lat="43.13281" lon="5.78045">
        <ele>27.05</ele>
        <time>2012-07-19T10:05:48Z</time>
      </trkpt>
      <trkpt lat="43.13209" lon="5.78085">
        <ele>29.46</ele>
        <time>2012-07-19T10:06:03Z</time>
      </trkpt>
      <trkpt lat="43.13118" lon="5.78143">
        <ele>28.5</ele>
        <time>2012-07-19T10:06:20Z</time>
      </trkpt>
      <trkpt lat="43.13022" lon="5.78235">
        <ele>25.61</ele>
        <time>2012-07-19T10:06:36Z</time>
      </trkpt>
      <trkpt lat="43.12914" lon="5.78337">
        <ele>25.13</ele>
        <time>2012-07-19T10:06:54Z</time>
      </trkpt>
      <trkpt lat="43.12855" lon="5.78393">
        <ele>28.5</ele>
        <time>2012-07-19T10:07:06Z</time>
      </trkpt>
      <trkpt lat="43.12802" lon="5.78446">
        <ele>30.9</ele>
        <time>2012-07-19T10:07:18Z</time>
      </trkpt>
      <trkpt lat="43.12744" lon="5.78522">
        <ele>32.82</ele>
        <time>2012-07-19T10:07:33Z</time>
      </trkpt>
      <trkpt lat="43.12695" lon="5.78643">
        <ele>33.3</ele>
        <time>2012-07-19T10:07:50Z</time>
      </trkpt>
      <trkpt lat="43.12656" lon="5.78743">
        <ele>36.19</ele>
        <time>2012-07-19T10:08:05Z</time>
      </trkpt>
      <trkpt lat="43.12632" lon="5.78782">
        <ele>37.63</ele>
        <time>2012-07-19T10:08:12Z</time>
      </trkpt>
      <trkpt lat="43.1262" lon="5.78796">
        <ele>38.11</ele>
        <time>2012-07-19T10:08:15Z</time>
      </trkpt>
      <trkpt lat="43.12557" lon="5.78841">
        <ele>40.99</ele>
        <time>2012-07-19T10:08:29Z</time>
      </trkpt>
      <trkpt lat="43.12552" lon="5.78844">
        <ele>40.51</ele>
        <time>2012-07-19T10:08:30Z</time>
      </trkpt>
      <trkpt lat="43.12533" lon="5.78854">
        <ele>40.99</ele>
        <time>2012-07-19T10:08:34Z</time>
      </trkpt>
      <trkpt lat="43.12504" lon="5.78874">
        <ele>41.95</ele>
        <time>2012-07-19T10:08:40Z</time>
      </trkpt>
      <trkpt lat="43.12484" lon="5.78898">
        <ele>42.44</ele>
        <time>2012-07-19T10:08:45Z</time>
      </trkpt>
      <trkpt lat="43.12475" lon="5.78915">
        <ele>42.92</ele>
        <time>2012-07-19T10:08:48Z</time>
      </trkpt>
      <trkpt lat="43.12472" lon="5.78921">
        <ele>42.92</ele>
        <time>2012-07-19T10:08:49Z</time>
      </trkpt>
      <trkpt lat="43.12443" lon="5.79001">
        <ele>44.36</ele>
        <time>2012-07-19T10:09:02Z</time>
      </trkpt>
      <trkpt lat="43.12433" lon="5.79027">
        <ele>44.84</ele>
        <time>2012-07-19T10:09:07Z</time>
      </trkpt>
      <trkpt lat="43.12404" lon="5.7911">
        <ele>46.76</ele>
        <time>2012-07-19T10:09:23Z</time>
      </trkpt>
      <trkpt lat="43.12389" lon="5.79153">
        <ele>48.2</ele>
        <time>2012-07-19T10:09:32Z</time>
      </trkpt>
      <trkpt lat="43.12384" lon="5.79165">
        <ele>48.68</ele>
        <time>2012-07-19T10:09:34Z</time>
      </trkpt>
      <trkpt lat="43.1238" lon="5.7917">
        <ele>49.16</ele>
        <time>2012-07-19T10:09:35Z</time>
      </trkpt>
      <trkpt lat="43.12377" lon="5.79175">
        <ele>49.16</ele>
        <time>2012-07-19T10:09:36Z</time>
      </trkpt>
      <trkpt lat="43.12374" lon="5.7918">
        <ele>49.65</ele>
        <time>2012-07-19T10:09:37Z</time>
      </trkpt>
      <trkpt lat="43.12371" lon="5.79185">
        <ele>49.65</ele>
        <time>2012-07-19T10:09:38Z</time>
      </trkpt>
      <trkpt lat="43.12356" lon="5.79213">
        <ele>51.09</ele>
        <time>2012-07-19T10:09:43Z</time>
      </trkpt>
      <trkpt lat="43.12353" lon="5.79219">
        <ele>51.57</ele>
        <time>2012-07-19T10:09:44Z</time>
      </trkpt>
      <trkpt lat="43.12351" lon="5.79224">
        <ele>51.57</ele>
        <time>2012-07-19T10:09:45Z</time>
      </trkpt>
      <trkpt lat="43.12302" lon="5.79283">
        <ele>53.49</ele>
        <time>2012-07-19T10:09:58Z</time>
      </trkpt>
      <trkpt lat="43.12287" lon="5.79296">
        <ele>53.01</ele>
        <time>2012-07-19T10:10:01Z</time>
      </trkpt>
      <trkpt lat="43.12248" lon="5.79346">
        <ele>50.13</ele>
        <time>2012-07-19T10:10:09Z</time>
      </trkpt>
      <trkpt lat="43.12241" lon="5.79363">
        <ele>49.65</ele>
        <time>2012-07-19T10:10:11Z</time>
      </trkpt>
      <trkpt lat="43.12238" lon="5.79373">
        <ele>49.16</ele>
        <time>2012-07-19T10:10:12Z</time>
      </trkpt>
      <trkpt lat="43.12236" lon="5.79383">
        <ele>49.16</ele>
        <time>2012-07-19T10:10:13Z</time>
      </trkpt>
      <trkpt lat="43.12235" lon="5.79394">
        <ele>48.68</ele>
        <time>2012-07-19T10:10:14Z</time>
      </trkpt>
      <trkpt lat="43.12234" lon="5.79405">
        <ele>48.2</ele>
        <time>2012-07-19T10:10:15Z</time>
      </trkpt>
      <trkpt lat="43.1223" lon="5.79477">
        <ele>45.32</ele>
        <time>2012-07-19T10:10:21Z</time>
      </trkpt>
      <trkpt lat="43.12224" lon="5.79527">
        <ele>43.4</ele>
        <time>2012-07-19T10:10:25Z</time>
      </trkpt>
      <trkpt lat="43.1222" lon="5.7954">
        <ele>42.44</ele>
        <time>2012-07-19T10:10:26Z</time>
      </trkpt>
      <trkpt lat="43.12215" lon="5.79551">
        <ele>41.95</ele>
        <time>2012-07-19T10:10:27Z</time>
      </trkpt>
      <trkpt lat="43.1221" lon="5.79562">
        <ele>41.95</ele>
        <time>2012-07-19T10:10:28Z</time>
      </trkpt>
      <trkpt lat="43.12204" lon="5.79572">
        <ele>41.47</ele>
        <time>2012-07-19T10:10:29Z</time>
      </trkpt>
      <trkpt lat="43.12198" lon="5.79582">
        <ele>40.51</ele>
        <time>2012-07-19T10:10:30Z</time>
      </trkpt>
      <trkpt lat="43.12167" lon="5.79633">
        <ele>39.55</ele>
        <time>2012-07-19T10:10:35Z</time>
      </trkpt>
      <trkpt lat="43.12163" lon="5.79644">
        <ele>38.59</ele>
        <time>2012-07-19T10:10:36Z</time>
      </trkpt>
      <trkpt lat="43.1216" lon="5.79656">
        <ele>38.59</ele>
        <time>2012-07-19T10:10:37Z</time>
      </trkpt>
      <trkpt lat="43.12159" lon="5.79669">
        <ele>38.11</ele>
        <time>2012-07-19T10:10:38Z</time>
      </trkpt>
      <trkpt lat="43.12158" lon="5.79679">
        <ele>38.59</ele>
        <time>2012-07-19T10:10:39Z</time>
      </trkpt>
      <trkpt lat="43.12155" lon="5.79689">
        <ele>38.59</ele>
        <time>2012-07-19T10:10:40Z</time>
      </trkpt>
      <trkpt lat="43.12151" lon="5.79697">
        <ele>37.63</ele>
        <time>2012-07-19T10:10:41Z</time>
      </trkpt>
      <trkpt lat="43.12145" lon="5.79703">
        <ele>37.15</ele>
        <time>2012-07-19T10:10:42Z</time>
      </trkpt>
      <trkpt lat="43.12138" lon="5.79705">
        <ele>37.15</ele>
        <time>2012-07-19T10:10:43Z</time>
      </trkpt>
      <trkpt lat="43.12132" lon="5.79701">
        <ele>36.19</ele>
        <time>2012-07-19T10:10:44Z</time>
      </trkpt>
      <trkpt lat="43.12128" lon="5.79692">
        <ele>35.71</ele>
        <time>2012-07-19T10:10:45Z</time>
      </trkpt>
      <trkpt lat="43.12126" lon="5.79681">
        <ele>35.23</ele>
        <time>2012-07-19T10:10:46Z</time>
      </trkpt>
      <trkpt lat="43.12125" lon="5.79669">
        <ele>34.74</ele>
        <time>2012-07-19T10:10:47Z</time>
      </trkpt>
      <trkpt lat="43.12123" lon="5.79634">
        <ele>32.82</ele>
        <time>2012-07-19T10:10:50Z</time>
      </trkpt>
      <trkpt lat="43.12119" lon="5.7956">
        <ele>29.94</ele>
        <time>2012-07-19T10:10:56Z</time>
      </trkpt>
      <trkpt lat="43.12118" lon="5.79547">
        <ele>29.46</ele>
        <time>2012-07-19T10:10:57Z</time>
      </trkpt>
      <trkpt lat="43.12116" lon="5.79535">
        <ele>28.98</ele>
        <time>2012-07-19T10:10:58Z</time>
      </trkpt>
      <trkpt lat="43.12112" lon="5.79524">
        <ele>28.98</ele>
        <time>2012-07-19T10:10:59Z</time>
      </trkpt>
      <trkpt lat="43.12106" lon="5.79514">
        <ele>28.5</ele>
        <time>2012-07-19T10:11:00Z</time>
      </trkpt>
      <trkpt lat="43.12099" lon="5.79506">
        <ele>27.05</ele>
        <time>2012-07-19T10:11:01Z</time>
      </trkpt>
      <trkpt lat="43.1209" lon="5.79501">
        <ele>27.05</ele>
        <time>2012-07-19T10:11:02Z</time>
      </trkpt>
      <trkpt lat="43.12081" lon="5.795">
        <ele>26.57</ele>
        <time>2012-07-19T10:11:03Z</time>
      </trkpt>
      <trkpt lat="43.12072" lon="5.79502">
        <ele>26.57</ele>
        <time>2012-07-19T10:11:04Z</time>
      </trkpt>
      <trkpt lat="43.12063" lon="5.79508">
        <ele>26.09</ele>
        <time>2012-07-19T10:11:05Z</time>
      </trkpt>
      <trkpt lat="43.12056" lon="5.79516">
        <ele>25.61</ele>
        <time>2012-07-19T10:11:06Z</time>
      </trkpt>
      <trkpt lat="43.1205" lon="5.79526">
        <ele>24.65</ele>
        <time>2012-07-19T10:11:07Z</time>
      </trkpt>
      <trkpt lat="43.12044" lon="5.79538">
        <ele>24.65</ele>
        <time>2012-07-19T10:11:08Z</time>
      </trkpt>
      <trkpt lat="43.12039" lon="5.7955">
        <ele>23.69</ele>
        <time>2012-07-19T10:11:09Z</time>
      </trkpt>
      <trkpt lat="43.12029" lon="5.79575">
        <ele>22.73</ele>
        <time>2012-07-19T10:11:11Z</time>
      </trkpt>
      <trkpt lat="43.12022" lon="5.79587">
        <ele>21.77</ele>
        <time>2012-07-19T10:11:12Z</time>
      </trkpt>
      <trkpt lat="43.12014" lon="5.79597">
        <ele>20.81</ele>
        <time>2012-07-19T10:11:13Z</time>
      </trkpt>
      <trkpt lat="43.12005" lon="5.79606">
        <ele>19.84</ele>
        <time>2012-07-19T10:11:14Z</time>
      </trkpt>
      <trkpt lat="43.11995" lon="5.79613">
        <ele>19.36</ele>
        <time>2012-07-19T10:11:15Z</time>
      </trkpt>
      <trkpt lat="43.11985" lon="5.7962">
        <ele>18.88</ele>
        <time>2012-07-19T10:11:16Z</time>
      </trkpt>
      <trkpt lat="43.11975" lon="5.79626">
        <ele>18.4</ele>
        <time>2012-07-19T10:11:17Z</time>
      </trkpt>
      <trkpt lat="43.11965" lon="5.79632">
        <ele>17.92</ele>
        <time>2012-07-19T10:11:18Z</time>
      </trkpt>
      <trkpt lat="43.11914" lon="5.79663">
        <ele>14.56</ele>
        <time>2012-07-19T10:11:23Z</time>
      </trkpt>
      <trkpt lat="43.11866" lon="5.79688">
        <ele>12.63</ele>
        <time>2012-07-19T10:11:29Z</time>
      </trkpt>
      <trkpt lat="43.11791" lon="5.79735">
        <ele>9.27</ele>
        <time>2012-07-19T10:11:38Z</time>
      </trkpt>
      <trkpt lat="43.11759" lon="5.79752">
        <ele>8.79</ele>
        <time>2012-07-19T10:11:42Z</time>
      </trkpt>
      <trkpt lat="43.1175" lon="5.79754">
        <ele>9.27</ele>
        <time>2012-07-19T10:11:43Z</time>
      </trkpt>
      <trkpt lat="43.11743" lon="5.79753">
        <ele>9.27</ele>
        <time>2012-07-19T10:11:44Z</time>
      </trkpt>
      <trkpt lat="43.11736" lon="5.79753">
        <ele>9.75</ele>
        <time>2012-07-19T10:11:45Z</time>
      </trkpt>
      <trkpt lat="43.1173" lon="5.79757">
        <ele>9.75</ele>
        <time>2012-07-19T10:11:46Z</time>
      </trkpt>
      <trkpt lat="43.11727" lon="5.79764">
        <ele>9.75</ele>
        <time>2012-07-19T10:11:47Z</time>
      </trkpt>
      <trkpt lat="43.11726" lon="5.79773">
        <ele>9.75</ele>
        <time>2012-07-19T10:11:48Z</time>
      </trkpt>
      <trkpt lat="43.11728" lon="5.79782">
        <ele>9.27</ele>
        <time>2012-07-19T10:11:49Z</time>
      </trkpt>
      <trkpt lat="43.11729" lon="5.79792">
        <ele>8.79</ele>
        <time>2012-07-19T10:11:50Z</time>
      </trkpt>
      <trkpt lat="43.1173" lon="5.79802">
        <ele>8.79</ele>
        <time>2012-07-19T10:11:51Z</time>
      </trkpt>
      <trkpt lat="43.11735" lon="5.79874">
        <ele>7.83</ele>
        <time>2012-07-19T10:11:59Z</time>
      </trkpt>
      <trkpt lat="43.11736" lon="5.79882">
        <ele>8.31</ele>
        <time>2012-07-19T10:12:00Z</time>
      </trkpt>
      <trkpt lat="43.11737" lon="5.79889">
        <ele>7.83</ele>
        <time>2012-07-19T10:12:01Z</time>
      </trkpt>
      <trkpt lat="43.11745" lon="5.79933">
        <ele>6.87</ele>
        <time>2012-07-19T10:12:07Z</time>
      </trkpt>
      <trkpt lat="43.11762" lon="5.79989">
        <ele>6.87</ele>
        <time>2012-07-19T10:12:18Z</time>
      </trkpt>
      <trkpt lat="43.11769" lon="5.80014">
        <ele>6.39</ele>
        <time>2012-07-19T10:12:23Z</time>
      </trkpt>
      <trkpt lat="43.11771" lon="5.8002">
        <ele>5.91</ele>
        <time>2012-07-19T10:12:24Z</time>
      </trkpt>
      <trkpt lat="43.11773" lon="5.80026">
        <ele>5.42</ele>
        <time>2012-07-19T10:12:25Z</time>
      </trkpt>
      <trkpt lat="43.11778" lon="5.80039">
        <ele>5.42</ele>
        <time>2012-07-19T10:12:27Z</time>
      </trkpt>
      <trkpt lat="43.11781" lon="5.8007">
        <ele>5.42</ele>
        <time>2012-07-19T10:12:34Z</time>
      </trkpt>
      <trkpt lat="43.1178" lon="5.80075">
        <ele>4.94</ele>
        <time>2012-07-19T10:12:35Z</time>
      </trkpt>
      <trkpt lat="43.11779" lon="5.80081">
        <ele>5.42</ele>
        <time>2012-07-19T10:12:36Z</time>
      </trkpt>
      <trkpt lat="43.11779" lon="5.80088">
        <ele>4.94</ele>
        <time>2012-07-19T10:12:37Z</time>
      </trkpt>
      <trkpt lat="43.11778" lon="5.80095">
        <ele>4.94</ele>
        <time>2012-07-19T10:12:38Z</time>
      </trkpt>
      <trkpt lat="43.11777" lon="5.80151">
        <ele>4.94</ele>
        <time>2012-07-19T10:12:47Z</time>
      </trkpt>
      <trkpt lat="43.10539" lon="5.82377">
        <ele>22.25</ele>
        <time>2012-07-19T10:29:37Z</time>
      </trkpt>
      <trkpt lat="43.10538" lon="5.82381">
        <ele>23.21</ele>
        <time>2012-07-19T10:29:39Z</time>
      </trkpt>
      <trkpt lat="43.10543" lon="5.82409">
        <ele>21.77</ele>
        <time>2012-07-19T10:30:04Z</time>
      </trkpt>
      <trkpt lat="43.1054" lon="5.82409">
        <ele>22.73</ele>
        <time>2012-07-19T10:30:23Z</time>
      </trkpt>
      <trkpt lat="43.10534" lon="5.82405">
        <ele>22.25</ele>
        <time>2012-07-19T10:30:42Z</time>
      </trkpt>
    </trkseg>
  </trk>
</gpx>